<?xml version="1.0" encoding="UTF-8" standalone="no" ?>
<gpx xmlns="http://www.topografix.com/GPX/1/1" xmlns:xsi="http://www.w3.org/2001/XMLSchema-instance" xsi:schemaLocation="http://www.topografix.com/GPX/1/1 http://www.topografix.com/GPX/1/1/gpx.xsd" version="1.1" creator="VisuGPX - https://www.visugpx.com">
  <metadata>
    <name>Rando des sangliers</name>
    <desc><![CDATA[Rando VTT organisée par le vélo club de VALDAHON]]></desc>
  </metadata>
  <trk>
    <name><![CDATA[2014-05-04-01]]></name>
    <trkseg>
      <trkpt lat="47.15112" lon="6.34975">
        <ele>658.2</ele>
        <time>2014-05-04T06:32:28Z</time>
      </trkpt>
      <trkpt lat="47.15111" lon="6.34976">
        <ele>653.6</ele>
        <time>2014-05-04T06:32:29Z</time>
      </trkpt>
      <trkpt lat="47.15178" lon="6.35132">
        <ele>639</ele>
        <time>2014-05-04T06:33:07Z</time>
      </trkpt>
      <trkpt lat="47.15231" lon="6.35243">
        <ele>639.6</ele>
        <time>2014-05-04T06:33:12Z</time>
      </trkpt>
      <trkpt lat="47.15236" lon="6.35255">
        <ele>640.6</ele>
        <time>2014-05-04T06:34:08Z</time>
      </trkpt>
      <trkpt lat="47.15233" lon="6.35242">
        <ele>640.8</ele>
        <time>2014-05-04T06:34:26Z</time>
      </trkpt>
      <trkpt lat="47.15223" lon="6.35239">
        <ele>640.6</ele>
        <time>2014-05-04T06:34:30Z</time>
      </trkpt>
      <trkpt lat="47.15221" lon="6.35226">
        <ele>641</ele>
        <time>2014-05-04T06:34:34Z</time>
      </trkpt>
      <trkpt lat="47.15224" lon="6.3521">
        <ele>640.9</ele>
        <time>2014-05-04T06:34:38Z</time>
      </trkpt>
      <trkpt lat="47.15219" lon="6.352">
        <ele>640.3</ele>
        <time>2014-05-04T06:34:41Z</time>
      </trkpt>
      <trkpt lat="47.15211" lon="6.35192">
        <ele>639.6</ele>
        <time>2014-05-04T06:34:44Z</time>
      </trkpt>
      <trkpt lat="47.15203" lon="6.35185">
        <ele>638.7</ele>
        <time>2014-05-04T06:34:47Z</time>
      </trkpt>
      <trkpt lat="47.15209" lon="6.35196">
        <ele>639.6</ele>
        <time>2014-05-04T06:35:52Z</time>
      </trkpt>
      <trkpt lat="47.15206" lon="6.35208">
        <ele>641</ele>
        <time>2014-05-04T06:36:11Z</time>
      </trkpt>
      <trkpt lat="47.15211" lon="6.3522">
        <ele>641.1</ele>
        <time>2014-05-04T06:37:14Z</time>
      </trkpt>
      <trkpt lat="47.15215" lon="6.35235">
        <ele>640.8</ele>
        <time>2014-05-04T06:37:18Z</time>
      </trkpt>
      <trkpt lat="47.15225" lon="6.35243">
        <ele>640.4</ele>
        <time>2014-05-04T06:37:22Z</time>
      </trkpt>
      <trkpt lat="47.15234" lon="6.3525">
        <ele>639.9</ele>
        <time>2014-05-04T06:37:26Z</time>
      </trkpt>
      <trkpt lat="47.15226" lon="6.35238">
        <ele>639.8</ele>
        <time>2014-05-04T06:37:43Z</time>
      </trkpt>
      <trkpt lat="47.15218" lon="6.35232">
        <ele>639.6</ele>
        <time>2014-05-04T06:37:47Z</time>
      </trkpt>
      <trkpt lat="47.15219" lon="6.35219">
        <ele>639.6</ele>
        <time>2014-05-04T06:37:51Z</time>
      </trkpt>
      <trkpt lat="47.1521" lon="6.35212">
        <ele>640.4</ele>
        <time>2014-05-04T06:37:57Z</time>
      </trkpt>
      <trkpt lat="47.152" lon="6.3521">
        <ele>641</ele>
        <time>2014-05-04T06:38:00Z</time>
      </trkpt>
      <trkpt lat="47.15189" lon="6.35209">
        <ele>641.5</ele>
        <time>2014-05-04T06:38:03Z</time>
      </trkpt>
      <trkpt lat="47.15177" lon="6.35206">
        <ele>641.7</ele>
        <time>2014-05-04T06:38:06Z</time>
      </trkpt>
      <trkpt lat="47.15165" lon="6.35204">
        <ele>642.3</ele>
        <time>2014-05-04T06:38:09Z</time>
      </trkpt>
      <trkpt lat="47.15154" lon="6.35203">
        <ele>642.8</ele>
        <time>2014-05-04T06:38:12Z</time>
      </trkpt>
      <trkpt lat="47.15144" lon="6.35202">
        <ele>643.7</ele>
        <time>2014-05-04T06:38:15Z</time>
      </trkpt>
      <trkpt lat="47.15134" lon="6.35206">
        <ele>644.2</ele>
        <time>2014-05-04T06:38:18Z</time>
      </trkpt>
      <trkpt lat="47.15129" lon="6.35219">
        <ele>645.1</ele>
        <time>2014-05-04T06:38:21Z</time>
      </trkpt>
      <trkpt lat="47.15129" lon="6.35237">
        <ele>645.2</ele>
        <time>2014-05-04T06:38:24Z</time>
      </trkpt>
      <trkpt lat="47.1513" lon="6.35252">
        <ele>644.8</ele>
        <time>2014-05-04T06:38:27Z</time>
      </trkpt>
      <trkpt lat="47.1513" lon="6.35269">
        <ele>645.1</ele>
        <time>2014-05-04T06:38:30Z</time>
      </trkpt>
      <trkpt lat="47.15132" lon="6.35283">
        <ele>644.9</ele>
        <time>2014-05-04T06:38:33Z</time>
      </trkpt>
      <trkpt lat="47.15135" lon="6.35297">
        <ele>644.7</ele>
        <time>2014-05-04T06:38:36Z</time>
      </trkpt>
      <trkpt lat="47.15139" lon="6.3531">
        <ele>644.3</ele>
        <time>2014-05-04T06:38:39Z</time>
      </trkpt>
      <trkpt lat="47.15142" lon="6.35326">
        <ele>644.3</ele>
        <time>2014-05-04T06:38:43Z</time>
      </trkpt>
      <trkpt lat="47.15139" lon="6.35343">
        <ele>644</ele>
        <time>2014-05-04T06:38:47Z</time>
      </trkpt>
      <trkpt lat="47.15132" lon="6.35358">
        <ele>643.6</ele>
        <time>2014-05-04T06:38:50Z</time>
      </trkpt>
      <trkpt lat="47.15125" lon="6.35374">
        <ele>642.8</ele>
        <time>2014-05-04T06:38:53Z</time>
      </trkpt>
      <trkpt lat="47.15123" lon="6.35387">
        <ele>642.8</ele>
        <time>2014-05-04T06:38:55Z</time>
      </trkpt>
      <trkpt lat="47.15123" lon="6.35401">
        <ele>642.8</ele>
        <time>2014-05-04T06:38:57Z</time>
      </trkpt>
      <trkpt lat="47.15124" lon="6.35414">
        <ele>643</ele>
        <time>2014-05-04T06:38:59Z</time>
      </trkpt>
      <trkpt lat="47.15125" lon="6.35434">
        <ele>643.7</ele>
        <time>2014-05-04T06:39:02Z</time>
      </trkpt>
      <trkpt lat="47.15125" lon="6.35453">
        <ele>644.3</ele>
        <time>2014-05-04T06:39:05Z</time>
      </trkpt>
      <trkpt lat="47.15122" lon="6.35471">
        <ele>644.8</ele>
        <time>2014-05-04T06:39:08Z</time>
      </trkpt>
      <trkpt lat="47.15118" lon="6.35484">
        <ele>645.2</ele>
        <time>2014-05-04T06:39:10Z</time>
      </trkpt>
      <trkpt lat="47.15114" lon="6.35495">
        <ele>645.3</ele>
        <time>2014-05-04T06:39:12Z</time>
      </trkpt>
      <trkpt lat="47.15109" lon="6.35506">
        <ele>644.9</ele>
        <time>2014-05-04T06:39:14Z</time>
      </trkpt>
      <trkpt lat="47.15104" lon="6.35518">
        <ele>644.8</ele>
        <time>2014-05-04T06:39:16Z</time>
      </trkpt>
      <trkpt lat="47.15091" lon="6.35547">
        <ele>645.1</ele>
        <time>2014-05-04T06:39:22Z</time>
      </trkpt>
      <trkpt lat="47.15085" lon="6.35558">
        <ele>645.7</ele>
        <time>2014-05-04T06:39:25Z</time>
      </trkpt>
      <trkpt lat="47.1508" lon="6.3557">
        <ele>646.1</ele>
        <time>2014-05-04T06:39:28Z</time>
      </trkpt>
      <trkpt lat="47.15074" lon="6.35583">
        <ele>646.7</ele>
        <time>2014-05-04T06:39:31Z</time>
      </trkpt>
      <trkpt lat="47.15066" lon="6.35594">
        <ele>646.5</ele>
        <time>2014-05-04T06:39:34Z</time>
      </trkpt>
      <trkpt lat="47.15058" lon="6.35605">
        <ele>646.6</ele>
        <time>2014-05-04T06:39:37Z</time>
      </trkpt>
      <trkpt lat="47.15051" lon="6.35616">
        <ele>646.9</ele>
        <time>2014-05-04T06:39:40Z</time>
      </trkpt>
      <trkpt lat="47.15042" lon="6.35627">
        <ele>647.4</ele>
        <time>2014-05-04T06:39:43Z</time>
      </trkpt>
      <trkpt lat="47.15035" lon="6.35637">
        <ele>647.8</ele>
        <time>2014-05-04T06:39:46Z</time>
      </trkpt>
      <trkpt lat="47.15028" lon="6.35648">
        <ele>648.3</ele>
        <time>2014-05-04T06:39:49Z</time>
      </trkpt>
      <trkpt lat="47.15022" lon="6.3566">
        <ele>649</ele>
        <time>2014-05-04T06:39:52Z</time>
      </trkpt>
      <trkpt lat="47.15016" lon="6.35673">
        <ele>649.5</ele>
        <time>2014-05-04T06:39:55Z</time>
      </trkpt>
      <trkpt lat="47.15009" lon="6.35686">
        <ele>649.7</ele>
        <time>2014-05-04T06:39:58Z</time>
      </trkpt>
      <trkpt lat="47.15003" lon="6.35697">
        <ele>650.3</ele>
        <time>2014-05-04T06:40:01Z</time>
      </trkpt>
      <trkpt lat="47.14999" lon="6.35713">
        <ele>650.8</ele>
        <time>2014-05-04T06:40:05Z</time>
      </trkpt>
      <trkpt lat="47.15004" lon="6.35724">
        <ele>651.1</ele>
        <time>2014-05-04T06:40:08Z</time>
      </trkpt>
      <trkpt lat="47.15012" lon="6.35737">
        <ele>651.4</ele>
        <time>2014-05-04T06:40:11Z</time>
      </trkpt>
      <trkpt lat="47.15021" lon="6.3575">
        <ele>651.3</ele>
        <time>2014-05-04T06:40:14Z</time>
      </trkpt>
      <trkpt lat="47.1503" lon="6.35764">
        <ele>651.6</ele>
        <time>2014-05-04T06:40:17Z</time>
      </trkpt>
      <trkpt lat="47.15047" lon="6.35789">
        <ele>652.4</ele>
        <time>2014-05-04T06:40:23Z</time>
      </trkpt>
      <trkpt lat="47.15056" lon="6.35804">
        <ele>652.6</ele>
        <time>2014-05-04T06:40:26Z</time>
      </trkpt>
      <trkpt lat="47.15066" lon="6.35817">
        <ele>652.4</ele>
        <time>2014-05-04T06:40:29Z</time>
      </trkpt>
      <trkpt lat="47.15075" lon="6.35829">
        <ele>652.7</ele>
        <time>2014-05-04T06:40:32Z</time>
      </trkpt>
      <trkpt lat="47.15085" lon="6.3584">
        <ele>653.3</ele>
        <time>2014-05-04T06:40:35Z</time>
      </trkpt>
      <trkpt lat="47.15095" lon="6.3585">
        <ele>654.3</ele>
        <time>2014-05-04T06:40:38Z</time>
      </trkpt>
      <trkpt lat="47.15107" lon="6.35858">
        <ele>654.3</ele>
        <time>2014-05-04T06:40:41Z</time>
      </trkpt>
      <trkpt lat="47.15117" lon="6.35868">
        <ele>654.6</ele>
        <time>2014-05-04T06:40:44Z</time>
      </trkpt>
      <trkpt lat="47.15128" lon="6.35879">
        <ele>653.9</ele>
        <time>2014-05-04T06:40:47Z</time>
      </trkpt>
      <trkpt lat="47.15137" lon="6.35892">
        <ele>653.9</ele>
        <time>2014-05-04T06:40:50Z</time>
      </trkpt>
      <trkpt lat="47.15145" lon="6.35905">
        <ele>653.6</ele>
        <time>2014-05-04T06:40:53Z</time>
      </trkpt>
      <trkpt lat="47.15151" lon="6.35915">
        <ele>653.8</ele>
        <time>2014-05-04T06:40:56Z</time>
      </trkpt>
      <trkpt lat="47.15159" lon="6.35928">
        <ele>654.1</ele>
        <time>2014-05-04T06:41:00Z</time>
      </trkpt>
      <trkpt lat="47.15164" lon="6.35939">
        <ele>654.3</ele>
        <time>2014-05-04T06:41:03Z</time>
      </trkpt>
      <trkpt lat="47.1517" lon="6.35952">
        <ele>654.8</ele>
        <time>2014-05-04T06:41:06Z</time>
      </trkpt>
      <trkpt lat="47.15175" lon="6.35964">
        <ele>655.4</ele>
        <time>2014-05-04T06:41:09Z</time>
      </trkpt>
      <trkpt lat="47.15181" lon="6.35976">
        <ele>655.9</ele>
        <time>2014-05-04T06:41:12Z</time>
      </trkpt>
      <trkpt lat="47.15186" lon="6.35989">
        <ele>656.6</ele>
        <time>2014-05-04T06:41:15Z</time>
      </trkpt>
      <trkpt lat="47.15192" lon="6.36">
        <ele>657.1</ele>
        <time>2014-05-04T06:41:18Z</time>
      </trkpt>
      <trkpt lat="47.15203" lon="6.36026">
        <ele>657.6</ele>
        <time>2014-05-04T06:41:24Z</time>
      </trkpt>
      <trkpt lat="47.15208" lon="6.36038">
        <ele>657.9</ele>
        <time>2014-05-04T06:41:27Z</time>
      </trkpt>
      <trkpt lat="47.15215" lon="6.36051">
        <ele>658.6</ele>
        <time>2014-05-04T06:41:31Z</time>
      </trkpt>
      <trkpt lat="47.15221" lon="6.36064">
        <ele>658.7</ele>
        <time>2014-05-04T06:41:35Z</time>
      </trkpt>
      <trkpt lat="47.15227" lon="6.36075">
        <ele>659.1</ele>
        <time>2014-05-04T06:41:40Z</time>
      </trkpt>
      <trkpt lat="47.15232" lon="6.3609">
        <ele>659.5</ele>
        <time>2014-05-04T06:41:45Z</time>
      </trkpt>
      <trkpt lat="47.15231" lon="6.36103">
        <ele>660.3</ele>
        <time>2014-05-04T06:41:52Z</time>
      </trkpt>
      <trkpt lat="47.15226" lon="6.36115">
        <ele>660.7</ele>
        <time>2014-05-04T06:42:00Z</time>
      </trkpt>
      <trkpt lat="47.15224" lon="6.3613">
        <ele>661.1</ele>
        <time>2014-05-04T06:42:07Z</time>
      </trkpt>
      <trkpt lat="47.15222" lon="6.36144">
        <ele>661</ele>
        <time>2014-05-04T06:42:12Z</time>
      </trkpt>
      <trkpt lat="47.15216" lon="6.36156">
        <ele>662.5</ele>
        <time>2014-05-04T06:42:18Z</time>
      </trkpt>
      <trkpt lat="47.15209" lon="6.36167">
        <ele>663.5</ele>
        <time>2014-05-04T06:42:26Z</time>
      </trkpt>
      <trkpt lat="47.15195" lon="6.36187">
        <ele>666.5</ele>
        <time>2014-05-04T06:42:42Z</time>
      </trkpt>
      <trkpt lat="47.15194" lon="6.362">
        <ele>666.9</ele>
        <time>2014-05-04T06:42:53Z</time>
      </trkpt>
      <trkpt lat="47.15184" lon="6.36201">
        <ele>666.9</ele>
        <time>2014-05-04T06:43:38Z</time>
      </trkpt>
      <trkpt lat="47.15173" lon="6.36222">
        <ele>669</ele>
        <time>2014-05-04T06:44:22Z</time>
      </trkpt>
      <trkpt lat="47.15166" lon="6.36231">
        <ele>669.8</ele>
        <time>2014-05-04T06:44:26Z</time>
      </trkpt>
      <trkpt lat="47.15158" lon="6.36242">
        <ele>670.2</ele>
        <time>2014-05-04T06:44:31Z</time>
      </trkpt>
      <trkpt lat="47.15152" lon="6.36254">
        <ele>671.5</ele>
        <time>2014-05-04T06:44:37Z</time>
      </trkpt>
      <trkpt lat="47.15146" lon="6.36264">
        <ele>671.7</ele>
        <time>2014-05-04T06:44:42Z</time>
      </trkpt>
      <trkpt lat="47.15139" lon="6.36293">
        <ele>672</ele>
        <time>2014-05-04T06:44:51Z</time>
      </trkpt>
      <trkpt lat="47.15133" lon="6.36305">
        <ele>673.1</ele>
        <time>2014-05-04T06:44:57Z</time>
      </trkpt>
      <trkpt lat="47.15128" lon="6.36316">
        <ele>673.2</ele>
        <time>2014-05-04T06:45:02Z</time>
      </trkpt>
      <trkpt lat="47.1512" lon="6.36323">
        <ele>673.6</ele>
        <time>2014-05-04T06:45:06Z</time>
      </trkpt>
      <trkpt lat="47.15112" lon="6.36333">
        <ele>674.2</ele>
        <time>2014-05-04T06:45:11Z</time>
      </trkpt>
      <trkpt lat="47.15105" lon="6.36342">
        <ele>674.2</ele>
        <time>2014-05-04T06:45:15Z</time>
      </trkpt>
      <trkpt lat="47.15102" lon="6.36356">
        <ele>674</ele>
        <time>2014-05-04T06:45:20Z</time>
      </trkpt>
      <trkpt lat="47.15098" lon="6.36369">
        <ele>674.2</ele>
        <time>2014-05-04T06:45:23Z</time>
      </trkpt>
      <trkpt lat="47.15094" lon="6.36382">
        <ele>675.1</ele>
        <time>2014-05-04T06:45:27Z</time>
      </trkpt>
      <trkpt lat="47.15089" lon="6.36396">
        <ele>675.4</ele>
        <time>2014-05-04T06:45:31Z</time>
      </trkpt>
      <trkpt lat="47.15085" lon="6.36409">
        <ele>675.8</ele>
        <time>2014-05-04T06:45:35Z</time>
      </trkpt>
      <trkpt lat="47.1508" lon="6.36422">
        <ele>675.8</ele>
        <time>2014-05-04T06:45:40Z</time>
      </trkpt>
      <trkpt lat="47.15074" lon="6.36434">
        <ele>676</ele>
        <time>2014-05-04T06:45:45Z</time>
      </trkpt>
      <trkpt lat="47.15061" lon="6.36459">
        <ele>676.1</ele>
        <time>2014-05-04T06:45:54Z</time>
      </trkpt>
      <trkpt lat="47.15053" lon="6.3647">
        <ele>676</ele>
        <time>2014-05-04T06:45:59Z</time>
      </trkpt>
      <trkpt lat="47.15044" lon="6.36474">
        <ele>676.4</ele>
        <time>2014-05-04T06:46:03Z</time>
      </trkpt>
      <trkpt lat="47.15035" lon="6.36478">
        <ele>676.6</ele>
        <time>2014-05-04T06:46:06Z</time>
      </trkpt>
      <trkpt lat="47.15024" lon="6.3648">
        <ele>676.6</ele>
        <time>2014-05-04T06:46:09Z</time>
      </trkpt>
      <trkpt lat="47.15011" lon="6.36488">
        <ele>676.6</ele>
        <time>2014-05-04T06:46:13Z</time>
      </trkpt>
      <trkpt lat="47.14999" lon="6.36491">
        <ele>676.6</ele>
        <time>2014-05-04T06:46:16Z</time>
      </trkpt>
      <trkpt lat="47.14985" lon="6.36493">
        <ele>676.6</ele>
        <time>2014-05-04T06:46:19Z</time>
      </trkpt>
      <trkpt lat="47.14974" lon="6.36494">
        <ele>676.7</ele>
        <time>2014-05-04T06:46:22Z</time>
      </trkpt>
      <trkpt lat="47.14964" lon="6.36495">
        <ele>676.7</ele>
        <time>2014-05-04T06:46:25Z</time>
      </trkpt>
      <trkpt lat="47.1495" lon="6.36497">
        <ele>676.7</ele>
        <time>2014-05-04T06:46:28Z</time>
      </trkpt>
      <trkpt lat="47.14939" lon="6.36499">
        <ele>677</ele>
        <time>2014-05-04T06:46:31Z</time>
      </trkpt>
      <trkpt lat="47.14927" lon="6.36501">
        <ele>677</ele>
        <time>2014-05-04T06:46:34Z</time>
      </trkpt>
      <trkpt lat="47.14917" lon="6.36501">
        <ele>676.8</ele>
        <time>2014-05-04T06:46:38Z</time>
      </trkpt>
      <trkpt lat="47.14904" lon="6.36499">
        <ele>676.5</ele>
        <time>2014-05-04T06:46:42Z</time>
      </trkpt>
      <trkpt lat="47.14894" lon="6.36501">
        <ele>676.3</ele>
        <time>2014-05-04T06:46:45Z</time>
      </trkpt>
      <trkpt lat="47.14882" lon="6.36503">
        <ele>676.7</ele>
        <time>2014-05-04T06:46:49Z</time>
      </trkpt>
      <trkpt lat="47.14862" lon="6.36499">
        <ele>677.1</ele>
        <time>2014-05-04T06:46:54Z</time>
      </trkpt>
      <trkpt lat="47.14851" lon="6.36497">
        <ele>677.4</ele>
        <time>2014-05-04T06:46:55Z</time>
      </trkpt>
      <trkpt lat="47.14836" lon="6.36504">
        <ele>677.7</ele>
        <time>2014-05-04T06:46:57Z</time>
      </trkpt>
      <trkpt lat="47.14829" lon="6.36513">
        <ele>677.6</ele>
        <time>2014-05-04T06:46:59Z</time>
      </trkpt>
      <trkpt lat="47.14821" lon="6.36525">
        <ele>677.2</ele>
        <time>2014-05-04T06:47:02Z</time>
      </trkpt>
      <trkpt lat="47.14815" lon="6.36535">
        <ele>677.3</ele>
        <time>2014-05-04T06:47:06Z</time>
      </trkpt>
      <trkpt lat="47.14808" lon="6.36546">
        <ele>677.8</ele>
        <time>2014-05-04T06:47:10Z</time>
      </trkpt>
      <trkpt lat="47.14803" lon="6.36557">
        <ele>678.2</ele>
        <time>2014-05-04T06:47:13Z</time>
      </trkpt>
      <trkpt lat="47.14797" lon="6.3657">
        <ele>678.9</ele>
        <time>2014-05-04T06:47:16Z</time>
      </trkpt>
      <trkpt lat="47.14791" lon="6.36584">
        <ele>679.3</ele>
        <time>2014-05-04T06:47:19Z</time>
      </trkpt>
      <trkpt lat="47.14784" lon="6.36597">
        <ele>679.6</ele>
        <time>2014-05-04T06:47:22Z</time>
      </trkpt>
      <trkpt lat="47.14779" lon="6.36612">
        <ele>679.9</ele>
        <time>2014-05-04T06:47:25Z</time>
      </trkpt>
      <trkpt lat="47.14772" lon="6.36626">
        <ele>680.3</ele>
        <time>2014-05-04T06:47:28Z</time>
      </trkpt>
      <trkpt lat="47.14767" lon="6.3664">
        <ele>680.7</ele>
        <time>2014-05-04T06:47:31Z</time>
      </trkpt>
      <trkpt lat="47.1476" lon="6.36655">
        <ele>680.8</ele>
        <time>2014-05-04T06:47:34Z</time>
      </trkpt>
      <trkpt lat="47.14757" lon="6.36668">
        <ele>680.8</ele>
        <time>2014-05-04T06:47:36Z</time>
      </trkpt>
      <trkpt lat="47.14753" lon="6.36681">
        <ele>680.8</ele>
        <time>2014-05-04T06:47:38Z</time>
      </trkpt>
      <trkpt lat="47.14748" lon="6.36698">
        <ele>680.9</ele>
        <time>2014-05-04T06:47:41Z</time>
      </trkpt>
      <trkpt lat="47.14743" lon="6.36715">
        <ele>681.6</ele>
        <time>2014-05-04T06:47:44Z</time>
      </trkpt>
      <trkpt lat="47.14738" lon="6.36732">
        <ele>681.7</ele>
        <time>2014-05-04T06:47:47Z</time>
      </trkpt>
      <trkpt lat="47.14734" lon="6.36749">
        <ele>681.9</ele>
        <time>2014-05-04T06:47:50Z</time>
      </trkpt>
      <trkpt lat="47.14726" lon="6.36783">
        <ele>683.1</ele>
        <time>2014-05-04T06:47:56Z</time>
      </trkpt>
      <trkpt lat="47.14722" lon="6.36796">
        <ele>683.2</ele>
        <time>2014-05-04T06:47:58Z</time>
      </trkpt>
      <trkpt lat="47.14718" lon="6.36815">
        <ele>683.4</ele>
        <time>2014-05-04T06:48:01Z</time>
      </trkpt>
      <trkpt lat="47.14714" lon="6.3683">
        <ele>683.5</ele>
        <time>2014-05-04T06:48:04Z</time>
      </trkpt>
      <trkpt lat="47.14709" lon="6.36848">
        <ele>683.5</ele>
        <time>2014-05-04T06:48:07Z</time>
      </trkpt>
      <trkpt lat="47.14704" lon="6.36863">
        <ele>684.5</ele>
        <time>2014-05-04T06:48:10Z</time>
      </trkpt>
      <trkpt lat="47.14699" lon="6.36877">
        <ele>684.6</ele>
        <time>2014-05-04T06:48:13Z</time>
      </trkpt>
      <trkpt lat="47.14694" lon="6.36888">
        <ele>685.1</ele>
        <time>2014-05-04T06:48:16Z</time>
      </trkpt>
      <trkpt lat="47.14689" lon="6.36904">
        <ele>685.8</ele>
        <time>2014-05-04T06:48:20Z</time>
      </trkpt>
      <trkpt lat="47.14684" lon="6.36916">
        <ele>686.1</ele>
        <time>2014-05-04T06:48:23Z</time>
      </trkpt>
      <trkpt lat="47.14679" lon="6.3693">
        <ele>686.5</ele>
        <time>2014-05-04T06:48:26Z</time>
      </trkpt>
      <trkpt lat="47.14675" lon="6.36945">
        <ele>686.8</ele>
        <time>2014-05-04T06:48:29Z</time>
      </trkpt>
      <trkpt lat="47.14671" lon="6.36958">
        <ele>687.1</ele>
        <time>2014-05-04T06:48:32Z</time>
      </trkpt>
      <trkpt lat="47.14669" lon="6.36973">
        <ele>688.2</ele>
        <time>2014-05-04T06:48:37Z</time>
      </trkpt>
      <trkpt lat="47.14669" lon="6.36987">
        <ele>688.4</ele>
        <time>2014-05-04T06:48:40Z</time>
      </trkpt>
      <trkpt lat="47.14669" lon="6.37002">
        <ele>688.9</ele>
        <time>2014-05-04T06:48:45Z</time>
      </trkpt>
      <trkpt lat="47.14671" lon="6.37018">
        <ele>689.5</ele>
        <time>2014-05-04T06:48:49Z</time>
      </trkpt>
      <trkpt lat="47.14671" lon="6.37032">
        <ele>689.9</ele>
        <time>2014-05-04T06:48:53Z</time>
      </trkpt>
      <trkpt lat="47.14668" lon="6.37061">
        <ele>690.5</ele>
        <time>2014-05-04T06:49:00Z</time>
      </trkpt>
      <trkpt lat="47.14666" lon="6.37078">
        <ele>690.5</ele>
        <time>2014-05-04T06:49:04Z</time>
      </trkpt>
      <trkpt lat="47.14665" lon="6.37091">
        <ele>690.3</ele>
        <time>2014-05-04T06:49:06Z</time>
      </trkpt>
      <trkpt lat="47.14663" lon="6.37105">
        <ele>690.3</ele>
        <time>2014-05-04T06:49:08Z</time>
      </trkpt>
      <trkpt lat="47.14661" lon="6.37119">
        <ele>690.1</ele>
        <time>2014-05-04T06:49:10Z</time>
      </trkpt>
      <trkpt lat="47.1466" lon="6.37135">
        <ele>690.2</ele>
        <time>2014-05-04T06:49:12Z</time>
      </trkpt>
      <trkpt lat="47.14658" lon="6.37152">
        <ele>690.4</ele>
        <time>2014-05-04T06:49:15Z</time>
      </trkpt>
      <trkpt lat="47.14655" lon="6.37169">
        <ele>690.8</ele>
        <time>2014-05-04T06:49:18Z</time>
      </trkpt>
      <trkpt lat="47.14654" lon="6.37188">
        <ele>691.1</ele>
        <time>2014-05-04T06:49:21Z</time>
      </trkpt>
      <trkpt lat="47.14653" lon="6.37205">
        <ele>691.4</ele>
        <time>2014-05-04T06:49:24Z</time>
      </trkpt>
      <trkpt lat="47.14651" lon="6.3722">
        <ele>691.7</ele>
        <time>2014-05-04T06:49:27Z</time>
      </trkpt>
      <trkpt lat="47.14648" lon="6.37238">
        <ele>692</ele>
        <time>2014-05-04T06:49:30Z</time>
      </trkpt>
      <trkpt lat="47.14648" lon="6.37255">
        <ele>691.9</ele>
        <time>2014-05-04T06:49:33Z</time>
      </trkpt>
      <trkpt lat="47.14652" lon="6.37272">
        <ele>691.9</ele>
        <time>2014-05-04T06:49:36Z</time>
      </trkpt>
      <trkpt lat="47.1466" lon="6.37283">
        <ele>691.9</ele>
        <time>2014-05-04T06:49:39Z</time>
      </trkpt>
      <trkpt lat="47.14666" lon="6.37295">
        <ele>691.6</ele>
        <time>2014-05-04T06:49:42Z</time>
      </trkpt>
      <trkpt lat="47.14674" lon="6.37305">
        <ele>691</ele>
        <time>2014-05-04T06:49:46Z</time>
      </trkpt>
      <trkpt lat="47.1468" lon="6.37315">
        <ele>690.4</ele>
        <time>2014-05-04T06:49:51Z</time>
      </trkpt>
      <trkpt lat="47.14687" lon="6.37325">
        <ele>690.9</ele>
        <time>2014-05-04T06:49:55Z</time>
      </trkpt>
      <trkpt lat="47.14702" lon="6.37345">
        <ele>690.2</ele>
        <time>2014-05-04T06:50:02Z</time>
      </trkpt>
      <trkpt lat="47.1471" lon="6.37354">
        <ele>689.7</ele>
        <time>2014-05-04T06:50:06Z</time>
      </trkpt>
      <trkpt lat="47.14719" lon="6.37365">
        <ele>689.4</ele>
        <time>2014-05-04T06:50:10Z</time>
      </trkpt>
      <trkpt lat="47.14726" lon="6.37372">
        <ele>689.2</ele>
        <time>2014-05-04T06:50:13Z</time>
      </trkpt>
      <trkpt lat="47.14735" lon="6.37381">
        <ele>688.9</ele>
        <time>2014-05-04T06:50:17Z</time>
      </trkpt>
      <trkpt lat="47.14744" lon="6.37392">
        <ele>688.6</ele>
        <time>2014-05-04T06:50:21Z</time>
      </trkpt>
      <trkpt lat="47.14752" lon="6.37398">
        <ele>687.7</ele>
        <time>2014-05-04T06:50:25Z</time>
      </trkpt>
      <trkpt lat="47.14756" lon="6.37411">
        <ele>687.2</ele>
        <time>2014-05-04T06:50:30Z</time>
      </trkpt>
      <trkpt lat="47.1476" lon="6.37425">
        <ele>687.5</ele>
        <time>2014-05-04T06:50:36Z</time>
      </trkpt>
      <trkpt lat="47.14756" lon="6.37441">
        <ele>687.6</ele>
        <time>2014-05-04T06:50:41Z</time>
      </trkpt>
      <trkpt lat="47.1475" lon="6.37454">
        <ele>686.7</ele>
        <time>2014-05-04T06:50:45Z</time>
      </trkpt>
      <trkpt lat="47.14744" lon="6.37464">
        <ele>685.8</ele>
        <time>2014-05-04T06:50:49Z</time>
      </trkpt>
      <trkpt lat="47.14739" lon="6.37478">
        <ele>684.6</ele>
        <time>2014-05-04T06:50:54Z</time>
      </trkpt>
      <trkpt lat="47.14735" lon="6.37494">
        <ele>682.5</ele>
        <time>2014-05-04T06:50:59Z</time>
      </trkpt>
      <trkpt lat="47.14724" lon="6.37519">
        <ele>680.8</ele>
        <time>2014-05-04T06:51:06Z</time>
      </trkpt>
      <trkpt lat="47.14718" lon="6.37531">
        <ele>680.2</ele>
        <time>2014-05-04T06:51:10Z</time>
      </trkpt>
      <trkpt lat="47.14713" lon="6.37543">
        <ele>679.4</ele>
        <time>2014-05-04T06:51:13Z</time>
      </trkpt>
      <trkpt lat="47.1471" lon="6.37559">
        <ele>678.9</ele>
        <time>2014-05-04T06:51:17Z</time>
      </trkpt>
      <trkpt lat="47.14709" lon="6.37573">
        <ele>678.1</ele>
        <time>2014-05-04T06:51:21Z</time>
      </trkpt>
      <trkpt lat="47.1471" lon="6.37587">
        <ele>677.7</ele>
        <time>2014-05-04T06:51:27Z</time>
      </trkpt>
      <trkpt lat="47.14713" lon="6.37602">
        <ele>678.3</ele>
        <time>2014-05-04T06:51:34Z</time>
      </trkpt>
      <trkpt lat="47.14719" lon="6.37616">
        <ele>678.5</ele>
        <time>2014-05-04T06:51:38Z</time>
      </trkpt>
      <trkpt lat="47.14727" lon="6.37632">
        <ele>678.1</ele>
        <time>2014-05-04T06:51:40Z</time>
      </trkpt>
      <trkpt lat="47.14732" lon="6.37644">
        <ele>678.2</ele>
        <time>2014-05-04T06:51:42Z</time>
      </trkpt>
      <trkpt lat="47.14738" lon="6.37655">
        <ele>678.5</ele>
        <time>2014-05-04T06:51:46Z</time>
      </trkpt>
      <trkpt lat="47.14746" lon="6.37664">
        <ele>678.2</ele>
        <time>2014-05-04T06:51:51Z</time>
      </trkpt>
      <trkpt lat="47.14755" lon="6.37675">
        <ele>677.8</ele>
        <time>2014-05-04T06:51:55Z</time>
      </trkpt>
      <trkpt lat="47.14764" lon="6.37678">
        <ele>677.5</ele>
        <time>2014-05-04T06:51:58Z</time>
      </trkpt>
      <trkpt lat="47.14774" lon="6.37684">
        <ele>677.3</ele>
        <time>2014-05-04T06:52:02Z</time>
      </trkpt>
      <trkpt lat="47.14791" lon="6.37703">
        <ele>677.7</ele>
        <time>2014-05-04T06:52:12Z</time>
      </trkpt>
      <trkpt lat="47.148" lon="6.37711">
        <ele>678.3</ele>
        <time>2014-05-04T06:52:16Z</time>
      </trkpt>
      <trkpt lat="47.14809" lon="6.3772">
        <ele>679.1</ele>
        <time>2014-05-04T06:52:20Z</time>
      </trkpt>
      <trkpt lat="47.14818" lon="6.3773">
        <ele>679.3</ele>
        <time>2014-05-04T06:52:24Z</time>
      </trkpt>
      <trkpt lat="47.14821" lon="6.37743">
        <ele>679.1</ele>
        <time>2014-05-04T06:52:29Z</time>
      </trkpt>
      <trkpt lat="47.14817" lon="6.37756">
        <ele>679</ele>
        <time>2014-05-04T06:52:33Z</time>
      </trkpt>
      <trkpt lat="47.14812" lon="6.37772">
        <ele>679.1</ele>
        <time>2014-05-04T06:52:37Z</time>
      </trkpt>
      <trkpt lat="47.14806" lon="6.37783">
        <ele>679.3</ele>
        <time>2014-05-04T06:52:40Z</time>
      </trkpt>
      <trkpt lat="47.14797" lon="6.37795">
        <ele>679.6</ele>
        <time>2014-05-04T06:52:43Z</time>
      </trkpt>
      <trkpt lat="47.14789" lon="6.37807">
        <ele>680.5</ele>
        <time>2014-05-04T06:52:46Z</time>
      </trkpt>
      <trkpt lat="47.14782" lon="6.37819">
        <ele>681.5</ele>
        <time>2014-05-04T06:52:49Z</time>
      </trkpt>
      <trkpt lat="47.14775" lon="6.37831">
        <ele>682</ele>
        <time>2014-05-04T06:52:52Z</time>
      </trkpt>
      <trkpt lat="47.14766" lon="6.37841">
        <ele>682.1</ele>
        <time>2014-05-04T06:52:56Z</time>
      </trkpt>
      <trkpt lat="47.14757" lon="6.37839">
        <ele>682.3</ele>
        <time>2014-05-04T06:52:59Z</time>
      </trkpt>
      <trkpt lat="47.14747" lon="6.37836">
        <ele>682</ele>
        <time>2014-05-04T06:53:02Z</time>
      </trkpt>
      <trkpt lat="47.14741" lon="6.37846">
        <ele>682</ele>
        <time>2014-05-04T06:53:05Z</time>
      </trkpt>
      <trkpt lat="47.14744" lon="6.37874">
        <ele>682.5</ele>
        <time>2014-05-04T06:53:10Z</time>
      </trkpt>
      <trkpt lat="47.14747" lon="6.3789">
        <ele>683.4</ele>
        <time>2014-05-04T06:53:13Z</time>
      </trkpt>
      <trkpt lat="47.1475" lon="6.37904">
        <ele>684</ele>
        <time>2014-05-04T06:53:16Z</time>
      </trkpt>
      <trkpt lat="47.14754" lon="6.37917">
        <ele>684.5</ele>
        <time>2014-05-04T06:53:19Z</time>
      </trkpt>
      <trkpt lat="47.14758" lon="6.37933">
        <ele>685.5</ele>
        <time>2014-05-04T06:53:23Z</time>
      </trkpt>
      <trkpt lat="47.14762" lon="6.37946">
        <ele>686.1</ele>
        <time>2014-05-04T06:53:26Z</time>
      </trkpt>
      <trkpt lat="47.14766" lon="6.3796">
        <ele>686.4</ele>
        <time>2014-05-04T06:53:29Z</time>
      </trkpt>
      <trkpt lat="47.1477" lon="6.37973">
        <ele>687.1</ele>
        <time>2014-05-04T06:53:32Z</time>
      </trkpt>
      <trkpt lat="47.14775" lon="6.37989">
        <ele>688.4</ele>
        <time>2014-05-04T06:53:36Z</time>
      </trkpt>
      <trkpt lat="47.14779" lon="6.38001">
        <ele>689.1</ele>
        <time>2014-05-04T06:53:39Z</time>
      </trkpt>
      <trkpt lat="47.14783" lon="6.38014">
        <ele>689.6</ele>
        <time>2014-05-04T06:53:42Z</time>
      </trkpt>
      <trkpt lat="47.14788" lon="6.38027">
        <ele>690</ele>
        <time>2014-05-04T06:53:45Z</time>
      </trkpt>
      <trkpt lat="47.14792" lon="6.38039">
        <ele>690.8</ele>
        <time>2014-05-04T06:53:48Z</time>
      </trkpt>
      <trkpt lat="47.14798" lon="6.38054">
        <ele>691.3</ele>
        <time>2014-05-04T06:53:52Z</time>
      </trkpt>
      <trkpt lat="47.14805" lon="6.38068">
        <ele>692.5</ele>
        <time>2014-05-04T06:53:56Z</time>
      </trkpt>
      <trkpt lat="47.1481" lon="6.38083">
        <ele>693.2</ele>
        <time>2014-05-04T06:54:00Z</time>
      </trkpt>
      <trkpt lat="47.14816" lon="6.38098">
        <ele>693.8</ele>
        <time>2014-05-04T06:54:04Z</time>
      </trkpt>
      <trkpt lat="47.14822" lon="6.38114">
        <ele>694.6</ele>
        <time>2014-05-04T06:54:08Z</time>
      </trkpt>
      <trkpt lat="47.14831" lon="6.38137">
        <ele>695.9</ele>
        <time>2014-05-04T06:54:14Z</time>
      </trkpt>
      <trkpt lat="47.14836" lon="6.38152">
        <ele>696.4</ele>
        <time>2014-05-04T06:54:18Z</time>
      </trkpt>
      <trkpt lat="47.14841" lon="6.38166">
        <ele>696.9</ele>
        <time>2014-05-04T06:54:22Z</time>
      </trkpt>
      <trkpt lat="47.14844" lon="6.38179">
        <ele>697.9</ele>
        <time>2014-05-04T06:54:26Z</time>
      </trkpt>
      <trkpt lat="47.14836" lon="6.38189">
        <ele>698.7</ele>
        <time>2014-05-04T06:54:31Z</time>
      </trkpt>
      <trkpt lat="47.14829" lon="6.38197">
        <ele>699</ele>
        <time>2014-05-04T06:54:35Z</time>
      </trkpt>
      <trkpt lat="47.14822" lon="6.38206">
        <ele>699.4</ele>
        <time>2014-05-04T06:54:40Z</time>
      </trkpt>
      <trkpt lat="47.14815" lon="6.38216">
        <ele>700.2</ele>
        <time>2014-05-04T06:54:46Z</time>
      </trkpt>
      <trkpt lat="47.14808" lon="6.38227">
        <ele>700.1</ele>
        <time>2014-05-04T06:54:51Z</time>
      </trkpt>
      <trkpt lat="47.148" lon="6.38238">
        <ele>699.5</ele>
        <time>2014-05-04T06:54:57Z</time>
      </trkpt>
      <trkpt lat="47.14792" lon="6.38246">
        <ele>699.2</ele>
        <time>2014-05-04T06:55:02Z</time>
      </trkpt>
      <trkpt lat="47.14784" lon="6.38253">
        <ele>699.1</ele>
        <time>2014-05-04T06:55:07Z</time>
      </trkpt>
      <trkpt lat="47.14774" lon="6.38264">
        <ele>699.2</ele>
        <time>2014-05-04T06:55:12Z</time>
      </trkpt>
      <trkpt lat="47.14761" lon="6.38283">
        <ele>701.7</ele>
        <time>2014-05-04T06:55:27Z</time>
      </trkpt>
      <trkpt lat="47.14753" lon="6.38289">
        <ele>702.8</ele>
        <time>2014-05-04T06:55:33Z</time>
      </trkpt>
      <trkpt lat="47.14744" lon="6.38292">
        <ele>703.7</ele>
        <time>2014-05-04T06:55:37Z</time>
      </trkpt>
      <trkpt lat="47.14734" lon="6.38298">
        <ele>703.9</ele>
        <time>2014-05-04T06:55:41Z</time>
      </trkpt>
      <trkpt lat="47.14725" lon="6.38304">
        <ele>704.3</ele>
        <time>2014-05-04T06:55:45Z</time>
      </trkpt>
      <trkpt lat="47.14718" lon="6.38314">
        <ele>704.7</ele>
        <time>2014-05-04T06:55:50Z</time>
      </trkpt>
      <trkpt lat="47.14708" lon="6.38321">
        <ele>705.7</ele>
        <time>2014-05-04T06:55:56Z</time>
      </trkpt>
      <trkpt lat="47.14701" lon="6.38329">
        <ele>705.8</ele>
        <time>2014-05-04T06:56:02Z</time>
      </trkpt>
      <trkpt lat="47.1469" lon="6.38332">
        <ele>706.6</ele>
        <time>2014-05-04T06:56:08Z</time>
      </trkpt>
      <trkpt lat="47.14683" lon="6.38343">
        <ele>707.7</ele>
        <time>2014-05-04T06:56:13Z</time>
      </trkpt>
      <trkpt lat="47.14664" lon="6.38354">
        <ele>708.3</ele>
        <time>2014-05-04T06:56:23Z</time>
      </trkpt>
      <trkpt lat="47.14655" lon="6.38355">
        <ele>708.4</ele>
        <time>2014-05-04T06:56:27Z</time>
      </trkpt>
      <trkpt lat="47.14646" lon="6.3836">
        <ele>708.8</ele>
        <time>2014-05-04T06:56:31Z</time>
      </trkpt>
      <trkpt lat="47.14637" lon="6.38366">
        <ele>710</ele>
        <time>2014-05-04T06:56:38Z</time>
      </trkpt>
      <trkpt lat="47.14628" lon="6.38373">
        <ele>710.9</ele>
        <time>2014-05-04T06:56:44Z</time>
      </trkpt>
      <trkpt lat="47.14618" lon="6.3838">
        <ele>711.9</ele>
        <time>2014-05-04T06:56:49Z</time>
      </trkpt>
      <trkpt lat="47.14612" lon="6.38389">
        <ele>712</ele>
        <time>2014-05-04T06:56:55Z</time>
      </trkpt>
      <trkpt lat="47.14605" lon="6.38401">
        <ele>712.3</ele>
        <time>2014-05-04T06:57:01Z</time>
      </trkpt>
      <trkpt lat="47.14599" lon="6.38411">
        <ele>713</ele>
        <time>2014-05-04T06:57:06Z</time>
      </trkpt>
      <trkpt lat="47.14592" lon="6.38423">
        <ele>713.6</ele>
        <time>2014-05-04T06:57:12Z</time>
      </trkpt>
      <trkpt lat="47.14585" lon="6.38433">
        <ele>714</ele>
        <time>2014-05-04T06:57:17Z</time>
      </trkpt>
      <trkpt lat="47.14574" lon="6.38458">
        <ele>715.1</ele>
        <time>2014-05-04T06:57:30Z</time>
      </trkpt>
      <trkpt lat="47.14568" lon="6.3847">
        <ele>715.5</ele>
        <time>2014-05-04T06:57:36Z</time>
      </trkpt>
      <trkpt lat="47.1456" lon="6.3848">
        <ele>715.5</ele>
        <time>2014-05-04T06:57:41Z</time>
      </trkpt>
      <trkpt lat="47.14551" lon="6.3849">
        <ele>716.5</ele>
        <time>2014-05-04T06:57:47Z</time>
      </trkpt>
      <trkpt lat="47.14544" lon="6.385">
        <ele>717.1</ele>
        <time>2014-05-04T06:57:50Z</time>
      </trkpt>
      <trkpt lat="47.14542" lon="6.38514">
        <ele>718.4</ele>
        <time>2014-05-04T06:57:55Z</time>
      </trkpt>
      <trkpt lat="47.14541" lon="6.38528">
        <ele>719.3</ele>
        <time>2014-05-04T06:58:01Z</time>
      </trkpt>
      <trkpt lat="47.14547" lon="6.38544">
        <ele>720.3</ele>
        <time>2014-05-04T06:58:06Z</time>
      </trkpt>
      <trkpt lat="47.14552" lon="6.38555">
        <ele>721</ele>
        <time>2014-05-04T06:58:10Z</time>
      </trkpt>
      <trkpt lat="47.14557" lon="6.38567">
        <ele>721.6</ele>
        <time>2014-05-04T06:58:15Z</time>
      </trkpt>
      <trkpt lat="47.14562" lon="6.38579">
        <ele>721.8</ele>
        <time>2014-05-04T06:58:18Z</time>
      </trkpt>
      <trkpt lat="47.14574" lon="6.38603">
        <ele>723.6</ele>
        <time>2014-05-04T06:58:27Z</time>
      </trkpt>
      <trkpt lat="47.14566" lon="6.3861">
        <ele>724.9</ele>
        <time>2014-05-04T06:58:39Z</time>
      </trkpt>
      <trkpt lat="47.14557" lon="6.38602">
        <ele>725.3</ele>
        <time>2014-05-04T06:58:51Z</time>
      </trkpt>
      <trkpt lat="47.14549" lon="6.38595">
        <ele>725.8</ele>
        <time>2014-05-04T06:58:56Z</time>
      </trkpt>
      <trkpt lat="47.14541" lon="6.3859">
        <ele>726.6</ele>
        <time>2014-05-04T06:59:00Z</time>
      </trkpt>
      <trkpt lat="47.14531" lon="6.38585">
        <ele>727.8</ele>
        <time>2014-05-04T06:59:04Z</time>
      </trkpt>
      <trkpt lat="47.14521" lon="6.3858">
        <ele>728.6</ele>
        <time>2014-05-04T06:59:08Z</time>
      </trkpt>
      <trkpt lat="47.14512" lon="6.38579">
        <ele>728.9</ele>
        <time>2014-05-04T06:59:11Z</time>
      </trkpt>
      <trkpt lat="47.145" lon="6.38576">
        <ele>729.3</ele>
        <time>2014-05-04T06:59:15Z</time>
      </trkpt>
      <trkpt lat="47.14491" lon="6.38575">
        <ele>729.5</ele>
        <time>2014-05-04T06:59:18Z</time>
      </trkpt>
      <trkpt lat="47.14446" lon="6.38571">
        <ele>730</ele>
        <time>2014-05-04T06:59:24Z</time>
      </trkpt>
      <trkpt lat="47.14405" lon="6.38581">
        <ele>729.6</ele>
        <time>2014-05-04T06:59:32Z</time>
      </trkpt>
      <trkpt lat="47.14394" lon="6.38591">
        <ele>729.6</ele>
        <time>2014-05-04T06:59:35Z</time>
      </trkpt>
      <trkpt lat="47.14382" lon="6.38594">
        <ele>729.5</ele>
        <time>2014-05-04T06:59:37Z</time>
      </trkpt>
      <trkpt lat="47.1437" lon="6.38598">
        <ele>729.3</ele>
        <time>2014-05-04T06:59:39Z</time>
      </trkpt>
      <trkpt lat="47.14361" lon="6.38606">
        <ele>729.7</ele>
        <time>2014-05-04T06:59:41Z</time>
      </trkpt>
      <trkpt lat="47.14358" lon="6.38619">
        <ele>729.9</ele>
        <time>2014-05-04T06:59:44Z</time>
      </trkpt>
      <trkpt lat="47.14361" lon="6.38633">
        <ele>730.6</ele>
        <time>2014-05-04T06:59:48Z</time>
      </trkpt>
      <trkpt lat="47.14361" lon="6.38647">
        <ele>731.5</ele>
        <time>2014-05-04T06:59:52Z</time>
      </trkpt>
      <trkpt lat="47.14365" lon="6.3866">
        <ele>732.6</ele>
        <time>2014-05-04T06:59:57Z</time>
      </trkpt>
      <trkpt lat="47.14372" lon="6.38672">
        <ele>733.7</ele>
        <time>2014-05-04T07:00:03Z</time>
      </trkpt>
      <trkpt lat="47.14378" lon="6.38682">
        <ele>734.3</ele>
        <time>2014-05-04T07:00:09Z</time>
      </trkpt>
      <trkpt lat="47.14385" lon="6.38694">
        <ele>736.1</ele>
        <time>2014-05-04T07:00:16Z</time>
      </trkpt>
      <trkpt lat="47.14391" lon="6.38704">
        <ele>738</ele>
        <time>2014-05-04T07:00:22Z</time>
      </trkpt>
      <trkpt lat="47.14398" lon="6.38715">
        <ele>738.9</ele>
        <time>2014-05-04T07:00:28Z</time>
      </trkpt>
      <trkpt lat="47.14404" lon="6.38726">
        <ele>740</ele>
        <time>2014-05-04T07:00:34Z</time>
      </trkpt>
      <trkpt lat="47.14418" lon="6.38747">
        <ele>741.9</ele>
        <time>2014-05-04T07:00:45Z</time>
      </trkpt>
      <trkpt lat="47.14424" lon="6.38757">
        <ele>743.1</ele>
        <time>2014-05-04T07:00:51Z</time>
      </trkpt>
      <trkpt lat="47.1443" lon="6.38767">
        <ele>744.5</ele>
        <time>2014-05-04T07:00:57Z</time>
      </trkpt>
      <trkpt lat="47.14437" lon="6.38778">
        <ele>745.6</ele>
        <time>2014-05-04T07:01:03Z</time>
      </trkpt>
      <trkpt lat="47.14443" lon="6.38788">
        <ele>746.7</ele>
        <time>2014-05-04T07:01:09Z</time>
      </trkpt>
      <trkpt lat="47.14451" lon="6.38797">
        <ele>747.6</ele>
        <time>2014-05-04T07:01:15Z</time>
      </trkpt>
      <trkpt lat="47.14459" lon="6.38804">
        <ele>748</ele>
        <time>2014-05-04T07:01:21Z</time>
      </trkpt>
      <trkpt lat="47.14467" lon="6.38811">
        <ele>748.4</ele>
        <time>2014-05-04T07:01:28Z</time>
      </trkpt>
      <trkpt lat="47.14475" lon="6.38817">
        <ele>749</ele>
        <time>2014-05-04T07:01:34Z</time>
      </trkpt>
      <trkpt lat="47.14484" lon="6.38825">
        <ele>749.6</ele>
        <time>2014-05-04T07:01:40Z</time>
      </trkpt>
      <trkpt lat="47.14501" lon="6.38841">
        <ele>750.7</ele>
        <time>2014-05-04T07:01:49Z</time>
      </trkpt>
      <trkpt lat="47.1451" lon="6.3885">
        <ele>750.9</ele>
        <time>2014-05-04T07:01:53Z</time>
      </trkpt>
      <trkpt lat="47.1452" lon="6.38856">
        <ele>750.9</ele>
        <time>2014-05-04T07:01:56Z</time>
      </trkpt>
      <trkpt lat="47.14527" lon="6.38863">
        <ele>751.2</ele>
        <time>2014-05-04T07:01:59Z</time>
      </trkpt>
      <trkpt lat="47.14536" lon="6.38872">
        <ele>751.1</ele>
        <time>2014-05-04T07:02:03Z</time>
      </trkpt>
      <trkpt lat="47.14545" lon="6.38882">
        <ele>751.3</ele>
        <time>2014-05-04T07:02:07Z</time>
      </trkpt>
      <trkpt lat="47.14555" lon="6.38889">
        <ele>752</ele>
        <time>2014-05-04T07:02:11Z</time>
      </trkpt>
      <trkpt lat="47.14563" lon="6.38897">
        <ele>751.6</ele>
        <time>2014-05-04T07:02:14Z</time>
      </trkpt>
      <trkpt lat="47.1457" lon="6.38905">
        <ele>752</ele>
        <time>2014-05-04T07:02:17Z</time>
      </trkpt>
      <trkpt lat="47.14579" lon="6.38914">
        <ele>751.1</ele>
        <time>2014-05-04T07:02:21Z</time>
      </trkpt>
      <trkpt lat="47.14587" lon="6.38921">
        <ele>751.1</ele>
        <time>2014-05-04T07:02:25Z</time>
      </trkpt>
      <trkpt lat="47.14595" lon="6.38928">
        <ele>752.1</ele>
        <time>2014-05-04T07:02:30Z</time>
      </trkpt>
      <trkpt lat="47.14604" lon="6.38935">
        <ele>753.1</ele>
        <time>2014-05-04T07:02:36Z</time>
      </trkpt>
      <trkpt lat="47.14612" lon="6.38943">
        <ele>753.5</ele>
        <time>2014-05-04T07:02:43Z</time>
      </trkpt>
      <trkpt lat="47.14629" lon="6.38958">
        <ele>754.8</ele>
        <time>2014-05-04T07:02:58Z</time>
      </trkpt>
      <trkpt lat="47.14638" lon="6.38962">
        <ele>756.2</ele>
        <time>2014-05-04T07:03:08Z</time>
      </trkpt>
      <trkpt lat="47.14644" lon="6.38972">
        <ele>756.7</ele>
        <time>2014-05-04T07:03:14Z</time>
      </trkpt>
      <trkpt lat="47.14652" lon="6.38979">
        <ele>757.5</ele>
        <time>2014-05-04T07:03:19Z</time>
      </trkpt>
      <trkpt lat="47.14661" lon="6.38985">
        <ele>758.2</ele>
        <time>2014-05-04T07:03:24Z</time>
      </trkpt>
      <trkpt lat="47.14671" lon="6.38992">
        <ele>758.8</ele>
        <time>2014-05-04T07:03:29Z</time>
      </trkpt>
      <trkpt lat="47.14679" lon="6.38999">
        <ele>759.4</ele>
        <time>2014-05-04T07:03:34Z</time>
      </trkpt>
      <trkpt lat="47.14685" lon="6.39009">
        <ele>760.6</ele>
        <time>2014-05-04T07:03:41Z</time>
      </trkpt>
      <trkpt lat="47.14693" lon="6.3902">
        <ele>760.9</ele>
        <time>2014-05-04T07:03:49Z</time>
      </trkpt>
      <trkpt lat="47.14709" lon="6.3904">
        <ele>761</ele>
        <time>2014-05-04T07:04:01Z</time>
      </trkpt>
      <trkpt lat="47.14718" lon="6.39038">
        <ele>761.2</ele>
        <time>2014-05-04T07:04:15Z</time>
      </trkpt>
      <trkpt lat="47.14726" lon="6.39045">
        <ele>762</ele>
        <time>2014-05-04T07:04:25Z</time>
      </trkpt>
      <trkpt lat="47.14735" lon="6.39048">
        <ele>761.9</ele>
        <time>2014-05-04T07:04:36Z</time>
      </trkpt>
      <trkpt lat="47.14743" lon="6.39055">
        <ele>762.6</ele>
        <time>2014-05-04T07:04:48Z</time>
      </trkpt>
      <trkpt lat="47.14751" lon="6.39063">
        <ele>763.8</ele>
        <time>2014-05-04T07:04:58Z</time>
      </trkpt>
      <trkpt lat="47.14768" lon="6.39073">
        <ele>766.1</ele>
        <time>2014-05-04T07:05:20Z</time>
      </trkpt>
      <trkpt lat="47.14773" lon="6.39085">
        <ele>766.3</ele>
        <time>2014-05-04T07:05:24Z</time>
      </trkpt>
      <trkpt lat="47.1478" lon="6.39094">
        <ele>766.4</ele>
        <time>2014-05-04T07:05:29Z</time>
      </trkpt>
      <trkpt lat="47.14789" lon="6.39101">
        <ele>767</ele>
        <time>2014-05-04T07:05:35Z</time>
      </trkpt>
      <trkpt lat="47.14797" lon="6.39111">
        <ele>767.5</ele>
        <time>2014-05-04T07:05:40Z</time>
      </trkpt>
      <trkpt lat="47.14806" lon="6.3912">
        <ele>768.6</ele>
        <time>2014-05-04T07:05:46Z</time>
      </trkpt>
      <trkpt lat="47.14814" lon="6.39129">
        <ele>769.3</ele>
        <time>2014-05-04T07:05:51Z</time>
      </trkpt>
      <trkpt lat="47.14818" lon="6.39141">
        <ele>769.5</ele>
        <time>2014-05-04T07:05:53Z</time>
      </trkpt>
      <trkpt lat="47.14827" lon="6.39148">
        <ele>769.9</ele>
        <time>2014-05-04T07:06:00Z</time>
      </trkpt>
      <trkpt lat="47.14845" lon="6.39151">
        <ele>770.3</ele>
        <time>2014-05-04T07:06:26Z</time>
      </trkpt>
      <trkpt lat="47.14852" lon="6.39162">
        <ele>770.6</ele>
        <time>2014-05-04T07:06:31Z</time>
      </trkpt>
      <trkpt lat="47.1486" lon="6.39171">
        <ele>771</ele>
        <time>2014-05-04T07:06:36Z</time>
      </trkpt>
      <trkpt lat="47.14868" lon="6.39178">
        <ele>771.7</ele>
        <time>2014-05-04T07:06:41Z</time>
      </trkpt>
      <trkpt lat="47.14876" lon="6.39187">
        <ele>772.6</ele>
        <time>2014-05-04T07:06:47Z</time>
      </trkpt>
      <trkpt lat="47.14882" lon="6.39196">
        <ele>773.2</ele>
        <time>2014-05-04T07:06:54Z</time>
      </trkpt>
      <trkpt lat="47.14891" lon="6.39201">
        <ele>773.1</ele>
        <time>2014-05-04T07:07:02Z</time>
      </trkpt>
      <trkpt lat="47.14908" lon="6.39225">
        <ele>772.7</ele>
        <time>2014-05-04T07:07:12Z</time>
      </trkpt>
      <trkpt lat="47.14914" lon="6.39235">
        <ele>771.9</ele>
        <time>2014-05-04T07:07:16Z</time>
      </trkpt>
      <trkpt lat="47.14923" lon="6.39243">
        <ele>770.4</ele>
        <time>2014-05-04T07:07:21Z</time>
      </trkpt>
      <trkpt lat="47.14932" lon="6.39249">
        <ele>768.2</ele>
        <time>2014-05-04T07:07:31Z</time>
      </trkpt>
      <trkpt lat="47.14941" lon="6.39253">
        <ele>767.9</ele>
        <time>2014-05-04T07:07:40Z</time>
      </trkpt>
      <trkpt lat="47.14951" lon="6.39255">
        <ele>767.3</ele>
        <time>2014-05-04T07:07:49Z</time>
      </trkpt>
      <trkpt lat="47.1496" lon="6.39256">
        <ele>769.2</ele>
        <time>2014-05-04T07:07:59Z</time>
      </trkpt>
      <trkpt lat="47.14967" lon="6.39265">
        <ele>769.6</ele>
        <time>2014-05-04T07:08:08Z</time>
      </trkpt>
      <trkpt lat="47.14983" lon="6.39281">
        <ele>773</ele>
        <time>2014-05-04T07:08:31Z</time>
      </trkpt>
      <trkpt lat="47.14989" lon="6.39291">
        <ele>773.6</ele>
        <time>2014-05-04T07:08:35Z</time>
      </trkpt>
      <trkpt lat="47.14997" lon="6.393">
        <ele>773.9</ele>
        <time>2014-05-04T07:08:40Z</time>
      </trkpt>
      <trkpt lat="47.15005" lon="6.39307">
        <ele>774.1</ele>
        <time>2014-05-04T07:08:45Z</time>
      </trkpt>
      <trkpt lat="47.15012" lon="6.39317">
        <ele>774.4</ele>
        <time>2014-05-04T07:08:49Z</time>
      </trkpt>
      <trkpt lat="47.15021" lon="6.39323">
        <ele>774.3</ele>
        <time>2014-05-04T07:08:55Z</time>
      </trkpt>
      <trkpt lat="47.15025" lon="6.39336">
        <ele>774.7</ele>
        <time>2014-05-04T07:09:03Z</time>
      </trkpt>
      <trkpt lat="47.15023" lon="6.3935">
        <ele>776.1</ele>
        <time>2014-05-04T07:09:11Z</time>
      </trkpt>
      <trkpt lat="47.15021" lon="6.3938">
        <ele>777.1</ele>
        <time>2014-05-04T07:09:20Z</time>
      </trkpt>
      <trkpt lat="47.15023" lon="6.39395">
        <ele>778</ele>
        <time>2014-05-04T07:09:25Z</time>
      </trkpt>
      <trkpt lat="47.15032" lon="6.39405">
        <ele>779.2</ele>
        <time>2014-05-04T07:09:29Z</time>
      </trkpt>
      <trkpt lat="47.15038" lon="6.39418">
        <ele>779.1</ele>
        <time>2014-05-04T07:09:33Z</time>
      </trkpt>
      <trkpt lat="47.15042" lon="6.39431">
        <ele>778.7</ele>
        <time>2014-05-04T07:09:37Z</time>
      </trkpt>
      <trkpt lat="47.1505" lon="6.39441">
        <ele>779.5</ele>
        <time>2014-05-04T07:09:42Z</time>
      </trkpt>
      <trkpt lat="47.15059" lon="6.39448">
        <ele>780.1</ele>
        <time>2014-05-04T07:09:47Z</time>
      </trkpt>
      <trkpt lat="47.15067" lon="6.39457">
        <ele>781</ele>
        <time>2014-05-04T07:09:52Z</time>
      </trkpt>
      <trkpt lat="47.15075" lon="6.39464">
        <ele>781.9</ele>
        <time>2014-05-04T07:09:57Z</time>
      </trkpt>
      <trkpt lat="47.15085" lon="6.39469">
        <ele>782.5</ele>
        <time>2014-05-04T07:10:02Z</time>
      </trkpt>
      <trkpt lat="47.15093" lon="6.39472">
        <ele>782.8</ele>
        <time>2014-05-04T07:10:07Z</time>
      </trkpt>
      <trkpt lat="47.15104" lon="6.39476">
        <ele>783.6</ele>
        <time>2014-05-04T07:10:14Z</time>
      </trkpt>
      <trkpt lat="47.15122" lon="6.39488">
        <ele>785.9</ele>
        <time>2014-05-04T07:10:28Z</time>
      </trkpt>
      <trkpt lat="47.15131" lon="6.39497">
        <ele>786.8</ele>
        <time>2014-05-04T07:10:33Z</time>
      </trkpt>
      <trkpt lat="47.15139" lon="6.39504">
        <ele>787.4</ele>
        <time>2014-05-04T07:10:39Z</time>
      </trkpt>
      <trkpt lat="47.15148" lon="6.39509">
        <ele>787.9</ele>
        <time>2014-05-04T07:10:44Z</time>
      </trkpt>
      <trkpt lat="47.15157" lon="6.39514">
        <ele>788.8</ele>
        <time>2014-05-04T07:10:49Z</time>
      </trkpt>
      <trkpt lat="47.15166" lon="6.39521">
        <ele>789.8</ele>
        <time>2014-05-04T07:10:54Z</time>
      </trkpt>
      <trkpt lat="47.15174" lon="6.39527">
        <ele>790.4</ele>
        <time>2014-05-04T07:11:00Z</time>
      </trkpt>
      <trkpt lat="47.15182" lon="6.39535">
        <ele>791.3</ele>
        <time>2014-05-04T07:11:06Z</time>
      </trkpt>
      <trkpt lat="47.15189" lon="6.39544">
        <ele>792.2</ele>
        <time>2014-05-04T07:11:13Z</time>
      </trkpt>
      <trkpt lat="47.15198" lon="6.39552">
        <ele>793.3</ele>
        <time>2014-05-04T07:11:20Z</time>
      </trkpt>
      <trkpt lat="47.15214" lon="6.39571">
        <ele>795.6</ele>
        <time>2014-05-04T07:11:30Z</time>
      </trkpt>
      <trkpt lat="47.15221" lon="6.3958">
        <ele>796.3</ele>
        <time>2014-05-04T07:11:35Z</time>
      </trkpt>
      <trkpt lat="47.15227" lon="6.39591">
        <ele>796.6</ele>
        <time>2014-05-04T07:11:39Z</time>
      </trkpt>
      <trkpt lat="47.15235" lon="6.39598">
        <ele>797.6</ele>
        <time>2014-05-04T07:11:44Z</time>
      </trkpt>
      <trkpt lat="47.15242" lon="6.39609">
        <ele>798.3</ele>
        <time>2014-05-04T07:11:50Z</time>
      </trkpt>
      <trkpt lat="47.15249" lon="6.39619">
        <ele>799.3</ele>
        <time>2014-05-04T07:11:56Z</time>
      </trkpt>
      <trkpt lat="47.15255" lon="6.39629">
        <ele>800.2</ele>
        <time>2014-05-04T07:12:02Z</time>
      </trkpt>
      <trkpt lat="47.15263" lon="6.39641">
        <ele>801.5</ele>
        <time>2014-05-04T07:12:10Z</time>
      </trkpt>
      <trkpt lat="47.15271" lon="6.3965">
        <ele>802.2</ele>
        <time>2014-05-04T07:12:15Z</time>
      </trkpt>
      <trkpt lat="47.1528" lon="6.39658">
        <ele>803.1</ele>
        <time>2014-05-04T07:12:21Z</time>
      </trkpt>
      <trkpt lat="47.15299" lon="6.39672">
        <ele>804.4</ele>
        <time>2014-05-04T07:12:33Z</time>
      </trkpt>
      <trkpt lat="47.15307" lon="6.39679">
        <ele>805.1</ele>
        <time>2014-05-04T07:12:39Z</time>
      </trkpt>
      <trkpt lat="47.15316" lon="6.39685">
        <ele>805.2</ele>
        <time>2014-05-04T07:12:43Z</time>
      </trkpt>
      <trkpt lat="47.15326" lon="6.39691">
        <ele>805.7</ele>
        <time>2014-05-04T07:12:48Z</time>
      </trkpt>
      <trkpt lat="47.15334" lon="6.39697">
        <ele>805.5</ele>
        <time>2014-05-04T07:12:53Z</time>
      </trkpt>
      <trkpt lat="47.15343" lon="6.39704">
        <ele>805.8</ele>
        <time>2014-05-04T07:12:58Z</time>
      </trkpt>
      <trkpt lat="47.1535" lon="6.39711">
        <ele>806.5</ele>
        <time>2014-05-04T07:13:02Z</time>
      </trkpt>
      <trkpt lat="47.15359" lon="6.39718">
        <ele>807.4</ele>
        <time>2014-05-04T07:13:06Z</time>
      </trkpt>
      <trkpt lat="47.15367" lon="6.39724">
        <ele>807.9</ele>
        <time>2014-05-04T07:13:09Z</time>
      </trkpt>
      <trkpt lat="47.15377" lon="6.39731">
        <ele>808.2</ele>
        <time>2014-05-04T07:13:13Z</time>
      </trkpt>
      <trkpt lat="47.15385" lon="6.39739">
        <ele>808.6</ele>
        <time>2014-05-04T07:13:17Z</time>
      </trkpt>
      <trkpt lat="47.15394" lon="6.39744">
        <ele>809.4</ele>
        <time>2014-05-04T07:13:21Z</time>
      </trkpt>
      <trkpt lat="47.154" lon="6.39755">
        <ele>809.9</ele>
        <time>2014-05-04T07:13:25Z</time>
      </trkpt>
      <trkpt lat="47.15416" lon="6.39773">
        <ele>811</ele>
        <time>2014-05-04T07:13:34Z</time>
      </trkpt>
      <trkpt lat="47.15426" lon="6.39773">
        <ele>811.1</ele>
        <time>2014-05-04T07:13:39Z</time>
      </trkpt>
      <trkpt lat="47.15436" lon="6.39765">
        <ele>809.9</ele>
        <time>2014-05-04T07:13:43Z</time>
      </trkpt>
      <trkpt lat="47.15445" lon="6.39762">
        <ele>808.5</ele>
        <time>2014-05-04T07:13:47Z</time>
      </trkpt>
      <trkpt lat="47.15454" lon="6.39765">
        <ele>807.5</ele>
        <time>2014-05-04T07:13:53Z</time>
      </trkpt>
      <trkpt lat="47.15457" lon="6.39778">
        <ele>808.4</ele>
        <time>2014-05-04T07:14:02Z</time>
      </trkpt>
      <trkpt lat="47.15461" lon="6.3979">
        <ele>809.8</ele>
        <time>2014-05-04T07:14:08Z</time>
      </trkpt>
      <trkpt lat="47.15466" lon="6.39806">
        <ele>810.3</ele>
        <time>2014-05-04T07:14:15Z</time>
      </trkpt>
      <trkpt lat="47.15465" lon="6.39821">
        <ele>810</ele>
        <time>2014-05-04T07:14:19Z</time>
      </trkpt>
      <trkpt lat="47.15468" lon="6.39835">
        <ele>810.4</ele>
        <time>2014-05-04T07:14:24Z</time>
      </trkpt>
      <trkpt lat="47.15471" lon="6.39849">
        <ele>811.2</ele>
        <time>2014-05-04T07:14:29Z</time>
      </trkpt>
      <trkpt lat="47.15477" lon="6.3988">
        <ele>811.2</ele>
        <time>2014-05-04T07:14:39Z</time>
      </trkpt>
      <trkpt lat="47.1548" lon="6.39892">
        <ele>811.1</ele>
        <time>2014-05-04T07:14:42Z</time>
      </trkpt>
      <trkpt lat="47.15484" lon="6.39913">
        <ele>811.1</ele>
        <time>2014-05-04T07:14:46Z</time>
      </trkpt>
      <trkpt lat="47.15488" lon="6.39926">
        <ele>810.8</ele>
        <time>2014-05-04T07:14:49Z</time>
      </trkpt>
      <trkpt lat="47.15496" lon="6.3994">
        <ele>809.7</ele>
        <time>2014-05-04T07:14:53Z</time>
      </trkpt>
      <trkpt lat="47.15506" lon="6.39946">
        <ele>809.3</ele>
        <time>2014-05-04T07:14:58Z</time>
      </trkpt>
      <trkpt lat="47.15513" lon="6.39956">
        <ele>808.6</ele>
        <time>2014-05-04T07:15:06Z</time>
      </trkpt>
      <trkpt lat="47.15522" lon="6.39958">
        <ele>809</ele>
        <time>2014-05-04T07:15:22Z</time>
      </trkpt>
      <trkpt lat="47.15531" lon="6.39954">
        <ele>809.7</ele>
        <time>2014-05-04T07:15:33Z</time>
      </trkpt>
      <trkpt lat="47.15556" lon="6.39981">
        <ele>809.6</ele>
        <time>2014-05-04T07:17:30Z</time>
      </trkpt>
      <trkpt lat="47.15563" lon="6.39989">
        <ele>809.2</ele>
        <time>2014-05-04T07:17:37Z</time>
      </trkpt>
      <trkpt lat="47.15572" lon="6.39997">
        <ele>809.2</ele>
        <time>2014-05-04T07:17:45Z</time>
      </trkpt>
      <trkpt lat="47.15581" lon="6.40006">
        <ele>809.7</ele>
        <time>2014-05-04T07:17:51Z</time>
      </trkpt>
      <trkpt lat="47.15589" lon="6.40013">
        <ele>809</ele>
        <time>2014-05-04T07:17:57Z</time>
      </trkpt>
      <trkpt lat="47.15597" lon="6.4002">
        <ele>806.5</ele>
        <time>2014-05-04T07:18:12Z</time>
      </trkpt>
      <trkpt lat="47.15592" lon="6.40032">
        <ele>802</ele>
        <time>2014-05-04T07:18:28Z</time>
      </trkpt>
      <trkpt lat="47.15586" lon="6.40061">
        <ele>799.9</ele>
        <time>2014-05-04T07:18:42Z</time>
      </trkpt>
      <trkpt lat="47.15585" lon="6.40075">
        <ele>799.3</ele>
        <time>2014-05-04T07:18:48Z</time>
      </trkpt>
      <trkpt lat="47.15587" lon="6.40088">
        <ele>798.1</ele>
        <time>2014-05-04T07:19:04Z</time>
      </trkpt>
      <trkpt lat="47.15592" lon="6.401">
        <ele>798.4</ele>
        <time>2014-05-04T07:19:16Z</time>
      </trkpt>
      <trkpt lat="47.15599" lon="6.40109">
        <ele>799</ele>
        <time>2014-05-04T07:19:26Z</time>
      </trkpt>
      <trkpt lat="47.15604" lon="6.40121">
        <ele>800.1</ele>
        <time>2014-05-04T07:19:32Z</time>
      </trkpt>
      <trkpt lat="47.15617" lon="6.40139">
        <ele>799.8</ele>
        <time>2014-05-04T07:19:53Z</time>
      </trkpt>
      <trkpt lat="47.15624" lon="6.40151">
        <ele>800.7</ele>
        <time>2014-05-04T07:20:01Z</time>
      </trkpt>
      <trkpt lat="47.15633" lon="6.40157">
        <ele>801.7</ele>
        <time>2014-05-04T07:20:12Z</time>
      </trkpt>
      <trkpt lat="47.15641" lon="6.40164">
        <ele>803.5</ele>
        <time>2014-05-04T07:20:21Z</time>
      </trkpt>
      <trkpt lat="47.15647" lon="6.40174">
        <ele>803.5</ele>
        <time>2014-05-04T07:20:31Z</time>
      </trkpt>
      <trkpt lat="47.15652" lon="6.40185">
        <ele>803.9</ele>
        <time>2014-05-04T07:20:37Z</time>
      </trkpt>
      <trkpt lat="47.15666" lon="6.40208">
        <ele>804.7</ele>
        <time>2014-05-04T07:20:45Z</time>
      </trkpt>
      <trkpt lat="47.15676" lon="6.40218">
        <ele>805.2</ele>
        <time>2014-05-04T07:20:50Z</time>
      </trkpt>
      <trkpt lat="47.15685" lon="6.40227">
        <ele>804.8</ele>
        <time>2014-05-04T07:20:54Z</time>
      </trkpt>
      <trkpt lat="47.15693" lon="6.40235">
        <ele>805.9</ele>
        <time>2014-05-04T07:20:58Z</time>
      </trkpt>
      <trkpt lat="47.15699" lon="6.40245">
        <ele>806.4</ele>
        <time>2014-05-04T07:21:01Z</time>
      </trkpt>
      <trkpt lat="47.15706" lon="6.40254">
        <ele>806.9</ele>
        <time>2014-05-04T07:21:04Z</time>
      </trkpt>
      <trkpt lat="47.15713" lon="6.40266">
        <ele>806.2</ele>
        <time>2014-05-04T07:21:08Z</time>
      </trkpt>
      <trkpt lat="47.15715" lon="6.4028">
        <ele>806.2</ele>
        <time>2014-05-04T07:21:12Z</time>
      </trkpt>
      <trkpt lat="47.15717" lon="6.40295">
        <ele>806.4</ele>
        <time>2014-05-04T07:21:17Z</time>
      </trkpt>
      <trkpt lat="47.15719" lon="6.4031">
        <ele>806</ele>
        <time>2014-05-04T07:21:21Z</time>
      </trkpt>
      <trkpt lat="47.15721" lon="6.40325">
        <ele>805.6</ele>
        <time>2014-05-04T07:21:25Z</time>
      </trkpt>
      <trkpt lat="47.15724" lon="6.40337">
        <ele>805.6</ele>
        <time>2014-05-04T07:21:28Z</time>
      </trkpt>
      <trkpt lat="47.15727" lon="6.40354">
        <ele>804.7</ele>
        <time>2014-05-04T07:21:31Z</time>
      </trkpt>
      <trkpt lat="47.1573" lon="6.4037">
        <ele>803.6</ele>
        <time>2014-05-04T07:21:34Z</time>
      </trkpt>
      <trkpt lat="47.15732" lon="6.40388">
        <ele>803.5</ele>
        <time>2014-05-04T07:21:37Z</time>
      </trkpt>
      <trkpt lat="47.15737" lon="6.40404">
        <ele>803.4</ele>
        <time>2014-05-04T07:21:40Z</time>
      </trkpt>
      <trkpt lat="47.15743" lon="6.40435">
        <ele>803.7</ele>
        <time>2014-05-04T07:21:46Z</time>
      </trkpt>
      <trkpt lat="47.15743" lon="6.40452">
        <ele>803.1</ele>
        <time>2014-05-04T07:21:49Z</time>
      </trkpt>
      <trkpt lat="47.15745" lon="6.40472">
        <ele>802.4</ele>
        <time>2014-05-04T07:21:52Z</time>
      </trkpt>
      <trkpt lat="47.15747" lon="6.4049">
        <ele>802</ele>
        <time>2014-05-04T07:21:55Z</time>
      </trkpt>
      <trkpt lat="47.1575" lon="6.40507">
        <ele>802</ele>
        <time>2014-05-04T07:21:58Z</time>
      </trkpt>
      <trkpt lat="47.15757" lon="6.40519">
        <ele>801.7</ele>
        <time>2014-05-04T07:22:01Z</time>
      </trkpt>
      <trkpt lat="47.15768" lon="6.40528">
        <ele>801.4</ele>
        <time>2014-05-04T07:22:04Z</time>
      </trkpt>
      <trkpt lat="47.15776" lon="6.40538">
        <ele>801.6</ele>
        <time>2014-05-04T07:22:06Z</time>
      </trkpt>
      <trkpt lat="47.15785" lon="6.40552">
        <ele>801.6</ele>
        <time>2014-05-04T07:22:08Z</time>
      </trkpt>
      <trkpt lat="47.15793" lon="6.40563">
        <ele>801.5</ele>
        <time>2014-05-04T07:22:10Z</time>
      </trkpt>
      <trkpt lat="47.15803" lon="6.40573">
        <ele>801.6</ele>
        <time>2014-05-04T07:22:13Z</time>
      </trkpt>
      <trkpt lat="47.15812" lon="6.40579">
        <ele>801.8</ele>
        <time>2014-05-04T07:22:16Z</time>
      </trkpt>
      <trkpt lat="47.15821" lon="6.40585">
        <ele>802.5</ele>
        <time>2014-05-04T07:22:19Z</time>
      </trkpt>
      <trkpt lat="47.15831" lon="6.4059">
        <ele>802.9</ele>
        <time>2014-05-04T07:22:22Z</time>
      </trkpt>
      <trkpt lat="47.1584" lon="6.40595">
        <ele>803.3</ele>
        <time>2014-05-04T07:22:25Z</time>
      </trkpt>
      <trkpt lat="47.15851" lon="6.40598">
        <ele>804</ele>
        <time>2014-05-04T07:22:29Z</time>
      </trkpt>
      <trkpt lat="47.15862" lon="6.40604">
        <ele>804.9</ele>
        <time>2014-05-04T07:22:33Z</time>
      </trkpt>
      <trkpt lat="47.15873" lon="6.40611">
        <ele>805.4</ele>
        <time>2014-05-04T07:22:37Z</time>
      </trkpt>
      <trkpt lat="47.15882" lon="6.4062">
        <ele>806.1</ele>
        <time>2014-05-04T07:22:40Z</time>
      </trkpt>
      <trkpt lat="47.1589" lon="6.40627">
        <ele>806.9</ele>
        <time>2014-05-04T07:22:43Z</time>
      </trkpt>
      <trkpt lat="47.15909" lon="6.40644">
        <ele>808.6</ele>
        <time>2014-05-04T07:22:51Z</time>
      </trkpt>
      <trkpt lat="47.15919" lon="6.40651">
        <ele>809.2</ele>
        <time>2014-05-04T07:22:55Z</time>
      </trkpt>
      <trkpt lat="47.15927" lon="6.40656">
        <ele>809.4</ele>
        <time>2014-05-04T07:22:58Z</time>
      </trkpt>
      <trkpt lat="47.15936" lon="6.40662">
        <ele>809.6</ele>
        <time>2014-05-04T07:23:01Z</time>
      </trkpt>
      <trkpt lat="47.15945" lon="6.4067">
        <ele>809.4</ele>
        <time>2014-05-04T07:23:04Z</time>
      </trkpt>
      <trkpt lat="47.15955" lon="6.40681">
        <ele>808.6</ele>
        <time>2014-05-04T07:23:07Z</time>
      </trkpt>
      <trkpt lat="47.15965" lon="6.4069">
        <ele>808.7</ele>
        <time>2014-05-04T07:23:10Z</time>
      </trkpt>
      <trkpt lat="47.15973" lon="6.40697">
        <ele>808.3</ele>
        <time>2014-05-04T07:23:12Z</time>
      </trkpt>
      <trkpt lat="47.15981" lon="6.40704">
        <ele>808</ele>
        <time>2014-05-04T07:23:14Z</time>
      </trkpt>
      <trkpt lat="47.15989" lon="6.40711">
        <ele>807.7</ele>
        <time>2014-05-04T07:23:16Z</time>
      </trkpt>
      <trkpt lat="47.15997" lon="6.40717">
        <ele>807.3</ele>
        <time>2014-05-04T07:23:18Z</time>
      </trkpt>
      <trkpt lat="47.16006" lon="6.40723">
        <ele>807.2</ele>
        <time>2014-05-04T07:23:20Z</time>
      </trkpt>
      <trkpt lat="47.16015" lon="6.40731">
        <ele>806.7</ele>
        <time>2014-05-04T07:23:22Z</time>
      </trkpt>
      <trkpt lat="47.16024" lon="6.40736">
        <ele>806.2</ele>
        <time>2014-05-04T07:23:24Z</time>
      </trkpt>
      <trkpt lat="47.16033" lon="6.40741">
        <ele>806</ele>
        <time>2014-05-04T07:23:26Z</time>
      </trkpt>
      <trkpt lat="47.16044" lon="6.40745">
        <ele>805.6</ele>
        <time>2014-05-04T07:23:28Z</time>
      </trkpt>
      <trkpt lat="47.16055" lon="6.4075">
        <ele>805.1</ele>
        <time>2014-05-04T07:23:30Z</time>
      </trkpt>
      <trkpt lat="47.16066" lon="6.40755">
        <ele>804.8</ele>
        <time>2014-05-04T07:23:32Z</time>
      </trkpt>
      <trkpt lat="47.16076" lon="6.40762">
        <ele>804.3</ele>
        <time>2014-05-04T07:23:34Z</time>
      </trkpt>
      <trkpt lat="47.16086" lon="6.40767">
        <ele>803.6</ele>
        <time>2014-05-04T07:23:36Z</time>
      </trkpt>
      <trkpt lat="47.16097" lon="6.40772">
        <ele>802.7</ele>
        <time>2014-05-04T07:23:38Z</time>
      </trkpt>
      <trkpt lat="47.16108" lon="6.4078">
        <ele>802</ele>
        <time>2014-05-04T07:23:40Z</time>
      </trkpt>
      <trkpt lat="47.16119" lon="6.40789">
        <ele>800.9</ele>
        <time>2014-05-04T07:23:42Z</time>
      </trkpt>
      <trkpt lat="47.1613" lon="6.40798">
        <ele>799.7</ele>
        <time>2014-05-04T07:23:44Z</time>
      </trkpt>
      <trkpt lat="47.16155" lon="6.40813">
        <ele>796.6</ele>
        <time>2014-05-04T07:23:48Z</time>
      </trkpt>
      <trkpt lat="47.16166" lon="6.40822">
        <ele>795.1</ele>
        <time>2014-05-04T07:23:50Z</time>
      </trkpt>
      <trkpt lat="47.16178" lon="6.40833">
        <ele>793.8</ele>
        <time>2014-05-04T07:23:52Z</time>
      </trkpt>
      <trkpt lat="47.16189" lon="6.40844">
        <ele>792</ele>
        <time>2014-05-04T07:23:54Z</time>
      </trkpt>
      <trkpt lat="47.162" lon="6.40856">
        <ele>790.6</ele>
        <time>2014-05-04T07:23:56Z</time>
      </trkpt>
      <trkpt lat="47.1621" lon="6.4087">
        <ele>789.6</ele>
        <time>2014-05-04T07:23:58Z</time>
      </trkpt>
      <trkpt lat="47.16221" lon="6.40886">
        <ele>788.5</ele>
        <time>2014-05-04T07:24:00Z</time>
      </trkpt>
      <trkpt lat="47.16234" lon="6.40904">
        <ele>788</ele>
        <time>2014-05-04T07:24:02Z</time>
      </trkpt>
      <trkpt lat="47.16248" lon="6.40919">
        <ele>787.8</ele>
        <time>2014-05-04T07:24:04Z</time>
      </trkpt>
      <trkpt lat="47.16262" lon="6.4093">
        <ele>787.1</ele>
        <time>2014-05-04T07:24:06Z</time>
      </trkpt>
      <trkpt lat="47.16277" lon="6.4094">
        <ele>786.4</ele>
        <time>2014-05-04T07:24:08Z</time>
      </trkpt>
      <trkpt lat="47.1629" lon="6.40945">
        <ele>785.9</ele>
        <time>2014-05-04T07:24:10Z</time>
      </trkpt>
      <trkpt lat="47.16303" lon="6.40948">
        <ele>785.3</ele>
        <time>2014-05-04T07:24:12Z</time>
      </trkpt>
      <trkpt lat="47.16315" lon="6.40948">
        <ele>784.7</ele>
        <time>2014-05-04T07:24:14Z</time>
      </trkpt>
      <trkpt lat="47.16325" lon="6.40942">
        <ele>783.6</ele>
        <time>2014-05-04T07:24:16Z</time>
      </trkpt>
      <trkpt lat="47.16334" lon="6.40929">
        <ele>782.7</ele>
        <time>2014-05-04T07:24:18Z</time>
      </trkpt>
      <trkpt lat="47.16343" lon="6.40915">
        <ele>781.5</ele>
        <time>2014-05-04T07:24:20Z</time>
      </trkpt>
      <trkpt lat="47.16353" lon="6.40901">
        <ele>780.6</ele>
        <time>2014-05-04T07:24:22Z</time>
      </trkpt>
      <trkpt lat="47.16365" lon="6.4089">
        <ele>780.2</ele>
        <time>2014-05-04T07:24:24Z</time>
      </trkpt>
      <trkpt lat="47.16377" lon="6.40881">
        <ele>779.7</ele>
        <time>2014-05-04T07:24:26Z</time>
      </trkpt>
      <trkpt lat="47.16388" lon="6.40873">
        <ele>778.7</ele>
        <time>2014-05-04T07:24:28Z</time>
      </trkpt>
      <trkpt lat="47.16401" lon="6.40863">
        <ele>778.1</ele>
        <time>2014-05-04T07:24:30Z</time>
      </trkpt>
      <trkpt lat="47.16413" lon="6.40853">
        <ele>776.7</ele>
        <time>2014-05-04T07:24:32Z</time>
      </trkpt>
      <trkpt lat="47.16429" lon="6.4084">
        <ele>775.7</ele>
        <time>2014-05-04T07:24:34Z</time>
      </trkpt>
      <trkpt lat="47.16437" lon="6.40833">
        <ele>775</ele>
        <time>2014-05-04T07:24:35Z</time>
      </trkpt>
      <trkpt lat="47.16445" lon="6.40826">
        <ele>774.4</ele>
        <time>2014-05-04T07:24:36Z</time>
      </trkpt>
      <trkpt lat="47.16454" lon="6.4082">
        <ele>773.9</ele>
        <time>2014-05-04T07:24:37Z</time>
      </trkpt>
      <trkpt lat="47.16463" lon="6.40814">
        <ele>773.4</ele>
        <time>2014-05-04T07:24:38Z</time>
      </trkpt>
      <trkpt lat="47.16472" lon="6.40806">
        <ele>772.8</ele>
        <time>2014-05-04T07:24:39Z</time>
      </trkpt>
      <trkpt lat="47.1648" lon="6.40799">
        <ele>772.4</ele>
        <time>2014-05-04T07:24:40Z</time>
      </trkpt>
      <trkpt lat="47.16494" lon="6.40787">
        <ele>771.4</ele>
        <time>2014-05-04T07:24:42Z</time>
      </trkpt>
      <trkpt lat="47.16502" lon="6.40779">
        <ele>771</ele>
        <time>2014-05-04T07:24:43Z</time>
      </trkpt>
      <trkpt lat="47.16516" lon="6.40768">
        <ele>770.3</ele>
        <time>2014-05-04T07:24:45Z</time>
      </trkpt>
      <trkpt lat="47.16548" lon="6.40751">
        <ele>768.9</ele>
        <time>2014-05-04T07:24:49Z</time>
      </trkpt>
      <trkpt lat="47.16564" lon="6.40753">
        <ele>767.7</ele>
        <time>2014-05-04T07:24:51Z</time>
      </trkpt>
      <trkpt lat="47.16581" lon="6.40757">
        <ele>766.6</ele>
        <time>2014-05-04T07:24:53Z</time>
      </trkpt>
      <trkpt lat="47.16597" lon="6.40754">
        <ele>765.7</ele>
        <time>2014-05-04T07:24:55Z</time>
      </trkpt>
      <trkpt lat="47.16613" lon="6.40744">
        <ele>764.7</ele>
        <time>2014-05-04T07:24:57Z</time>
      </trkpt>
      <trkpt lat="47.16627" lon="6.40729">
        <ele>763.7</ele>
        <time>2014-05-04T07:24:59Z</time>
      </trkpt>
      <trkpt lat="47.16642" lon="6.40719">
        <ele>762.7</ele>
        <time>2014-05-04T07:25:01Z</time>
      </trkpt>
      <trkpt lat="47.16658" lon="6.40714">
        <ele>761.6</ele>
        <time>2014-05-04T07:25:03Z</time>
      </trkpt>
      <trkpt lat="47.16673" lon="6.40718">
        <ele>760.2</ele>
        <time>2014-05-04T07:25:05Z</time>
      </trkpt>
      <trkpt lat="47.16686" lon="6.40719">
        <ele>759</ele>
        <time>2014-05-04T07:25:07Z</time>
      </trkpt>
      <trkpt lat="47.16695" lon="6.40721">
        <ele>757.8</ele>
        <time>2014-05-04T07:25:09Z</time>
      </trkpt>
      <trkpt lat="47.16707" lon="6.40726">
        <ele>756.8</ele>
        <time>2014-05-04T07:25:12Z</time>
      </trkpt>
      <trkpt lat="47.16714" lon="6.40734">
        <ele>756.8</ele>
        <time>2014-05-04T07:25:17Z</time>
      </trkpt>
      <trkpt lat="47.1672" lon="6.40746">
        <ele>758</ele>
        <time>2014-05-04T07:25:23Z</time>
      </trkpt>
      <trkpt lat="47.16726" lon="6.40756">
        <ele>759.8</ele>
        <time>2014-05-04T07:25:29Z</time>
      </trkpt>
      <trkpt lat="47.16734" lon="6.40766">
        <ele>762</ele>
        <time>2014-05-04T07:25:36Z</time>
      </trkpt>
      <trkpt lat="47.16742" lon="6.40775">
        <ele>763.7</ele>
        <time>2014-05-04T07:25:42Z</time>
      </trkpt>
      <trkpt lat="47.16749" lon="6.40787">
        <ele>765.5</ele>
        <time>2014-05-04T07:25:48Z</time>
      </trkpt>
      <trkpt lat="47.16761" lon="6.40809">
        <ele>768.3</ele>
        <time>2014-05-04T07:25:57Z</time>
      </trkpt>
      <trkpt lat="47.16767" lon="6.40818">
        <ele>770</ele>
        <time>2014-05-04T07:26:03Z</time>
      </trkpt>
      <trkpt lat="47.1677" lon="6.40832">
        <ele>771</ele>
        <time>2014-05-04T07:26:11Z</time>
      </trkpt>
      <trkpt lat="47.16775" lon="6.40843">
        <ele>772.4</ele>
        <time>2014-05-04T07:26:18Z</time>
      </trkpt>
      <trkpt lat="47.16781" lon="6.40853">
        <ele>773.6</ele>
        <time>2014-05-04T07:26:23Z</time>
      </trkpt>
      <trkpt lat="47.16787" lon="6.40864">
        <ele>774.7</ele>
        <time>2014-05-04T07:26:28Z</time>
      </trkpt>
      <trkpt lat="47.16796" lon="6.40873">
        <ele>776</ele>
        <time>2014-05-04T07:26:34Z</time>
      </trkpt>
      <trkpt lat="47.16803" lon="6.40882">
        <ele>777.2</ele>
        <time>2014-05-04T07:26:40Z</time>
      </trkpt>
      <trkpt lat="47.16812" lon="6.40891">
        <ele>778.7</ele>
        <time>2014-05-04T07:26:47Z</time>
      </trkpt>
      <trkpt lat="47.1682" lon="6.409">
        <ele>780.4</ele>
        <time>2014-05-04T07:26:54Z</time>
      </trkpt>
      <trkpt lat="47.16836" lon="6.40914">
        <ele>783.7</ele>
        <time>2014-05-04T07:27:08Z</time>
      </trkpt>
      <trkpt lat="47.16844" lon="6.40921">
        <ele>784</ele>
        <time>2014-05-04T07:27:14Z</time>
      </trkpt>
      <trkpt lat="47.16854" lon="6.40921">
        <ele>784.6</ele>
        <time>2014-05-04T07:27:19Z</time>
      </trkpt>
      <trkpt lat="47.16863" lon="6.40927">
        <ele>784.7</ele>
        <time>2014-05-04T07:27:27Z</time>
      </trkpt>
      <trkpt lat="47.16862" lon="6.40912">
        <ele>787.4</ele>
        <time>2014-05-04T07:29:37Z</time>
      </trkpt>
      <trkpt lat="47.16843" lon="6.40896">
        <ele>786.8</ele>
        <time>2014-05-04T07:29:45Z</time>
      </trkpt>
      <trkpt lat="47.16835" lon="6.40889">
        <ele>786</ele>
        <time>2014-05-04T07:29:47Z</time>
      </trkpt>
      <trkpt lat="47.16826" lon="6.40882">
        <ele>785</ele>
        <time>2014-05-04T07:29:49Z</time>
      </trkpt>
      <trkpt lat="47.16818" lon="6.40875">
        <ele>783.8</ele>
        <time>2014-05-04T07:29:51Z</time>
      </trkpt>
      <trkpt lat="47.16807" lon="6.40865">
        <ele>782.3</ele>
        <time>2014-05-04T07:29:54Z</time>
      </trkpt>
      <trkpt lat="47.16798" lon="6.40858">
        <ele>780.5</ele>
        <time>2014-05-04T07:29:57Z</time>
      </trkpt>
      <trkpt lat="47.16787" lon="6.40852">
        <ele>778.8</ele>
        <time>2014-05-04T07:30:01Z</time>
      </trkpt>
      <trkpt lat="47.16779" lon="6.40859">
        <ele>778.5</ele>
        <time>2014-05-04T07:30:07Z</time>
      </trkpt>
      <trkpt lat="47.16771" lon="6.40866">
        <ele>779.4</ele>
        <time>2014-05-04T07:30:13Z</time>
      </trkpt>
      <trkpt lat="47.16764" lon="6.40875">
        <ele>780.8</ele>
        <time>2014-05-04T07:30:19Z</time>
      </trkpt>
      <trkpt lat="47.16758" lon="6.40885">
        <ele>782.3</ele>
        <time>2014-05-04T07:30:26Z</time>
      </trkpt>
      <trkpt lat="47.16751" lon="6.40894">
        <ele>784</ele>
        <time>2014-05-04T07:30:34Z</time>
      </trkpt>
      <trkpt lat="47.16745" lon="6.40905">
        <ele>785.1</ele>
        <time>2014-05-04T07:30:41Z</time>
      </trkpt>
      <trkpt lat="47.16731" lon="6.40926">
        <ele>788.4</ele>
        <time>2014-05-04T07:30:54Z</time>
      </trkpt>
      <trkpt lat="47.16724" lon="6.40936">
        <ele>789.5</ele>
        <time>2014-05-04T07:31:01Z</time>
      </trkpt>
      <trkpt lat="47.16717" lon="6.40946">
        <ele>790.4</ele>
        <time>2014-05-04T07:31:07Z</time>
      </trkpt>
      <trkpt lat="47.1671" lon="6.40957">
        <ele>791.9</ele>
        <time>2014-05-04T07:31:14Z</time>
      </trkpt>
      <trkpt lat="47.16704" lon="6.40969">
        <ele>793</ele>
        <time>2014-05-04T07:31:20Z</time>
      </trkpt>
      <trkpt lat="47.16697" lon="6.4098">
        <ele>794.7</ele>
        <time>2014-05-04T07:31:27Z</time>
      </trkpt>
      <trkpt lat="47.1669" lon="6.40989">
        <ele>795.7</ele>
        <time>2014-05-04T07:31:33Z</time>
      </trkpt>
      <trkpt lat="47.16683" lon="6.40999">
        <ele>796.2</ele>
        <time>2014-05-04T07:31:39Z</time>
      </trkpt>
      <trkpt lat="47.16676" lon="6.41009">
        <ele>796.9</ele>
        <time>2014-05-04T07:31:44Z</time>
      </trkpt>
      <trkpt lat="47.1666" lon="6.41028">
        <ele>798</ele>
        <time>2014-05-04T07:31:54Z</time>
      </trkpt>
      <trkpt lat="47.16651" lon="6.41038">
        <ele>798.4</ele>
        <time>2014-05-04T07:31:59Z</time>
      </trkpt>
      <trkpt lat="47.16644" lon="6.41047">
        <ele>799.2</ele>
        <time>2014-05-04T07:32:03Z</time>
      </trkpt>
      <trkpt lat="47.16636" lon="6.41059">
        <ele>799.7</ele>
        <time>2014-05-04T07:32:08Z</time>
      </trkpt>
      <trkpt lat="47.16628" lon="6.4107">
        <ele>800</ele>
        <time>2014-05-04T07:32:13Z</time>
      </trkpt>
      <trkpt lat="47.16621" lon="6.41079">
        <ele>800.8</ele>
        <time>2014-05-04T07:32:18Z</time>
      </trkpt>
      <trkpt lat="47.16613" lon="6.41089">
        <ele>801.9</ele>
        <time>2014-05-04T07:32:23Z</time>
      </trkpt>
      <trkpt lat="47.16606" lon="6.41098">
        <ele>802.6</ele>
        <time>2014-05-04T07:32:28Z</time>
      </trkpt>
      <trkpt lat="47.16599" lon="6.41109">
        <ele>803.3</ele>
        <time>2014-05-04T07:32:33Z</time>
      </trkpt>
      <trkpt lat="47.16591" lon="6.41119">
        <ele>803.9</ele>
        <time>2014-05-04T07:32:38Z</time>
      </trkpt>
      <trkpt lat="47.16584" lon="6.41131">
        <ele>804.3</ele>
        <time>2014-05-04T07:32:43Z</time>
      </trkpt>
      <trkpt lat="47.16578" lon="6.41141">
        <ele>805.2</ele>
        <time>2014-05-04T07:32:47Z</time>
      </trkpt>
      <trkpt lat="47.16564" lon="6.41163">
        <ele>806.9</ele>
        <time>2014-05-04T07:32:56Z</time>
      </trkpt>
      <trkpt lat="47.16557" lon="6.41174">
        <ele>807.6</ele>
        <time>2014-05-04T07:33:01Z</time>
      </trkpt>
      <trkpt lat="47.1655" lon="6.41185">
        <ele>808.5</ele>
        <time>2014-05-04T07:33:06Z</time>
      </trkpt>
      <trkpt lat="47.16547" lon="6.41198">
        <ele>809.2</ele>
        <time>2014-05-04T07:33:12Z</time>
      </trkpt>
      <trkpt lat="47.16553" lon="6.41208">
        <ele>809.8</ele>
        <time>2014-05-04T07:33:15Z</time>
      </trkpt>
      <trkpt lat="47.1656" lon="6.41219">
        <ele>810.1</ele>
        <time>2014-05-04T07:33:19Z</time>
      </trkpt>
      <trkpt lat="47.16568" lon="6.41227">
        <ele>810</ele>
        <time>2014-05-04T07:33:23Z</time>
      </trkpt>
      <trkpt lat="47.16577" lon="6.41232">
        <ele>810.4</ele>
        <time>2014-05-04T07:33:27Z</time>
      </trkpt>
      <trkpt lat="47.16586" lon="6.41238">
        <ele>810.6</ele>
        <time>2014-05-04T07:33:31Z</time>
      </trkpt>
      <trkpt lat="47.16595" lon="6.41244">
        <ele>811</ele>
        <time>2014-05-04T07:33:35Z</time>
      </trkpt>
      <trkpt lat="47.16605" lon="6.41249">
        <ele>811.4</ele>
        <time>2014-05-04T07:33:39Z</time>
      </trkpt>
      <trkpt lat="47.16614" lon="6.41254">
        <ele>811.9</ele>
        <time>2014-05-04T07:33:43Z</time>
      </trkpt>
      <trkpt lat="47.16624" lon="6.41259">
        <ele>812.3</ele>
        <time>2014-05-04T07:33:47Z</time>
      </trkpt>
      <trkpt lat="47.16633" lon="6.41265">
        <ele>812.8</ele>
        <time>2014-05-04T07:33:51Z</time>
      </trkpt>
      <trkpt lat="47.16653" lon="6.41273">
        <ele>814</ele>
        <time>2014-05-04T07:33:59Z</time>
      </trkpt>
      <trkpt lat="47.16663" lon="6.41277">
        <ele>814.3</ele>
        <time>2014-05-04T07:34:03Z</time>
      </trkpt>
      <trkpt lat="47.16673" lon="6.41281">
        <ele>815.2</ele>
        <time>2014-05-04T07:34:07Z</time>
      </trkpt>
      <trkpt lat="47.16683" lon="6.41285">
        <ele>815.5</ele>
        <time>2014-05-04T07:34:11Z</time>
      </trkpt>
      <trkpt lat="47.16691" lon="6.41292">
        <ele>815.9</ele>
        <time>2014-05-04T07:34:15Z</time>
      </trkpt>
      <trkpt lat="47.16701" lon="6.41295">
        <ele>816.7</ele>
        <time>2014-05-04T07:34:19Z</time>
      </trkpt>
      <trkpt lat="47.16709" lon="6.413">
        <ele>817.5</ele>
        <time>2014-05-04T07:34:23Z</time>
      </trkpt>
      <trkpt lat="47.16718" lon="6.41307">
        <ele>818.3</ele>
        <time>2014-05-04T07:34:28Z</time>
      </trkpt>
      <trkpt lat="47.16728" lon="6.41311">
        <ele>818.7</ele>
        <time>2014-05-04T07:34:33Z</time>
      </trkpt>
      <trkpt lat="47.16738" lon="6.41315">
        <ele>819.2</ele>
        <time>2014-05-04T07:34:38Z</time>
      </trkpt>
      <trkpt lat="47.16749" lon="6.41319">
        <ele>819.7</ele>
        <time>2014-05-04T07:34:43Z</time>
      </trkpt>
      <trkpt lat="47.16759" lon="6.41322">
        <ele>820.5</ele>
        <time>2014-05-04T07:34:48Z</time>
      </trkpt>
      <trkpt lat="47.16769" lon="6.41328">
        <ele>822.1</ele>
        <time>2014-05-04T07:34:53Z</time>
      </trkpt>
      <trkpt lat="47.16788" lon="6.41338">
        <ele>823.3</ele>
        <time>2014-05-04T07:35:02Z</time>
      </trkpt>
      <trkpt lat="47.16798" lon="6.41343">
        <ele>823.8</ele>
        <time>2014-05-04T07:35:07Z</time>
      </trkpt>
      <trkpt lat="47.16808" lon="6.41347">
        <ele>824.4</ele>
        <time>2014-05-04T07:35:12Z</time>
      </trkpt>
      <trkpt lat="47.16817" lon="6.41351">
        <ele>824.9</ele>
        <time>2014-05-04T07:35:16Z</time>
      </trkpt>
      <trkpt lat="47.16825" lon="6.41355">
        <ele>825.4</ele>
        <time>2014-05-04T07:35:20Z</time>
      </trkpt>
      <trkpt lat="47.16834" lon="6.41359">
        <ele>826.1</ele>
        <time>2014-05-04T07:35:24Z</time>
      </trkpt>
      <trkpt lat="47.16844" lon="6.41363">
        <ele>827</ele>
        <time>2014-05-04T07:35:29Z</time>
      </trkpt>
      <trkpt lat="47.16853" lon="6.41368">
        <ele>827.3</ele>
        <time>2014-05-04T07:35:33Z</time>
      </trkpt>
      <trkpt lat="47.16863" lon="6.41374">
        <ele>828.2</ele>
        <time>2014-05-04T07:35:38Z</time>
      </trkpt>
      <trkpt lat="47.16872" lon="6.41378">
        <ele>829</ele>
        <time>2014-05-04T07:35:42Z</time>
      </trkpt>
      <trkpt lat="47.16881" lon="6.41381">
        <ele>829.4</ele>
        <time>2014-05-04T07:35:46Z</time>
      </trkpt>
      <trkpt lat="47.16891" lon="6.41385">
        <ele>829.8</ele>
        <time>2014-05-04T07:35:50Z</time>
      </trkpt>
      <trkpt lat="47.16899" lon="6.41389">
        <ele>830.3</ele>
        <time>2014-05-04T07:35:54Z</time>
      </trkpt>
      <trkpt lat="47.16917" lon="6.41397">
        <ele>831.3</ele>
        <time>2014-05-04T07:36:02Z</time>
      </trkpt>
      <trkpt lat="47.16926" lon="6.41401">
        <ele>831.9</ele>
        <time>2014-05-04T07:36:06Z</time>
      </trkpt>
      <trkpt lat="47.16935" lon="6.41406">
        <ele>832.5</ele>
        <time>2014-05-04T07:36:10Z</time>
      </trkpt>
      <trkpt lat="47.16943" lon="6.41409">
        <ele>832.9</ele>
        <time>2014-05-04T07:36:14Z</time>
      </trkpt>
      <trkpt lat="47.16952" lon="6.41414">
        <ele>833.3</ele>
        <time>2014-05-04T07:36:18Z</time>
      </trkpt>
      <trkpt lat="47.16961" lon="6.41418">
        <ele>834</ele>
        <time>2014-05-04T07:36:22Z</time>
      </trkpt>
      <trkpt lat="47.16971" lon="6.41422">
        <ele>834.9</ele>
        <time>2014-05-04T07:36:27Z</time>
      </trkpt>
      <trkpt lat="47.16982" lon="6.41428">
        <ele>835.5</ele>
        <time>2014-05-04T07:36:32Z</time>
      </trkpt>
      <trkpt lat="47.16992" lon="6.41433">
        <ele>835.9</ele>
        <time>2014-05-04T07:36:36Z</time>
      </trkpt>
      <trkpt lat="47.17002" lon="6.41438">
        <ele>836.2</ele>
        <time>2014-05-04T07:36:40Z</time>
      </trkpt>
      <trkpt lat="47.17012" lon="6.41442">
        <ele>836.9</ele>
        <time>2014-05-04T07:36:44Z</time>
      </trkpt>
      <trkpt lat="47.17022" lon="6.41447">
        <ele>837.2</ele>
        <time>2014-05-04T07:36:48Z</time>
      </trkpt>
      <trkpt lat="47.17031" lon="6.41452">
        <ele>837.9</ele>
        <time>2014-05-04T07:36:52Z</time>
      </trkpt>
      <trkpt lat="47.1704" lon="6.41457">
        <ele>838.6</ele>
        <time>2014-05-04T07:36:56Z</time>
      </trkpt>
      <trkpt lat="47.1706" lon="6.41462">
        <ele>839.8</ele>
        <time>2014-05-04T07:37:04Z</time>
      </trkpt>
      <trkpt lat="47.17066" lon="6.41473">
        <ele>840.4</ele>
        <time>2014-05-04T07:37:09Z</time>
      </trkpt>
      <trkpt lat="47.17067" lon="6.41488">
        <ele>841.5</ele>
        <time>2014-05-04T07:37:15Z</time>
      </trkpt>
      <trkpt lat="47.17066" lon="6.41502">
        <ele>842.9</ele>
        <time>2014-05-04T07:37:24Z</time>
      </trkpt>
      <trkpt lat="47.17061" lon="6.41516">
        <ele>843.8</ele>
        <time>2014-05-04T07:37:30Z</time>
      </trkpt>
      <trkpt lat="47.17058" lon="6.41531">
        <ele>845.1</ele>
        <time>2014-05-04T07:37:35Z</time>
      </trkpt>
      <trkpt lat="47.17054" lon="6.41544">
        <ele>845.6</ele>
        <time>2014-05-04T07:37:39Z</time>
      </trkpt>
      <trkpt lat="47.17049" lon="6.41557">
        <ele>846</ele>
        <time>2014-05-04T07:37:43Z</time>
      </trkpt>
      <trkpt lat="47.17044" lon="6.4157">
        <ele>845.9</ele>
        <time>2014-05-04T07:37:47Z</time>
      </trkpt>
      <trkpt lat="47.17039" lon="6.41583">
        <ele>846.4</ele>
        <time>2014-05-04T07:37:51Z</time>
      </trkpt>
      <trkpt lat="47.17033" lon="6.41596">
        <ele>847.1</ele>
        <time>2014-05-04T07:37:55Z</time>
      </trkpt>
      <trkpt lat="47.17025" lon="6.41608">
        <ele>847.4</ele>
        <time>2014-05-04T07:37:59Z</time>
      </trkpt>
      <trkpt lat="47.17009" lon="6.41626">
        <ele>847.5</ele>
        <time>2014-05-04T07:38:05Z</time>
      </trkpt>
      <trkpt lat="47.17001" lon="6.41634">
        <ele>847.1</ele>
        <time>2014-05-04T07:38:08Z</time>
      </trkpt>
      <trkpt lat="47.16992" lon="6.41642">
        <ele>847.2</ele>
        <time>2014-05-04T07:38:11Z</time>
      </trkpt>
      <trkpt lat="47.16982" lon="6.41652">
        <ele>846.8</ele>
        <time>2014-05-04T07:38:14Z</time>
      </trkpt>
      <trkpt lat="47.16973" lon="6.41662">
        <ele>846.9</ele>
        <time>2014-05-04T07:38:17Z</time>
      </trkpt>
      <trkpt lat="47.16963" lon="6.41673">
        <ele>846.6</ele>
        <time>2014-05-04T07:38:20Z</time>
      </trkpt>
      <trkpt lat="47.16953" lon="6.41685">
        <ele>846.4</ele>
        <time>2014-05-04T07:38:23Z</time>
      </trkpt>
      <trkpt lat="47.16945" lon="6.41693">
        <ele>846.2</ele>
        <time>2014-05-04T07:38:25Z</time>
      </trkpt>
      <trkpt lat="47.16939" lon="6.41702">
        <ele>846</ele>
        <time>2014-05-04T07:38:27Z</time>
      </trkpt>
      <trkpt lat="47.16931" lon="6.41712">
        <ele>845.4</ele>
        <time>2014-05-04T07:38:29Z</time>
      </trkpt>
      <trkpt lat="47.16923" lon="6.41722">
        <ele>845.4</ele>
        <time>2014-05-04T07:38:31Z</time>
      </trkpt>
      <trkpt lat="47.16913" lon="6.41734">
        <ele>844.9</ele>
        <time>2014-05-04T07:38:33Z</time>
      </trkpt>
      <trkpt lat="47.16904" lon="6.41746">
        <ele>844.7</ele>
        <time>2014-05-04T07:38:35Z</time>
      </trkpt>
      <trkpt lat="47.16895" lon="6.41755">
        <ele>844.3</ele>
        <time>2014-05-04T07:38:37Z</time>
      </trkpt>
      <trkpt lat="47.16887" lon="6.41763">
        <ele>843.7</ele>
        <time>2014-05-04T07:38:39Z</time>
      </trkpt>
      <trkpt lat="47.1688" lon="6.41772">
        <ele>843.6</ele>
        <time>2014-05-04T07:38:41Z</time>
      </trkpt>
      <trkpt lat="47.16873" lon="6.41781">
        <ele>843.3</ele>
        <time>2014-05-04T07:38:43Z</time>
      </trkpt>
      <trkpt lat="47.16866" lon="6.41789">
        <ele>843.1</ele>
        <time>2014-05-04T07:38:45Z</time>
      </trkpt>
      <trkpt lat="47.16858" lon="6.41797">
        <ele>842.7</ele>
        <time>2014-05-04T07:38:47Z</time>
      </trkpt>
      <trkpt lat="47.16851" lon="6.41807">
        <ele>842.4</ele>
        <time>2014-05-04T07:38:49Z</time>
      </trkpt>
      <trkpt lat="47.16842" lon="6.41816">
        <ele>842.3</ele>
        <time>2014-05-04T07:38:51Z</time>
      </trkpt>
      <trkpt lat="47.16834" lon="6.41826">
        <ele>842.1</ele>
        <time>2014-05-04T07:38:53Z</time>
      </trkpt>
      <trkpt lat="47.16826" lon="6.41836">
        <ele>841.9</ele>
        <time>2014-05-04T07:38:55Z</time>
      </trkpt>
      <trkpt lat="47.16818" lon="6.41848">
        <ele>841.6</ele>
        <time>2014-05-04T07:38:57Z</time>
      </trkpt>
      <trkpt lat="47.16809" lon="6.41861">
        <ele>841</ele>
        <time>2014-05-04T07:38:59Z</time>
      </trkpt>
      <trkpt lat="47.168" lon="6.41873">
        <ele>840.5</ele>
        <time>2014-05-04T07:39:01Z</time>
      </trkpt>
      <trkpt lat="47.16781" lon="6.41899">
        <ele>839.4</ele>
        <time>2014-05-04T07:39:05Z</time>
      </trkpt>
      <trkpt lat="47.16771" lon="6.41912">
        <ele>838.6</ele>
        <time>2014-05-04T07:39:07Z</time>
      </trkpt>
      <trkpt lat="47.16763" lon="6.41924">
        <ele>837.5</ele>
        <time>2014-05-04T07:39:09Z</time>
      </trkpt>
      <trkpt lat="47.16755" lon="6.41933">
        <ele>836.8</ele>
        <time>2014-05-04T07:39:11Z</time>
      </trkpt>
      <trkpt lat="47.16749" lon="6.41946">
        <ele>835.9</ele>
        <time>2014-05-04T07:39:14Z</time>
      </trkpt>
      <trkpt lat="47.16754" lon="6.41958">
        <ele>835</ele>
        <time>2014-05-04T07:39:18Z</time>
      </trkpt>
      <trkpt lat="47.16761" lon="6.41967">
        <ele>835.3</ele>
        <time>2014-05-04T07:39:22Z</time>
      </trkpt>
      <trkpt lat="47.16769" lon="6.41975">
        <ele>836.3</ele>
        <time>2014-05-04T07:39:26Z</time>
      </trkpt>
      <trkpt lat="47.16777" lon="6.41982">
        <ele>837.1</ele>
        <time>2014-05-04T07:39:31Z</time>
      </trkpt>
      <trkpt lat="47.16786" lon="6.41988">
        <ele>838.2</ele>
        <time>2014-05-04T07:39:36Z</time>
      </trkpt>
      <trkpt lat="47.16794" lon="6.41995">
        <ele>839.3</ele>
        <time>2014-05-04T07:39:41Z</time>
      </trkpt>
      <trkpt lat="47.16802" lon="6.42004">
        <ele>840.6</ele>
        <time>2014-05-04T07:39:46Z</time>
      </trkpt>
      <trkpt lat="47.16812" lon="6.4201">
        <ele>840.8</ele>
        <time>2014-05-04T07:39:51Z</time>
      </trkpt>
      <trkpt lat="47.16821" lon="6.42015">
        <ele>841.4</ele>
        <time>2014-05-04T07:39:55Z</time>
      </trkpt>
      <trkpt lat="47.16831" lon="6.42018">
        <ele>841.6</ele>
        <time>2014-05-04T07:39:59Z</time>
      </trkpt>
      <trkpt lat="47.16841" lon="6.42021">
        <ele>841.9</ele>
        <time>2014-05-04T07:40:04Z</time>
      </trkpt>
      <trkpt lat="47.16861" lon="6.42027">
        <ele>843.8</ele>
        <time>2014-05-04T07:40:14Z</time>
      </trkpt>
      <trkpt lat="47.1687" lon="6.42034">
        <ele>845.2</ele>
        <time>2014-05-04T07:40:19Z</time>
      </trkpt>
      <trkpt lat="47.1688" lon="6.4204">
        <ele>845.8</ele>
        <time>2014-05-04T07:40:24Z</time>
      </trkpt>
      <trkpt lat="47.16889" lon="6.42044">
        <ele>846.5</ele>
        <time>2014-05-04T07:40:28Z</time>
      </trkpt>
      <trkpt lat="47.16899" lon="6.42049">
        <ele>846.7</ele>
        <time>2014-05-04T07:40:31Z</time>
      </trkpt>
      <trkpt lat="47.16909" lon="6.42048">
        <ele>847.7</ele>
        <time>2014-05-04T07:40:36Z</time>
      </trkpt>
      <trkpt lat="47.16919" lon="6.42048">
        <ele>848.7</ele>
        <time>2014-05-04T07:40:42Z</time>
      </trkpt>
      <trkpt lat="47.1693" lon="6.4205">
        <ele>849.6</ele>
        <time>2014-05-04T07:40:48Z</time>
      </trkpt>
      <trkpt lat="47.16939" lon="6.42052">
        <ele>849.7</ele>
        <time>2014-05-04T07:40:52Z</time>
      </trkpt>
      <trkpt lat="47.16949" lon="6.42055">
        <ele>849.3</ele>
        <time>2014-05-04T07:40:56Z</time>
      </trkpt>
      <trkpt lat="47.1696" lon="6.42055">
        <ele>849.4</ele>
        <time>2014-05-04T07:40:59Z</time>
      </trkpt>
      <trkpt lat="47.1697" lon="6.42056">
        <ele>849.9</ele>
        <time>2014-05-04T07:41:02Z</time>
      </trkpt>
      <trkpt lat="47.1698" lon="6.42059">
        <ele>850.1</ele>
        <time>2014-05-04T07:41:06Z</time>
      </trkpt>
      <trkpt lat="47.16998" lon="6.42059">
        <ele>848.5</ele>
        <time>2014-05-04T07:41:16Z</time>
      </trkpt>
      <trkpt lat="47.17007" lon="6.4206">
        <ele>849</ele>
        <time>2014-05-04T07:41:29Z</time>
      </trkpt>
      <trkpt lat="47.17018" lon="6.42064">
        <ele>849.6</ele>
        <time>2014-05-04T07:41:37Z</time>
      </trkpt>
      <trkpt lat="47.17026" lon="6.42071">
        <ele>849.3</ele>
        <time>2014-05-04T07:41:42Z</time>
      </trkpt>
      <trkpt lat="47.17029" lon="6.42086">
        <ele>849.8</ele>
        <time>2014-05-04T07:41:53Z</time>
      </trkpt>
      <trkpt lat="47.17036" lon="6.42094">
        <ele>849.3</ele>
        <time>2014-05-04T07:41:57Z</time>
      </trkpt>
      <trkpt lat="47.17044" lon="6.42105">
        <ele>849.2</ele>
        <time>2014-05-04T07:42:01Z</time>
      </trkpt>
      <trkpt lat="47.17052" lon="6.42116">
        <ele>848</ele>
        <time>2014-05-04T07:42:06Z</time>
      </trkpt>
      <trkpt lat="47.17058" lon="6.42127">
        <ele>846.4</ele>
        <time>2014-05-04T07:42:16Z</time>
      </trkpt>
      <trkpt lat="47.17076" lon="6.42149">
        <ele>842.9</ele>
        <time>2014-05-04T07:42:27Z</time>
      </trkpt>
      <trkpt lat="47.17082" lon="6.42159">
        <ele>842.4</ele>
        <time>2014-05-04T07:42:30Z</time>
      </trkpt>
      <trkpt lat="47.17089" lon="6.42171">
        <ele>842.3</ele>
        <time>2014-05-04T07:42:33Z</time>
      </trkpt>
      <trkpt lat="47.17097" lon="6.4218">
        <ele>841.7</ele>
        <time>2014-05-04T07:42:38Z</time>
      </trkpt>
      <trkpt lat="47.17104" lon="6.42189">
        <ele>841.8</ele>
        <time>2014-05-04T07:42:43Z</time>
      </trkpt>
      <trkpt lat="47.1711" lon="6.42201">
        <ele>841.5</ele>
        <time>2014-05-04T07:42:47Z</time>
      </trkpt>
      <trkpt lat="47.17117" lon="6.42212">
        <ele>841.5</ele>
        <time>2014-05-04T07:42:51Z</time>
      </trkpt>
      <trkpt lat="47.17124" lon="6.42222">
        <ele>841.3</ele>
        <time>2014-05-04T07:42:54Z</time>
      </trkpt>
      <trkpt lat="47.17132" lon="6.42233">
        <ele>841.3</ele>
        <time>2014-05-04T07:42:57Z</time>
      </trkpt>
      <trkpt lat="47.17141" lon="6.42243">
        <ele>841</ele>
        <time>2014-05-04T07:43:00Z</time>
      </trkpt>
      <trkpt lat="47.17151" lon="6.42257">
        <ele>840.6</ele>
        <time>2014-05-04T07:43:02Z</time>
      </trkpt>
      <trkpt lat="47.17159" lon="6.42267">
        <ele>839.8</ele>
        <time>2014-05-04T07:43:04Z</time>
      </trkpt>
      <trkpt lat="47.17169" lon="6.42281">
        <ele>839</ele>
        <time>2014-05-04T07:43:07Z</time>
      </trkpt>
      <trkpt lat="47.1718" lon="6.42292">
        <ele>838.6</ele>
        <time>2014-05-04T07:43:10Z</time>
      </trkpt>
      <trkpt lat="47.17188" lon="6.42298">
        <ele>838.3</ele>
        <time>2014-05-04T07:43:12Z</time>
      </trkpt>
      <trkpt lat="47.17196" lon="6.42307">
        <ele>837.6</ele>
        <time>2014-05-04T07:43:14Z</time>
      </trkpt>
      <trkpt lat="47.17207" lon="6.42322">
        <ele>837.1</ele>
        <time>2014-05-04T07:43:17Z</time>
      </trkpt>
      <trkpt lat="47.17223" lon="6.42341">
        <ele>835.6</ele>
        <time>2014-05-04T07:43:21Z</time>
      </trkpt>
      <trkpt lat="47.17231" lon="6.42348">
        <ele>834.5</ele>
        <time>2014-05-04T07:43:24Z</time>
      </trkpt>
      <trkpt lat="47.17238" lon="6.42357">
        <ele>832.8</ele>
        <time>2014-05-04T07:43:29Z</time>
      </trkpt>
      <trkpt lat="47.17246" lon="6.4237">
        <ele>831.7</ele>
        <time>2014-05-04T07:43:48Z</time>
      </trkpt>
      <trkpt lat="47.17252" lon="6.42381">
        <ele>831.1</ele>
        <time>2014-05-04T07:43:52Z</time>
      </trkpt>
      <trkpt lat="47.17259" lon="6.42392">
        <ele>831</ele>
        <time>2014-05-04T07:43:56Z</time>
      </trkpt>
      <trkpt lat="47.17265" lon="6.42404">
        <ele>830.9</ele>
        <time>2014-05-04T07:44:00Z</time>
      </trkpt>
      <trkpt lat="47.17272" lon="6.42413">
        <ele>830.7</ele>
        <time>2014-05-04T07:44:04Z</time>
      </trkpt>
      <trkpt lat="47.17281" lon="6.42423">
        <ele>830.5</ele>
        <time>2014-05-04T07:44:09Z</time>
      </trkpt>
      <trkpt lat="47.17287" lon="6.42433">
        <ele>829.7</ele>
        <time>2014-05-04T07:44:14Z</time>
      </trkpt>
      <trkpt lat="47.1729" lon="6.42446">
        <ele>829.6</ele>
        <time>2014-05-04T07:44:23Z</time>
      </trkpt>
      <trkpt lat="47.17306" lon="6.42463">
        <ele>829.5</ele>
        <time>2014-05-04T07:44:36Z</time>
      </trkpt>
      <trkpt lat="47.17311" lon="6.42476">
        <ele>829</ele>
        <time>2014-05-04T07:44:42Z</time>
      </trkpt>
      <trkpt lat="47.17317" lon="6.42488">
        <ele>829.6</ele>
        <time>2014-05-04T07:44:46Z</time>
      </trkpt>
      <trkpt lat="47.17323" lon="6.425">
        <ele>829.5</ele>
        <time>2014-05-04T07:44:50Z</time>
      </trkpt>
      <trkpt lat="47.17331" lon="6.42511">
        <ele>829.3</ele>
        <time>2014-05-04T07:44:54Z</time>
      </trkpt>
      <trkpt lat="47.17337" lon="6.42522">
        <ele>829.4</ele>
        <time>2014-05-04T07:44:57Z</time>
      </trkpt>
      <trkpt lat="47.17343" lon="6.42531">
        <ele>829.6</ele>
        <time>2014-05-04T07:45:01Z</time>
      </trkpt>
      <trkpt lat="47.17352" lon="6.42539">
        <ele>828.7</ele>
        <time>2014-05-04T07:45:06Z</time>
      </trkpt>
      <trkpt lat="47.17358" lon="6.42551">
        <ele>827.7</ele>
        <time>2014-05-04T07:45:09Z</time>
      </trkpt>
      <trkpt lat="47.17365" lon="6.42561">
        <ele>827.3</ele>
        <time>2014-05-04T07:45:13Z</time>
      </trkpt>
      <trkpt lat="47.17372" lon="6.42574">
        <ele>826.1</ele>
        <time>2014-05-04T07:45:17Z</time>
      </trkpt>
      <trkpt lat="47.17377" lon="6.42585">
        <ele>825.4</ele>
        <time>2014-05-04T07:45:21Z</time>
      </trkpt>
      <trkpt lat="47.17382" lon="6.42599">
        <ele>824.5</ele>
        <time>2014-05-04T07:45:26Z</time>
      </trkpt>
      <trkpt lat="47.17389" lon="6.42628">
        <ele>822.6</ele>
        <time>2014-05-04T07:45:35Z</time>
      </trkpt>
      <trkpt lat="47.1739" lon="6.42641">
        <ele>821.9</ele>
        <time>2014-05-04T07:45:39Z</time>
      </trkpt>
      <trkpt lat="47.17392" lon="6.42656">
        <ele>820.6</ele>
        <time>2014-05-04T07:45:43Z</time>
      </trkpt>
      <trkpt lat="47.17395" lon="6.42669">
        <ele>819.1</ele>
        <time>2014-05-04T07:45:47Z</time>
      </trkpt>
      <trkpt lat="47.17395" lon="6.42683">
        <ele>817.4</ele>
        <time>2014-05-04T07:45:53Z</time>
      </trkpt>
      <trkpt lat="47.17396" lon="6.42701">
        <ele>815.9</ele>
        <time>2014-05-04T07:45:58Z</time>
      </trkpt>
      <trkpt lat="47.17396" lon="6.42715">
        <ele>814.3</ele>
        <time>2014-05-04T07:46:02Z</time>
      </trkpt>
      <trkpt lat="47.17397" lon="6.42729">
        <ele>812.3</ele>
        <time>2014-05-04T07:46:08Z</time>
      </trkpt>
      <trkpt lat="47.17403" lon="6.4274">
        <ele>811.1</ele>
        <time>2014-05-04T07:46:21Z</time>
      </trkpt>
      <trkpt lat="47.17404" lon="6.42753">
        <ele>808.3</ele>
        <time>2014-05-04T07:46:34Z</time>
      </trkpt>
      <trkpt lat="47.17399" lon="6.42782">
        <ele>806</ele>
        <time>2014-05-04T07:46:46Z</time>
      </trkpt>
      <trkpt lat="47.17397" lon="6.42795">
        <ele>804.6</ele>
        <time>2014-05-04T07:46:51Z</time>
      </trkpt>
      <trkpt lat="47.17396" lon="6.4281">
        <ele>802.8</ele>
        <time>2014-05-04T07:46:57Z</time>
      </trkpt>
      <trkpt lat="47.17396" lon="6.42823">
        <ele>800.9</ele>
        <time>2014-05-04T07:47:01Z</time>
      </trkpt>
      <trkpt lat="47.17394" lon="6.42838">
        <ele>799.2</ele>
        <time>2014-05-04T07:47:08Z</time>
      </trkpt>
      <trkpt lat="47.17394" lon="6.42852">
        <ele>797.3</ele>
        <time>2014-05-04T07:47:13Z</time>
      </trkpt>
      <trkpt lat="47.17394" lon="6.42866">
        <ele>795.1</ele>
        <time>2014-05-04T07:47:18Z</time>
      </trkpt>
      <trkpt lat="47.17394" lon="6.42881">
        <ele>793.5</ele>
        <time>2014-05-04T07:47:23Z</time>
      </trkpt>
      <trkpt lat="47.17394" lon="6.42894">
        <ele>791.6</ele>
        <time>2014-05-04T07:47:34Z</time>
      </trkpt>
      <trkpt lat="47.17393" lon="6.42908">
        <ele>790.6</ele>
        <time>2014-05-04T07:47:40Z</time>
      </trkpt>
      <trkpt lat="47.17394" lon="6.42937">
        <ele>787.4</ele>
        <time>2014-05-04T07:48:03Z</time>
      </trkpt>
      <trkpt lat="47.17393" lon="6.42954">
        <ele>786.1</ele>
        <time>2014-05-04T07:48:11Z</time>
      </trkpt>
      <trkpt lat="47.17392" lon="6.42968">
        <ele>784.3</ele>
        <time>2014-05-04T07:48:15Z</time>
      </trkpt>
      <trkpt lat="47.1739" lon="6.42982">
        <ele>783.4</ele>
        <time>2014-05-04T07:48:18Z</time>
      </trkpt>
      <trkpt lat="47.17396" lon="6.42992">
        <ele>780.9</ele>
        <time>2014-05-04T07:48:31Z</time>
      </trkpt>
      <trkpt lat="47.17399" lon="6.43006">
        <ele>778</ele>
        <time>2014-05-04T07:48:43Z</time>
      </trkpt>
      <trkpt lat="47.17402" lon="6.43038">
        <ele>776.5</ele>
        <time>2014-05-04T07:48:58Z</time>
      </trkpt>
      <trkpt lat="47.17407" lon="6.43049">
        <ele>777.3</ele>
        <time>2014-05-04T07:49:03Z</time>
      </trkpt>
      <trkpt lat="47.17415" lon="6.43057">
        <ele>778.2</ele>
        <time>2014-05-04T07:49:10Z</time>
      </trkpt>
      <trkpt lat="47.17422" lon="6.43067">
        <ele>779</ele>
        <time>2014-05-04T07:49:18Z</time>
      </trkpt>
      <trkpt lat="47.1743" lon="6.43074">
        <ele>780.6</ele>
        <time>2014-05-04T07:49:29Z</time>
      </trkpt>
      <trkpt lat="47.17439" lon="6.4308">
        <ele>781.6</ele>
        <time>2014-05-04T07:49:40Z</time>
      </trkpt>
      <trkpt lat="47.17448" lon="6.4308">
        <ele>781.6</ele>
        <time>2014-05-04T07:49:47Z</time>
      </trkpt>
      <trkpt lat="47.17467" lon="6.43077">
        <ele>783.6</ele>
        <time>2014-05-04T07:50:02Z</time>
      </trkpt>
      <trkpt lat="47.17476" lon="6.43074">
        <ele>785.3</ele>
        <time>2014-05-04T07:50:12Z</time>
      </trkpt>
      <trkpt lat="47.17484" lon="6.4308">
        <ele>786.1</ele>
        <time>2014-05-04T07:50:24Z</time>
      </trkpt>
      <trkpt lat="47.17494" lon="6.43081">
        <ele>786.9</ele>
        <time>2014-05-04T07:50:33Z</time>
      </trkpt>
      <trkpt lat="47.17501" lon="6.4309">
        <ele>788.5</ele>
        <time>2014-05-04T07:50:47Z</time>
      </trkpt>
      <trkpt lat="47.17505" lon="6.43102">
        <ele>789.1</ele>
        <time>2014-05-04T07:51:00Z</time>
      </trkpt>
      <trkpt lat="47.17512" lon="6.43129">
        <ele>790.7</ele>
        <time>2014-05-04T07:51:11Z</time>
      </trkpt>
      <trkpt lat="47.17513" lon="6.43143">
        <ele>791.9</ele>
        <time>2014-05-04T07:51:21Z</time>
      </trkpt>
      <trkpt lat="47.17518" lon="6.43157">
        <ele>793.6</ele>
        <time>2014-05-04T07:51:28Z</time>
      </trkpt>
      <trkpt lat="47.17521" lon="6.4317">
        <ele>794.8</ele>
        <time>2014-05-04T07:51:35Z</time>
      </trkpt>
      <trkpt lat="47.17528" lon="6.43183">
        <ele>796</ele>
        <time>2014-05-04T07:51:41Z</time>
      </trkpt>
      <trkpt lat="47.17534" lon="6.43193">
        <ele>796.4</ele>
        <time>2014-05-04T07:51:45Z</time>
      </trkpt>
      <trkpt lat="47.17541" lon="6.43205">
        <ele>796.6</ele>
        <time>2014-05-04T07:51:50Z</time>
      </trkpt>
      <trkpt lat="47.17547" lon="6.43214">
        <ele>798</ele>
        <time>2014-05-04T07:51:57Z</time>
      </trkpt>
      <trkpt lat="47.17555" lon="6.43226">
        <ele>798.4</ele>
        <time>2014-05-04T07:52:02Z</time>
      </trkpt>
      <trkpt lat="47.17574" lon="6.43239">
        <ele>799.6</ele>
        <time>2014-05-04T07:52:15Z</time>
      </trkpt>
      <trkpt lat="47.1758" lon="6.43249">
        <ele>801.5</ele>
        <time>2014-05-04T07:52:29Z</time>
      </trkpt>
      <trkpt lat="47.17587" lon="6.43261">
        <ele>802</ele>
        <time>2014-05-04T07:52:34Z</time>
      </trkpt>
      <trkpt lat="47.17596" lon="6.43265">
        <ele>802.5</ele>
        <time>2014-05-04T07:52:43Z</time>
      </trkpt>
      <trkpt lat="47.17607" lon="6.43264">
        <ele>802.8</ele>
        <time>2014-05-04T07:52:48Z</time>
      </trkpt>
      <trkpt lat="47.17615" lon="6.43259">
        <ele>803</ele>
        <time>2014-05-04T07:52:52Z</time>
      </trkpt>
      <trkpt lat="47.17624" lon="6.43256">
        <ele>803.3</ele>
        <time>2014-05-04T07:52:56Z</time>
      </trkpt>
      <trkpt lat="47.17633" lon="6.43252">
        <ele>803.3</ele>
        <time>2014-05-04T07:53:00Z</time>
      </trkpt>
      <trkpt lat="47.17643" lon="6.43245">
        <ele>803.2</ele>
        <time>2014-05-04T07:53:04Z</time>
      </trkpt>
      <trkpt lat="47.17662" lon="6.43233">
        <ele>803.3</ele>
        <time>2014-05-04T07:53:10Z</time>
      </trkpt>
      <trkpt lat="47.17671" lon="6.4323">
        <ele>803.3</ele>
        <time>2014-05-04T07:53:13Z</time>
      </trkpt>
      <trkpt lat="47.1768" lon="6.43224">
        <ele>803.5</ele>
        <time>2014-05-04T07:53:17Z</time>
      </trkpt>
      <trkpt lat="47.17689" lon="6.43219">
        <ele>803.6</ele>
        <time>2014-05-04T07:53:21Z</time>
      </trkpt>
      <trkpt lat="47.17699" lon="6.43215">
        <ele>803.7</ele>
        <time>2014-05-04T07:53:25Z</time>
      </trkpt>
      <trkpt lat="47.17708" lon="6.4321">
        <ele>803.8</ele>
        <time>2014-05-04T07:53:28Z</time>
      </trkpt>
      <trkpt lat="47.17719" lon="6.43205">
        <ele>804.2</ele>
        <time>2014-05-04T07:53:32Z</time>
      </trkpt>
      <trkpt lat="47.1773" lon="6.432">
        <ele>804.6</ele>
        <time>2014-05-04T07:53:36Z</time>
      </trkpt>
      <trkpt lat="47.17739" lon="6.43197">
        <ele>804.9</ele>
        <time>2014-05-04T07:53:39Z</time>
      </trkpt>
      <trkpt lat="47.17749" lon="6.43192">
        <ele>804.7</ele>
        <time>2014-05-04T07:53:42Z</time>
      </trkpt>
      <trkpt lat="47.17759" lon="6.43187">
        <ele>804.8</ele>
        <time>2014-05-04T07:53:45Z</time>
      </trkpt>
      <trkpt lat="47.17769" lon="6.43183">
        <ele>804.6</ele>
        <time>2014-05-04T07:53:48Z</time>
      </trkpt>
      <trkpt lat="47.17781" lon="6.43175">
        <ele>803.6</ele>
        <time>2014-05-04T07:53:51Z</time>
      </trkpt>
      <trkpt lat="47.1779" lon="6.43168">
        <ele>803.4</ele>
        <time>2014-05-04T07:53:53Z</time>
      </trkpt>
      <trkpt lat="47.17801" lon="6.43157">
        <ele>803.3</ele>
        <time>2014-05-04T07:53:55Z</time>
      </trkpt>
      <trkpt lat="47.17807" lon="6.43147">
        <ele>802.7</ele>
        <time>2014-05-04T07:53:57Z</time>
      </trkpt>
      <trkpt lat="47.17815" lon="6.43135">
        <ele>802.5</ele>
        <time>2014-05-04T07:53:59Z</time>
      </trkpt>
      <trkpt lat="47.17821" lon="6.43124">
        <ele>802</ele>
        <time>2014-05-04T07:54:01Z</time>
      </trkpt>
      <trkpt lat="47.17828" lon="6.43112">
        <ele>801.7</ele>
        <time>2014-05-04T07:54:03Z</time>
      </trkpt>
      <trkpt lat="47.17834" lon="6.43101">
        <ele>801.9</ele>
        <time>2014-05-04T07:54:05Z</time>
      </trkpt>
      <trkpt lat="47.17848" lon="6.4308">
        <ele>801.7</ele>
        <time>2014-05-04T07:54:09Z</time>
      </trkpt>
      <trkpt lat="47.17853" lon="6.43067">
        <ele>801.7</ele>
        <time>2014-05-04T07:54:11Z</time>
      </trkpt>
      <trkpt lat="47.17857" lon="6.43055">
        <ele>801.6</ele>
        <time>2014-05-04T07:54:13Z</time>
      </trkpt>
      <trkpt lat="47.17863" lon="6.43037">
        <ele>801.3</ele>
        <time>2014-05-04T07:54:16Z</time>
      </trkpt>
      <trkpt lat="47.17869" lon="6.4302">
        <ele>801.6</ele>
        <time>2014-05-04T07:54:19Z</time>
      </trkpt>
      <trkpt lat="47.17875" lon="6.43004">
        <ele>801.8</ele>
        <time>2014-05-04T07:54:22Z</time>
      </trkpt>
      <trkpt lat="47.1788" lon="6.42992">
        <ele>801.8</ele>
        <time>2014-05-04T07:54:24Z</time>
      </trkpt>
      <trkpt lat="47.17886" lon="6.42978">
        <ele>801.5</ele>
        <time>2014-05-04T07:54:26Z</time>
      </trkpt>
      <trkpt lat="47.17891" lon="6.42964">
        <ele>801.5</ele>
        <time>2014-05-04T07:54:28Z</time>
      </trkpt>
      <trkpt lat="47.17897" lon="6.4295">
        <ele>801</ele>
        <time>2014-05-04T07:54:30Z</time>
      </trkpt>
      <trkpt lat="47.17902" lon="6.42934">
        <ele>800.2</ele>
        <time>2014-05-04T07:54:32Z</time>
      </trkpt>
      <trkpt lat="47.17908" lon="6.42919">
        <ele>799</ele>
        <time>2014-05-04T07:54:34Z</time>
      </trkpt>
      <trkpt lat="47.17916" lon="6.42904">
        <ele>798.2</ele>
        <time>2014-05-04T07:54:36Z</time>
      </trkpt>
      <trkpt lat="47.17922" lon="6.42889">
        <ele>797.4</ele>
        <time>2014-05-04T07:54:38Z</time>
      </trkpt>
      <trkpt lat="47.17927" lon="6.42874">
        <ele>797</ele>
        <time>2014-05-04T07:54:40Z</time>
      </trkpt>
      <trkpt lat="47.17935" lon="6.42863">
        <ele>796.1</ele>
        <time>2014-05-04T07:54:42Z</time>
      </trkpt>
      <trkpt lat="47.17944" lon="6.42855">
        <ele>795.6</ele>
        <time>2014-05-04T07:54:44Z</time>
      </trkpt>
      <trkpt lat="47.17956" lon="6.42845">
        <ele>794.9</ele>
        <time>2014-05-04T07:54:46Z</time>
      </trkpt>
      <trkpt lat="47.17967" lon="6.42834">
        <ele>794</ele>
        <time>2014-05-04T07:54:48Z</time>
      </trkpt>
      <trkpt lat="47.1798" lon="6.42825">
        <ele>793.4</ele>
        <time>2014-05-04T07:54:50Z</time>
      </trkpt>
      <trkpt lat="47.17994" lon="6.42814">
        <ele>792.7</ele>
        <time>2014-05-04T07:54:52Z</time>
      </trkpt>
      <trkpt lat="47.18009" lon="6.42803">
        <ele>792.1</ele>
        <time>2014-05-04T07:54:54Z</time>
      </trkpt>
      <trkpt lat="47.18024" lon="6.42791">
        <ele>791.6</ele>
        <time>2014-05-04T07:54:56Z</time>
      </trkpt>
      <trkpt lat="47.18038" lon="6.4278">
        <ele>790.8</ele>
        <time>2014-05-04T07:54:58Z</time>
      </trkpt>
      <trkpt lat="47.18052" lon="6.4277">
        <ele>790.2</ele>
        <time>2014-05-04T07:55:00Z</time>
      </trkpt>
      <trkpt lat="47.18066" lon="6.42758">
        <ele>789.6</ele>
        <time>2014-05-04T07:55:02Z</time>
      </trkpt>
      <trkpt lat="47.1808" lon="6.42747">
        <ele>788.7</ele>
        <time>2014-05-04T07:55:04Z</time>
      </trkpt>
      <trkpt lat="47.18095" lon="6.42736">
        <ele>787.7</ele>
        <time>2014-05-04T07:55:06Z</time>
      </trkpt>
      <trkpt lat="47.18121" lon="6.4272">
        <ele>785.3</ele>
        <time>2014-05-04T07:55:10Z</time>
      </trkpt>
      <trkpt lat="47.18132" lon="6.4271">
        <ele>783.9</ele>
        <time>2014-05-04T07:55:12Z</time>
      </trkpt>
      <trkpt lat="47.18143" lon="6.42697">
        <ele>782.7</ele>
        <time>2014-05-04T07:55:14Z</time>
      </trkpt>
      <trkpt lat="47.18151" lon="6.4268">
        <ele>781.4</ele>
        <time>2014-05-04T07:55:16Z</time>
      </trkpt>
      <trkpt lat="47.18159" lon="6.4266">
        <ele>779.8</ele>
        <time>2014-05-04T07:55:18Z</time>
      </trkpt>
      <trkpt lat="47.18166" lon="6.42636">
        <ele>778.1</ele>
        <time>2014-05-04T07:55:20Z</time>
      </trkpt>
      <trkpt lat="47.18173" lon="6.42614">
        <ele>775.9</ele>
        <time>2014-05-04T07:55:22Z</time>
      </trkpt>
      <trkpt lat="47.18181" lon="6.42593">
        <ele>773.8</ele>
        <time>2014-05-04T07:55:24Z</time>
      </trkpt>
      <trkpt lat="47.1819" lon="6.42573">
        <ele>772.1</ele>
        <time>2014-05-04T07:55:26Z</time>
      </trkpt>
      <trkpt lat="47.18195" lon="6.42562">
        <ele>770.7</ele>
        <time>2014-05-04T07:55:28Z</time>
      </trkpt>
      <trkpt lat="47.18204" lon="6.42561">
        <ele>769.2</ele>
        <time>2014-05-04T07:55:33Z</time>
      </trkpt>
      <trkpt lat="47.18207" lon="6.42575">
        <ele>770.6</ele>
        <time>2014-05-04T07:56:11Z</time>
      </trkpt>
      <trkpt lat="47.18216" lon="6.42601">
        <ele>771.9</ele>
        <time>2014-05-04T07:56:26Z</time>
      </trkpt>
      <trkpt lat="47.18221" lon="6.42612">
        <ele>773.1</ele>
        <time>2014-05-04T07:56:57Z</time>
      </trkpt>
      <trkpt lat="47.18223" lon="6.42626">
        <ele>773.7</ele>
        <time>2014-05-04T07:57:02Z</time>
      </trkpt>
      <trkpt lat="47.18223" lon="6.42641">
        <ele>774</ele>
        <time>2014-05-04T07:57:09Z</time>
      </trkpt>
      <trkpt lat="47.18223" lon="6.42655">
        <ele>774.8</ele>
        <time>2014-05-04T07:57:16Z</time>
      </trkpt>
      <trkpt lat="47.18227" lon="6.42683">
        <ele>777.1</ele>
        <time>2014-05-04T07:57:29Z</time>
      </trkpt>
      <trkpt lat="47.18231" lon="6.42696">
        <ele>777.8</ele>
        <time>2014-05-04T07:57:35Z</time>
      </trkpt>
      <trkpt lat="47.18233" lon="6.4271">
        <ele>778.3</ele>
        <time>2014-05-04T07:57:43Z</time>
      </trkpt>
      <trkpt lat="47.18233" lon="6.42724">
        <ele>779.4</ele>
        <time>2014-05-04T07:57:50Z</time>
      </trkpt>
      <trkpt lat="47.18234" lon="6.42739">
        <ele>781</ele>
        <time>2014-05-04T07:57:57Z</time>
      </trkpt>
      <trkpt lat="47.18236" lon="6.42753">
        <ele>781.1</ele>
        <time>2014-05-04T07:58:05Z</time>
      </trkpt>
      <trkpt lat="47.18242" lon="6.42765">
        <ele>781.6</ele>
        <time>2014-05-04T07:58:14Z</time>
      </trkpt>
      <trkpt lat="47.1824" lon="6.42779">
        <ele>782.2</ele>
        <time>2014-05-04T07:58:24Z</time>
      </trkpt>
      <trkpt lat="47.18245" lon="6.42806">
        <ele>783.3</ele>
        <time>2014-05-04T07:58:50Z</time>
      </trkpt>
      <trkpt lat="47.18251" lon="6.42818">
        <ele>784.3</ele>
        <time>2014-05-04T07:59:03Z</time>
      </trkpt>
      <trkpt lat="47.18253" lon="6.42831">
        <ele>785.4</ele>
        <time>2014-05-04T07:59:15Z</time>
      </trkpt>
      <trkpt lat="47.18257" lon="6.42844">
        <ele>786.4</ele>
        <time>2014-05-04T07:59:25Z</time>
      </trkpt>
      <trkpt lat="47.18256" lon="6.42871">
        <ele>787.5</ele>
        <time>2014-05-04T07:59:44Z</time>
      </trkpt>
      <trkpt lat="47.18251" lon="6.42884">
        <ele>789.1</ele>
        <time>2014-05-04T07:59:54Z</time>
      </trkpt>
      <trkpt lat="47.18245" lon="6.42894">
        <ele>789.3</ele>
        <time>2014-05-04T08:00:03Z</time>
      </trkpt>
      <trkpt lat="47.18243" lon="6.42907">
        <ele>790.7</ele>
        <time>2014-05-04T08:00:11Z</time>
      </trkpt>
      <trkpt lat="47.1824" lon="6.4292">
        <ele>791.6</ele>
        <time>2014-05-04T08:00:20Z</time>
      </trkpt>
      <trkpt lat="47.18234" lon="6.42931">
        <ele>792.5</ele>
        <time>2014-05-04T08:00:31Z</time>
      </trkpt>
      <trkpt lat="47.18219" lon="6.42949">
        <ele>793.4</ele>
        <time>2014-05-04T08:00:50Z</time>
      </trkpt>
      <trkpt lat="47.18212" lon="6.42957">
        <ele>793.5</ele>
        <time>2014-05-04T08:00:56Z</time>
      </trkpt>
      <trkpt lat="47.18206" lon="6.42968">
        <ele>794.2</ele>
        <time>2014-05-04T08:01:03Z</time>
      </trkpt>
      <trkpt lat="47.18198" lon="6.42977">
        <ele>794.6</ele>
        <time>2014-05-04T08:01:09Z</time>
      </trkpt>
      <trkpt lat="47.1819" lon="6.42987">
        <ele>794.6</ele>
        <time>2014-05-04T08:01:14Z</time>
      </trkpt>
      <trkpt lat="47.18182" lon="6.42999">
        <ele>794.7</ele>
        <time>2014-05-04T08:01:19Z</time>
      </trkpt>
      <trkpt lat="47.18176" lon="6.43011">
        <ele>795</ele>
        <time>2014-05-04T08:01:23Z</time>
      </trkpt>
      <trkpt lat="47.1817" lon="6.4302">
        <ele>794.6</ele>
        <time>2014-05-04T08:01:27Z</time>
      </trkpt>
      <trkpt lat="47.18161" lon="6.43027">
        <ele>794.7</ele>
        <time>2014-05-04T08:01:31Z</time>
      </trkpt>
      <trkpt lat="47.18154" lon="6.43035">
        <ele>794.2</ele>
        <time>2014-05-04T08:01:35Z</time>
      </trkpt>
      <trkpt lat="47.18137" lon="6.43056">
        <ele>793.8</ele>
        <time>2014-05-04T08:01:43Z</time>
      </trkpt>
      <trkpt lat="47.1813" lon="6.43066">
        <ele>793.3</ele>
        <time>2014-05-04T08:01:46Z</time>
      </trkpt>
      <trkpt lat="47.1812" lon="6.43076">
        <ele>792.6</ele>
        <time>2014-05-04T08:01:50Z</time>
      </trkpt>
      <trkpt lat="47.18115" lon="6.43088">
        <ele>792</ele>
        <time>2014-05-04T08:01:53Z</time>
      </trkpt>
      <trkpt lat="47.18107" lon="6.43099">
        <ele>791.4</ele>
        <time>2014-05-04T08:01:56Z</time>
      </trkpt>
      <trkpt lat="47.18098" lon="6.4311">
        <ele>790.2</ele>
        <time>2014-05-04T08:02:00Z</time>
      </trkpt>
      <trkpt lat="47.18091" lon="6.43121">
        <ele>789.7</ele>
        <time>2014-05-04T08:02:04Z</time>
      </trkpt>
      <trkpt lat="47.18084" lon="6.43133">
        <ele>789.1</ele>
        <time>2014-05-04T08:02:09Z</time>
      </trkpt>
      <trkpt lat="47.18083" lon="6.43148">
        <ele>787.2</ele>
        <time>2014-05-04T08:02:18Z</time>
      </trkpt>
      <trkpt lat="47.18079" lon="6.43162">
        <ele>781.3</ele>
        <time>2014-05-04T08:02:44Z</time>
      </trkpt>
      <trkpt lat="47.18088" lon="6.43187">
        <ele>778.4</ele>
        <time>2014-05-04T08:03:02Z</time>
      </trkpt>
      <trkpt lat="47.18097" lon="6.43193">
        <ele>778.5</ele>
        <time>2014-05-04T08:03:07Z</time>
      </trkpt>
      <trkpt lat="47.18107" lon="6.432">
        <ele>778.5</ele>
        <time>2014-05-04T08:03:13Z</time>
      </trkpt>
      <trkpt lat="47.18115" lon="6.43207">
        <ele>777.7</ele>
        <time>2014-05-04T08:03:18Z</time>
      </trkpt>
      <trkpt lat="47.18124" lon="6.43206">
        <ele>776.3</ele>
        <time>2014-05-04T08:03:29Z</time>
      </trkpt>
      <trkpt lat="47.18134" lon="6.43207">
        <ele>776.3</ele>
        <time>2014-05-04T08:03:41Z</time>
      </trkpt>
      <trkpt lat="47.18143" lon="6.43208">
        <ele>774.8</ele>
        <time>2014-05-04T08:03:51Z</time>
      </trkpt>
      <trkpt lat="47.18159" lon="6.43224">
        <ele>774.1</ele>
        <time>2014-05-04T08:04:11Z</time>
      </trkpt>
      <trkpt lat="47.18168" lon="6.4323">
        <ele>773.4</ele>
        <time>2014-05-04T08:04:18Z</time>
      </trkpt>
      <trkpt lat="47.18177" lon="6.43235">
        <ele>772.6</ele>
        <time>2014-05-04T08:04:29Z</time>
      </trkpt>
      <trkpt lat="47.18186" lon="6.43235">
        <ele>772.6</ele>
        <time>2014-05-04T08:04:43Z</time>
      </trkpt>
      <trkpt lat="47.18196" lon="6.43235">
        <ele>772.8</ele>
        <time>2014-05-04T08:04:53Z</time>
      </trkpt>
      <trkpt lat="47.18216" lon="6.43239">
        <ele>773.4</ele>
        <time>2014-05-04T08:05:06Z</time>
      </trkpt>
      <trkpt lat="47.18226" lon="6.43238">
        <ele>773.7</ele>
        <time>2014-05-04T08:05:11Z</time>
      </trkpt>
      <trkpt lat="47.18235" lon="6.43239">
        <ele>773</ele>
        <time>2014-05-04T08:05:18Z</time>
      </trkpt>
      <trkpt lat="47.18245" lon="6.4324">
        <ele>772.9</ele>
        <time>2014-05-04T08:05:31Z</time>
      </trkpt>
      <trkpt lat="47.18254" lon="6.43241">
        <ele>772.2</ele>
        <time>2014-05-04T08:05:40Z</time>
      </trkpt>
      <trkpt lat="47.18264" lon="6.43245">
        <ele>771.4</ele>
        <time>2014-05-04T08:05:58Z</time>
      </trkpt>
      <trkpt lat="47.18283" lon="6.43245">
        <ele>770.9</ele>
        <time>2014-05-04T08:06:24Z</time>
      </trkpt>
      <trkpt lat="47.18292" lon="6.43241">
        <ele>770.8</ele>
        <time>2014-05-04T08:06:37Z</time>
      </trkpt>
      <trkpt lat="47.18302" lon="6.43245">
        <ele>770.6</ele>
        <time>2014-05-04T08:06:42Z</time>
      </trkpt>
      <trkpt lat="47.18312" lon="6.43249">
        <ele>770.7</ele>
        <time>2014-05-04T08:06:48Z</time>
      </trkpt>
      <trkpt lat="47.18322" lon="6.43251">
        <ele>770.5</ele>
        <time>2014-05-04T08:06:53Z</time>
      </trkpt>
      <trkpt lat="47.18331" lon="6.4325">
        <ele>770.6</ele>
        <time>2014-05-04T08:06:57Z</time>
      </trkpt>
      <trkpt lat="47.1834" lon="6.43252">
        <ele>769.9</ele>
        <time>2014-05-04T08:07:01Z</time>
      </trkpt>
      <trkpt lat="47.1836" lon="6.4326">
        <ele>767.6</ele>
        <time>2014-05-04T08:07:07Z</time>
      </trkpt>
      <trkpt lat="47.18372" lon="6.43261">
        <ele>765.8</ele>
        <time>2014-05-04T08:07:10Z</time>
      </trkpt>
      <trkpt lat="47.18383" lon="6.43265">
        <ele>764.5</ele>
        <time>2014-05-04T08:07:13Z</time>
      </trkpt>
      <trkpt lat="47.18394" lon="6.43268">
        <ele>763.1</ele>
        <time>2014-05-04T08:07:16Z</time>
      </trkpt>
      <trkpt lat="47.18406" lon="6.43263">
        <ele>761.4</ele>
        <time>2014-05-04T08:07:19Z</time>
      </trkpt>
      <trkpt lat="47.18417" lon="6.4326">
        <ele>760.3</ele>
        <time>2014-05-04T08:07:22Z</time>
      </trkpt>
      <trkpt lat="47.18427" lon="6.43255">
        <ele>759.5</ele>
        <time>2014-05-04T08:07:26Z</time>
      </trkpt>
      <trkpt lat="47.18435" lon="6.43241">
        <ele>758.8</ele>
        <time>2014-05-04T08:07:30Z</time>
      </trkpt>
      <trkpt lat="47.18441" lon="6.4323">
        <ele>758.4</ele>
        <time>2014-05-04T08:07:33Z</time>
      </trkpt>
      <trkpt lat="47.18451" lon="6.43221">
        <ele>757.7</ele>
        <time>2014-05-04T08:07:35Z</time>
      </trkpt>
      <trkpt lat="47.18463" lon="6.4321">
        <ele>756.2</ele>
        <time>2014-05-04T08:07:38Z</time>
      </trkpt>
      <trkpt lat="47.1847" lon="6.43201">
        <ele>755.4</ele>
        <time>2014-05-04T08:07:40Z</time>
      </trkpt>
      <trkpt lat="47.1848" lon="6.43189">
        <ele>754</ele>
        <time>2014-05-04T08:07:43Z</time>
      </trkpt>
      <trkpt lat="47.18486" lon="6.43175">
        <ele>753.1</ele>
        <time>2014-05-04T08:07:46Z</time>
      </trkpt>
      <trkpt lat="47.18492" lon="6.43162">
        <ele>752.5</ele>
        <time>2014-05-04T08:07:49Z</time>
      </trkpt>
      <trkpt lat="47.18501" lon="6.4315">
        <ele>752</ele>
        <time>2014-05-04T08:07:52Z</time>
      </trkpt>
      <trkpt lat="47.18511" lon="6.43142">
        <ele>752.6</ele>
        <time>2014-05-04T08:07:55Z</time>
      </trkpt>
      <trkpt lat="47.1852" lon="6.43134">
        <ele>753.2</ele>
        <time>2014-05-04T08:07:58Z</time>
      </trkpt>
      <trkpt lat="47.1853" lon="6.4313">
        <ele>753.5</ele>
        <time>2014-05-04T08:08:01Z</time>
      </trkpt>
      <trkpt lat="47.18539" lon="6.43126">
        <ele>754.3</ele>
        <time>2014-05-04T08:08:04Z</time>
      </trkpt>
      <trkpt lat="47.18557" lon="6.43114">
        <ele>755.2</ele>
        <time>2014-05-04T08:08:10Z</time>
      </trkpt>
      <trkpt lat="47.18566" lon="6.43114">
        <ele>755.5</ele>
        <time>2014-05-04T08:08:13Z</time>
      </trkpt>
      <trkpt lat="47.18575" lon="6.4312">
        <ele>756.2</ele>
        <time>2014-05-04T08:08:17Z</time>
      </trkpt>
      <trkpt lat="47.18582" lon="6.43132">
        <ele>756.5</ele>
        <time>2014-05-04T08:08:21Z</time>
      </trkpt>
      <trkpt lat="47.18588" lon="6.43144">
        <ele>756.4</ele>
        <time>2014-05-04T08:08:25Z</time>
      </trkpt>
      <trkpt lat="47.18593" lon="6.43158">
        <ele>756.9</ele>
        <time>2014-05-04T08:08:29Z</time>
      </trkpt>
      <trkpt lat="47.18598" lon="6.43172">
        <ele>757.5</ele>
        <time>2014-05-04T08:08:33Z</time>
      </trkpt>
      <trkpt lat="47.18603" lon="6.43186">
        <ele>757.8</ele>
        <time>2014-05-04T08:08:37Z</time>
      </trkpt>
      <trkpt lat="47.18607" lon="6.43202">
        <ele>758.4</ele>
        <time>2014-05-04T08:08:41Z</time>
      </trkpt>
      <trkpt lat="47.18611" lon="6.43216">
        <ele>759.3</ele>
        <time>2014-05-04T08:08:45Z</time>
      </trkpt>
      <trkpt lat="47.18616" lon="6.43228">
        <ele>760.3</ele>
        <time>2014-05-04T08:08:49Z</time>
      </trkpt>
      <trkpt lat="47.18623" lon="6.4324">
        <ele>760.7</ele>
        <time>2014-05-04T08:08:53Z</time>
      </trkpt>
      <trkpt lat="47.18631" lon="6.43252">
        <ele>760.8</ele>
        <time>2014-05-04T08:08:56Z</time>
      </trkpt>
      <trkpt lat="47.18637" lon="6.43263">
        <ele>760.5</ele>
        <time>2014-05-04T08:08:59Z</time>
      </trkpt>
      <trkpt lat="47.18644" lon="6.43276">
        <ele>760.2</ele>
        <time>2014-05-04T08:09:02Z</time>
      </trkpt>
      <trkpt lat="47.1865" lon="6.43291">
        <ele>760</ele>
        <time>2014-05-04T08:09:05Z</time>
      </trkpt>
      <trkpt lat="47.18659" lon="6.43322">
        <ele>759.6</ele>
        <time>2014-05-04T08:09:10Z</time>
      </trkpt>
      <trkpt lat="47.18666" lon="6.43339">
        <ele>759.4</ele>
        <time>2014-05-04T08:09:13Z</time>
      </trkpt>
      <trkpt lat="47.1867" lon="6.43351">
        <ele>759</ele>
        <time>2014-05-04T08:09:15Z</time>
      </trkpt>
      <trkpt lat="47.18675" lon="6.43368">
        <ele>759.5</ele>
        <time>2014-05-04T08:09:18Z</time>
      </trkpt>
      <trkpt lat="47.18679" lon="6.4338">
        <ele>759.6</ele>
        <time>2014-05-04T08:09:21Z</time>
      </trkpt>
      <trkpt lat="47.18684" lon="6.43391">
        <ele>759.8</ele>
        <time>2014-05-04T08:09:24Z</time>
      </trkpt>
      <trkpt lat="47.18688" lon="6.43407">
        <ele>760.4</ele>
        <time>2014-05-04T08:09:28Z</time>
      </trkpt>
      <trkpt lat="47.18691" lon="6.4342">
        <ele>761</ele>
        <time>2014-05-04T08:09:31Z</time>
      </trkpt>
      <trkpt lat="47.18695" lon="6.43433">
        <ele>761.4</ele>
        <time>2014-05-04T08:09:34Z</time>
      </trkpt>
      <trkpt lat="47.187" lon="6.43445">
        <ele>761.5</ele>
        <time>2014-05-04T08:09:37Z</time>
      </trkpt>
      <trkpt lat="47.18704" lon="6.43457">
        <ele>761.8</ele>
        <time>2014-05-04T08:09:40Z</time>
      </trkpt>
      <trkpt lat="47.1871" lon="6.43469">
        <ele>762.2</ele>
        <time>2014-05-04T08:09:43Z</time>
      </trkpt>
      <trkpt lat="47.18717" lon="6.43482">
        <ele>762.3</ele>
        <time>2014-05-04T08:09:46Z</time>
      </trkpt>
      <trkpt lat="47.18726" lon="6.43496">
        <ele>762.7</ele>
        <time>2014-05-04T08:09:49Z</time>
      </trkpt>
      <trkpt lat="47.18734" lon="6.43507">
        <ele>762.6</ele>
        <time>2014-05-04T08:09:52Z</time>
      </trkpt>
      <trkpt lat="47.18742" lon="6.43517">
        <ele>762.7</ele>
        <time>2014-05-04T08:09:55Z</time>
      </trkpt>
      <trkpt lat="47.18749" lon="6.4353">
        <ele>762.6</ele>
        <time>2014-05-04T08:09:59Z</time>
      </trkpt>
      <trkpt lat="47.18755" lon="6.43543">
        <ele>762.9</ele>
        <time>2014-05-04T08:10:02Z</time>
      </trkpt>
      <trkpt lat="47.18762" lon="6.43557">
        <ele>763.3</ele>
        <time>2014-05-04T08:10:05Z</time>
      </trkpt>
      <trkpt lat="47.18768" lon="6.4357">
        <ele>763.2</ele>
        <time>2014-05-04T08:10:08Z</time>
      </trkpt>
      <trkpt lat="47.18777" lon="6.43602">
        <ele>762.4</ele>
        <time>2014-05-04T08:10:14Z</time>
      </trkpt>
      <trkpt lat="47.18783" lon="6.43618">
        <ele>762.2</ele>
        <time>2014-05-04T08:10:17Z</time>
      </trkpt>
      <trkpt lat="47.1879" lon="6.43632">
        <ele>761.7</ele>
        <time>2014-05-04T08:10:20Z</time>
      </trkpt>
      <trkpt lat="47.18801" lon="6.43647">
        <ele>761.2</ele>
        <time>2014-05-04T08:10:23Z</time>
      </trkpt>
      <trkpt lat="47.18808" lon="6.43659">
        <ele>761</ele>
        <time>2014-05-04T08:10:25Z</time>
      </trkpt>
      <trkpt lat="47.18815" lon="6.43673">
        <ele>760.6</ele>
        <time>2014-05-04T08:10:27Z</time>
      </trkpt>
      <trkpt lat="47.18822" lon="6.43687">
        <ele>759.8</ele>
        <time>2014-05-04T08:10:29Z</time>
      </trkpt>
      <trkpt lat="47.18829" lon="6.43701">
        <ele>759.9</ele>
        <time>2014-05-04T08:10:31Z</time>
      </trkpt>
      <trkpt lat="47.18837" lon="6.43714">
        <ele>759.7</ele>
        <time>2014-05-04T08:10:33Z</time>
      </trkpt>
      <trkpt lat="47.18843" lon="6.43725">
        <ele>759.4</ele>
        <time>2014-05-04T08:10:35Z</time>
      </trkpt>
      <trkpt lat="47.18849" lon="6.43737">
        <ele>759.2</ele>
        <time>2014-05-04T08:10:37Z</time>
      </trkpt>
      <trkpt lat="47.18853" lon="6.43751">
        <ele>759.4</ele>
        <time>2014-05-04T08:10:39Z</time>
      </trkpt>
      <trkpt lat="47.18857" lon="6.43763">
        <ele>759.3</ele>
        <time>2014-05-04T08:10:41Z</time>
      </trkpt>
      <trkpt lat="47.18863" lon="6.43777">
        <ele>759.1</ele>
        <time>2014-05-04T08:10:43Z</time>
      </trkpt>
      <trkpt lat="47.18868" lon="6.43791">
        <ele>759.1</ele>
        <time>2014-05-04T08:10:45Z</time>
      </trkpt>
      <trkpt lat="47.18871" lon="6.43805">
        <ele>759</ele>
        <time>2014-05-04T08:10:47Z</time>
      </trkpt>
      <trkpt lat="47.18875" lon="6.43822">
        <ele>759</ele>
        <time>2014-05-04T08:10:50Z</time>
      </trkpt>
      <trkpt lat="47.18879" lon="6.4384">
        <ele>759</ele>
        <time>2014-05-04T08:10:53Z</time>
      </trkpt>
      <trkpt lat="47.18881" lon="6.43853">
        <ele>759.2</ele>
        <time>2014-05-04T08:10:55Z</time>
      </trkpt>
      <trkpt lat="47.18882" lon="6.43871">
        <ele>759.3</ele>
        <time>2014-05-04T08:10:58Z</time>
      </trkpt>
      <trkpt lat="47.18884" lon="6.43886">
        <ele>758.7</ele>
        <time>2014-05-04T08:11:01Z</time>
      </trkpt>
      <trkpt lat="47.18891" lon="6.43897">
        <ele>758.6</ele>
        <time>2014-05-04T08:11:04Z</time>
      </trkpt>
      <trkpt lat="47.189" lon="6.43891">
        <ele>758.5</ele>
        <time>2014-05-04T08:11:10Z</time>
      </trkpt>
      <trkpt lat="47.18918" lon="6.43882">
        <ele>757.5</ele>
        <time>2014-05-04T08:11:18Z</time>
      </trkpt>
      <trkpt lat="47.18911" lon="6.43892">
        <ele>758.3</ele>
        <time>2014-05-04T08:11:27Z</time>
      </trkpt>
      <trkpt lat="47.18917" lon="6.43878">
        <ele>757.7</ele>
        <time>2014-05-04T08:11:41Z</time>
      </trkpt>
      <trkpt lat="47.18927" lon="6.43876">
        <ele>757.3</ele>
        <time>2014-05-04T08:11:43Z</time>
      </trkpt>
      <trkpt lat="47.18933" lon="6.43864">
        <ele>756.9</ele>
        <time>2014-05-04T08:11:45Z</time>
      </trkpt>
      <trkpt lat="47.18937" lon="6.43849">
        <ele>756.5</ele>
        <time>2014-05-04T08:11:47Z</time>
      </trkpt>
      <trkpt lat="47.18942" lon="6.43829">
        <ele>756.2</ele>
        <time>2014-05-04T08:11:49Z</time>
      </trkpt>
      <trkpt lat="47.18945" lon="6.43808">
        <ele>755.8</ele>
        <time>2014-05-04T08:11:51Z</time>
      </trkpt>
      <trkpt lat="47.18946" lon="6.43785">
        <ele>755.1</ele>
        <time>2014-05-04T08:11:53Z</time>
      </trkpt>
      <trkpt lat="47.18947" lon="6.43762">
        <ele>754.8</ele>
        <time>2014-05-04T08:11:55Z</time>
      </trkpt>
      <trkpt lat="47.18947" lon="6.43741">
        <ele>753.6</ele>
        <time>2014-05-04T08:11:57Z</time>
      </trkpt>
      <trkpt lat="47.18947" lon="6.43724">
        <ele>752.5</ele>
        <time>2014-05-04T08:11:59Z</time>
      </trkpt>
      <trkpt lat="47.18945" lon="6.43709">
        <ele>751.6</ele>
        <time>2014-05-04T08:12:02Z</time>
      </trkpt>
      <trkpt lat="47.18948" lon="6.43696">
        <ele>750.5</ele>
        <time>2014-05-04T08:12:08Z</time>
      </trkpt>
      <trkpt lat="47.18949" lon="6.43681">
        <ele>750</ele>
        <time>2014-05-04T08:12:13Z</time>
      </trkpt>
      <trkpt lat="47.18959" lon="6.43659">
        <ele>747.3</ele>
        <time>2014-05-04T08:12:22Z</time>
      </trkpt>
      <trkpt lat="47.18968" lon="6.43654">
        <ele>746.2</ele>
        <time>2014-05-04T08:12:25Z</time>
      </trkpt>
      <trkpt lat="47.18977" lon="6.43647">
        <ele>744.4</ele>
        <time>2014-05-04T08:12:29Z</time>
      </trkpt>
      <trkpt lat="47.18986" lon="6.43642">
        <ele>743.6</ele>
        <time>2014-05-04T08:12:32Z</time>
      </trkpt>
      <trkpt lat="47.18995" lon="6.43638">
        <ele>742.3</ele>
        <time>2014-05-04T08:12:38Z</time>
      </trkpt>
      <trkpt lat="47.19004" lon="6.43631">
        <ele>742.8</ele>
        <time>2014-05-04T08:12:43Z</time>
      </trkpt>
      <trkpt lat="47.19015" lon="6.43627">
        <ele>743</ele>
        <time>2014-05-04T08:12:46Z</time>
      </trkpt>
      <trkpt lat="47.19026" lon="6.43625">
        <ele>742.9</ele>
        <time>2014-05-04T08:12:50Z</time>
      </trkpt>
      <trkpt lat="47.19036" lon="6.43622">
        <ele>742.8</ele>
        <time>2014-05-04T08:12:53Z</time>
      </trkpt>
      <trkpt lat="47.19045" lon="6.43619">
        <ele>742.8</ele>
        <time>2014-05-04T08:12:56Z</time>
      </trkpt>
      <trkpt lat="47.19057" lon="6.43613">
        <ele>742.2</ele>
        <time>2014-05-04T08:13:00Z</time>
      </trkpt>
      <trkpt lat="47.19066" lon="6.4361">
        <ele>741.8</ele>
        <time>2014-05-04T08:13:03Z</time>
      </trkpt>
      <trkpt lat="47.19075" lon="6.43607">
        <ele>741.9</ele>
        <time>2014-05-04T08:13:06Z</time>
      </trkpt>
      <trkpt lat="47.19087" lon="6.43604">
        <ele>741.2</ele>
        <time>2014-05-04T08:13:09Z</time>
      </trkpt>
      <trkpt lat="47.19097" lon="6.43601">
        <ele>741</ele>
        <time>2014-05-04T08:13:11Z</time>
      </trkpt>
      <trkpt lat="47.19106" lon="6.43598">
        <ele>741</ele>
        <time>2014-05-04T08:13:13Z</time>
      </trkpt>
      <trkpt lat="47.19118" lon="6.43595">
        <ele>740.8</ele>
        <time>2014-05-04T08:13:15Z</time>
      </trkpt>
      <trkpt lat="47.19139" lon="6.43584">
        <ele>740.4</ele>
        <time>2014-05-04T08:13:20Z</time>
      </trkpt>
      <trkpt lat="47.19148" lon="6.43579">
        <ele>740.4</ele>
        <time>2014-05-04T08:13:23Z</time>
      </trkpt>
      <trkpt lat="47.19159" lon="6.43572">
        <ele>739.3</ele>
        <time>2014-05-04T08:13:26Z</time>
      </trkpt>
      <trkpt lat="47.19168" lon="6.43566">
        <ele>738.3</ele>
        <time>2014-05-04T08:13:29Z</time>
      </trkpt>
      <trkpt lat="47.19179" lon="6.43559">
        <ele>737.5</ele>
        <time>2014-05-04T08:13:32Z</time>
      </trkpt>
      <trkpt lat="47.1919" lon="6.43558">
        <ele>736.7</ele>
        <time>2014-05-04T08:13:36Z</time>
      </trkpt>
      <trkpt lat="47.19201" lon="6.43559">
        <ele>735.6</ele>
        <time>2014-05-04T08:13:40Z</time>
      </trkpt>
      <trkpt lat="47.19211" lon="6.43556">
        <ele>735</ele>
        <time>2014-05-04T08:13:44Z</time>
      </trkpt>
      <trkpt lat="47.19222" lon="6.43548">
        <ele>733.9</ele>
        <time>2014-05-04T08:13:49Z</time>
      </trkpt>
      <trkpt lat="47.19228" lon="6.43533">
        <ele>733</ele>
        <time>2014-05-04T08:13:52Z</time>
      </trkpt>
      <trkpt lat="47.19233" lon="6.43518">
        <ele>732.3</ele>
        <time>2014-05-04T08:13:55Z</time>
      </trkpt>
      <trkpt lat="47.19236" lon="6.43504">
        <ele>731.5</ele>
        <time>2014-05-04T08:13:57Z</time>
      </trkpt>
      <trkpt lat="47.1924" lon="6.43485">
        <ele>730.3</ele>
        <time>2014-05-04T08:14:00Z</time>
      </trkpt>
      <trkpt lat="47.1924" lon="6.43471">
        <ele>728.6</ele>
        <time>2014-05-04T08:14:02Z</time>
      </trkpt>
      <trkpt lat="47.19239" lon="6.43451">
        <ele>727.2</ele>
        <time>2014-05-04T08:14:04Z</time>
      </trkpt>
      <trkpt lat="47.19234" lon="6.43436">
        <ele>725.9</ele>
        <time>2014-05-04T08:14:06Z</time>
      </trkpt>
      <trkpt lat="47.19231" lon="6.43422">
        <ele>724.8</ele>
        <time>2014-05-04T08:14:08Z</time>
      </trkpt>
      <trkpt lat="47.19227" lon="6.43407">
        <ele>723.1</ele>
        <time>2014-05-04T08:14:11Z</time>
      </trkpt>
      <trkpt lat="47.19225" lon="6.43392">
        <ele>720.2</ele>
        <time>2014-05-04T08:14:44Z</time>
      </trkpt>
      <trkpt lat="47.1922" lon="6.43364">
        <ele>719.9</ele>
        <time>2014-05-04T08:14:49Z</time>
      </trkpt>
      <trkpt lat="47.19212" lon="6.43353">
        <ele>719.5</ele>
        <time>2014-05-04T08:14:51Z</time>
      </trkpt>
      <trkpt lat="47.19203" lon="6.43341">
        <ele>718.9</ele>
        <time>2014-05-04T08:14:53Z</time>
      </trkpt>
      <trkpt lat="47.19192" lon="6.43329">
        <ele>718</ele>
        <time>2014-05-04T08:14:55Z</time>
      </trkpt>
      <trkpt lat="47.19181" lon="6.43317">
        <ele>717.3</ele>
        <time>2014-05-04T08:14:57Z</time>
      </trkpt>
      <trkpt lat="47.1917" lon="6.43305">
        <ele>716.3</ele>
        <time>2014-05-04T08:14:59Z</time>
      </trkpt>
      <trkpt lat="47.19159" lon="6.43293">
        <ele>715.5</ele>
        <time>2014-05-04T08:15:01Z</time>
      </trkpt>
      <trkpt lat="47.19148" lon="6.43281">
        <ele>714.6</ele>
        <time>2014-05-04T08:15:03Z</time>
      </trkpt>
      <trkpt lat="47.19138" lon="6.43272">
        <ele>713.6</ele>
        <time>2014-05-04T08:15:05Z</time>
      </trkpt>
      <trkpt lat="47.19128" lon="6.43264">
        <ele>712.5</ele>
        <time>2014-05-04T08:15:07Z</time>
      </trkpt>
      <trkpt lat="47.19117" lon="6.43255">
        <ele>711.5</ele>
        <time>2014-05-04T08:15:09Z</time>
      </trkpt>
      <trkpt lat="47.19106" lon="6.43246">
        <ele>710.3</ele>
        <time>2014-05-04T08:15:11Z</time>
      </trkpt>
      <trkpt lat="47.19095" lon="6.43236">
        <ele>709.3</ele>
        <time>2014-05-04T08:15:13Z</time>
      </trkpt>
      <trkpt lat="47.19085" lon="6.43227">
        <ele>708</ele>
        <time>2014-05-04T08:15:15Z</time>
      </trkpt>
      <trkpt lat="47.19072" lon="6.43215">
        <ele>706.7</ele>
        <time>2014-05-04T08:15:17Z</time>
      </trkpt>
      <trkpt lat="47.1906" lon="6.43202">
        <ele>705.5</ele>
        <time>2014-05-04T08:15:19Z</time>
      </trkpt>
      <trkpt lat="47.19053" lon="6.43186">
        <ele>704.4</ele>
        <time>2014-05-04T08:15:21Z</time>
      </trkpt>
      <trkpt lat="47.19047" lon="6.43169">
        <ele>703.3</ele>
        <time>2014-05-04T08:15:23Z</time>
      </trkpt>
      <trkpt lat="47.19046" lon="6.43151">
        <ele>702.1</ele>
        <time>2014-05-04T08:15:25Z</time>
      </trkpt>
      <trkpt lat="47.19045" lon="6.4313">
        <ele>701.1</ele>
        <time>2014-05-04T08:15:27Z</time>
      </trkpt>
      <trkpt lat="47.19043" lon="6.43111">
        <ele>699.9</ele>
        <time>2014-05-04T08:15:29Z</time>
      </trkpt>
      <trkpt lat="47.19044" lon="6.43092">
        <ele>698.8</ele>
        <time>2014-05-04T08:15:31Z</time>
      </trkpt>
      <trkpt lat="47.19048" lon="6.43076">
        <ele>697.7</ele>
        <time>2014-05-04T08:15:33Z</time>
      </trkpt>
      <trkpt lat="47.19055" lon="6.43061">
        <ele>696.4</ele>
        <time>2014-05-04T08:15:35Z</time>
      </trkpt>
      <trkpt lat="47.19063" lon="6.43048">
        <ele>694.5</ele>
        <time>2014-05-04T08:15:37Z</time>
      </trkpt>
      <trkpt lat="47.19071" lon="6.43041">
        <ele>693.7</ele>
        <time>2014-05-04T08:15:39Z</time>
      </trkpt>
      <trkpt lat="47.19082" lon="6.43039">
        <ele>692.9</ele>
        <time>2014-05-04T08:15:41Z</time>
      </trkpt>
      <trkpt lat="47.19093" lon="6.43038">
        <ele>692.1</ele>
        <time>2014-05-04T08:15:43Z</time>
      </trkpt>
      <trkpt lat="47.19104" lon="6.43039">
        <ele>691.1</ele>
        <time>2014-05-04T08:15:45Z</time>
      </trkpt>
      <trkpt lat="47.19125" lon="6.43044">
        <ele>690.2</ele>
        <time>2014-05-04T08:15:49Z</time>
      </trkpt>
      <trkpt lat="47.19135" lon="6.43045">
        <ele>690</ele>
        <time>2014-05-04T08:15:51Z</time>
      </trkpt>
      <trkpt lat="47.19146" lon="6.43047">
        <ele>689.8</ele>
        <time>2014-05-04T08:15:53Z</time>
      </trkpt>
      <trkpt lat="47.19158" lon="6.4305">
        <ele>689.8</ele>
        <time>2014-05-04T08:15:55Z</time>
      </trkpt>
      <trkpt lat="47.19169" lon="6.43053">
        <ele>689</ele>
        <time>2014-05-04T08:15:57Z</time>
      </trkpt>
      <trkpt lat="47.19179" lon="6.43047">
        <ele>688.3</ele>
        <time>2014-05-04T08:15:59Z</time>
      </trkpt>
      <trkpt lat="47.19185" lon="6.43031">
        <ele>688</ele>
        <time>2014-05-04T08:16:02Z</time>
      </trkpt>
      <trkpt lat="47.19189" lon="6.43018">
        <ele>687.9</ele>
        <time>2014-05-04T08:16:05Z</time>
      </trkpt>
      <trkpt lat="47.19199" lon="6.43013">
        <ele>688.7</ele>
        <time>2014-05-04T08:16:09Z</time>
      </trkpt>
      <trkpt lat="47.19208" lon="6.43015">
        <ele>689</ele>
        <time>2014-05-04T08:16:13Z</time>
      </trkpt>
      <trkpt lat="47.19222" lon="6.43015">
        <ele>689.1</ele>
        <time>2014-05-04T08:16:16Z</time>
      </trkpt>
      <trkpt lat="47.19232" lon="6.43015">
        <ele>688.9</ele>
        <time>2014-05-04T08:16:18Z</time>
      </trkpt>
      <trkpt lat="47.19241" lon="6.43015">
        <ele>688.7</ele>
        <time>2014-05-04T08:16:20Z</time>
      </trkpt>
      <trkpt lat="47.19251" lon="6.43013">
        <ele>688.8</ele>
        <time>2014-05-04T08:16:22Z</time>
      </trkpt>
      <trkpt lat="47.1926" lon="6.43008">
        <ele>688.9</ele>
        <time>2014-05-04T08:16:24Z</time>
      </trkpt>
      <trkpt lat="47.19272" lon="6.43002">
        <ele>688.3</ele>
        <time>2014-05-04T08:16:26Z</time>
      </trkpt>
      <trkpt lat="47.19283" lon="6.42995">
        <ele>688</ele>
        <time>2014-05-04T08:16:28Z</time>
      </trkpt>
      <trkpt lat="47.19294" lon="6.4299">
        <ele>687.5</ele>
        <time>2014-05-04T08:16:30Z</time>
      </trkpt>
      <trkpt lat="47.19305" lon="6.42983">
        <ele>687.2</ele>
        <time>2014-05-04T08:16:32Z</time>
      </trkpt>
      <trkpt lat="47.19314" lon="6.42979">
        <ele>686.9</ele>
        <time>2014-05-04T08:16:34Z</time>
      </trkpt>
      <trkpt lat="47.19323" lon="6.42974">
        <ele>687.1</ele>
        <time>2014-05-04T08:16:36Z</time>
      </trkpt>
      <trkpt lat="47.19334" lon="6.42969">
        <ele>687</ele>
        <time>2014-05-04T08:16:38Z</time>
      </trkpt>
      <trkpt lat="47.19344" lon="6.42963">
        <ele>687.3</ele>
        <time>2014-05-04T08:16:40Z</time>
      </trkpt>
      <trkpt lat="47.19353" lon="6.42957">
        <ele>688</ele>
        <time>2014-05-04T08:16:42Z</time>
      </trkpt>
      <trkpt lat="47.19361" lon="6.42952">
        <ele>688.2</ele>
        <time>2014-05-04T08:16:44Z</time>
      </trkpt>
      <trkpt lat="47.19372" lon="6.42947">
        <ele>688.7</ele>
        <time>2014-05-04T08:16:47Z</time>
      </trkpt>
      <trkpt lat="47.19392" lon="6.42937">
        <ele>690.1</ele>
        <time>2014-05-04T08:16:53Z</time>
      </trkpt>
      <trkpt lat="47.19402" lon="6.42934">
        <ele>690.6</ele>
        <time>2014-05-04T08:16:56Z</time>
      </trkpt>
      <trkpt lat="47.19411" lon="6.42931">
        <ele>690.8</ele>
        <time>2014-05-04T08:16:59Z</time>
      </trkpt>
      <trkpt lat="47.19422" lon="6.42927">
        <ele>691.2</ele>
        <time>2014-05-04T08:17:02Z</time>
      </trkpt>
      <trkpt lat="47.19435" lon="6.42922">
        <ele>691.6</ele>
        <time>2014-05-04T08:17:05Z</time>
      </trkpt>
      <trkpt lat="47.19443" lon="6.42917">
        <ele>691.8</ele>
        <time>2014-05-04T08:17:07Z</time>
      </trkpt>
      <trkpt lat="47.19454" lon="6.4291">
        <ele>692.2</ele>
        <time>2014-05-04T08:17:10Z</time>
      </trkpt>
      <trkpt lat="47.19466" lon="6.42901">
        <ele>692.4</ele>
        <time>2014-05-04T08:17:13Z</time>
      </trkpt>
      <trkpt lat="47.19477" lon="6.42892">
        <ele>692.4</ele>
        <time>2014-05-04T08:17:16Z</time>
      </trkpt>
      <trkpt lat="47.19489" lon="6.42883">
        <ele>692.6</ele>
        <time>2014-05-04T08:17:19Z</time>
      </trkpt>
      <trkpt lat="47.19499" lon="6.42873">
        <ele>692.8</ele>
        <time>2014-05-04T08:17:22Z</time>
      </trkpt>
      <trkpt lat="47.19511" lon="6.42864">
        <ele>693.4</ele>
        <time>2014-05-04T08:17:25Z</time>
      </trkpt>
      <trkpt lat="47.19522" lon="6.42855">
        <ele>693.6</ele>
        <time>2014-05-04T08:17:28Z</time>
      </trkpt>
      <trkpt lat="47.19533" lon="6.42846">
        <ele>694</ele>
        <time>2014-05-04T08:17:31Z</time>
      </trkpt>
      <trkpt lat="47.19541" lon="6.42839">
        <ele>693.9</ele>
        <time>2014-05-04T08:17:33Z</time>
      </trkpt>
      <trkpt lat="47.19552" lon="6.42829">
        <ele>693.7</ele>
        <time>2014-05-04T08:17:36Z</time>
      </trkpt>
      <trkpt lat="47.19564" lon="6.42825">
        <ele>693.7</ele>
        <time>2014-05-04T08:17:39Z</time>
      </trkpt>
      <trkpt lat="47.19577" lon="6.42817">
        <ele>693.8</ele>
        <time>2014-05-04T08:17:42Z</time>
      </trkpt>
      <trkpt lat="47.19585" lon="6.42811">
        <ele>693.8</ele>
        <time>2014-05-04T08:17:44Z</time>
      </trkpt>
      <trkpt lat="47.19594" lon="6.42804">
        <ele>693.5</ele>
        <time>2014-05-04T08:17:46Z</time>
      </trkpt>
      <trkpt lat="47.19602" lon="6.42796">
        <ele>693.3</ele>
        <time>2014-05-04T08:17:48Z</time>
      </trkpt>
      <trkpt lat="47.1962" lon="6.42776">
        <ele>692.9</ele>
        <time>2014-05-04T08:17:52Z</time>
      </trkpt>
      <trkpt lat="47.19629" lon="6.42764">
        <ele>692.6</ele>
        <time>2014-05-04T08:17:54Z</time>
      </trkpt>
      <trkpt lat="47.19638" lon="6.42751">
        <ele>692.2</ele>
        <time>2014-05-04T08:17:56Z</time>
      </trkpt>
      <trkpt lat="47.19648" lon="6.4274">
        <ele>691.4</ele>
        <time>2014-05-04T08:17:58Z</time>
      </trkpt>
      <trkpt lat="47.19658" lon="6.42728">
        <ele>690.7</ele>
        <time>2014-05-04T08:18:00Z</time>
      </trkpt>
      <trkpt lat="47.1967" lon="6.42714">
        <ele>690.2</ele>
        <time>2014-05-04T08:18:02Z</time>
      </trkpt>
      <trkpt lat="47.19681" lon="6.42702">
        <ele>689.6</ele>
        <time>2014-05-04T08:18:04Z</time>
      </trkpt>
      <trkpt lat="47.19691" lon="6.42691">
        <ele>689.5</ele>
        <time>2014-05-04T08:18:06Z</time>
      </trkpt>
      <trkpt lat="47.197" lon="6.42683">
        <ele>689.5</ele>
        <time>2014-05-04T08:18:08Z</time>
      </trkpt>
      <trkpt lat="47.19709" lon="6.42677">
        <ele>689.6</ele>
        <time>2014-05-04T08:18:10Z</time>
      </trkpt>
      <trkpt lat="47.19719" lon="6.42672">
        <ele>689.9</ele>
        <time>2014-05-04T08:18:12Z</time>
      </trkpt>
      <trkpt lat="47.19728" lon="6.42669">
        <ele>689.9</ele>
        <time>2014-05-04T08:18:14Z</time>
      </trkpt>
      <trkpt lat="47.19737" lon="6.42666">
        <ele>689.6</ele>
        <time>2014-05-04T08:18:16Z</time>
      </trkpt>
      <trkpt lat="47.1975" lon="6.42664">
        <ele>689</ele>
        <time>2014-05-04T08:18:18Z</time>
      </trkpt>
      <trkpt lat="47.19766" lon="6.42664">
        <ele>688.8</ele>
        <time>2014-05-04T08:18:20Z</time>
      </trkpt>
      <trkpt lat="47.19783" lon="6.42665">
        <ele>687.8</ele>
        <time>2014-05-04T08:18:22Z</time>
      </trkpt>
      <trkpt lat="47.19792" lon="6.42665">
        <ele>687.2</ele>
        <time>2014-05-04T08:18:23Z</time>
      </trkpt>
      <trkpt lat="47.19801" lon="6.42665">
        <ele>687.1</ele>
        <time>2014-05-04T08:18:24Z</time>
      </trkpt>
      <trkpt lat="47.1981" lon="6.42665">
        <ele>687.1</ele>
        <time>2014-05-04T08:18:25Z</time>
      </trkpt>
      <trkpt lat="47.19819" lon="6.42664">
        <ele>686.9</ele>
        <time>2014-05-04T08:18:26Z</time>
      </trkpt>
      <trkpt lat="47.19836" lon="6.42662">
        <ele>685.8</ele>
        <time>2014-05-04T08:18:28Z</time>
      </trkpt>
      <trkpt lat="47.19853" lon="6.4266">
        <ele>685</ele>
        <time>2014-05-04T08:18:30Z</time>
      </trkpt>
      <trkpt lat="47.19868" lon="6.42658">
        <ele>684.1</ele>
        <time>2014-05-04T08:18:32Z</time>
      </trkpt>
      <trkpt lat="47.19882" lon="6.42658">
        <ele>683.1</ele>
        <time>2014-05-04T08:18:34Z</time>
      </trkpt>
      <trkpt lat="47.19895" lon="6.42657">
        <ele>682.8</ele>
        <time>2014-05-04T08:18:36Z</time>
      </trkpt>
      <trkpt lat="47.19904" lon="6.42657">
        <ele>682</ele>
        <time>2014-05-04T08:18:38Z</time>
      </trkpt>
      <trkpt lat="47.19916" lon="6.42659">
        <ele>680.5</ele>
        <time>2014-05-04T08:18:41Z</time>
      </trkpt>
      <trkpt lat="47.19926" lon="6.42662">
        <ele>679.1</ele>
        <time>2014-05-04T08:18:43Z</time>
      </trkpt>
      <trkpt lat="47.19937" lon="6.42667">
        <ele>678.2</ele>
        <time>2014-05-04T08:18:45Z</time>
      </trkpt>
      <trkpt lat="47.19949" lon="6.42676">
        <ele>677.1</ele>
        <time>2014-05-04T08:18:47Z</time>
      </trkpt>
      <trkpt lat="47.19961" lon="6.42686">
        <ele>676.3</ele>
        <time>2014-05-04T08:18:49Z</time>
      </trkpt>
      <trkpt lat="47.1999" lon="6.42702">
        <ele>673.6</ele>
        <time>2014-05-04T08:18:53Z</time>
      </trkpt>
      <trkpt lat="47.20007" lon="6.42707">
        <ele>671.9</ele>
        <time>2014-05-04T08:18:55Z</time>
      </trkpt>
      <trkpt lat="47.20024" lon="6.42714">
        <ele>671</ele>
        <time>2014-05-04T08:18:57Z</time>
      </trkpt>
      <trkpt lat="47.2004" lon="6.42725">
        <ele>670.2</ele>
        <time>2014-05-04T08:18:59Z</time>
      </trkpt>
      <trkpt lat="47.20052" lon="6.42738">
        <ele>670</ele>
        <time>2014-05-04T08:19:01Z</time>
      </trkpt>
      <trkpt lat="47.20063" lon="6.42752">
        <ele>669.5</ele>
        <time>2014-05-04T08:19:03Z</time>
      </trkpt>
      <trkpt lat="47.20073" lon="6.42764">
        <ele>669.6</ele>
        <time>2014-05-04T08:19:05Z</time>
      </trkpt>
      <trkpt lat="47.20081" lon="6.42775">
        <ele>669.9</ele>
        <time>2014-05-04T08:19:07Z</time>
      </trkpt>
      <trkpt lat="47.20089" lon="6.42784">
        <ele>669.7</ele>
        <time>2014-05-04T08:19:09Z</time>
      </trkpt>
      <trkpt lat="47.20096" lon="6.42794">
        <ele>670.3</ele>
        <time>2014-05-04T08:19:11Z</time>
      </trkpt>
      <trkpt lat="47.20105" lon="6.42806">
        <ele>670.7</ele>
        <time>2014-05-04T08:19:14Z</time>
      </trkpt>
      <trkpt lat="47.20112" lon="6.42818">
        <ele>671.3</ele>
        <time>2014-05-04T08:19:17Z</time>
      </trkpt>
      <trkpt lat="47.20117" lon="6.42831">
        <ele>671.8</ele>
        <time>2014-05-04T08:19:20Z</time>
      </trkpt>
      <trkpt lat="47.20121" lon="6.42844">
        <ele>672.2</ele>
        <time>2014-05-04T08:19:23Z</time>
      </trkpt>
      <trkpt lat="47.20123" lon="6.42861">
        <ele>673.7</ele>
        <time>2014-05-04T08:19:27Z</time>
      </trkpt>
      <trkpt lat="47.20125" lon="6.42875">
        <ele>673.9</ele>
        <time>2014-05-04T08:19:30Z</time>
      </trkpt>
      <trkpt lat="47.20127" lon="6.42892">
        <ele>674.5</ele>
        <time>2014-05-04T08:19:34Z</time>
      </trkpt>
      <trkpt lat="47.20127" lon="6.42905">
        <ele>675.7</ele>
        <time>2014-05-04T08:19:37Z</time>
      </trkpt>
      <trkpt lat="47.20127" lon="6.42919">
        <ele>675.8</ele>
        <time>2014-05-04T08:19:40Z</time>
      </trkpt>
      <trkpt lat="47.20128" lon="6.42933">
        <ele>675.4</ele>
        <time>2014-05-04T08:19:43Z</time>
      </trkpt>
      <trkpt lat="47.20126" lon="6.42947">
        <ele>675.7</ele>
        <time>2014-05-04T08:19:46Z</time>
      </trkpt>
      <trkpt lat="47.20125" lon="6.42961">
        <ele>675.6</ele>
        <time>2014-05-04T08:19:49Z</time>
      </trkpt>
      <trkpt lat="47.20131" lon="6.42971">
        <ele>675.6</ele>
        <time>2014-05-04T08:19:52Z</time>
      </trkpt>
      <trkpt lat="47.20153" lon="6.42965">
        <ele>676.5</ele>
        <time>2014-05-04T08:19:58Z</time>
      </trkpt>
      <trkpt lat="47.20164" lon="6.42958">
        <ele>676.6</ele>
        <time>2014-05-04T08:20:01Z</time>
      </trkpt>
      <trkpt lat="47.20176" lon="6.42954">
        <ele>676.5</ele>
        <time>2014-05-04T08:20:04Z</time>
      </trkpt>
      <trkpt lat="47.20188" lon="6.4295">
        <ele>676.3</ele>
        <time>2014-05-04T08:20:07Z</time>
      </trkpt>
      <trkpt lat="47.20201" lon="6.42943">
        <ele>676.7</ele>
        <time>2014-05-04T08:20:10Z</time>
      </trkpt>
      <trkpt lat="47.20209" lon="6.42938">
        <ele>676.4</ele>
        <time>2014-05-04T08:20:12Z</time>
      </trkpt>
      <trkpt lat="47.20218" lon="6.42932">
        <ele>676.4</ele>
        <time>2014-05-04T08:20:14Z</time>
      </trkpt>
      <trkpt lat="47.2023" lon="6.42927">
        <ele>677.1</ele>
        <time>2014-05-04T08:20:17Z</time>
      </trkpt>
      <trkpt lat="47.20242" lon="6.4292">
        <ele>677.5</ele>
        <time>2014-05-04T08:20:20Z</time>
      </trkpt>
      <trkpt lat="47.20251" lon="6.42916">
        <ele>677.6</ele>
        <time>2014-05-04T08:20:22Z</time>
      </trkpt>
      <trkpt lat="47.20259" lon="6.42911">
        <ele>677.3</ele>
        <time>2014-05-04T08:20:24Z</time>
      </trkpt>
      <trkpt lat="47.20268" lon="6.42905">
        <ele>677</ele>
        <time>2014-05-04T08:20:26Z</time>
      </trkpt>
      <trkpt lat="47.20277" lon="6.429">
        <ele>677</ele>
        <time>2014-05-04T08:20:28Z</time>
      </trkpt>
      <trkpt lat="47.20286" lon="6.42893">
        <ele>677.1</ele>
        <time>2014-05-04T08:20:30Z</time>
      </trkpt>
      <trkpt lat="47.20296" lon="6.42886">
        <ele>676.8</ele>
        <time>2014-05-04T08:20:32Z</time>
      </trkpt>
      <trkpt lat="47.20306" lon="6.42879">
        <ele>676.7</ele>
        <time>2014-05-04T08:20:34Z</time>
      </trkpt>
      <trkpt lat="47.20317" lon="6.42871">
        <ele>676.3</ele>
        <time>2014-05-04T08:20:36Z</time>
      </trkpt>
      <trkpt lat="47.20327" lon="6.42862">
        <ele>676.1</ele>
        <time>2014-05-04T08:20:38Z</time>
      </trkpt>
      <trkpt lat="47.20338" lon="6.42854">
        <ele>675.4</ele>
        <time>2014-05-04T08:20:40Z</time>
      </trkpt>
      <trkpt lat="47.20349" lon="6.42845">
        <ele>675</ele>
        <time>2014-05-04T08:20:42Z</time>
      </trkpt>
      <trkpt lat="47.20359" lon="6.42835">
        <ele>675.1</ele>
        <time>2014-05-04T08:20:44Z</time>
      </trkpt>
      <trkpt lat="47.20369" lon="6.42825">
        <ele>674.5</ele>
        <time>2014-05-04T08:20:46Z</time>
      </trkpt>
      <trkpt lat="47.20379" lon="6.42816">
        <ele>674.5</ele>
        <time>2014-05-04T08:20:48Z</time>
      </trkpt>
      <trkpt lat="47.2039" lon="6.42807">
        <ele>674.4</ele>
        <time>2014-05-04T08:20:50Z</time>
      </trkpt>
      <trkpt lat="47.20399" lon="6.42798">
        <ele>674.6</ele>
        <time>2014-05-04T08:20:52Z</time>
      </trkpt>
      <trkpt lat="47.20408" lon="6.42788">
        <ele>674.4</ele>
        <time>2014-05-04T08:20:54Z</time>
      </trkpt>
      <trkpt lat="47.20428" lon="6.42769">
        <ele>674.4</ele>
        <time>2014-05-04T08:20:58Z</time>
      </trkpt>
      <trkpt lat="47.20437" lon="6.4276">
        <ele>674.5</ele>
        <time>2014-05-04T08:21:00Z</time>
      </trkpt>
      <trkpt lat="47.20447" lon="6.42752">
        <ele>674.6</ele>
        <time>2014-05-04T08:21:02Z</time>
      </trkpt>
      <trkpt lat="47.20457" lon="6.42744">
        <ele>675.2</ele>
        <time>2014-05-04T08:21:04Z</time>
      </trkpt>
      <trkpt lat="47.20467" lon="6.42737">
        <ele>675.3</ele>
        <time>2014-05-04T08:21:06Z</time>
      </trkpt>
      <trkpt lat="47.20477" lon="6.42729">
        <ele>675.5</ele>
        <time>2014-05-04T08:21:08Z</time>
      </trkpt>
      <trkpt lat="47.20486" lon="6.42722">
        <ele>675.4</ele>
        <time>2014-05-04T08:21:10Z</time>
      </trkpt>
      <trkpt lat="47.20496" lon="6.42716">
        <ele>675.6</ele>
        <time>2014-05-04T08:21:12Z</time>
      </trkpt>
      <trkpt lat="47.20506" lon="6.4271">
        <ele>675.8</ele>
        <time>2014-05-04T08:21:14Z</time>
      </trkpt>
      <trkpt lat="47.20515" lon="6.42704">
        <ele>675.8</ele>
        <time>2014-05-04T08:21:16Z</time>
      </trkpt>
      <trkpt lat="47.20526" lon="6.42698">
        <ele>675.8</ele>
        <time>2014-05-04T08:21:18Z</time>
      </trkpt>
      <trkpt lat="47.20536" lon="6.42693">
        <ele>675.9</ele>
        <time>2014-05-04T08:21:20Z</time>
      </trkpt>
      <trkpt lat="47.20546" lon="6.42688">
        <ele>676</ele>
        <time>2014-05-04T08:21:22Z</time>
      </trkpt>
      <trkpt lat="47.20557" lon="6.42684">
        <ele>675.6</ele>
        <time>2014-05-04T08:21:24Z</time>
      </trkpt>
      <trkpt lat="47.20568" lon="6.4268">
        <ele>675.6</ele>
        <time>2014-05-04T08:21:26Z</time>
      </trkpt>
      <trkpt lat="47.20578" lon="6.42676">
        <ele>675.6</ele>
        <time>2014-05-04T08:21:28Z</time>
      </trkpt>
      <trkpt lat="47.20589" lon="6.42673">
        <ele>675.6</ele>
        <time>2014-05-04T08:21:30Z</time>
      </trkpt>
      <trkpt lat="47.206" lon="6.42671">
        <ele>675.5</ele>
        <time>2014-05-04T08:21:32Z</time>
      </trkpt>
      <trkpt lat="47.2061" lon="6.42669">
        <ele>675.3</ele>
        <time>2014-05-04T08:21:34Z</time>
      </trkpt>
      <trkpt lat="47.20621" lon="6.42667">
        <ele>675</ele>
        <time>2014-05-04T08:21:36Z</time>
      </trkpt>
      <trkpt lat="47.20634" lon="6.42666">
        <ele>674.4</ele>
        <time>2014-05-04T08:21:39Z</time>
      </trkpt>
      <trkpt lat="47.20644" lon="6.42662">
        <ele>673.7</ele>
        <time>2014-05-04T08:21:41Z</time>
      </trkpt>
      <trkpt lat="47.20654" lon="6.42655">
        <ele>673.4</ele>
        <time>2014-05-04T08:21:43Z</time>
      </trkpt>
      <trkpt lat="47.20664" lon="6.42646">
        <ele>673.1</ele>
        <time>2014-05-04T08:21:45Z</time>
      </trkpt>
      <trkpt lat="47.20674" lon="6.42636">
        <ele>672.7</ele>
        <time>2014-05-04T08:21:47Z</time>
      </trkpt>
      <trkpt lat="47.20684" lon="6.42626">
        <ele>672.4</ele>
        <time>2014-05-04T08:21:49Z</time>
      </trkpt>
      <trkpt lat="47.20695" lon="6.42614">
        <ele>671.8</ele>
        <time>2014-05-04T08:21:51Z</time>
      </trkpt>
      <trkpt lat="47.20707" lon="6.426">
        <ele>671.5</ele>
        <time>2014-05-04T08:21:53Z</time>
      </trkpt>
      <trkpt lat="47.20719" lon="6.42588">
        <ele>671.7</ele>
        <time>2014-05-04T08:21:55Z</time>
      </trkpt>
      <trkpt lat="47.20744" lon="6.42569">
        <ele>671.6</ele>
        <time>2014-05-04T08:21:59Z</time>
      </trkpt>
      <trkpt lat="47.20756" lon="6.42562">
        <ele>671.3</ele>
        <time>2014-05-04T08:22:01Z</time>
      </trkpt>
      <trkpt lat="47.20769" lon="6.42556">
        <ele>671.3</ele>
        <time>2014-05-04T08:22:03Z</time>
      </trkpt>
      <trkpt lat="47.20783" lon="6.42553">
        <ele>671.5</ele>
        <time>2014-05-04T08:22:05Z</time>
      </trkpt>
      <trkpt lat="47.20796" lon="6.42553">
        <ele>671.3</ele>
        <time>2014-05-04T08:22:07Z</time>
      </trkpt>
      <trkpt lat="47.20808" lon="6.42552">
        <ele>671.3</ele>
        <time>2014-05-04T08:22:09Z</time>
      </trkpt>
      <trkpt lat="47.2082" lon="6.42549">
        <ele>671.7</ele>
        <time>2014-05-04T08:22:11Z</time>
      </trkpt>
      <trkpt lat="47.20832" lon="6.42546">
        <ele>672</ele>
        <time>2014-05-04T08:22:13Z</time>
      </trkpt>
      <trkpt lat="47.20842" lon="6.42543">
        <ele>671.7</ele>
        <time>2014-05-04T08:22:15Z</time>
      </trkpt>
      <trkpt lat="47.20853" lon="6.42538">
        <ele>671.8</ele>
        <time>2014-05-04T08:22:17Z</time>
      </trkpt>
      <trkpt lat="47.20863" lon="6.42532">
        <ele>672.1</ele>
        <time>2014-05-04T08:22:19Z</time>
      </trkpt>
      <trkpt lat="47.20872" lon="6.42526">
        <ele>672.3</ele>
        <time>2014-05-04T08:22:21Z</time>
      </trkpt>
      <trkpt lat="47.20882" lon="6.42519">
        <ele>672.9</ele>
        <time>2014-05-04T08:22:23Z</time>
      </trkpt>
      <trkpt lat="47.2089" lon="6.42512">
        <ele>673.1</ele>
        <time>2014-05-04T08:22:25Z</time>
      </trkpt>
      <trkpt lat="47.20898" lon="6.42505">
        <ele>673.2</ele>
        <time>2014-05-04T08:22:27Z</time>
      </trkpt>
      <trkpt lat="47.20906" lon="6.42498">
        <ele>673.4</ele>
        <time>2014-05-04T08:22:29Z</time>
      </trkpt>
      <trkpt lat="47.20914" lon="6.42492">
        <ele>673.5</ele>
        <time>2014-05-04T08:22:31Z</time>
      </trkpt>
      <trkpt lat="47.20922" lon="6.42485">
        <ele>673.8</ele>
        <time>2014-05-04T08:22:33Z</time>
      </trkpt>
      <trkpt lat="47.20933" lon="6.42476">
        <ele>674.2</ele>
        <time>2014-05-04T08:22:36Z</time>
      </trkpt>
      <trkpt lat="47.20944" lon="6.42466">
        <ele>674.5</ele>
        <time>2014-05-04T08:22:39Z</time>
      </trkpt>
      <trkpt lat="47.20952" lon="6.42459">
        <ele>674.5</ele>
        <time>2014-05-04T08:22:41Z</time>
      </trkpt>
      <trkpt lat="47.20959" lon="6.42452">
        <ele>674.4</ele>
        <time>2014-05-04T08:22:43Z</time>
      </trkpt>
      <trkpt lat="47.2097" lon="6.42439">
        <ele>674.3</ele>
        <time>2014-05-04T08:22:46Z</time>
      </trkpt>
      <trkpt lat="47.20978" lon="6.42431">
        <ele>674.3</ele>
        <time>2014-05-04T08:22:48Z</time>
      </trkpt>
      <trkpt lat="47.20988" lon="6.42419">
        <ele>674.1</ele>
        <time>2014-05-04T08:22:51Z</time>
      </trkpt>
      <trkpt lat="47.20996" lon="6.42411">
        <ele>673.9</ele>
        <time>2014-05-04T08:22:53Z</time>
      </trkpt>
      <trkpt lat="47.21007" lon="6.42402">
        <ele>673.8</ele>
        <time>2014-05-04T08:22:55Z</time>
      </trkpt>
      <trkpt lat="47.21018" lon="6.42393">
        <ele>673.4</ele>
        <time>2014-05-04T08:22:57Z</time>
      </trkpt>
      <trkpt lat="47.21043" lon="6.42378">
        <ele>672.7</ele>
        <time>2014-05-04T08:23:01Z</time>
      </trkpt>
      <trkpt lat="47.21055" lon="6.4237">
        <ele>672.3</ele>
        <time>2014-05-04T08:23:03Z</time>
      </trkpt>
      <trkpt lat="47.21067" lon="6.42363">
        <ele>671.9</ele>
        <time>2014-05-04T08:23:05Z</time>
      </trkpt>
      <trkpt lat="47.2108" lon="6.42355">
        <ele>671.2</ele>
        <time>2014-05-04T08:23:07Z</time>
      </trkpt>
      <trkpt lat="47.21095" lon="6.42348">
        <ele>670.6</ele>
        <time>2014-05-04T08:23:09Z</time>
      </trkpt>
      <trkpt lat="47.21109" lon="6.42341">
        <ele>669.6</ele>
        <time>2014-05-04T08:23:11Z</time>
      </trkpt>
      <trkpt lat="47.21125" lon="6.42334">
        <ele>668.9</ele>
        <time>2014-05-04T08:23:13Z</time>
      </trkpt>
      <trkpt lat="47.2114" lon="6.42324">
        <ele>668.2</ele>
        <time>2014-05-04T08:23:15Z</time>
      </trkpt>
      <trkpt lat="47.21155" lon="6.42311">
        <ele>667.6</ele>
        <time>2014-05-04T08:23:17Z</time>
      </trkpt>
      <trkpt lat="47.21168" lon="6.42297">
        <ele>666.7</ele>
        <time>2014-05-04T08:23:19Z</time>
      </trkpt>
      <trkpt lat="47.2118" lon="6.42284">
        <ele>665.9</ele>
        <time>2014-05-04T08:23:21Z</time>
      </trkpt>
      <trkpt lat="47.21192" lon="6.42271">
        <ele>664.8</ele>
        <time>2014-05-04T08:23:23Z</time>
      </trkpt>
      <trkpt lat="47.21202" lon="6.42258">
        <ele>663.3</ele>
        <time>2014-05-04T08:23:25Z</time>
      </trkpt>
      <trkpt lat="47.21211" lon="6.42246">
        <ele>662</ele>
        <time>2014-05-04T08:23:27Z</time>
      </trkpt>
      <trkpt lat="47.21222" lon="6.42236">
        <ele>661.5</ele>
        <time>2014-05-04T08:23:29Z</time>
      </trkpt>
      <trkpt lat="47.21234" lon="6.42226">
        <ele>661</ele>
        <time>2014-05-04T08:23:31Z</time>
      </trkpt>
      <trkpt lat="47.21246" lon="6.42218">
        <ele>659.9</ele>
        <time>2014-05-04T08:23:33Z</time>
      </trkpt>
      <trkpt lat="47.21258" lon="6.42209">
        <ele>659</ele>
        <time>2014-05-04T08:23:35Z</time>
      </trkpt>
      <trkpt lat="47.21268" lon="6.42201">
        <ele>657.1</ele>
        <time>2014-05-04T08:23:37Z</time>
      </trkpt>
      <trkpt lat="47.21278" lon="6.42194">
        <ele>656.3</ele>
        <time>2014-05-04T08:23:39Z</time>
      </trkpt>
      <trkpt lat="47.2129" lon="6.42185">
        <ele>654.6</ele>
        <time>2014-05-04T08:23:42Z</time>
      </trkpt>
      <trkpt lat="47.21299" lon="6.42181">
        <ele>653.4</ele>
        <time>2014-05-04T08:23:44Z</time>
      </trkpt>
      <trkpt lat="47.21312" lon="6.42175">
        <ele>651.7</ele>
        <time>2014-05-04T08:23:47Z</time>
      </trkpt>
      <trkpt lat="47.21322" lon="6.4217">
        <ele>649.3</ele>
        <time>2014-05-04T08:23:50Z</time>
      </trkpt>
      <trkpt lat="47.21334" lon="6.42163">
        <ele>646.6</ele>
        <time>2014-05-04T08:23:53Z</time>
      </trkpt>
      <trkpt lat="47.21345" lon="6.42158">
        <ele>643.4</ele>
        <time>2014-05-04T08:23:57Z</time>
      </trkpt>
      <trkpt lat="47.21355" lon="6.42154">
        <ele>640.3</ele>
        <time>2014-05-04T08:24:01Z</time>
      </trkpt>
      <trkpt lat="47.21376" lon="6.42147">
        <ele>634.4</ele>
        <time>2014-05-04T08:24:12Z</time>
      </trkpt>
      <trkpt lat="47.21387" lon="6.42141">
        <ele>631.7</ele>
        <time>2014-05-04T08:24:16Z</time>
      </trkpt>
      <trkpt lat="47.21396" lon="6.42137">
        <ele>629.1</ele>
        <time>2014-05-04T08:24:20Z</time>
      </trkpt>
      <trkpt lat="47.21406" lon="6.42135">
        <ele>626</ele>
        <time>2014-05-04T08:24:24Z</time>
      </trkpt>
      <trkpt lat="47.21415" lon="6.42136">
        <ele>623.9</ele>
        <time>2014-05-04T08:24:27Z</time>
      </trkpt>
      <trkpt lat="47.21424" lon="6.4214">
        <ele>621.5</ele>
        <time>2014-05-04T08:24:31Z</time>
      </trkpt>
      <trkpt lat="47.21433" lon="6.42145">
        <ele>619</ele>
        <time>2014-05-04T08:24:35Z</time>
      </trkpt>
      <trkpt lat="47.21444" lon="6.42151">
        <ele>616.3</ele>
        <time>2014-05-04T08:24:39Z</time>
      </trkpt>
      <trkpt lat="47.21453" lon="6.42155">
        <ele>613.4</ele>
        <time>2014-05-04T08:24:43Z</time>
      </trkpt>
      <trkpt lat="47.21461" lon="6.42143">
        <ele>610.6</ele>
        <time>2014-05-04T08:24:48Z</time>
      </trkpt>
      <trkpt lat="47.21458" lon="6.42126">
        <ele>608.7</ele>
        <time>2014-05-04T08:24:52Z</time>
      </trkpt>
      <trkpt lat="47.21453" lon="6.42113">
        <ele>607.3</ele>
        <time>2014-05-04T08:24:55Z</time>
      </trkpt>
      <trkpt lat="47.21446" lon="6.42099">
        <ele>606.5</ele>
        <time>2014-05-04T08:24:58Z</time>
      </trkpt>
      <trkpt lat="47.21436" lon="6.42086">
        <ele>605.3</ele>
        <time>2014-05-04T08:25:01Z</time>
      </trkpt>
      <trkpt lat="47.21428" lon="6.42079">
        <ele>604.5</ele>
        <time>2014-05-04T08:25:03Z</time>
      </trkpt>
      <trkpt lat="47.21408" lon="6.42061">
        <ele>601.4</ele>
        <time>2014-05-04T08:25:09Z</time>
      </trkpt>
      <trkpt lat="47.214" lon="6.42052">
        <ele>599.2</ele>
        <time>2014-05-04T08:25:12Z</time>
      </trkpt>
      <trkpt lat="47.21392" lon="6.42045">
        <ele>598.1</ele>
        <time>2014-05-04T08:25:14Z</time>
      </trkpt>
      <trkpt lat="47.21383" lon="6.4204">
        <ele>597.2</ele>
        <time>2014-05-04T08:25:16Z</time>
      </trkpt>
      <trkpt lat="47.21374" lon="6.42035">
        <ele>595.7</ele>
        <time>2014-05-04T08:25:18Z</time>
      </trkpt>
      <trkpt lat="47.21365" lon="6.42031">
        <ele>594.6</ele>
        <time>2014-05-04T08:25:20Z</time>
      </trkpt>
      <trkpt lat="47.21353" lon="6.42028">
        <ele>593.5</ele>
        <time>2014-05-04T08:25:23Z</time>
      </trkpt>
      <trkpt lat="47.21343" lon="6.42025">
        <ele>592.7</ele>
        <time>2014-05-04T08:25:25Z</time>
      </trkpt>
      <trkpt lat="47.21332" lon="6.42023">
        <ele>591.8</ele>
        <time>2014-05-04T08:25:27Z</time>
      </trkpt>
      <trkpt lat="47.21321" lon="6.42022">
        <ele>590.3</ele>
        <time>2014-05-04T08:25:30Z</time>
      </trkpt>
      <trkpt lat="47.21311" lon="6.4202">
        <ele>589.3</ele>
        <time>2014-05-04T08:25:33Z</time>
      </trkpt>
      <trkpt lat="47.213" lon="6.42021">
        <ele>588.3</ele>
        <time>2014-05-04T08:25:38Z</time>
      </trkpt>
      <trkpt lat="47.2129" lon="6.42019">
        <ele>588.3</ele>
        <time>2014-05-04T08:25:43Z</time>
      </trkpt>
      <trkpt lat="47.2128" lon="6.42016">
        <ele>587.9</ele>
        <time>2014-05-04T08:25:47Z</time>
      </trkpt>
      <trkpt lat="47.21269" lon="6.42013">
        <ele>587.7</ele>
        <time>2014-05-04T08:25:50Z</time>
      </trkpt>
      <trkpt lat="47.21256" lon="6.4201">
        <ele>587.9</ele>
        <time>2014-05-04T08:25:53Z</time>
      </trkpt>
      <trkpt lat="47.21245" lon="6.42006">
        <ele>587.6</ele>
        <time>2014-05-04T08:25:56Z</time>
      </trkpt>
      <trkpt lat="47.21235" lon="6.42002">
        <ele>586.8</ele>
        <time>2014-05-04T08:25:59Z</time>
      </trkpt>
      <trkpt lat="47.21225" lon="6.41996">
        <ele>587.1</ele>
        <time>2014-05-04T08:26:03Z</time>
      </trkpt>
      <trkpt lat="47.21217" lon="6.4199">
        <ele>587</ele>
        <time>2014-05-04T08:26:08Z</time>
      </trkpt>
      <trkpt lat="47.21195" lon="6.41983">
        <ele>588.1</ele>
        <time>2014-05-04T08:26:15Z</time>
      </trkpt>
      <trkpt lat="47.21183" lon="6.41981">
        <ele>588.6</ele>
        <time>2014-05-04T08:26:18Z</time>
      </trkpt>
      <trkpt lat="47.21174" lon="6.41977">
        <ele>589.3</ele>
        <time>2014-05-04T08:26:21Z</time>
      </trkpt>
      <trkpt lat="47.21165" lon="6.41973">
        <ele>589.7</ele>
        <time>2014-05-04T08:26:24Z</time>
      </trkpt>
      <trkpt lat="47.21156" lon="6.41969">
        <ele>590.2</ele>
        <time>2014-05-04T08:26:27Z</time>
      </trkpt>
      <trkpt lat="47.21147" lon="6.41964">
        <ele>590.6</ele>
        <time>2014-05-04T08:26:31Z</time>
      </trkpt>
      <trkpt lat="47.21138" lon="6.41957">
        <ele>591.4</ele>
        <time>2014-05-04T08:26:36Z</time>
      </trkpt>
      <trkpt lat="47.21129" lon="6.41949">
        <ele>592.5</ele>
        <time>2014-05-04T08:26:40Z</time>
      </trkpt>
      <trkpt lat="47.2112" lon="6.41938">
        <ele>593</ele>
        <time>2014-05-04T08:26:45Z</time>
      </trkpt>
      <trkpt lat="47.21114" lon="6.41929">
        <ele>593.7</ele>
        <time>2014-05-04T08:26:48Z</time>
      </trkpt>
      <trkpt lat="47.21105" lon="6.41919">
        <ele>594.6</ele>
        <time>2014-05-04T08:26:52Z</time>
      </trkpt>
      <trkpt lat="47.21099" lon="6.41909">
        <ele>595.1</ele>
        <time>2014-05-04T08:26:56Z</time>
      </trkpt>
      <trkpt lat="47.21091" lon="6.41899">
        <ele>595.5</ele>
        <time>2014-05-04T08:27:00Z</time>
      </trkpt>
      <trkpt lat="47.21083" lon="6.41891">
        <ele>595.1</ele>
        <time>2014-05-04T08:27:03Z</time>
      </trkpt>
      <trkpt lat="47.21076" lon="6.41882">
        <ele>594.7</ele>
        <time>2014-05-04T08:27:06Z</time>
      </trkpt>
      <trkpt lat="47.21067" lon="6.41874">
        <ele>594</ele>
        <time>2014-05-04T08:27:09Z</time>
      </trkpt>
      <trkpt lat="47.21048" lon="6.4186">
        <ele>591.6</ele>
        <time>2014-05-04T08:27:15Z</time>
      </trkpt>
      <trkpt lat="47.21035" lon="6.41847">
        <ele>589.7</ele>
        <time>2014-05-04T08:27:18Z</time>
      </trkpt>
      <trkpt lat="47.21028" lon="6.41836">
        <ele>588.6</ele>
        <time>2014-05-04T08:27:20Z</time>
      </trkpt>
      <trkpt lat="47.21024" lon="6.41824">
        <ele>587.6</ele>
        <time>2014-05-04T08:27:23Z</time>
      </trkpt>
      <trkpt lat="47.21034" lon="6.41813">
        <ele>586.8</ele>
        <time>2014-05-04T08:27:28Z</time>
      </trkpt>
      <trkpt lat="47.21045" lon="6.41808">
        <ele>586.7</ele>
        <time>2014-05-04T08:27:31Z</time>
      </trkpt>
      <trkpt lat="47.21055" lon="6.41807">
        <ele>585.5</ele>
        <time>2014-05-04T08:27:34Z</time>
      </trkpt>
      <trkpt lat="47.21066" lon="6.41808">
        <ele>585.2</ele>
        <time>2014-05-04T08:27:37Z</time>
      </trkpt>
      <trkpt lat="47.21078" lon="6.41812">
        <ele>585.1</ele>
        <time>2014-05-04T08:27:40Z</time>
      </trkpt>
      <trkpt lat="47.21088" lon="6.4182">
        <ele>585</ele>
        <time>2014-05-04T08:27:43Z</time>
      </trkpt>
      <trkpt lat="47.211" lon="6.41828">
        <ele>585</ele>
        <time>2014-05-04T08:27:46Z</time>
      </trkpt>
      <trkpt lat="47.2111" lon="6.41833">
        <ele>585</ele>
        <time>2014-05-04T08:27:49Z</time>
      </trkpt>
      <trkpt lat="47.21121" lon="6.41842">
        <ele>585</ele>
        <time>2014-05-04T08:27:52Z</time>
      </trkpt>
      <trkpt lat="47.21129" lon="6.41849">
        <ele>584.9</ele>
        <time>2014-05-04T08:27:54Z</time>
      </trkpt>
      <trkpt lat="47.21139" lon="6.41853">
        <ele>584.6</ele>
        <time>2014-05-04T08:27:56Z</time>
      </trkpt>
      <trkpt lat="47.2115" lon="6.41856">
        <ele>584.2</ele>
        <time>2014-05-04T08:27:58Z</time>
      </trkpt>
      <trkpt lat="47.21162" lon="6.41859">
        <ele>583.9</ele>
        <time>2014-05-04T08:28:00Z</time>
      </trkpt>
      <trkpt lat="47.21175" lon="6.41862">
        <ele>583.5</ele>
        <time>2014-05-04T08:28:02Z</time>
      </trkpt>
      <trkpt lat="47.21188" lon="6.41866">
        <ele>583.5</ele>
        <time>2014-05-04T08:28:04Z</time>
      </trkpt>
      <trkpt lat="47.21202" lon="6.41871">
        <ele>583.2</ele>
        <time>2014-05-04T08:28:06Z</time>
      </trkpt>
      <trkpt lat="47.21216" lon="6.41876">
        <ele>583</ele>
        <time>2014-05-04T08:28:08Z</time>
      </trkpt>
      <trkpt lat="47.2123" lon="6.4188">
        <ele>582.7</ele>
        <time>2014-05-04T08:28:10Z</time>
      </trkpt>
      <trkpt lat="47.21259" lon="6.41884">
        <ele>582.3</ele>
        <time>2014-05-04T08:28:14Z</time>
      </trkpt>
      <trkpt lat="47.21273" lon="6.41887">
        <ele>582.2</ele>
        <time>2014-05-04T08:28:16Z</time>
      </trkpt>
      <trkpt lat="47.21286" lon="6.41889">
        <ele>582.1</ele>
        <time>2014-05-04T08:28:18Z</time>
      </trkpt>
      <trkpt lat="47.21303" lon="6.4189">
        <ele>581.7</ele>
        <time>2014-05-04T08:28:20Z</time>
      </trkpt>
      <trkpt lat="47.21317" lon="6.41892">
        <ele>581.6</ele>
        <time>2014-05-04T08:28:22Z</time>
      </trkpt>
      <trkpt lat="47.21331" lon="6.41891">
        <ele>581.3</ele>
        <time>2014-05-04T08:28:24Z</time>
      </trkpt>
      <trkpt lat="47.21345" lon="6.41892">
        <ele>581.2</ele>
        <time>2014-05-04T08:28:26Z</time>
      </trkpt>
      <trkpt lat="47.21358" lon="6.41893">
        <ele>580.8</ele>
        <time>2014-05-04T08:28:28Z</time>
      </trkpt>
      <trkpt lat="47.21367" lon="6.41899">
        <ele>580.5</ele>
        <time>2014-05-04T08:28:30Z</time>
      </trkpt>
      <trkpt lat="47.21381" lon="6.41902">
        <ele>580.1</ele>
        <time>2014-05-04T08:28:32Z</time>
      </trkpt>
      <trkpt lat="47.21393" lon="6.41908">
        <ele>579.7</ele>
        <time>2014-05-04T08:28:34Z</time>
      </trkpt>
      <trkpt lat="47.21405" lon="6.41914">
        <ele>579.4</ele>
        <time>2014-05-04T08:28:36Z</time>
      </trkpt>
      <trkpt lat="47.21418" lon="6.41924">
        <ele>579.2</ele>
        <time>2014-05-04T08:28:38Z</time>
      </trkpt>
      <trkpt lat="47.21429" lon="6.41932">
        <ele>579.3</ele>
        <time>2014-05-04T08:28:40Z</time>
      </trkpt>
      <trkpt lat="47.21441" lon="6.41939">
        <ele>579.2</ele>
        <time>2014-05-04T08:28:42Z</time>
      </trkpt>
      <trkpt lat="47.21454" lon="6.41943">
        <ele>579.1</ele>
        <time>2014-05-04T08:28:44Z</time>
      </trkpt>
      <trkpt lat="47.21467" lon="6.41945">
        <ele>578.9</ele>
        <time>2014-05-04T08:28:46Z</time>
      </trkpt>
      <trkpt lat="47.2148" lon="6.41947">
        <ele>578.8</ele>
        <time>2014-05-04T08:28:48Z</time>
      </trkpt>
      <trkpt lat="47.21493" lon="6.41948">
        <ele>578.4</ele>
        <time>2014-05-04T08:28:50Z</time>
      </trkpt>
      <trkpt lat="47.21508" lon="6.41948">
        <ele>578.1</ele>
        <time>2014-05-04T08:28:52Z</time>
      </trkpt>
      <trkpt lat="47.21522" lon="6.41949">
        <ele>577.9</ele>
        <time>2014-05-04T08:28:54Z</time>
      </trkpt>
      <trkpt lat="47.21536" lon="6.41952">
        <ele>577.9</ele>
        <time>2014-05-04T08:28:56Z</time>
      </trkpt>
      <trkpt lat="47.21549" lon="6.41955">
        <ele>577.5</ele>
        <time>2014-05-04T08:28:58Z</time>
      </trkpt>
      <trkpt lat="47.21562" lon="6.41959">
        <ele>577.4</ele>
        <time>2014-05-04T08:29:00Z</time>
      </trkpt>
      <trkpt lat="47.21575" lon="6.41964">
        <ele>577.4</ele>
        <time>2014-05-04T08:29:02Z</time>
      </trkpt>
      <trkpt lat="47.21588" lon="6.41969">
        <ele>577.5</ele>
        <time>2014-05-04T08:29:04Z</time>
      </trkpt>
      <trkpt lat="47.216" lon="6.41977">
        <ele>577.4</ele>
        <time>2014-05-04T08:29:06Z</time>
      </trkpt>
      <trkpt lat="47.21612" lon="6.41985">
        <ele>577.4</ele>
        <time>2014-05-04T08:29:08Z</time>
      </trkpt>
      <trkpt lat="47.21626" lon="6.41992">
        <ele>576.9</ele>
        <time>2014-05-04T08:29:10Z</time>
      </trkpt>
      <trkpt lat="47.21639" lon="6.41999">
        <ele>576.3</ele>
        <time>2014-05-04T08:29:12Z</time>
      </trkpt>
      <trkpt lat="47.21664" lon="6.42016">
        <ele>576.6</ele>
        <time>2014-05-04T08:29:16Z</time>
      </trkpt>
      <trkpt lat="47.21676" lon="6.42024">
        <ele>576.6</ele>
        <time>2014-05-04T08:29:18Z</time>
      </trkpt>
      <trkpt lat="47.21686" lon="6.42032">
        <ele>576.7</ele>
        <time>2014-05-04T08:29:20Z</time>
      </trkpt>
      <trkpt lat="47.21696" lon="6.42038">
        <ele>576.6</ele>
        <time>2014-05-04T08:29:22Z</time>
      </trkpt>
      <trkpt lat="47.21707" lon="6.42044">
        <ele>576.3</ele>
        <time>2014-05-04T08:29:24Z</time>
      </trkpt>
      <trkpt lat="47.21715" lon="6.42052">
        <ele>576.4</ele>
        <time>2014-05-04T08:29:26Z</time>
      </trkpt>
      <trkpt lat="47.21725" lon="6.42057">
        <ele>575.9</ele>
        <time>2014-05-04T08:29:28Z</time>
      </trkpt>
      <trkpt lat="47.21735" lon="6.42061">
        <ele>575.8</ele>
        <time>2014-05-04T08:29:30Z</time>
      </trkpt>
      <trkpt lat="47.21744" lon="6.42066">
        <ele>575.9</ele>
        <time>2014-05-04T08:29:32Z</time>
      </trkpt>
      <trkpt lat="47.21752" lon="6.42072">
        <ele>575.9</ele>
        <time>2014-05-04T08:29:34Z</time>
      </trkpt>
      <trkpt lat="47.21761" lon="6.4208">
        <ele>576.2</ele>
        <time>2014-05-04T08:29:37Z</time>
      </trkpt>
      <trkpt lat="47.21769" lon="6.42086">
        <ele>576.9</ele>
        <time>2014-05-04T08:29:42Z</time>
      </trkpt>
      <trkpt lat="47.21778" lon="6.42077">
        <ele>576.6</ele>
        <time>2014-05-04T08:33:54Z</time>
      </trkpt>
      <trkpt lat="47.21778" lon="6.42078">
        <ele>576.9</ele>
        <time>2014-05-04T08:34:17Z</time>
      </trkpt>
      <trkpt lat="47.21769" lon="6.42076">
        <ele>576.3</ele>
        <time>2014-05-04T08:34:25Z</time>
      </trkpt>
      <trkpt lat="47.21779" lon="6.42077">
        <ele>576.1</ele>
        <time>2014-05-04T08:34:36Z</time>
      </trkpt>
      <trkpt lat="47.21788" lon="6.42069">
        <ele>576.7</ele>
        <time>2014-05-04T08:34:41Z</time>
      </trkpt>
      <trkpt lat="47.21797" lon="6.42062">
        <ele>577.3</ele>
        <time>2014-05-04T08:34:45Z</time>
      </trkpt>
      <trkpt lat="47.21806" lon="6.42052">
        <ele>577.8</ele>
        <time>2014-05-04T08:34:49Z</time>
      </trkpt>
      <trkpt lat="47.21815" lon="6.4204">
        <ele>578.5</ele>
        <time>2014-05-04T08:34:53Z</time>
      </trkpt>
      <trkpt lat="47.21825" lon="6.4203">
        <ele>579.3</ele>
        <time>2014-05-04T08:34:57Z</time>
      </trkpt>
      <trkpt lat="47.2184" lon="6.42009">
        <ele>579.9</ele>
        <time>2014-05-04T08:35:04Z</time>
      </trkpt>
      <trkpt lat="47.21848" lon="6.41999">
        <ele>580</ele>
        <time>2014-05-04T08:35:07Z</time>
      </trkpt>
      <trkpt lat="47.21855" lon="6.4199">
        <ele>580.3</ele>
        <time>2014-05-04T08:35:10Z</time>
      </trkpt>
      <trkpt lat="47.21863" lon="6.4198">
        <ele>580.7</ele>
        <time>2014-05-04T08:35:13Z</time>
      </trkpt>
      <trkpt lat="47.2187" lon="6.41971">
        <ele>581</ele>
        <time>2014-05-04T08:35:16Z</time>
      </trkpt>
      <trkpt lat="47.21878" lon="6.41961">
        <ele>581.6</ele>
        <time>2014-05-04T08:35:19Z</time>
      </trkpt>
      <trkpt lat="47.21886" lon="6.41952">
        <ele>581.9</ele>
        <time>2014-05-04T08:35:22Z</time>
      </trkpt>
      <trkpt lat="47.21894" lon="6.41942">
        <ele>582.3</ele>
        <time>2014-05-04T08:35:25Z</time>
      </trkpt>
      <trkpt lat="47.21902" lon="6.41932">
        <ele>582.5</ele>
        <time>2014-05-04T08:35:28Z</time>
      </trkpt>
      <trkpt lat="47.2191" lon="6.41922">
        <ele>582.8</ele>
        <time>2014-05-04T08:35:31Z</time>
      </trkpt>
      <trkpt lat="47.21919" lon="6.41913">
        <ele>583</ele>
        <time>2014-05-04T08:35:34Z</time>
      </trkpt>
      <trkpt lat="47.21927" lon="6.41905">
        <ele>582.9</ele>
        <time>2014-05-04T08:35:37Z</time>
      </trkpt>
      <trkpt lat="47.21936" lon="6.41896">
        <ele>582.9</ele>
        <time>2014-05-04T08:35:40Z</time>
      </trkpt>
      <trkpt lat="47.21944" lon="6.41887">
        <ele>583.2</ele>
        <time>2014-05-04T08:35:43Z</time>
      </trkpt>
      <trkpt lat="47.21952" lon="6.41879">
        <ele>583.6</ele>
        <time>2014-05-04T08:35:46Z</time>
      </trkpt>
      <trkpt lat="47.21963" lon="6.41871">
        <ele>584</ele>
        <time>2014-05-04T08:35:50Z</time>
      </trkpt>
      <trkpt lat="47.21971" lon="6.41865">
        <ele>584.1</ele>
        <time>2014-05-04T08:35:53Z</time>
      </trkpt>
      <trkpt lat="47.2198" lon="6.41857">
        <ele>584.1</ele>
        <time>2014-05-04T08:35:56Z</time>
      </trkpt>
      <trkpt lat="47.21989" lon="6.41851">
        <ele>584</ele>
        <time>2014-05-04T08:35:59Z</time>
      </trkpt>
      <trkpt lat="47.22008" lon="6.41837">
        <ele>583.7</ele>
        <time>2014-05-04T08:36:05Z</time>
      </trkpt>
      <trkpt lat="47.22017" lon="6.41831">
        <ele>583.9</ele>
        <time>2014-05-04T08:36:08Z</time>
      </trkpt>
      <trkpt lat="47.22026" lon="6.41828">
        <ele>584.6</ele>
        <time>2014-05-04T08:36:12Z</time>
      </trkpt>
      <trkpt lat="47.22036" lon="6.41823">
        <ele>585.3</ele>
        <time>2014-05-04T08:36:19Z</time>
      </trkpt>
      <trkpt lat="47.22045" lon="6.41812">
        <ele>585</ele>
        <time>2014-05-04T08:36:40Z</time>
      </trkpt>
      <trkpt lat="47.22058" lon="6.41805">
        <ele>584.7</ele>
        <time>2014-05-04T08:36:43Z</time>
      </trkpt>
      <trkpt lat="47.22068" lon="6.41797">
        <ele>584.5</ele>
        <time>2014-05-04T08:36:45Z</time>
      </trkpt>
      <trkpt lat="47.22077" lon="6.41788">
        <ele>584.1</ele>
        <time>2014-05-04T08:36:47Z</time>
      </trkpt>
      <trkpt lat="47.22088" lon="6.41778">
        <ele>583.5</ele>
        <time>2014-05-04T08:36:49Z</time>
      </trkpt>
      <trkpt lat="47.221" lon="6.41768">
        <ele>582.9</ele>
        <time>2014-05-04T08:36:51Z</time>
      </trkpt>
      <trkpt lat="47.22112" lon="6.41758">
        <ele>582.3</ele>
        <time>2014-05-04T08:36:53Z</time>
      </trkpt>
      <trkpt lat="47.22125" lon="6.41748">
        <ele>581.7</ele>
        <time>2014-05-04T08:36:55Z</time>
      </trkpt>
      <trkpt lat="47.22138" lon="6.41736">
        <ele>581.1</ele>
        <time>2014-05-04T08:36:57Z</time>
      </trkpt>
      <trkpt lat="47.22151" lon="6.41724">
        <ele>580.3</ele>
        <time>2014-05-04T08:36:59Z</time>
      </trkpt>
      <trkpt lat="47.22165" lon="6.41712">
        <ele>579.4</ele>
        <time>2014-05-04T08:37:01Z</time>
      </trkpt>
      <trkpt lat="47.22193" lon="6.41687">
        <ele>578.9</ele>
        <time>2014-05-04T08:37:05Z</time>
      </trkpt>
      <trkpt lat="47.22206" lon="6.41675">
        <ele>577.9</ele>
        <time>2014-05-04T08:37:07Z</time>
      </trkpt>
      <trkpt lat="47.22219" lon="6.41663">
        <ele>576.7</ele>
        <time>2014-05-04T08:37:09Z</time>
      </trkpt>
      <trkpt lat="47.22231" lon="6.41652">
        <ele>575.3</ele>
        <time>2014-05-04T08:37:11Z</time>
      </trkpt>
      <trkpt lat="47.22243" lon="6.41641">
        <ele>574</ele>
        <time>2014-05-04T08:37:13Z</time>
      </trkpt>
      <trkpt lat="47.22251" lon="6.41634">
        <ele>572.7</ele>
        <time>2014-05-04T08:37:15Z</time>
      </trkpt>
      <trkpt lat="47.22252" lon="6.41614">
        <ele>571.1</ele>
        <time>2014-05-04T08:37:18Z</time>
      </trkpt>
      <trkpt lat="47.22244" lon="6.41601">
        <ele>570.3</ele>
        <time>2014-05-04T08:37:20Z</time>
      </trkpt>
      <trkpt lat="47.22233" lon="6.41588">
        <ele>569.6</ele>
        <time>2014-05-04T08:37:22Z</time>
      </trkpt>
      <trkpt lat="47.22222" lon="6.41574">
        <ele>568.5</ele>
        <time>2014-05-04T08:37:24Z</time>
      </trkpt>
      <trkpt lat="47.22214" lon="6.41556">
        <ele>567.9</ele>
        <time>2014-05-04T08:37:26Z</time>
      </trkpt>
      <trkpt lat="47.22207" lon="6.41537">
        <ele>567.4</ele>
        <time>2014-05-04T08:37:28Z</time>
      </trkpt>
      <trkpt lat="47.22204" lon="6.41517">
        <ele>567.5</ele>
        <time>2014-05-04T08:37:30Z</time>
      </trkpt>
      <trkpt lat="47.22201" lon="6.415">
        <ele>567.2</ele>
        <time>2014-05-04T08:37:32Z</time>
      </trkpt>
      <trkpt lat="47.22199" lon="6.41484">
        <ele>567.2</ele>
        <time>2014-05-04T08:37:34Z</time>
      </trkpt>
      <trkpt lat="47.22197" lon="6.4147">
        <ele>567.4</ele>
        <time>2014-05-04T08:37:36Z</time>
      </trkpt>
      <trkpt lat="47.22194" lon="6.41456">
        <ele>567.6</ele>
        <time>2014-05-04T08:37:38Z</time>
      </trkpt>
      <trkpt lat="47.22188" lon="6.41443">
        <ele>568</ele>
        <time>2014-05-04T08:37:41Z</time>
      </trkpt>
      <trkpt lat="47.22178" lon="6.41438">
        <ele>568.5</ele>
        <time>2014-05-04T08:37:44Z</time>
      </trkpt>
      <trkpt lat="47.22169" lon="6.4144">
        <ele>569.1</ele>
        <time>2014-05-04T08:37:47Z</time>
      </trkpt>
      <trkpt lat="47.22159" lon="6.41438">
        <ele>571.1</ele>
        <time>2014-05-04T08:37:55Z</time>
      </trkpt>
      <trkpt lat="47.22152" lon="6.41429">
        <ele>572.4</ele>
        <time>2014-05-04T08:38:02Z</time>
      </trkpt>
      <trkpt lat="47.22139" lon="6.41409">
        <ele>575.1</ele>
        <time>2014-05-04T08:38:14Z</time>
      </trkpt>
      <trkpt lat="47.22137" lon="6.41395">
        <ele>576.9</ele>
        <time>2014-05-04T08:38:20Z</time>
      </trkpt>
      <trkpt lat="47.22141" lon="6.41382">
        <ele>577.3</ele>
        <time>2014-05-04T08:38:26Z</time>
      </trkpt>
      <trkpt lat="47.22148" lon="6.41371">
        <ele>578.5</ele>
        <time>2014-05-04T08:38:32Z</time>
      </trkpt>
      <trkpt lat="47.22156" lon="6.41361">
        <ele>580.1</ele>
        <time>2014-05-04T08:38:39Z</time>
      </trkpt>
      <trkpt lat="47.22164" lon="6.41354">
        <ele>581.1</ele>
        <time>2014-05-04T08:38:45Z</time>
      </trkpt>
      <trkpt lat="47.22172" lon="6.41344">
        <ele>582.1</ele>
        <time>2014-05-04T08:38:51Z</time>
      </trkpt>
      <trkpt lat="47.2218" lon="6.41336">
        <ele>583.3</ele>
        <time>2014-05-04T08:38:56Z</time>
      </trkpt>
      <trkpt lat="47.22188" lon="6.41328">
        <ele>584.3</ele>
        <time>2014-05-04T08:39:01Z</time>
      </trkpt>
      <trkpt lat="47.22195" lon="6.41321">
        <ele>585.6</ele>
        <time>2014-05-04T08:39:06Z</time>
      </trkpt>
      <trkpt lat="47.22212" lon="6.41305">
        <ele>588.3</ele>
        <time>2014-05-04T08:39:18Z</time>
      </trkpt>
      <trkpt lat="47.2222" lon="6.41299">
        <ele>589.5</ele>
        <time>2014-05-04T08:39:24Z</time>
      </trkpt>
      <trkpt lat="47.22228" lon="6.41291">
        <ele>590.4</ele>
        <time>2014-05-04T08:39:30Z</time>
      </trkpt>
      <trkpt lat="47.22237" lon="6.41283">
        <ele>591.2</ele>
        <time>2014-05-04T08:39:36Z</time>
      </trkpt>
      <trkpt lat="47.22245" lon="6.41275">
        <ele>592</ele>
        <time>2014-05-04T08:39:41Z</time>
      </trkpt>
      <trkpt lat="47.22254" lon="6.41266">
        <ele>592.4</ele>
        <time>2014-05-04T08:39:46Z</time>
      </trkpt>
      <trkpt lat="47.22262" lon="6.41259">
        <ele>593.3</ele>
        <time>2014-05-04T08:39:53Z</time>
      </trkpt>
      <trkpt lat="47.22269" lon="6.41249">
        <ele>594.2</ele>
        <time>2014-05-04T08:39:59Z</time>
      </trkpt>
      <trkpt lat="47.22273" lon="6.41237">
        <ele>595</ele>
        <time>2014-05-04T08:40:04Z</time>
      </trkpt>
      <trkpt lat="47.22216" lon="6.4122">
        <ele>619</ele>
        <time>2014-05-04T08:42:05Z</time>
      </trkpt>
      <trkpt lat="47.22178" lon="6.41219">
        <ele>620.7</ele>
        <time>2014-05-04T08:42:13Z</time>
      </trkpt>
      <trkpt lat="47.22165" lon="6.41218">
        <ele>621.6</ele>
        <time>2014-05-04T08:42:17Z</time>
      </trkpt>
      <trkpt lat="47.22154" lon="6.41218">
        <ele>622</ele>
        <time>2014-05-04T08:42:19Z</time>
      </trkpt>
      <trkpt lat="47.22143" lon="6.41219">
        <ele>622.3</ele>
        <time>2014-05-04T08:42:22Z</time>
      </trkpt>
      <trkpt lat="47.22132" lon="6.41224">
        <ele>622.8</ele>
        <time>2014-05-04T08:42:25Z</time>
      </trkpt>
      <trkpt lat="47.22121" lon="6.41228">
        <ele>623.3</ele>
        <time>2014-05-04T08:42:28Z</time>
      </trkpt>
      <trkpt lat="47.2211" lon="6.41233">
        <ele>624</ele>
        <time>2014-05-04T08:42:32Z</time>
      </trkpt>
      <trkpt lat="47.22099" lon="6.41236">
        <ele>624.3</ele>
        <time>2014-05-04T08:42:35Z</time>
      </trkpt>
      <trkpt lat="47.22089" lon="6.41239">
        <ele>625.5</ele>
        <time>2014-05-04T08:42:39Z</time>
      </trkpt>
      <trkpt lat="47.22077" lon="6.41239">
        <ele>626.2</ele>
        <time>2014-05-04T08:42:43Z</time>
      </trkpt>
      <trkpt lat="47.22067" lon="6.41239">
        <ele>626.6</ele>
        <time>2014-05-04T08:42:46Z</time>
      </trkpt>
      <trkpt lat="47.22056" lon="6.41239">
        <ele>627.2</ele>
        <time>2014-05-04T08:42:48Z</time>
      </trkpt>
      <trkpt lat="47.22044" lon="6.41241">
        <ele>627.7</ele>
        <time>2014-05-04T08:42:51Z</time>
      </trkpt>
      <trkpt lat="47.22033" lon="6.41239">
        <ele>628.4</ele>
        <time>2014-05-04T08:42:55Z</time>
      </trkpt>
      <trkpt lat="47.22022" lon="6.41238">
        <ele>629.2</ele>
        <time>2014-05-04T08:42:58Z</time>
      </trkpt>
      <trkpt lat="47.22013" lon="6.41236">
        <ele>630.2</ele>
        <time>2014-05-04T08:43:03Z</time>
      </trkpt>
      <trkpt lat="47.22004" lon="6.41233">
        <ele>631.7</ele>
        <time>2014-05-04T08:43:10Z</time>
      </trkpt>
      <trkpt lat="47.21988" lon="6.41217">
        <ele>634.8</ele>
        <time>2014-05-04T08:43:25Z</time>
      </trkpt>
      <trkpt lat="47.21981" lon="6.41206">
        <ele>636.1</ele>
        <time>2014-05-04T08:43:32Z</time>
      </trkpt>
      <trkpt lat="47.21975" lon="6.41195">
        <ele>637.5</ele>
        <time>2014-05-04T08:43:39Z</time>
      </trkpt>
      <trkpt lat="47.21968" lon="6.41184">
        <ele>638.7</ele>
        <time>2014-05-04T08:43:46Z</time>
      </trkpt>
      <trkpt lat="47.2196" lon="6.41179">
        <ele>639.2</ele>
        <time>2014-05-04T08:43:49Z</time>
      </trkpt>
      <trkpt lat="47.21954" lon="6.41169">
        <ele>639.9</ele>
        <time>2014-05-04T08:43:53Z</time>
      </trkpt>
      <trkpt lat="47.21948" lon="6.41157">
        <ele>641</ele>
        <time>2014-05-04T08:43:59Z</time>
      </trkpt>
      <trkpt lat="47.21944" lon="6.41145">
        <ele>641.8</ele>
        <time>2014-05-04T08:44:06Z</time>
      </trkpt>
      <trkpt lat="47.21938" lon="6.41132">
        <ele>642.8</ele>
        <time>2014-05-04T08:44:15Z</time>
      </trkpt>
      <trkpt lat="47.21921" lon="6.41122">
        <ele>645.1</ele>
        <time>2014-05-04T08:44:29Z</time>
      </trkpt>
      <trkpt lat="47.21909" lon="6.41118">
        <ele>645.6</ele>
        <time>2014-05-04T08:44:31Z</time>
      </trkpt>
      <trkpt lat="47.21898" lon="6.41116">
        <ele>646.5</ele>
        <time>2014-05-04T08:44:35Z</time>
      </trkpt>
      <trkpt lat="47.21888" lon="6.41113">
        <ele>647.6</ele>
        <time>2014-05-04T08:44:40Z</time>
      </trkpt>
      <trkpt lat="47.2188" lon="6.41105">
        <ele>648.4</ele>
        <time>2014-05-04T08:44:45Z</time>
      </trkpt>
      <trkpt lat="47.21873" lon="6.41094">
        <ele>649.9</ele>
        <time>2014-05-04T08:44:51Z</time>
      </trkpt>
      <trkpt lat="47.21865" lon="6.41085">
        <ele>651.6</ele>
        <time>2014-05-04T08:44:57Z</time>
      </trkpt>
      <trkpt lat="47.21858" lon="6.41075">
        <ele>652.6</ele>
        <time>2014-05-04T08:45:02Z</time>
      </trkpt>
      <trkpt lat="47.21851" lon="6.41063">
        <ele>653.6</ele>
        <time>2014-05-04T08:45:07Z</time>
      </trkpt>
      <trkpt lat="47.21849" lon="6.41048">
        <ele>654.9</ele>
        <time>2014-05-04T08:45:14Z</time>
      </trkpt>
      <trkpt lat="47.21846" lon="6.41034">
        <ele>655.4</ele>
        <time>2014-05-04T08:45:20Z</time>
      </trkpt>
      <trkpt lat="47.21843" lon="6.41005">
        <ele>656.5</ele>
        <time>2014-05-04T08:45:31Z</time>
      </trkpt>
      <trkpt lat="47.21841" lon="6.40991">
        <ele>657</ele>
        <time>2014-05-04T08:45:35Z</time>
      </trkpt>
      <trkpt lat="47.2184" lon="6.40977">
        <ele>657.3</ele>
        <time>2014-05-04T08:45:39Z</time>
      </trkpt>
      <trkpt lat="47.21837" lon="6.40961">
        <ele>658.5</ele>
        <time>2014-05-04T08:45:44Z</time>
      </trkpt>
      <trkpt lat="47.21835" lon="6.40948">
        <ele>659.1</ele>
        <time>2014-05-04T08:45:48Z</time>
      </trkpt>
      <trkpt lat="47.21833" lon="6.40933">
        <ele>659.9</ele>
        <time>2014-05-04T08:45:53Z</time>
      </trkpt>
      <trkpt lat="47.21831" lon="6.40916">
        <ele>660.2</ele>
        <time>2014-05-04T08:45:58Z</time>
      </trkpt>
      <trkpt lat="47.21827" lon="6.40903">
        <ele>660.6</ele>
        <time>2014-05-04T08:46:02Z</time>
      </trkpt>
      <trkpt lat="47.21822" lon="6.40889">
        <ele>661</ele>
        <time>2014-05-04T08:46:06Z</time>
      </trkpt>
      <trkpt lat="47.21817" lon="6.40874">
        <ele>661.7</ele>
        <time>2014-05-04T08:46:10Z</time>
      </trkpt>
      <trkpt lat="47.21813" lon="6.40862">
        <ele>662</ele>
        <time>2014-05-04T08:46:13Z</time>
      </trkpt>
      <trkpt lat="47.21807" lon="6.40847">
        <ele>662.6</ele>
        <time>2014-05-04T08:46:17Z</time>
      </trkpt>
      <trkpt lat="47.21799" lon="6.40833">
        <ele>663</ele>
        <time>2014-05-04T08:46:21Z</time>
      </trkpt>
      <trkpt lat="47.21786" lon="6.40814">
        <ele>663.7</ele>
        <time>2014-05-04T08:46:27Z</time>
      </trkpt>
      <trkpt lat="47.21778" lon="6.40805">
        <ele>663.9</ele>
        <time>2014-05-04T08:46:30Z</time>
      </trkpt>
      <trkpt lat="47.2177" lon="6.40796">
        <ele>663.9</ele>
        <time>2014-05-04T08:46:33Z</time>
      </trkpt>
      <trkpt lat="47.2176" lon="6.40788">
        <ele>664</ele>
        <time>2014-05-04T08:46:36Z</time>
      </trkpt>
      <trkpt lat="47.21752" lon="6.4078">
        <ele>663.8</ele>
        <time>2014-05-04T08:46:39Z</time>
      </trkpt>
      <trkpt lat="47.21744" lon="6.4077">
        <ele>663.7</ele>
        <time>2014-05-04T08:46:42Z</time>
      </trkpt>
      <trkpt lat="47.21737" lon="6.40759">
        <ele>664.1</ele>
        <time>2014-05-04T08:46:45Z</time>
      </trkpt>
      <trkpt lat="47.21733" lon="6.40746">
        <ele>664.8</ele>
        <time>2014-05-04T08:46:48Z</time>
      </trkpt>
      <trkpt lat="47.21731" lon="6.40729">
        <ele>665.6</ele>
        <time>2014-05-04T08:46:52Z</time>
      </trkpt>
      <trkpt lat="47.21728" lon="6.40713">
        <ele>666.1</ele>
        <time>2014-05-04T08:46:56Z</time>
      </trkpt>
      <trkpt lat="47.21724" lon="6.40698">
        <ele>666.9</ele>
        <time>2014-05-04T08:47:00Z</time>
      </trkpt>
      <trkpt lat="47.21719" lon="6.40682">
        <ele>667.5</ele>
        <time>2014-05-04T08:47:04Z</time>
      </trkpt>
      <trkpt lat="47.21714" lon="6.40668">
        <ele>668.2</ele>
        <time>2014-05-04T08:47:08Z</time>
      </trkpt>
      <trkpt lat="47.21709" lon="6.40653">
        <ele>668.4</ele>
        <time>2014-05-04T08:47:12Z</time>
      </trkpt>
      <trkpt lat="47.21702" lon="6.40641">
        <ele>669.1</ele>
        <time>2014-05-04T08:47:16Z</time>
      </trkpt>
      <trkpt lat="47.21696" lon="6.40628">
        <ele>669.5</ele>
        <time>2014-05-04T08:47:20Z</time>
      </trkpt>
      <trkpt lat="47.21691" lon="6.40613">
        <ele>670.4</ele>
        <time>2014-05-04T08:47:24Z</time>
      </trkpt>
      <trkpt lat="47.21682" lon="6.40585">
        <ele>672.2</ele>
        <time>2014-05-04T08:47:32Z</time>
      </trkpt>
      <trkpt lat="47.21677" lon="6.40571">
        <ele>672.9</ele>
        <time>2014-05-04T08:47:36Z</time>
      </trkpt>
      <trkpt lat="47.21671" lon="6.40559">
        <ele>673.6</ele>
        <time>2014-05-04T08:47:40Z</time>
      </trkpt>
      <trkpt lat="47.21665" lon="6.40545">
        <ele>674.4</ele>
        <time>2014-05-04T08:47:45Z</time>
      </trkpt>
      <trkpt lat="47.2166" lon="6.40531">
        <ele>676.3</ele>
        <time>2014-05-04T08:47:50Z</time>
      </trkpt>
      <trkpt lat="47.21657" lon="6.40518">
        <ele>677.2</ele>
        <time>2014-05-04T08:47:55Z</time>
      </trkpt>
      <trkpt lat="47.21651" lon="6.40506">
        <ele>677.9</ele>
        <time>2014-05-04T08:47:59Z</time>
      </trkpt>
      <trkpt lat="47.21646" lon="6.40495">
        <ele>678.4</ele>
        <time>2014-05-04T08:48:03Z</time>
      </trkpt>
      <trkpt lat="47.21641" lon="6.4048">
        <ele>678.5</ele>
        <time>2014-05-04T08:48:08Z</time>
      </trkpt>
      <trkpt lat="47.21637" lon="6.40468">
        <ele>678.8</ele>
        <time>2014-05-04T08:48:12Z</time>
      </trkpt>
      <trkpt lat="47.21632" lon="6.40455">
        <ele>679.2</ele>
        <time>2014-05-04T08:48:16Z</time>
      </trkpt>
      <trkpt lat="47.21627" lon="6.40441">
        <ele>679.6</ele>
        <time>2014-05-04T08:48:20Z</time>
      </trkpt>
      <trkpt lat="47.21621" lon="6.40429">
        <ele>679.6</ele>
        <time>2014-05-04T08:48:23Z</time>
      </trkpt>
      <trkpt lat="47.21615" lon="6.40415">
        <ele>679.3</ele>
        <time>2014-05-04T08:48:26Z</time>
      </trkpt>
      <trkpt lat="47.216" lon="6.40385">
        <ele>679.2</ele>
        <time>2014-05-04T08:48:32Z</time>
      </trkpt>
      <trkpt lat="47.21593" lon="6.40369">
        <ele>678.8</ele>
        <time>2014-05-04T08:48:35Z</time>
      </trkpt>
      <trkpt lat="47.21587" lon="6.40358">
        <ele>678.7</ele>
        <time>2014-05-04T08:48:37Z</time>
      </trkpt>
      <trkpt lat="47.21581" lon="6.40346">
        <ele>678.6</ele>
        <time>2014-05-04T08:48:39Z</time>
      </trkpt>
      <trkpt lat="47.21575" lon="6.40333">
        <ele>678.4</ele>
        <time>2014-05-04T08:48:41Z</time>
      </trkpt>
      <trkpt lat="47.21567" lon="6.40319">
        <ele>678.3</ele>
        <time>2014-05-04T08:48:43Z</time>
      </trkpt>
      <trkpt lat="47.21558" lon="6.40306">
        <ele>677.7</ele>
        <time>2014-05-04T08:48:45Z</time>
      </trkpt>
      <trkpt lat="47.21547" lon="6.40294">
        <ele>677.3</ele>
        <time>2014-05-04T08:48:47Z</time>
      </trkpt>
      <trkpt lat="47.21535" lon="6.40284">
        <ele>676.9</ele>
        <time>2014-05-04T08:48:49Z</time>
      </trkpt>
      <trkpt lat="47.21522" lon="6.40273">
        <ele>676.4</ele>
        <time>2014-05-04T08:48:51Z</time>
      </trkpt>
      <trkpt lat="47.21511" lon="6.40261">
        <ele>675.9</ele>
        <time>2014-05-04T08:48:53Z</time>
      </trkpt>
      <trkpt lat="47.21499" lon="6.40246">
        <ele>675.4</ele>
        <time>2014-05-04T08:48:55Z</time>
      </trkpt>
      <trkpt lat="47.21488" lon="6.4023">
        <ele>674.7</ele>
        <time>2014-05-04T08:48:57Z</time>
      </trkpt>
      <trkpt lat="47.21477" lon="6.40215">
        <ele>674.3</ele>
        <time>2014-05-04T08:48:59Z</time>
      </trkpt>
      <trkpt lat="47.21465" lon="6.402">
        <ele>674</ele>
        <time>2014-05-04T08:49:01Z</time>
      </trkpt>
      <trkpt lat="47.21454" lon="6.40187">
        <ele>673.2</ele>
        <time>2014-05-04T08:49:03Z</time>
      </trkpt>
      <trkpt lat="47.21445" lon="6.40175">
        <ele>672.5</ele>
        <time>2014-05-04T08:49:05Z</time>
      </trkpt>
      <trkpt lat="47.21438" lon="6.40164">
        <ele>671.6</ele>
        <time>2014-05-04T08:49:07Z</time>
      </trkpt>
      <trkpt lat="47.21426" lon="6.40157">
        <ele>671.9</ele>
        <time>2014-05-04T08:49:10Z</time>
      </trkpt>
      <trkpt lat="47.21417" lon="6.4016">
        <ele>671.6</ele>
        <time>2014-05-04T08:49:12Z</time>
      </trkpt>
      <trkpt lat="47.21407" lon="6.40166">
        <ele>671.1</ele>
        <time>2014-05-04T08:49:15Z</time>
      </trkpt>
      <trkpt lat="47.21397" lon="6.40174">
        <ele>671.2</ele>
        <time>2014-05-04T08:49:18Z</time>
      </trkpt>
      <trkpt lat="47.21386" lon="6.40183">
        <ele>670.8</ele>
        <time>2014-05-04T08:49:21Z</time>
      </trkpt>
      <trkpt lat="47.21375" lon="6.4019">
        <ele>670.6</ele>
        <time>2014-05-04T08:49:24Z</time>
      </trkpt>
      <trkpt lat="47.21364" lon="6.40196">
        <ele>670.3</ele>
        <time>2014-05-04T08:49:27Z</time>
      </trkpt>
      <trkpt lat="47.21344" lon="6.40209">
        <ele>670.5</ele>
        <time>2014-05-04T08:49:34Z</time>
      </trkpt>
      <trkpt lat="47.21336" lon="6.40215">
        <ele>671.8</ele>
        <time>2014-05-04T08:49:40Z</time>
      </trkpt>
      <trkpt lat="47.21327" lon="6.4022">
        <ele>673.4</ele>
        <time>2014-05-04T08:49:45Z</time>
      </trkpt>
      <trkpt lat="47.21319" lon="6.40227">
        <ele>674.4</ele>
        <time>2014-05-04T08:49:50Z</time>
      </trkpt>
      <trkpt lat="47.2131" lon="6.40234">
        <ele>676</ele>
        <time>2014-05-04T08:49:56Z</time>
      </trkpt>
      <trkpt lat="47.21302" lon="6.40244">
        <ele>678</ele>
        <time>2014-05-04T08:50:02Z</time>
      </trkpt>
      <trkpt lat="47.21296" lon="6.40254">
        <ele>678.4</ele>
        <time>2014-05-04T08:50:07Z</time>
      </trkpt>
      <trkpt lat="47.21291" lon="6.40268">
        <ele>680.4</ele>
        <time>2014-05-04T08:50:13Z</time>
      </trkpt>
      <trkpt lat="47.21287" lon="6.4028">
        <ele>681</ele>
        <time>2014-05-04T08:50:18Z</time>
      </trkpt>
      <trkpt lat="47.21284" lon="6.40294">
        <ele>681.4</ele>
        <time>2014-05-04T08:50:23Z</time>
      </trkpt>
      <trkpt lat="47.21281" lon="6.40309">
        <ele>682.2</ele>
        <time>2014-05-04T08:50:28Z</time>
      </trkpt>
      <trkpt lat="47.21272" lon="6.40338">
        <ele>683.5</ele>
        <time>2014-05-04T08:50:37Z</time>
      </trkpt>
      <trkpt lat="47.21267" lon="6.40354">
        <ele>683.4</ele>
        <time>2014-05-04T08:50:41Z</time>
      </trkpt>
      <trkpt lat="47.21266" lon="6.40369">
        <ele>683.6</ele>
        <time>2014-05-04T08:50:44Z</time>
      </trkpt>
      <trkpt lat="47.21266" lon="6.40383">
        <ele>683.7</ele>
        <time>2014-05-04T08:50:47Z</time>
      </trkpt>
      <trkpt lat="47.21265" lon="6.404">
        <ele>682.8</ele>
        <time>2014-05-04T08:50:51Z</time>
      </trkpt>
      <trkpt lat="47.21262" lon="6.40413">
        <ele>683.1</ele>
        <time>2014-05-04T08:50:54Z</time>
      </trkpt>
      <trkpt lat="47.21257" lon="6.40425">
        <ele>683.6</ele>
        <time>2014-05-04T08:50:57Z</time>
      </trkpt>
      <trkpt lat="47.21253" lon="6.40438">
        <ele>683.2</ele>
        <time>2014-05-04T08:51:00Z</time>
      </trkpt>
      <trkpt lat="47.21248" lon="6.40453">
        <ele>682.8</ele>
        <time>2014-05-04T08:51:03Z</time>
      </trkpt>
      <trkpt lat="47.21241" lon="6.40466">
        <ele>683.4</ele>
        <time>2014-05-04T08:51:06Z</time>
      </trkpt>
      <trkpt lat="47.21232" lon="6.4048">
        <ele>683.3</ele>
        <time>2014-05-04T08:51:09Z</time>
      </trkpt>
      <trkpt lat="47.21223" lon="6.40493">
        <ele>683.1</ele>
        <time>2014-05-04T08:51:12Z</time>
      </trkpt>
      <trkpt lat="47.21217" lon="6.40503">
        <ele>683</ele>
        <time>2014-05-04T08:51:14Z</time>
      </trkpt>
      <trkpt lat="47.2121" lon="6.40512">
        <ele>683.1</ele>
        <time>2014-05-04T08:51:16Z</time>
      </trkpt>
      <trkpt lat="47.21202" lon="6.4052">
        <ele>683.1</ele>
        <time>2014-05-04T08:51:18Z</time>
      </trkpt>
      <trkpt lat="47.21195" lon="6.40527">
        <ele>682.6</ele>
        <time>2014-05-04T08:51:20Z</time>
      </trkpt>
      <trkpt lat="47.21186" lon="6.40534">
        <ele>682</ele>
        <time>2014-05-04T08:51:22Z</time>
      </trkpt>
      <trkpt lat="47.21176" lon="6.40541">
        <ele>681.6</ele>
        <time>2014-05-04T08:51:24Z</time>
      </trkpt>
      <trkpt lat="47.21166" lon="6.40548">
        <ele>681.3</ele>
        <time>2014-05-04T08:51:26Z</time>
      </trkpt>
      <trkpt lat="47.21155" lon="6.40555">
        <ele>681.2</ele>
        <time>2014-05-04T08:51:28Z</time>
      </trkpt>
      <trkpt lat="47.21145" lon="6.40561">
        <ele>680.8</ele>
        <time>2014-05-04T08:51:30Z</time>
      </trkpt>
      <trkpt lat="47.21123" lon="6.40574">
        <ele>680</ele>
        <time>2014-05-04T08:51:34Z</time>
      </trkpt>
      <trkpt lat="47.21112" lon="6.40582">
        <ele>679.4</ele>
        <time>2014-05-04T08:51:36Z</time>
      </trkpt>
      <trkpt lat="47.21101" lon="6.40591">
        <ele>679.1</ele>
        <time>2014-05-04T08:51:38Z</time>
      </trkpt>
      <trkpt lat="47.2109" lon="6.40602">
        <ele>678.5</ele>
        <time>2014-05-04T08:51:40Z</time>
      </trkpt>
      <trkpt lat="47.2108" lon="6.40615">
        <ele>678</ele>
        <time>2014-05-04T08:51:42Z</time>
      </trkpt>
      <trkpt lat="47.21068" lon="6.40632">
        <ele>677.1</ele>
        <time>2014-05-04T08:51:44Z</time>
      </trkpt>
      <trkpt lat="47.21056" lon="6.4065">
        <ele>676</ele>
        <time>2014-05-04T08:51:46Z</time>
      </trkpt>
      <trkpt lat="47.21044" lon="6.40669">
        <ele>675</ele>
        <time>2014-05-04T08:51:48Z</time>
      </trkpt>
      <trkpt lat="47.21037" lon="6.40679">
        <ele>674</ele>
        <time>2014-05-04T08:51:49Z</time>
      </trkpt>
      <trkpt lat="47.2103" lon="6.4069">
        <ele>673.3</ele>
        <time>2014-05-04T08:51:50Z</time>
      </trkpt>
      <trkpt lat="47.21023" lon="6.40702">
        <ele>672.5</ele>
        <time>2014-05-04T08:51:51Z</time>
      </trkpt>
      <trkpt lat="47.21016" lon="6.40714">
        <ele>671.7</ele>
        <time>2014-05-04T08:51:52Z</time>
      </trkpt>
      <trkpt lat="47.21009" lon="6.40726">
        <ele>671</ele>
        <time>2014-05-04T08:51:53Z</time>
      </trkpt>
      <trkpt lat="47.21001" lon="6.40738">
        <ele>670.3</ele>
        <time>2014-05-04T08:51:54Z</time>
      </trkpt>
      <trkpt lat="47.20994" lon="6.4075">
        <ele>669.6</ele>
        <time>2014-05-04T08:51:55Z</time>
      </trkpt>
      <trkpt lat="47.20988" lon="6.40762">
        <ele>669.1</ele>
        <time>2014-05-04T08:51:56Z</time>
      </trkpt>
      <trkpt lat="47.20981" lon="6.40774">
        <ele>668.6</ele>
        <time>2014-05-04T08:51:57Z</time>
      </trkpt>
      <trkpt lat="47.20974" lon="6.40786">
        <ele>668.3</ele>
        <time>2014-05-04T08:51:58Z</time>
      </trkpt>
      <trkpt lat="47.20968" lon="6.40797">
        <ele>668.1</ele>
        <time>2014-05-04T08:51:59Z</time>
      </trkpt>
      <trkpt lat="47.20961" lon="6.40808">
        <ele>667.6</ele>
        <time>2014-05-04T08:52:00Z</time>
      </trkpt>
      <trkpt lat="47.20955" lon="6.40819">
        <ele>667.1</ele>
        <time>2014-05-04T08:52:01Z</time>
      </trkpt>
      <trkpt lat="47.2095" lon="6.40831">
        <ele>666.6</ele>
        <time>2014-05-04T08:52:02Z</time>
      </trkpt>
      <trkpt lat="47.20945" lon="6.40842">
        <ele>666.3</ele>
        <time>2014-05-04T08:52:03Z</time>
      </trkpt>
      <trkpt lat="47.20938" lon="6.40865">
        <ele>665.5</ele>
        <time>2014-05-04T08:52:05Z</time>
      </trkpt>
      <trkpt lat="47.20933" lon="6.40885">
        <ele>664.8</ele>
        <time>2014-05-04T08:52:07Z</time>
      </trkpt>
      <trkpt lat="47.20928" lon="6.40903">
        <ele>664.9</ele>
        <time>2014-05-04T08:52:09Z</time>
      </trkpt>
      <trkpt lat="47.20924" lon="6.40919">
        <ele>664.7</ele>
        <time>2014-05-04T08:52:11Z</time>
      </trkpt>
      <trkpt lat="47.20921" lon="6.40932">
        <ele>665.2</ele>
        <time>2014-05-04T08:52:13Z</time>
      </trkpt>
      <trkpt lat="47.20915" lon="6.40948">
        <ele>665.3</ele>
        <time>2014-05-04T08:52:16Z</time>
      </trkpt>
      <trkpt lat="47.20908" lon="6.40963">
        <ele>665.2</ele>
        <time>2014-05-04T08:52:19Z</time>
      </trkpt>
      <trkpt lat="47.209" lon="6.40978">
        <ele>665.2</ele>
        <time>2014-05-04T08:52:22Z</time>
      </trkpt>
      <trkpt lat="47.20894" lon="6.40989">
        <ele>665.1</ele>
        <time>2014-05-04T08:52:24Z</time>
      </trkpt>
      <trkpt lat="47.20887" lon="6.41">
        <ele>664.8</ele>
        <time>2014-05-04T08:52:26Z</time>
      </trkpt>
      <trkpt lat="47.20879" lon="6.41009">
        <ele>664.5</ele>
        <time>2014-05-04T08:52:28Z</time>
      </trkpt>
      <trkpt lat="47.20871" lon="6.41017">
        <ele>664.5</ele>
        <time>2014-05-04T08:52:30Z</time>
      </trkpt>
      <trkpt lat="47.20863" lon="6.41026">
        <ele>664.5</ele>
        <time>2014-05-04T08:52:32Z</time>
      </trkpt>
      <trkpt lat="47.20845" lon="6.4104">
        <ele>664.3</ele>
        <time>2014-05-04T08:52:36Z</time>
      </trkpt>
      <trkpt lat="47.20837" lon="6.41048">
        <ele>664.2</ele>
        <time>2014-05-04T08:52:38Z</time>
      </trkpt>
      <trkpt lat="47.20828" lon="6.41056">
        <ele>664.2</ele>
        <time>2014-05-04T08:52:40Z</time>
      </trkpt>
      <trkpt lat="47.20818" lon="6.41064">
        <ele>664.1</ele>
        <time>2014-05-04T08:52:43Z</time>
      </trkpt>
      <trkpt lat="47.20807" lon="6.4107">
        <ele>664.3</ele>
        <time>2014-05-04T08:52:46Z</time>
      </trkpt>
      <trkpt lat="47.20796" lon="6.41076">
        <ele>664.4</ele>
        <time>2014-05-04T08:52:49Z</time>
      </trkpt>
      <trkpt lat="47.20785" lon="6.41081">
        <ele>665</ele>
        <time>2014-05-04T08:52:52Z</time>
      </trkpt>
      <trkpt lat="47.20776" lon="6.41086">
        <ele>665.6</ele>
        <time>2014-05-04T08:52:55Z</time>
      </trkpt>
      <trkpt lat="47.20767" lon="6.4109">
        <ele>665.7</ele>
        <time>2014-05-04T08:52:58Z</time>
      </trkpt>
      <trkpt lat="47.20759" lon="6.41095">
        <ele>665.9</ele>
        <time>2014-05-04T08:53:01Z</time>
      </trkpt>
      <trkpt lat="47.2075" lon="6.41099">
        <ele>666.3</ele>
        <time>2014-05-04T08:53:04Z</time>
      </trkpt>
      <trkpt lat="47.20739" lon="6.41105">
        <ele>666.5</ele>
        <time>2014-05-04T08:53:08Z</time>
      </trkpt>
      <trkpt lat="47.20729" lon="6.41111">
        <ele>667.3</ele>
        <time>2014-05-04T08:53:12Z</time>
      </trkpt>
      <trkpt lat="47.20718" lon="6.41116">
        <ele>668.1</ele>
        <time>2014-05-04T08:53:16Z</time>
      </trkpt>
      <trkpt lat="47.20708" lon="6.41122">
        <ele>668.9</ele>
        <time>2014-05-04T08:53:20Z</time>
      </trkpt>
      <trkpt lat="47.20698" lon="6.41128">
        <ele>669.5</ele>
        <time>2014-05-04T08:53:24Z</time>
      </trkpt>
      <trkpt lat="47.20687" lon="6.41135">
        <ele>670.1</ele>
        <time>2014-05-04T08:53:28Z</time>
      </trkpt>
      <trkpt lat="47.20678" lon="6.4114">
        <ele>670.1</ele>
        <time>2014-05-04T08:53:31Z</time>
      </trkpt>
      <trkpt lat="47.20669" lon="6.41145">
        <ele>670</ele>
        <time>2014-05-04T08:53:34Z</time>
      </trkpt>
      <trkpt lat="47.20649" lon="6.41161">
        <ele>669.7</ele>
        <time>2014-05-04T08:53:40Z</time>
      </trkpt>
      <trkpt lat="47.20638" lon="6.41171">
        <ele>669.5</ele>
        <time>2014-05-04T08:53:43Z</time>
      </trkpt>
      <trkpt lat="47.20627" lon="6.41181">
        <ele>669.4</ele>
        <time>2014-05-04T08:53:46Z</time>
      </trkpt>
      <trkpt lat="47.20617" lon="6.41191">
        <ele>669.3</ele>
        <time>2014-05-04T08:53:49Z</time>
      </trkpt>
      <trkpt lat="47.20607" lon="6.41202">
        <ele>669.4</ele>
        <time>2014-05-04T08:53:52Z</time>
      </trkpt>
      <trkpt lat="47.20598" lon="6.41212">
        <ele>669.1</ele>
        <time>2014-05-04T08:53:55Z</time>
      </trkpt>
      <trkpt lat="47.20589" lon="6.41224">
        <ele>669.1</ele>
        <time>2014-05-04T08:53:58Z</time>
      </trkpt>
      <trkpt lat="47.20579" lon="6.41235">
        <ele>668.4</ele>
        <time>2014-05-04T08:54:01Z</time>
      </trkpt>
      <trkpt lat="47.20569" lon="6.41244">
        <ele>667.4</ele>
        <time>2014-05-04T08:54:04Z</time>
      </trkpt>
      <trkpt lat="47.2056" lon="6.41253">
        <ele>666.6</ele>
        <time>2014-05-04T08:54:07Z</time>
      </trkpt>
      <trkpt lat="47.20553" lon="6.41263">
        <ele>666.1</ele>
        <time>2014-05-04T08:54:11Z</time>
      </trkpt>
      <trkpt lat="47.20545" lon="6.41274">
        <ele>666</ele>
        <time>2014-05-04T08:54:15Z</time>
      </trkpt>
      <trkpt lat="47.20537" lon="6.41282">
        <ele>665.8</ele>
        <time>2014-05-04T08:54:18Z</time>
      </trkpt>
      <trkpt lat="47.20526" lon="6.4129">
        <ele>664.9</ele>
        <time>2014-05-04T08:54:21Z</time>
      </trkpt>
      <trkpt lat="47.20518" lon="6.41294">
        <ele>664.2</ele>
        <time>2014-05-04T08:54:23Z</time>
      </trkpt>
      <trkpt lat="47.20505" lon="6.413">
        <ele>663.4</ele>
        <time>2014-05-04T08:54:26Z</time>
      </trkpt>
      <trkpt lat="47.20494" lon="6.41301">
        <ele>661.9</ele>
        <time>2014-05-04T08:54:29Z</time>
      </trkpt>
      <trkpt lat="47.20484" lon="6.41296">
        <ele>661</ele>
        <time>2014-05-04T08:54:32Z</time>
      </trkpt>
      <trkpt lat="47.20475" lon="6.41289">
        <ele>660.6</ele>
        <time>2014-05-04T08:54:36Z</time>
      </trkpt>
      <trkpt lat="47.20454" lon="6.41274">
        <ele>659.3</ele>
        <time>2014-05-04T08:54:43Z</time>
      </trkpt>
      <trkpt lat="47.20446" lon="6.41262">
        <ele>659.1</ele>
        <time>2014-05-04T08:54:46Z</time>
      </trkpt>
      <trkpt lat="47.20436" lon="6.41253">
        <ele>659</ele>
        <time>2014-05-04T08:54:49Z</time>
      </trkpt>
      <trkpt lat="47.20426" lon="6.41247">
        <ele>658.5</ele>
        <time>2014-05-04T08:54:52Z</time>
      </trkpt>
      <trkpt lat="47.20415" lon="6.41247">
        <ele>657.6</ele>
        <time>2014-05-04T08:54:56Z</time>
      </trkpt>
      <trkpt lat="47.20406" lon="6.41246">
        <ele>656.9</ele>
        <time>2014-05-04T08:54:59Z</time>
      </trkpt>
      <trkpt lat="47.20395" lon="6.41245">
        <ele>656.9</ele>
        <time>2014-05-04T08:55:02Z</time>
      </trkpt>
      <trkpt lat="47.20383" lon="6.41243">
        <ele>656.5</ele>
        <time>2014-05-04T08:55:05Z</time>
      </trkpt>
      <trkpt lat="47.20373" lon="6.41244">
        <ele>656.3</ele>
        <time>2014-05-04T08:55:09Z</time>
      </trkpt>
      <trkpt lat="47.20363" lon="6.41246">
        <ele>655.7</ele>
        <time>2014-05-04T08:55:13Z</time>
      </trkpt>
      <trkpt lat="47.20351" lon="6.41245">
        <ele>655</ele>
        <time>2014-05-04T08:55:17Z</time>
      </trkpt>
      <trkpt lat="47.20342" lon="6.41243">
        <ele>654.4</ele>
        <time>2014-05-04T08:55:22Z</time>
      </trkpt>
      <trkpt lat="47.20333" lon="6.41247">
        <ele>654.5</ele>
        <time>2014-05-04T08:55:26Z</time>
      </trkpt>
      <trkpt lat="47.20322" lon="6.41251">
        <ele>654.5</ele>
        <time>2014-05-04T08:55:29Z</time>
      </trkpt>
      <trkpt lat="47.2031" lon="6.41257">
        <ele>654.7</ele>
        <time>2014-05-04T08:55:32Z</time>
      </trkpt>
      <trkpt lat="47.20301" lon="6.41262">
        <ele>655.1</ele>
        <time>2014-05-04T08:55:35Z</time>
      </trkpt>
      <trkpt lat="47.20293" lon="6.41271">
        <ele>656.3</ele>
        <time>2014-05-04T08:55:43Z</time>
      </trkpt>
      <trkpt lat="47.20276" lon="6.41286">
        <ele>657.9</ele>
        <time>2014-05-04T08:55:53Z</time>
      </trkpt>
      <trkpt lat="47.20267" lon="6.41289">
        <ele>658.5</ele>
        <time>2014-05-04T08:55:59Z</time>
      </trkpt>
      <trkpt lat="47.20256" lon="6.41293">
        <ele>659</ele>
        <time>2014-05-04T08:56:04Z</time>
      </trkpt>
      <trkpt lat="47.20247" lon="6.41294">
        <ele>659.4</ele>
        <time>2014-05-04T08:56:11Z</time>
      </trkpt>
      <trkpt lat="47.20237" lon="6.41295">
        <ele>659.5</ele>
        <time>2014-05-04T08:56:18Z</time>
      </trkpt>
      <trkpt lat="47.20226" lon="6.41295">
        <ele>659.9</ele>
        <time>2014-05-04T08:56:20Z</time>
      </trkpt>
      <trkpt lat="47.20217" lon="6.41297">
        <ele>659.8</ele>
        <time>2014-05-04T08:56:23Z</time>
      </trkpt>
      <trkpt lat="47.20206" lon="6.41299">
        <ele>660.2</ele>
        <time>2014-05-04T08:56:27Z</time>
      </trkpt>
      <trkpt lat="47.20196" lon="6.41301">
        <ele>661.5</ele>
        <time>2014-05-04T08:56:33Z</time>
      </trkpt>
      <trkpt lat="47.20188" lon="6.41295">
        <ele>662.3</ele>
        <time>2014-05-04T08:56:40Z</time>
      </trkpt>
      <trkpt lat="47.20178" lon="6.41291">
        <ele>662.2</ele>
        <time>2014-05-04T08:56:46Z</time>
      </trkpt>
      <trkpt lat="47.20159" lon="6.41282">
        <ele>662.8</ele>
        <time>2014-05-04T08:57:00Z</time>
      </trkpt>
      <trkpt lat="47.2015" lon="6.41278">
        <ele>663.1</ele>
        <time>2014-05-04T08:57:06Z</time>
      </trkpt>
      <trkpt lat="47.20141" lon="6.41277">
        <ele>663.3</ele>
        <time>2014-05-04T08:57:11Z</time>
      </trkpt>
      <trkpt lat="47.20131" lon="6.41276">
        <ele>663.3</ele>
        <time>2014-05-04T08:57:15Z</time>
      </trkpt>
      <trkpt lat="47.20121" lon="6.41276">
        <ele>662.7</ele>
        <time>2014-05-04T08:57:19Z</time>
      </trkpt>
      <trkpt lat="47.20112" lon="6.41276">
        <ele>662.6</ele>
        <time>2014-05-04T08:57:22Z</time>
      </trkpt>
      <trkpt lat="47.20098" lon="6.41275">
        <ele>662.8</ele>
        <time>2014-05-04T08:57:24Z</time>
      </trkpt>
      <trkpt lat="47.20088" lon="6.4128">
        <ele>663</ele>
        <time>2014-05-04T08:57:28Z</time>
      </trkpt>
      <trkpt lat="47.20078" lon="6.41275">
        <ele>663.7</ele>
        <time>2014-05-04T08:57:35Z</time>
      </trkpt>
      <trkpt lat="47.20069" lon="6.4127">
        <ele>664</ele>
        <time>2014-05-04T08:57:39Z</time>
      </trkpt>
      <trkpt lat="47.20059" lon="6.41266">
        <ele>665</ele>
        <time>2014-05-04T08:57:43Z</time>
      </trkpt>
      <trkpt lat="47.2005" lon="6.41263">
        <ele>665.7</ele>
        <time>2014-05-04T08:57:46Z</time>
      </trkpt>
      <trkpt lat="47.20041" lon="6.41257">
        <ele>666.1</ele>
        <time>2014-05-04T08:57:49Z</time>
      </trkpt>
      <trkpt lat="47.20023" lon="6.4125">
        <ele>667.1</ele>
        <time>2014-05-04T08:57:55Z</time>
      </trkpt>
      <trkpt lat="47.20012" lon="6.41245">
        <ele>667.5</ele>
        <time>2014-05-04T08:57:58Z</time>
      </trkpt>
      <trkpt lat="47.20002" lon="6.4124">
        <ele>667.5</ele>
        <time>2014-05-04T08:58:01Z</time>
      </trkpt>
      <trkpt lat="47.19993" lon="6.41234">
        <ele>667.3</ele>
        <time>2014-05-04T08:58:04Z</time>
      </trkpt>
      <trkpt lat="47.19982" lon="6.41228">
        <ele>667.4</ele>
        <time>2014-05-04T08:58:07Z</time>
      </trkpt>
      <trkpt lat="47.19972" lon="6.41221">
        <ele>667.6</ele>
        <time>2014-05-04T08:58:10Z</time>
      </trkpt>
      <trkpt lat="47.19961" lon="6.41213">
        <ele>667.2</ele>
        <time>2014-05-04T08:58:13Z</time>
      </trkpt>
      <trkpt lat="47.19951" lon="6.41205">
        <ele>667.2</ele>
        <time>2014-05-04T08:58:16Z</time>
      </trkpt>
      <trkpt lat="47.19942" lon="6.412">
        <ele>667</ele>
        <time>2014-05-04T08:58:18Z</time>
      </trkpt>
      <trkpt lat="47.19929" lon="6.41193">
        <ele>666.9</ele>
        <time>2014-05-04T08:58:21Z</time>
      </trkpt>
      <trkpt lat="47.1992" lon="6.41189">
        <ele>666.5</ele>
        <time>2014-05-04T08:58:23Z</time>
      </trkpt>
      <trkpt lat="47.19906" lon="6.4118">
        <ele>666.7</ele>
        <time>2014-05-04T08:58:26Z</time>
      </trkpt>
      <trkpt lat="47.19897" lon="6.41174">
        <ele>666.6</ele>
        <time>2014-05-04T08:58:28Z</time>
      </trkpt>
      <trkpt lat="47.19886" lon="6.41165">
        <ele>666.3</ele>
        <time>2014-05-04T08:58:31Z</time>
      </trkpt>
      <trkpt lat="47.19877" lon="6.41157">
        <ele>666</ele>
        <time>2014-05-04T08:58:34Z</time>
      </trkpt>
      <trkpt lat="47.19869" lon="6.4115">
        <ele>666.4</ele>
        <time>2014-05-04T08:58:37Z</time>
      </trkpt>
      <trkpt lat="47.19859" lon="6.41141">
        <ele>666.9</ele>
        <time>2014-05-04T08:58:41Z</time>
      </trkpt>
      <trkpt lat="47.19849" lon="6.41133">
        <ele>667.5</ele>
        <time>2014-05-04T08:58:45Z</time>
      </trkpt>
      <trkpt lat="47.19841" lon="6.41127">
        <ele>668.1</ele>
        <time>2014-05-04T08:58:48Z</time>
      </trkpt>
      <trkpt lat="47.19832" lon="6.4112">
        <ele>668.7</ele>
        <time>2014-05-04T08:58:52Z</time>
      </trkpt>
      <trkpt lat="47.19814" lon="6.41107">
        <ele>669.9</ele>
        <time>2014-05-04T08:58:59Z</time>
      </trkpt>
      <trkpt lat="47.19803" lon="6.41101">
        <ele>670</ele>
        <time>2014-05-04T08:59:02Z</time>
      </trkpt>
      <trkpt lat="47.19793" lon="6.41096">
        <ele>670.3</ele>
        <time>2014-05-04T08:59:05Z</time>
      </trkpt>
      <trkpt lat="47.19785" lon="6.4109">
        <ele>670.4</ele>
        <time>2014-05-04T08:59:08Z</time>
      </trkpt>
      <trkpt lat="47.19777" lon="6.41084">
        <ele>670.8</ele>
        <time>2014-05-04T08:59:11Z</time>
      </trkpt>
      <trkpt lat="47.19766" lon="6.41077">
        <ele>671.1</ele>
        <time>2014-05-04T08:59:15Z</time>
      </trkpt>
      <trkpt lat="47.19756" lon="6.41073">
        <ele>671.5</ele>
        <time>2014-05-04T08:59:18Z</time>
      </trkpt>
      <trkpt lat="47.19747" lon="6.41072">
        <ele>671.7</ele>
        <time>2014-05-04T08:59:20Z</time>
      </trkpt>
      <trkpt lat="47.19737" lon="6.41066">
        <ele>671.7</ele>
        <time>2014-05-04T08:59:23Z</time>
      </trkpt>
      <trkpt lat="47.19726" lon="6.41058">
        <ele>671.8</ele>
        <time>2014-05-04T08:59:26Z</time>
      </trkpt>
      <trkpt lat="47.19718" lon="6.41053">
        <ele>672.1</ele>
        <time>2014-05-04T08:59:28Z</time>
      </trkpt>
      <trkpt lat="47.19705" lon="6.41048">
        <ele>671.8</ele>
        <time>2014-05-04T08:59:31Z</time>
      </trkpt>
      <trkpt lat="47.19695" lon="6.41043">
        <ele>671.5</ele>
        <time>2014-05-04T08:59:34Z</time>
      </trkpt>
      <trkpt lat="47.19684" lon="6.41038">
        <ele>671.5</ele>
        <time>2014-05-04T08:59:37Z</time>
      </trkpt>
      <trkpt lat="47.19675" lon="6.41032">
        <ele>672</ele>
        <time>2014-05-04T08:59:40Z</time>
      </trkpt>
      <trkpt lat="47.19666" lon="6.41027">
        <ele>672.5</ele>
        <time>2014-05-04T08:59:43Z</time>
      </trkpt>
      <trkpt lat="47.19655" lon="6.41019">
        <ele>673</ele>
        <time>2014-05-04T08:59:47Z</time>
      </trkpt>
      <trkpt lat="47.19644" lon="6.41014">
        <ele>673.3</ele>
        <time>2014-05-04T08:59:50Z</time>
      </trkpt>
      <trkpt lat="47.19633" lon="6.4101">
        <ele>673.7</ele>
        <time>2014-05-04T08:59:53Z</time>
      </trkpt>
      <trkpt lat="47.19611" lon="6.40997">
        <ele>674</ele>
        <time>2014-05-04T09:00:00Z</time>
      </trkpt>
      <trkpt lat="47.19602" lon="6.40993">
        <ele>674.1</ele>
        <time>2014-05-04T09:00:02Z</time>
      </trkpt>
      <trkpt lat="47.19593" lon="6.40989">
        <ele>674.1</ele>
        <time>2014-05-04T09:00:06Z</time>
      </trkpt>
      <trkpt lat="47.19582" lon="6.40986">
        <ele>674.5</ele>
        <time>2014-05-04T09:00:11Z</time>
      </trkpt>
      <trkpt lat="47.19573" lon="6.40985">
        <ele>674.9</ele>
        <time>2014-05-04T09:00:15Z</time>
      </trkpt>
      <trkpt lat="47.1956" lon="6.40981">
        <ele>675.1</ele>
        <time>2014-05-04T09:00:19Z</time>
      </trkpt>
      <trkpt lat="47.19549" lon="6.40981">
        <ele>675.4</ele>
        <time>2014-05-04T09:00:24Z</time>
      </trkpt>
      <trkpt lat="47.19537" lon="6.40981">
        <ele>675.5</ele>
        <time>2014-05-04T09:00:28Z</time>
      </trkpt>
      <trkpt lat="47.19527" lon="6.40978">
        <ele>675.6</ele>
        <time>2014-05-04T09:00:30Z</time>
      </trkpt>
      <trkpt lat="47.19513" lon="6.40975">
        <ele>675.7</ele>
        <time>2014-05-04T09:00:32Z</time>
      </trkpt>
      <trkpt lat="47.19504" lon="6.40976">
        <ele>675.6</ele>
        <time>2014-05-04T09:00:34Z</time>
      </trkpt>
      <trkpt lat="47.19493" lon="6.40973">
        <ele>676</ele>
        <time>2014-05-04T09:00:38Z</time>
      </trkpt>
      <trkpt lat="47.19482" lon="6.40969">
        <ele>676.6</ele>
        <time>2014-05-04T09:00:42Z</time>
      </trkpt>
      <trkpt lat="47.19471" lon="6.40967">
        <ele>676.9</ele>
        <time>2014-05-04T09:00:44Z</time>
      </trkpt>
      <trkpt lat="47.19462" lon="6.40964">
        <ele>677.2</ele>
        <time>2014-05-04T09:00:46Z</time>
      </trkpt>
      <trkpt lat="47.19452" lon="6.40961">
        <ele>677.4</ele>
        <time>2014-05-04T09:00:48Z</time>
      </trkpt>
      <trkpt lat="47.19442" lon="6.40957">
        <ele>677.5</ele>
        <time>2014-05-04T09:00:50Z</time>
      </trkpt>
      <trkpt lat="47.1943" lon="6.40952">
        <ele>677.8</ele>
        <time>2014-05-04T09:00:53Z</time>
      </trkpt>
      <trkpt lat="47.19418" lon="6.40946">
        <ele>677.9</ele>
        <time>2014-05-04T09:00:56Z</time>
      </trkpt>
      <trkpt lat="47.19398" lon="6.40932">
        <ele>678.3</ele>
        <time>2014-05-04T09:01:02Z</time>
      </trkpt>
      <trkpt lat="47.1939" lon="6.40922">
        <ele>678.4</ele>
        <time>2014-05-04T09:01:05Z</time>
      </trkpt>
      <trkpt lat="47.19384" lon="6.4091">
        <ele>678.8</ele>
        <time>2014-05-04T09:01:08Z</time>
      </trkpt>
      <trkpt lat="47.19378" lon="6.40899">
        <ele>678.7</ele>
        <time>2014-05-04T09:01:11Z</time>
      </trkpt>
      <trkpt lat="47.19369" lon="6.40886">
        <ele>679</ele>
        <time>2014-05-04T09:01:14Z</time>
      </trkpt>
      <trkpt lat="47.19362" lon="6.40878">
        <ele>678.7</ele>
        <time>2014-05-04T09:01:16Z</time>
      </trkpt>
      <trkpt lat="47.19355" lon="6.40869">
        <ele>678.9</ele>
        <time>2014-05-04T09:01:18Z</time>
      </trkpt>
      <trkpt lat="47.19348" lon="6.40861">
        <ele>679</ele>
        <time>2014-05-04T09:01:20Z</time>
      </trkpt>
      <trkpt lat="47.19339" lon="6.40853">
        <ele>679</ele>
        <time>2014-05-04T09:01:22Z</time>
      </trkpt>
      <trkpt lat="47.1933" lon="6.40845">
        <ele>679.2</ele>
        <time>2014-05-04T09:01:24Z</time>
      </trkpt>
      <trkpt lat="47.19321" lon="6.40837">
        <ele>679.2</ele>
        <time>2014-05-04T09:01:26Z</time>
      </trkpt>
      <trkpt lat="47.19312" lon="6.40829">
        <ele>678.8</ele>
        <time>2014-05-04T09:01:28Z</time>
      </trkpt>
      <trkpt lat="47.19303" lon="6.4082">
        <ele>678.5</ele>
        <time>2014-05-04T09:01:30Z</time>
      </trkpt>
      <trkpt lat="47.19294" lon="6.4081">
        <ele>678.2</ele>
        <time>2014-05-04T09:01:32Z</time>
      </trkpt>
      <trkpt lat="47.19286" lon="6.408">
        <ele>678</ele>
        <time>2014-05-04T09:01:34Z</time>
      </trkpt>
      <trkpt lat="47.19278" lon="6.40789">
        <ele>677.9</ele>
        <time>2014-05-04T09:01:36Z</time>
      </trkpt>
      <trkpt lat="47.19269" lon="6.40779">
        <ele>678</ele>
        <time>2014-05-04T09:01:38Z</time>
      </trkpt>
      <trkpt lat="47.19259" lon="6.4077">
        <ele>678.1</ele>
        <time>2014-05-04T09:01:40Z</time>
      </trkpt>
      <trkpt lat="47.19248" lon="6.40762">
        <ele>678.4</ele>
        <time>2014-05-04T09:01:42Z</time>
      </trkpt>
      <trkpt lat="47.19238" lon="6.40753">
        <ele>678.6</ele>
        <time>2014-05-04T09:01:44Z</time>
      </trkpt>
      <trkpt lat="47.19228" lon="6.40743">
        <ele>678.2</ele>
        <time>2014-05-04T09:01:46Z</time>
      </trkpt>
      <trkpt lat="47.1922" lon="6.40732">
        <ele>678</ele>
        <time>2014-05-04T09:01:48Z</time>
      </trkpt>
      <trkpt lat="47.19212" lon="6.40721">
        <ele>678.1</ele>
        <time>2014-05-04T09:01:50Z</time>
      </trkpt>
      <trkpt lat="47.19203" lon="6.40711">
        <ele>678</ele>
        <time>2014-05-04T09:01:52Z</time>
      </trkpt>
      <trkpt lat="47.19194" lon="6.40702">
        <ele>677.5</ele>
        <time>2014-05-04T09:01:54Z</time>
      </trkpt>
      <trkpt lat="47.19185" lon="6.40694">
        <ele>677.5</ele>
        <time>2014-05-04T09:01:56Z</time>
      </trkpt>
      <trkpt lat="47.19175" lon="6.40686">
        <ele>677.4</ele>
        <time>2014-05-04T09:01:58Z</time>
      </trkpt>
      <trkpt lat="47.19159" lon="6.40666">
        <ele>677.2</ele>
        <time>2014-05-04T09:02:02Z</time>
      </trkpt>
      <trkpt lat="47.19152" lon="6.40656">
        <ele>677.1</ele>
        <time>2014-05-04T09:02:04Z</time>
      </trkpt>
      <trkpt lat="47.19146" lon="6.40646">
        <ele>677.5</ele>
        <time>2014-05-04T09:02:06Z</time>
      </trkpt>
      <trkpt lat="47.19139" lon="6.40637">
        <ele>678</ele>
        <time>2014-05-04T09:02:08Z</time>
      </trkpt>
      <trkpt lat="47.19132" lon="6.40627">
        <ele>678.5</ele>
        <time>2014-05-04T09:02:10Z</time>
      </trkpt>
      <trkpt lat="47.19124" lon="6.40618">
        <ele>678.7</ele>
        <time>2014-05-04T09:02:12Z</time>
      </trkpt>
      <trkpt lat="47.19115" lon="6.40608">
        <ele>678.6</ele>
        <time>2014-05-04T09:02:14Z</time>
      </trkpt>
      <trkpt lat="47.19105" lon="6.40598">
        <ele>678.5</ele>
        <time>2014-05-04T09:02:16Z</time>
      </trkpt>
      <trkpt lat="47.19095" lon="6.40588">
        <ele>678.2</ele>
        <time>2014-05-04T09:02:18Z</time>
      </trkpt>
      <trkpt lat="47.19084" lon="6.40579">
        <ele>678</ele>
        <time>2014-05-04T09:02:20Z</time>
      </trkpt>
      <trkpt lat="47.19073" lon="6.40571">
        <ele>678.1</ele>
        <time>2014-05-04T09:02:22Z</time>
      </trkpt>
      <trkpt lat="47.19062" lon="6.40564">
        <ele>678.2</ele>
        <time>2014-05-04T09:02:24Z</time>
      </trkpt>
      <trkpt lat="47.19052" lon="6.40557">
        <ele>678.5</ele>
        <time>2014-05-04T09:02:26Z</time>
      </trkpt>
      <trkpt lat="47.19041" lon="6.4055">
        <ele>678.7</ele>
        <time>2014-05-04T09:02:28Z</time>
      </trkpt>
      <trkpt lat="47.1903" lon="6.40544">
        <ele>678.8</ele>
        <time>2014-05-04T09:02:30Z</time>
      </trkpt>
      <trkpt lat="47.1902" lon="6.40538">
        <ele>679.1</ele>
        <time>2014-05-04T09:02:32Z</time>
      </trkpt>
      <trkpt lat="47.1901" lon="6.40532">
        <ele>678.9</ele>
        <time>2014-05-04T09:02:34Z</time>
      </trkpt>
      <trkpt lat="47.19" lon="6.40526">
        <ele>679.2</ele>
        <time>2014-05-04T09:02:36Z</time>
      </trkpt>
      <trkpt lat="47.1899" lon="6.40519">
        <ele>679.2</ele>
        <time>2014-05-04T09:02:38Z</time>
      </trkpt>
      <trkpt lat="47.1898" lon="6.40512">
        <ele>679.1</ele>
        <time>2014-05-04T09:02:40Z</time>
      </trkpt>
      <trkpt lat="47.18971" lon="6.40503">
        <ele>679.4</ele>
        <time>2014-05-04T09:02:42Z</time>
      </trkpt>
      <trkpt lat="47.18962" lon="6.40494">
        <ele>679.4</ele>
        <time>2014-05-04T09:02:44Z</time>
      </trkpt>
      <trkpt lat="47.18954" lon="6.40484">
        <ele>679.2</ele>
        <time>2014-05-04T09:02:46Z</time>
      </trkpt>
      <trkpt lat="47.18946" lon="6.40474">
        <ele>678.9</ele>
        <time>2014-05-04T09:02:48Z</time>
      </trkpt>
      <trkpt lat="47.18937" lon="6.40463">
        <ele>679</ele>
        <time>2014-05-04T09:02:50Z</time>
      </trkpt>
      <trkpt lat="47.18929" lon="6.40451">
        <ele>678.8</ele>
        <time>2014-05-04T09:02:52Z</time>
      </trkpt>
      <trkpt lat="47.18921" lon="6.40439">
        <ele>678.2</ele>
        <time>2014-05-04T09:02:54Z</time>
      </trkpt>
      <trkpt lat="47.18913" lon="6.40426">
        <ele>677.8</ele>
        <time>2014-05-04T09:02:56Z</time>
      </trkpt>
      <trkpt lat="47.18905" lon="6.40412">
        <ele>677.4</ele>
        <time>2014-05-04T09:02:58Z</time>
      </trkpt>
      <trkpt lat="47.18896" lon="6.40398">
        <ele>677.3</ele>
        <time>2014-05-04T09:03:00Z</time>
      </trkpt>
      <trkpt lat="47.18876" lon="6.40372">
        <ele>676.6</ele>
        <time>2014-05-04T09:03:04Z</time>
      </trkpt>
      <trkpt lat="47.18865" lon="6.4036">
        <ele>676.3</ele>
        <time>2014-05-04T09:03:06Z</time>
      </trkpt>
      <trkpt lat="47.18854" lon="6.40349">
        <ele>675.9</ele>
        <time>2014-05-04T09:03:08Z</time>
      </trkpt>
      <trkpt lat="47.18842" lon="6.40338">
        <ele>675.5</ele>
        <time>2014-05-04T09:03:10Z</time>
      </trkpt>
      <trkpt lat="47.18829" lon="6.40327">
        <ele>675.3</ele>
        <time>2014-05-04T09:03:12Z</time>
      </trkpt>
      <trkpt lat="47.18816" lon="6.40316">
        <ele>675.2</ele>
        <time>2014-05-04T09:03:14Z</time>
      </trkpt>
      <trkpt lat="47.18801" lon="6.40307">
        <ele>674.5</ele>
        <time>2014-05-04T09:03:16Z</time>
      </trkpt>
      <trkpt lat="47.18786" lon="6.40297">
        <ele>673.8</ele>
        <time>2014-05-04T09:03:18Z</time>
      </trkpt>
      <trkpt lat="47.18772" lon="6.40288">
        <ele>673.1</ele>
        <time>2014-05-04T09:03:20Z</time>
      </trkpt>
      <trkpt lat="47.18757" lon="6.40276">
        <ele>672.5</ele>
        <time>2014-05-04T09:03:22Z</time>
      </trkpt>
      <trkpt lat="47.18744" lon="6.40261">
        <ele>671.9</ele>
        <time>2014-05-04T09:03:24Z</time>
      </trkpt>
      <trkpt lat="47.18731" lon="6.40246">
        <ele>671.1</ele>
        <time>2014-05-04T09:03:26Z</time>
      </trkpt>
      <trkpt lat="47.18719" lon="6.40229">
        <ele>670.7</ele>
        <time>2014-05-04T09:03:28Z</time>
      </trkpt>
      <trkpt lat="47.18707" lon="6.4021">
        <ele>670.3</ele>
        <time>2014-05-04T09:03:30Z</time>
      </trkpt>
      <trkpt lat="47.18701" lon="6.402">
        <ele>669.9</ele>
        <time>2014-05-04T09:03:31Z</time>
      </trkpt>
      <trkpt lat="47.18689" lon="6.40181">
        <ele>668.9</ele>
        <time>2014-05-04T09:03:33Z</time>
      </trkpt>
      <trkpt lat="47.1868" lon="6.40165">
        <ele>668</ele>
        <time>2014-05-04T09:03:35Z</time>
      </trkpt>
      <trkpt lat="47.18672" lon="6.40156">
        <ele>667.5</ele>
        <time>2014-05-04T09:03:37Z</time>
      </trkpt>
      <trkpt lat="47.1866" lon="6.40152">
        <ele>667.4</ele>
        <time>2014-05-04T09:03:39Z</time>
      </trkpt>
      <trkpt lat="47.18649" lon="6.40156">
        <ele>667.1</ele>
        <time>2014-05-04T09:03:41Z</time>
      </trkpt>
      <trkpt lat="47.18637" lon="6.40162">
        <ele>667</ele>
        <time>2014-05-04T09:03:43Z</time>
      </trkpt>
      <trkpt lat="47.18626" lon="6.40167">
        <ele>666.5</ele>
        <time>2014-05-04T09:03:45Z</time>
      </trkpt>
      <trkpt lat="47.18613" lon="6.40171">
        <ele>666.3</ele>
        <time>2014-05-04T09:03:47Z</time>
      </trkpt>
      <trkpt lat="47.18601" lon="6.40175">
        <ele>666.4</ele>
        <time>2014-05-04T09:03:49Z</time>
      </trkpt>
      <trkpt lat="47.1859" lon="6.40178">
        <ele>666.5</ele>
        <time>2014-05-04T09:03:51Z</time>
      </trkpt>
      <trkpt lat="47.18579" lon="6.40182">
        <ele>667</ele>
        <time>2014-05-04T09:03:53Z</time>
      </trkpt>
      <trkpt lat="47.1857" lon="6.40187">
        <ele>667.1</ele>
        <time>2014-05-04T09:03:55Z</time>
      </trkpt>
      <trkpt lat="47.1856" lon="6.40194">
        <ele>667.5</ele>
        <time>2014-05-04T09:03:58Z</time>
      </trkpt>
      <trkpt lat="47.18551" lon="6.40199">
        <ele>667.7</ele>
        <time>2014-05-04T09:04:01Z</time>
      </trkpt>
      <trkpt lat="47.18541" lon="6.40227">
        <ele>668.6</ele>
        <time>2014-05-04T09:04:08Z</time>
      </trkpt>
      <trkpt lat="47.18536" lon="6.40241">
        <ele>668.9</ele>
        <time>2014-05-04T09:04:12Z</time>
      </trkpt>
      <trkpt lat="47.18532" lon="6.40255">
        <ele>669.9</ele>
        <time>2014-05-04T09:04:16Z</time>
      </trkpt>
      <trkpt lat="47.18531" lon="6.40272">
        <ele>670.9</ele>
        <time>2014-05-04T09:04:20Z</time>
      </trkpt>
      <trkpt lat="47.18529" lon="6.40287">
        <ele>671.4</ele>
        <time>2014-05-04T09:04:24Z</time>
      </trkpt>
      <trkpt lat="47.18531" lon="6.40302">
        <ele>672.3</ele>
        <time>2014-05-04T09:04:29Z</time>
      </trkpt>
      <trkpt lat="47.18528" lon="6.40315">
        <ele>673</ele>
        <time>2014-05-04T09:04:33Z</time>
      </trkpt>
      <trkpt lat="47.18525" lon="6.40329">
        <ele>673.3</ele>
        <time>2014-05-04T09:04:37Z</time>
      </trkpt>
      <trkpt lat="47.18521" lon="6.40341">
        <ele>673.5</ele>
        <time>2014-05-04T09:04:41Z</time>
      </trkpt>
      <trkpt lat="47.18517" lon="6.40353">
        <ele>674.1</ele>
        <time>2014-05-04T09:04:45Z</time>
      </trkpt>
      <trkpt lat="47.1851" lon="6.40363">
        <ele>674.5</ele>
        <time>2014-05-04T09:04:50Z</time>
      </trkpt>
      <trkpt lat="47.18502" lon="6.40372">
        <ele>675</ele>
        <time>2014-05-04T09:04:57Z</time>
      </trkpt>
      <trkpt lat="47.18501" lon="6.40387">
        <ele>675.6</ele>
        <time>2014-05-04T09:05:01Z</time>
      </trkpt>
      <trkpt lat="47.18502" lon="6.40404">
        <ele>675.9</ele>
        <time>2014-05-04T09:05:05Z</time>
      </trkpt>
      <trkpt lat="47.18498" lon="6.40437">
        <ele>676.8</ele>
        <time>2014-05-04T09:05:13Z</time>
      </trkpt>
      <trkpt lat="47.18496" lon="6.40451">
        <ele>677.1</ele>
        <time>2014-05-04T09:05:16Z</time>
      </trkpt>
      <trkpt lat="47.18493" lon="6.40465">
        <ele>677.9</ele>
        <time>2014-05-04T09:05:19Z</time>
      </trkpt>
      <trkpt lat="47.18491" lon="6.40478">
        <ele>678.1</ele>
        <time>2014-05-04T09:05:22Z</time>
      </trkpt>
      <trkpt lat="47.18488" lon="6.40492">
        <ele>678.3</ele>
        <time>2014-05-04T09:05:25Z</time>
      </trkpt>
      <trkpt lat="47.18486" lon="6.40506">
        <ele>678</ele>
        <time>2014-05-04T09:05:28Z</time>
      </trkpt>
      <trkpt lat="47.18475" lon="6.40513">
        <ele>677.8</ele>
        <time>2014-05-04T09:05:32Z</time>
      </trkpt>
      <trkpt lat="47.18465" lon="6.40511">
        <ele>677.9</ele>
        <time>2014-05-04T09:05:35Z</time>
      </trkpt>
      <trkpt lat="47.18455" lon="6.40508">
        <ele>678</ele>
        <time>2014-05-04T09:05:38Z</time>
      </trkpt>
      <trkpt lat="47.18444" lon="6.40504">
        <ele>678.5</ele>
        <time>2014-05-04T09:05:42Z</time>
      </trkpt>
      <trkpt lat="47.18433" lon="6.40499">
        <ele>678.5</ele>
        <time>2014-05-04T09:05:46Z</time>
      </trkpt>
      <trkpt lat="47.18424" lon="6.40495">
        <ele>678.6</ele>
        <time>2014-05-04T09:05:49Z</time>
      </trkpt>
      <trkpt lat="47.18414" lon="6.40487">
        <ele>678.5</ele>
        <time>2014-05-04T09:05:52Z</time>
      </trkpt>
      <trkpt lat="47.18404" lon="6.40476">
        <ele>678.2</ele>
        <time>2014-05-04T09:05:55Z</time>
      </trkpt>
      <trkpt lat="47.18397" lon="6.40459">
        <ele>677.5</ele>
        <time>2014-05-04T09:05:58Z</time>
      </trkpt>
      <trkpt lat="47.18392" lon="6.40446">
        <ele>677.2</ele>
        <time>2014-05-04T09:06:00Z</time>
      </trkpt>
      <trkpt lat="47.18388" lon="6.40431">
        <ele>676.7</ele>
        <time>2014-05-04T09:06:02Z</time>
      </trkpt>
      <trkpt lat="47.18383" lon="6.40415">
        <ele>676.5</ele>
        <time>2014-05-04T09:06:04Z</time>
      </trkpt>
      <trkpt lat="47.18377" lon="6.404">
        <ele>676.4</ele>
        <time>2014-05-04T09:06:06Z</time>
      </trkpt>
      <trkpt lat="47.18364" lon="6.40369">
        <ele>675.5</ele>
        <time>2014-05-04T09:06:10Z</time>
      </trkpt>
      <trkpt lat="47.18357" lon="6.40354">
        <ele>675.2</ele>
        <time>2014-05-04T09:06:12Z</time>
      </trkpt>
      <trkpt lat="47.18348" lon="6.40339">
        <ele>675</ele>
        <time>2014-05-04T09:06:14Z</time>
      </trkpt>
      <trkpt lat="47.1834" lon="6.40324">
        <ele>675</ele>
        <time>2014-05-04T09:06:16Z</time>
      </trkpt>
      <trkpt lat="47.18331" lon="6.4031">
        <ele>674.4</ele>
        <time>2014-05-04T09:06:18Z</time>
      </trkpt>
      <trkpt lat="47.18322" lon="6.40296">
        <ele>673.7</ele>
        <time>2014-05-04T09:06:20Z</time>
      </trkpt>
      <trkpt lat="47.18313" lon="6.40283">
        <ele>673.3</ele>
        <time>2014-05-04T09:06:22Z</time>
      </trkpt>
      <trkpt lat="47.18306" lon="6.40271">
        <ele>672.8</ele>
        <time>2014-05-04T09:06:24Z</time>
      </trkpt>
      <trkpt lat="47.18295" lon="6.40259">
        <ele>672.5</ele>
        <time>2014-05-04T09:06:26Z</time>
      </trkpt>
      <trkpt lat="47.18283" lon="6.40249">
        <ele>672</ele>
        <time>2014-05-04T09:06:28Z</time>
      </trkpt>
      <trkpt lat="47.18271" lon="6.4024">
        <ele>672</ele>
        <time>2014-05-04T09:06:30Z</time>
      </trkpt>
      <trkpt lat="47.18259" lon="6.4023">
        <ele>671.8</ele>
        <time>2014-05-04T09:06:32Z</time>
      </trkpt>
      <trkpt lat="47.18249" lon="6.40217">
        <ele>671.3</ele>
        <time>2014-05-04T09:06:34Z</time>
      </trkpt>
      <trkpt lat="47.18243" lon="6.40202">
        <ele>671.2</ele>
        <time>2014-05-04T09:06:36Z</time>
      </trkpt>
      <trkpt lat="47.18239" lon="6.40186">
        <ele>671.1</ele>
        <time>2014-05-04T09:06:38Z</time>
      </trkpt>
      <trkpt lat="47.18237" lon="6.40169">
        <ele>671</ele>
        <time>2014-05-04T09:06:40Z</time>
      </trkpt>
      <trkpt lat="47.18236" lon="6.40152">
        <ele>671</ele>
        <time>2014-05-04T09:06:42Z</time>
      </trkpt>
      <trkpt lat="47.18236" lon="6.40138">
        <ele>670.7</ele>
        <time>2014-05-04T09:06:44Z</time>
      </trkpt>
      <trkpt lat="47.18232" lon="6.40125">
        <ele>670.2</ele>
        <time>2014-05-04T09:06:47Z</time>
      </trkpt>
      <trkpt lat="47.18221" lon="6.40118">
        <ele>670.1</ele>
        <time>2014-05-04T09:06:51Z</time>
      </trkpt>
      <trkpt lat="47.18209" lon="6.40117">
        <ele>670.3</ele>
        <time>2014-05-04T09:06:54Z</time>
      </trkpt>
      <trkpt lat="47.18198" lon="6.40116">
        <ele>669.8</ele>
        <time>2014-05-04T09:06:57Z</time>
      </trkpt>
      <trkpt lat="47.18189" lon="6.40113">
        <ele>669.7</ele>
        <time>2014-05-04T09:06:59Z</time>
      </trkpt>
      <trkpt lat="47.1818" lon="6.40109">
        <ele>669.4</ele>
        <time>2014-05-04T09:07:01Z</time>
      </trkpt>
      <trkpt lat="47.18171" lon="6.40102">
        <ele>669.3</ele>
        <time>2014-05-04T09:07:03Z</time>
      </trkpt>
      <trkpt lat="47.18162" lon="6.40091">
        <ele>669.3</ele>
        <time>2014-05-04T09:07:05Z</time>
      </trkpt>
      <trkpt lat="47.18153" lon="6.40081">
        <ele>668.8</ele>
        <time>2014-05-04T09:07:07Z</time>
      </trkpt>
      <trkpt lat="47.18133" lon="6.40058">
        <ele>667.8</ele>
        <time>2014-05-04T09:07:11Z</time>
      </trkpt>
      <trkpt lat="47.1812" lon="6.40048">
        <ele>667.5</ele>
        <time>2014-05-04T09:07:13Z</time>
      </trkpt>
      <trkpt lat="47.18108" lon="6.40038">
        <ele>667.1</ele>
        <time>2014-05-04T09:07:15Z</time>
      </trkpt>
      <trkpt lat="47.18094" lon="6.40031">
        <ele>667.1</ele>
        <time>2014-05-04T09:07:17Z</time>
      </trkpt>
      <trkpt lat="47.18085" lon="6.40025">
        <ele>666.9</ele>
        <time>2014-05-04T09:07:19Z</time>
      </trkpt>
      <trkpt lat="47.18073" lon="6.40016">
        <ele>666.8</ele>
        <time>2014-05-04T09:07:21Z</time>
      </trkpt>
      <trkpt lat="47.18061" lon="6.40004">
        <ele>666.8</ele>
        <time>2014-05-04T09:07:23Z</time>
      </trkpt>
      <trkpt lat="47.18052" lon="6.39991">
        <ele>666.8</ele>
        <time>2014-05-04T09:07:25Z</time>
      </trkpt>
      <trkpt lat="47.18043" lon="6.39976">
        <ele>666.6</ele>
        <time>2014-05-04T09:07:27Z</time>
      </trkpt>
      <trkpt lat="47.18036" lon="6.39961">
        <ele>666.4</ele>
        <time>2014-05-04T09:07:29Z</time>
      </trkpt>
      <trkpt lat="47.18029" lon="6.39947">
        <ele>666.2</ele>
        <time>2014-05-04T09:07:31Z</time>
      </trkpt>
      <trkpt lat="47.18023" lon="6.39932">
        <ele>665.6</ele>
        <time>2014-05-04T09:07:33Z</time>
      </trkpt>
      <trkpt lat="47.18017" lon="6.39919">
        <ele>665.3</ele>
        <time>2014-05-04T09:07:35Z</time>
      </trkpt>
      <trkpt lat="47.18012" lon="6.39906">
        <ele>664.9</ele>
        <time>2014-05-04T09:07:37Z</time>
      </trkpt>
      <trkpt lat="47.18009" lon="6.39894">
        <ele>664.4</ele>
        <time>2014-05-04T09:07:40Z</time>
      </trkpt>
      <trkpt lat="47.1801" lon="6.39879">
        <ele>663.5</ele>
        <time>2014-05-04T09:07:46Z</time>
      </trkpt>
      <trkpt lat="47.17999" lon="6.39879">
        <ele>663.9</ele>
        <time>2014-05-04T09:07:51Z</time>
      </trkpt>
      <trkpt lat="47.17998" lon="6.39894">
        <ele>663.9</ele>
        <time>2014-05-04T09:07:55Z</time>
      </trkpt>
      <trkpt lat="47.18003" lon="6.39907">
        <ele>664.3</ele>
        <time>2014-05-04T09:07:58Z</time>
      </trkpt>
      <trkpt lat="47.18007" lon="6.3992">
        <ele>664.9</ele>
        <time>2014-05-04T09:08:01Z</time>
      </trkpt>
      <trkpt lat="47.18012" lon="6.39932">
        <ele>665.4</ele>
        <time>2014-05-04T09:08:04Z</time>
      </trkpt>
      <trkpt lat="47.18017" lon="6.39944">
        <ele>665.6</ele>
        <time>2014-05-04T09:08:07Z</time>
      </trkpt>
      <trkpt lat="47.18023" lon="6.39957">
        <ele>666</ele>
        <time>2014-05-04T09:08:10Z</time>
      </trkpt>
      <trkpt lat="47.18036" lon="6.39985">
        <ele>666.6</ele>
        <time>2014-05-04T09:08:16Z</time>
      </trkpt>
      <trkpt lat="47.18044" lon="6.4">
        <ele>667.1</ele>
        <time>2014-05-04T09:08:19Z</time>
      </trkpt>
      <trkpt lat="47.18053" lon="6.40014">
        <ele>667.3</ele>
        <time>2014-05-04T09:08:22Z</time>
      </trkpt>
      <trkpt lat="47.18063" lon="6.40025">
        <ele>667.1</ele>
        <time>2014-05-04T09:08:25Z</time>
      </trkpt>
      <trkpt lat="47.18074" lon="6.40034">
        <ele>666.8</ele>
        <time>2014-05-04T09:08:28Z</time>
      </trkpt>
      <trkpt lat="47.18085" lon="6.40041">
        <ele>666.9</ele>
        <time>2014-05-04T09:08:31Z</time>
      </trkpt>
      <trkpt lat="47.18097" lon="6.40047">
        <ele>666.9</ele>
        <time>2014-05-04T09:08:34Z</time>
      </trkpt>
      <trkpt lat="47.18108" lon="6.40053">
        <ele>667.3</ele>
        <time>2014-05-04T09:08:37Z</time>
      </trkpt>
      <trkpt lat="47.18118" lon="6.40058">
        <ele>667.1</ele>
        <time>2014-05-04T09:08:40Z</time>
      </trkpt>
      <trkpt lat="47.18126" lon="6.40066">
        <ele>666.8</ele>
        <time>2014-05-04T09:08:43Z</time>
      </trkpt>
      <trkpt lat="47.18133" lon="6.40074">
        <ele>666.8</ele>
        <time>2014-05-04T09:08:46Z</time>
      </trkpt>
      <trkpt lat="47.18141" lon="6.40083">
        <ele>667.9</ele>
        <time>2014-05-04T09:08:49Z</time>
      </trkpt>
      <trkpt lat="47.18151" lon="6.40094">
        <ele>669.1</ele>
        <time>2014-05-04T09:08:53Z</time>
      </trkpt>
      <trkpt lat="47.18158" lon="6.40103">
        <ele>669.5</ele>
        <time>2014-05-04T09:08:56Z</time>
      </trkpt>
      <trkpt lat="47.18166" lon="6.40111">
        <ele>670.1</ele>
        <time>2014-05-04T09:08:59Z</time>
      </trkpt>
      <trkpt lat="47.18177" lon="6.40117">
        <ele>670.9</ele>
        <time>2014-05-04T09:09:03Z</time>
      </trkpt>
      <trkpt lat="47.18186" lon="6.4012">
        <ele>669.9</ele>
        <time>2014-05-04T09:09:06Z</time>
      </trkpt>
      <trkpt lat="47.18195" lon="6.40124">
        <ele>669.8</ele>
        <time>2014-05-04T09:09:09Z</time>
      </trkpt>
      <trkpt lat="47.182" lon="6.40136">
        <ele>669.7</ele>
        <time>2014-05-04T09:09:13Z</time>
      </trkpt>
      <trkpt lat="47.18189" lon="6.40161">
        <ele>670.2</ele>
        <time>2014-05-04T09:09:20Z</time>
      </trkpt>
      <trkpt lat="47.18181" lon="6.40169">
        <ele>670.4</ele>
        <time>2014-05-04T09:09:23Z</time>
      </trkpt>
      <trkpt lat="47.18175" lon="6.40179">
        <ele>670.5</ele>
        <time>2014-05-04T09:09:26Z</time>
      </trkpt>
      <trkpt lat="47.1817" lon="6.40191">
        <ele>670.5</ele>
        <time>2014-05-04T09:09:29Z</time>
      </trkpt>
      <trkpt lat="47.18164" lon="6.40204">
        <ele>671.2</ele>
        <time>2014-05-04T09:09:32Z</time>
      </trkpt>
      <trkpt lat="47.18157" lon="6.40216">
        <ele>671.5</ele>
        <time>2014-05-04T09:09:35Z</time>
      </trkpt>
      <trkpt lat="47.18149" lon="6.40228">
        <ele>672.1</ele>
        <time>2014-05-04T09:09:38Z</time>
      </trkpt>
      <trkpt lat="47.18142" lon="6.40239">
        <ele>672.9</ele>
        <time>2014-05-04T09:09:41Z</time>
      </trkpt>
      <trkpt lat="47.18134" lon="6.40251">
        <ele>672.6</ele>
        <time>2014-05-04T09:09:44Z</time>
      </trkpt>
      <trkpt lat="47.18126" lon="6.40263">
        <ele>672.2</ele>
        <time>2014-05-04T09:09:47Z</time>
      </trkpt>
      <trkpt lat="47.18118" lon="6.40275">
        <ele>672.5</ele>
        <time>2014-05-04T09:09:50Z</time>
      </trkpt>
      <trkpt lat="47.18109" lon="6.40286">
        <ele>672.2</ele>
        <time>2014-05-04T09:09:53Z</time>
      </trkpt>
      <trkpt lat="47.18099" lon="6.40295">
        <ele>672.5</ele>
        <time>2014-05-04T09:09:56Z</time>
      </trkpt>
      <trkpt lat="47.1809" lon="6.40303">
        <ele>672.5</ele>
        <time>2014-05-04T09:09:59Z</time>
      </trkpt>
      <trkpt lat="47.1808" lon="6.4031">
        <ele>672.2</ele>
        <time>2014-05-04T09:10:02Z</time>
      </trkpt>
      <trkpt lat="47.18071" lon="6.40317">
        <ele>672.9</ele>
        <time>2014-05-04T09:10:05Z</time>
      </trkpt>
      <trkpt lat="47.1806" lon="6.40325">
        <ele>673.4</ele>
        <time>2014-05-04T09:10:09Z</time>
      </trkpt>
      <trkpt lat="47.1805" lon="6.40331">
        <ele>674</ele>
        <time>2014-05-04T09:10:12Z</time>
      </trkpt>
      <trkpt lat="47.18039" lon="6.40337">
        <ele>674.3</ele>
        <time>2014-05-04T09:10:15Z</time>
      </trkpt>
      <trkpt lat="47.18017" lon="6.4035">
        <ele>675</ele>
        <time>2014-05-04T09:10:21Z</time>
      </trkpt>
      <trkpt lat="47.18006" lon="6.40356">
        <ele>675.2</ele>
        <time>2014-05-04T09:10:24Z</time>
      </trkpt>
      <trkpt lat="47.17995" lon="6.40362">
        <ele>675.6</ele>
        <time>2014-05-04T09:10:27Z</time>
      </trkpt>
      <trkpt lat="47.17985" lon="6.40368">
        <ele>676.5</ele>
        <time>2014-05-04T09:10:30Z</time>
      </trkpt>
      <trkpt lat="47.17975" lon="6.40375">
        <ele>676.7</ele>
        <time>2014-05-04T09:10:33Z</time>
      </trkpt>
      <trkpt lat="47.17965" lon="6.40381">
        <ele>676.9</ele>
        <time>2014-05-04T09:10:36Z</time>
      </trkpt>
      <trkpt lat="47.17954" lon="6.40388">
        <ele>677.5</ele>
        <time>2014-05-04T09:10:39Z</time>
      </trkpt>
      <trkpt lat="47.17945" lon="6.40393">
        <ele>677.6</ele>
        <time>2014-05-04T09:10:42Z</time>
      </trkpt>
      <trkpt lat="47.17935" lon="6.40399">
        <ele>677.7</ele>
        <time>2014-05-04T09:10:45Z</time>
      </trkpt>
      <trkpt lat="47.17926" lon="6.40404">
        <ele>678.2</ele>
        <time>2014-05-04T09:10:48Z</time>
      </trkpt>
      <trkpt lat="47.17918" lon="6.40408">
        <ele>678.8</ele>
        <time>2014-05-04T09:10:51Z</time>
      </trkpt>
      <trkpt lat="47.17908" lon="6.40414">
        <ele>679.3</ele>
        <time>2014-05-04T09:10:55Z</time>
      </trkpt>
      <trkpt lat="47.17899" lon="6.40419">
        <ele>679.9</ele>
        <time>2014-05-04T09:10:59Z</time>
      </trkpt>
      <trkpt lat="47.1789" lon="6.40425">
        <ele>680.6</ele>
        <time>2014-05-04T09:11:03Z</time>
      </trkpt>
      <trkpt lat="47.17881" lon="6.40431">
        <ele>681.4</ele>
        <time>2014-05-04T09:11:07Z</time>
      </trkpt>
      <trkpt lat="47.17871" lon="6.40436">
        <ele>682</ele>
        <time>2014-05-04T09:11:11Z</time>
      </trkpt>
      <trkpt lat="47.17862" lon="6.40442">
        <ele>682.8</ele>
        <time>2014-05-04T09:11:15Z</time>
      </trkpt>
      <trkpt lat="47.17853" lon="6.40446">
        <ele>683.2</ele>
        <time>2014-05-04T09:11:19Z</time>
      </trkpt>
      <trkpt lat="47.17834" lon="6.40456">
        <ele>685.1</ele>
        <time>2014-05-04T09:11:27Z</time>
      </trkpt>
      <trkpt lat="47.17823" lon="6.4046">
        <ele>686.3</ele>
        <time>2014-05-04T09:11:31Z</time>
      </trkpt>
      <trkpt lat="47.17814" lon="6.40464">
        <ele>686.9</ele>
        <time>2014-05-04T09:11:35Z</time>
      </trkpt>
      <trkpt lat="47.17804" lon="6.40467">
        <ele>687.4</ele>
        <time>2014-05-04T09:11:39Z</time>
      </trkpt>
      <trkpt lat="47.17794" lon="6.40473">
        <ele>688.4</ele>
        <time>2014-05-04T09:11:44Z</time>
      </trkpt>
      <trkpt lat="47.17783" lon="6.40478">
        <ele>689</ele>
        <time>2014-05-04T09:11:49Z</time>
      </trkpt>
      <trkpt lat="47.17774" lon="6.40481">
        <ele>688.9</ele>
        <time>2014-05-04T09:11:53Z</time>
      </trkpt>
      <trkpt lat="47.17764" lon="6.40484">
        <ele>689.4</ele>
        <time>2014-05-04T09:11:58Z</time>
      </trkpt>
      <trkpt lat="47.17755" lon="6.40488">
        <ele>690.4</ele>
        <time>2014-05-04T09:12:02Z</time>
      </trkpt>
      <trkpt lat="47.17746" lon="6.40492">
        <ele>691.1</ele>
        <time>2014-05-04T09:12:06Z</time>
      </trkpt>
      <trkpt lat="47.17736" lon="6.40496">
        <ele>691.4</ele>
        <time>2014-05-04T09:12:10Z</time>
      </trkpt>
      <trkpt lat="47.17726" lon="6.405">
        <ele>691.9</ele>
        <time>2014-05-04T09:12:14Z</time>
      </trkpt>
      <trkpt lat="47.17717" lon="6.40503">
        <ele>692.7</ele>
        <time>2014-05-04T09:12:18Z</time>
      </trkpt>
      <trkpt lat="47.17707" lon="6.40507">
        <ele>693.4</ele>
        <time>2014-05-04T09:12:22Z</time>
      </trkpt>
      <trkpt lat="47.17688" lon="6.40512">
        <ele>694.9</ele>
        <time>2014-05-04T09:12:30Z</time>
      </trkpt>
      <trkpt lat="47.17677" lon="6.40517">
        <ele>695.9</ele>
        <time>2014-05-04T09:12:35Z</time>
      </trkpt>
      <trkpt lat="47.17668" lon="6.4052">
        <ele>696.5</ele>
        <time>2014-05-04T09:12:39Z</time>
      </trkpt>
      <trkpt lat="47.17658" lon="6.40523">
        <ele>697</ele>
        <time>2014-05-04T09:12:43Z</time>
      </trkpt>
      <trkpt lat="47.17648" lon="6.40525">
        <ele>697.5</ele>
        <time>2014-05-04T09:12:47Z</time>
      </trkpt>
      <trkpt lat="47.17637" lon="6.40527">
        <ele>698</ele>
        <time>2014-05-04T09:12:51Z</time>
      </trkpt>
      <trkpt lat="47.17626" lon="6.40529">
        <ele>698.3</ele>
        <time>2014-05-04T09:12:55Z</time>
      </trkpt>
      <trkpt lat="47.17615" lon="6.40531">
        <ele>698.6</ele>
        <time>2014-05-04T09:12:59Z</time>
      </trkpt>
      <trkpt lat="47.17603" lon="6.40533">
        <ele>699.3</ele>
        <time>2014-05-04T09:13:03Z</time>
      </trkpt>
      <trkpt lat="47.17593" lon="6.40535">
        <ele>699.5</ele>
        <time>2014-05-04T09:13:07Z</time>
      </trkpt>
      <trkpt lat="47.17582" lon="6.40538">
        <ele>700.4</ele>
        <time>2014-05-04T09:13:11Z</time>
      </trkpt>
      <trkpt lat="47.17571" lon="6.4054">
        <ele>700.8</ele>
        <time>2014-05-04T09:13:15Z</time>
      </trkpt>
      <trkpt lat="47.17561" lon="6.40542">
        <ele>701.3</ele>
        <time>2014-05-04T09:13:19Z</time>
      </trkpt>
      <trkpt lat="47.1755" lon="6.40544">
        <ele>701.5</ele>
        <time>2014-05-04T09:13:23Z</time>
      </trkpt>
      <trkpt lat="47.1753" lon="6.40547">
        <ele>702.1</ele>
        <time>2014-05-04T09:13:30Z</time>
      </trkpt>
      <trkpt lat="47.17518" lon="6.40549">
        <ele>702.8</ele>
        <time>2014-05-04T09:13:34Z</time>
      </trkpt>
      <trkpt lat="47.17509" lon="6.4055">
        <ele>703.4</ele>
        <time>2014-05-04T09:13:37Z</time>
      </trkpt>
      <trkpt lat="47.17497" lon="6.40552">
        <ele>704.1</ele>
        <time>2014-05-04T09:13:41Z</time>
      </trkpt>
      <trkpt lat="47.17486" lon="6.40554">
        <ele>704.8</ele>
        <time>2014-05-04T09:13:45Z</time>
      </trkpt>
      <trkpt lat="47.17474" lon="6.40556">
        <ele>705.3</ele>
        <time>2014-05-04T09:13:49Z</time>
      </trkpt>
      <trkpt lat="47.17464" lon="6.40557">
        <ele>706.1</ele>
        <time>2014-05-04T09:13:53Z</time>
      </trkpt>
      <trkpt lat="47.17455" lon="6.40559">
        <ele>706.8</ele>
        <time>2014-05-04T09:13:57Z</time>
      </trkpt>
      <trkpt lat="47.17444" lon="6.4056">
        <ele>708</ele>
        <time>2014-05-04T09:14:02Z</time>
      </trkpt>
      <trkpt lat="47.17433" lon="6.40559">
        <ele>709</ele>
        <time>2014-05-04T09:14:07Z</time>
      </trkpt>
      <trkpt lat="47.17423" lon="6.40557">
        <ele>709.8</ele>
        <time>2014-05-04T09:14:12Z</time>
      </trkpt>
      <trkpt lat="47.17414" lon="6.40556">
        <ele>710.2</ele>
        <time>2014-05-04T09:14:16Z</time>
      </trkpt>
      <trkpt lat="47.17404" lon="6.40555">
        <ele>710.8</ele>
        <time>2014-05-04T09:14:20Z</time>
      </trkpt>
      <trkpt lat="47.17395" lon="6.40554">
        <ele>711.5</ele>
        <time>2014-05-04T09:14:24Z</time>
      </trkpt>
      <trkpt lat="47.17375" lon="6.40552">
        <ele>713.1</ele>
        <time>2014-05-04T09:14:33Z</time>
      </trkpt>
      <trkpt lat="47.17364" lon="6.4055">
        <ele>713.4</ele>
        <time>2014-05-04T09:14:38Z</time>
      </trkpt>
      <trkpt lat="47.17355" lon="6.40548">
        <ele>714.2</ele>
        <time>2014-05-04T09:14:42Z</time>
      </trkpt>
      <trkpt lat="47.17344" lon="6.40548">
        <ele>715.3</ele>
        <time>2014-05-04T09:14:47Z</time>
      </trkpt>
      <trkpt lat="47.17334" lon="6.40545">
        <ele>716.2</ele>
        <time>2014-05-04T09:14:51Z</time>
      </trkpt>
      <trkpt lat="47.17325" lon="6.40544">
        <ele>716.5</ele>
        <time>2014-05-04T09:14:55Z</time>
      </trkpt>
      <trkpt lat="47.17316" lon="6.40542">
        <ele>717.3</ele>
        <time>2014-05-04T09:14:59Z</time>
      </trkpt>
      <trkpt lat="47.17307" lon="6.40541">
        <ele>718</ele>
        <time>2014-05-04T09:15:03Z</time>
      </trkpt>
      <trkpt lat="47.17296" lon="6.40539">
        <ele>718.5</ele>
        <time>2014-05-04T09:15:07Z</time>
      </trkpt>
      <trkpt lat="47.17287" lon="6.40538">
        <ele>719</ele>
        <time>2014-05-04T09:15:11Z</time>
      </trkpt>
      <trkpt lat="47.17277" lon="6.40537">
        <ele>719.8</ele>
        <time>2014-05-04T09:15:15Z</time>
      </trkpt>
      <trkpt lat="47.17266" lon="6.40536">
        <ele>720.7</ele>
        <time>2014-05-04T09:15:20Z</time>
      </trkpt>
      <trkpt lat="47.17257" lon="6.40535">
        <ele>721.6</ele>
        <time>2014-05-04T09:15:24Z</time>
      </trkpt>
      <trkpt lat="47.17247" lon="6.40534">
        <ele>722.1</ele>
        <time>2014-05-04T09:15:28Z</time>
      </trkpt>
      <trkpt lat="47.17228" lon="6.40535">
        <ele>723.3</ele>
        <time>2014-05-04T09:15:36Z</time>
      </trkpt>
      <trkpt lat="47.17218" lon="6.40536">
        <ele>724</ele>
        <time>2014-05-04T09:15:40Z</time>
      </trkpt>
      <trkpt lat="47.17208" lon="6.40538">
        <ele>724.5</ele>
        <time>2014-05-04T09:15:44Z</time>
      </trkpt>
      <trkpt lat="47.17199" lon="6.4054">
        <ele>725.1</ele>
        <time>2014-05-04T09:15:48Z</time>
      </trkpt>
      <trkpt lat="47.1719" lon="6.40543">
        <ele>725.9</ele>
        <time>2014-05-04T09:15:52Z</time>
      </trkpt>
      <trkpt lat="47.1718" lon="6.40545">
        <ele>726.1</ele>
        <time>2014-05-04T09:15:56Z</time>
      </trkpt>
      <trkpt lat="47.17171" lon="6.40547">
        <ele>726.7</ele>
        <time>2014-05-04T09:16:00Z</time>
      </trkpt>
      <trkpt lat="47.17162" lon="6.40549">
        <ele>727.6</ele>
        <time>2014-05-04T09:16:04Z</time>
      </trkpt>
      <trkpt lat="47.17152" lon="6.40552">
        <ele>728.2</ele>
        <time>2014-05-04T09:16:09Z</time>
      </trkpt>
      <trkpt lat="47.17142" lon="6.40554">
        <ele>728.7</ele>
        <time>2014-05-04T09:16:13Z</time>
      </trkpt>
      <trkpt lat="47.17133" lon="6.40556">
        <ele>729</ele>
        <time>2014-05-04T09:16:17Z</time>
      </trkpt>
      <trkpt lat="47.17123" lon="6.40559">
        <ele>730.2</ele>
        <time>2014-05-04T09:16:23Z</time>
      </trkpt>
      <trkpt lat="47.17113" lon="6.40558">
        <ele>731.4</ele>
        <time>2014-05-04T09:16:28Z</time>
      </trkpt>
      <trkpt lat="47.17104" lon="6.40559">
        <ele>732.5</ele>
        <time>2014-05-04T09:16:34Z</time>
      </trkpt>
      <trkpt lat="47.17081" lon="6.40565">
        <ele>734.4</ele>
        <time>2014-05-04T09:16:47Z</time>
      </trkpt>
      <trkpt lat="47.1707" lon="6.40567">
        <ele>734.8</ele>
        <time>2014-05-04T09:16:50Z</time>
      </trkpt>
      <trkpt lat="47.17059" lon="6.40569">
        <ele>735.1</ele>
        <time>2014-05-04T09:16:54Z</time>
      </trkpt>
      <trkpt lat="47.17048" lon="6.40569">
        <ele>735.7</ele>
        <time>2014-05-04T09:16:58Z</time>
      </trkpt>
      <trkpt lat="47.17038" lon="6.4057">
        <ele>736.6</ele>
        <time>2014-05-04T09:17:02Z</time>
      </trkpt>
      <trkpt lat="47.17028" lon="6.40574">
        <ele>737</ele>
        <time>2014-05-04T09:17:06Z</time>
      </trkpt>
      <trkpt lat="47.17019" lon="6.40576">
        <ele>737.8</ele>
        <time>2014-05-04T09:17:11Z</time>
      </trkpt>
      <trkpt lat="47.1701" lon="6.40569">
        <ele>737.9</ele>
        <time>2014-05-04T09:17:17Z</time>
      </trkpt>
      <trkpt lat="47.17002" lon="6.40563">
        <ele>737.6</ele>
        <time>2014-05-04T09:17:23Z</time>
      </trkpt>
      <trkpt lat="47.16992" lon="6.40562">
        <ele>737.4</ele>
        <time>2014-05-04T09:20:42Z</time>
      </trkpt>
      <trkpt lat="47.16982" lon="6.4054">
        <ele>736</ele>
        <time>2014-05-04T09:20:52Z</time>
      </trkpt>
      <trkpt lat="47.16972" lon="6.4053">
        <ele>735.6</ele>
        <time>2014-05-04T09:20:55Z</time>
      </trkpt>
      <trkpt lat="47.16964" lon="6.40521">
        <ele>735.4</ele>
        <time>2014-05-04T09:20:57Z</time>
      </trkpt>
      <trkpt lat="47.16951" lon="6.4051">
        <ele>735</ele>
        <time>2014-05-04T09:20:59Z</time>
      </trkpt>
      <trkpt lat="47.16941" lon="6.40501">
        <ele>734.6</ele>
        <time>2014-05-04T09:21:01Z</time>
      </trkpt>
      <trkpt lat="47.16931" lon="6.40492">
        <ele>734.7</ele>
        <time>2014-05-04T09:21:03Z</time>
      </trkpt>
      <trkpt lat="47.16922" lon="6.40482">
        <ele>734.5</ele>
        <time>2014-05-04T09:21:05Z</time>
      </trkpt>
      <trkpt lat="47.16912" lon="6.40473">
        <ele>733.9</ele>
        <time>2014-05-04T09:21:07Z</time>
      </trkpt>
      <trkpt lat="47.16904" lon="6.40464">
        <ele>734</ele>
        <time>2014-05-04T09:21:09Z</time>
      </trkpt>
      <trkpt lat="47.16892" lon="6.40453">
        <ele>733.7</ele>
        <time>2014-05-04T09:21:12Z</time>
      </trkpt>
      <trkpt lat="47.16884" lon="6.40448">
        <ele>733.3</ele>
        <time>2014-05-04T09:21:14Z</time>
      </trkpt>
      <trkpt lat="47.16873" lon="6.40443">
        <ele>733.1</ele>
        <time>2014-05-04T09:21:17Z</time>
      </trkpt>
      <trkpt lat="47.16862" lon="6.40438">
        <ele>733.2</ele>
        <time>2014-05-04T09:21:19Z</time>
      </trkpt>
      <trkpt lat="47.16851" lon="6.40434">
        <ele>733.2</ele>
        <time>2014-05-04T09:21:22Z</time>
      </trkpt>
      <trkpt lat="47.16841" lon="6.40435">
        <ele>733.4</ele>
        <time>2014-05-04T09:21:25Z</time>
      </trkpt>
      <trkpt lat="47.1683" lon="6.40437">
        <ele>733.2</ele>
        <time>2014-05-04T09:21:28Z</time>
      </trkpt>
      <trkpt lat="47.16817" lon="6.40436">
        <ele>732.9</ele>
        <time>2014-05-04T09:21:30Z</time>
      </trkpt>
      <trkpt lat="47.16806" lon="6.40436">
        <ele>733.2</ele>
        <time>2014-05-04T09:21:32Z</time>
      </trkpt>
      <trkpt lat="47.16794" lon="6.40431">
        <ele>733.4</ele>
        <time>2014-05-04T09:21:34Z</time>
      </trkpt>
      <trkpt lat="47.16785" lon="6.40425">
        <ele>733</ele>
        <time>2014-05-04T09:21:36Z</time>
      </trkpt>
      <trkpt lat="47.16776" lon="6.40413">
        <ele>732.9</ele>
        <time>2014-05-04T09:21:39Z</time>
      </trkpt>
      <trkpt lat="47.1677" lon="6.404">
        <ele>733.7</ele>
        <time>2014-05-04T09:21:43Z</time>
      </trkpt>
      <trkpt lat="47.16757" lon="6.40381">
        <ele>734.1</ele>
        <time>2014-05-04T09:21:48Z</time>
      </trkpt>
      <trkpt lat="47.16749" lon="6.40366">
        <ele>734.2</ele>
        <time>2014-05-04T09:21:51Z</time>
      </trkpt>
      <trkpt lat="47.16743" lon="6.40354">
        <ele>733.8</ele>
        <time>2014-05-04T09:21:54Z</time>
      </trkpt>
      <trkpt lat="47.16739" lon="6.40341">
        <ele>734.5</ele>
        <time>2014-05-04T09:21:57Z</time>
      </trkpt>
      <trkpt lat="47.16732" lon="6.40327">
        <ele>735.3</ele>
        <time>2014-05-04T09:22:02Z</time>
      </trkpt>
      <trkpt lat="47.16725" lon="6.40314">
        <ele>736</ele>
        <time>2014-05-04T09:22:06Z</time>
      </trkpt>
      <trkpt lat="47.16717" lon="6.40304">
        <ele>736.1</ele>
        <time>2014-05-04T09:22:09Z</time>
      </trkpt>
      <trkpt lat="47.16709" lon="6.40294">
        <ele>736.5</ele>
        <time>2014-05-04T09:22:12Z</time>
      </trkpt>
      <trkpt lat="47.167" lon="6.40283">
        <ele>736.6</ele>
        <time>2014-05-04T09:22:15Z</time>
      </trkpt>
      <trkpt lat="47.16693" lon="6.40272">
        <ele>736.9</ele>
        <time>2014-05-04T09:22:18Z</time>
      </trkpt>
      <trkpt lat="47.16685" lon="6.40258">
        <ele>736.8</ele>
        <time>2014-05-04T09:22:21Z</time>
      </trkpt>
      <trkpt lat="47.16682" lon="6.40245">
        <ele>737.3</ele>
        <time>2014-05-04T09:22:24Z</time>
      </trkpt>
      <trkpt lat="47.16676" lon="6.40232">
        <ele>737.9</ele>
        <time>2014-05-04T09:22:28Z</time>
      </trkpt>
      <trkpt lat="47.1667" lon="6.40222">
        <ele>738.4</ele>
        <time>2014-05-04T09:22:31Z</time>
      </trkpt>
      <trkpt lat="47.16663" lon="6.4021">
        <ele>738.8</ele>
        <time>2014-05-04T09:22:35Z</time>
      </trkpt>
      <trkpt lat="47.16655" lon="6.40199">
        <ele>739.1</ele>
        <time>2014-05-04T09:22:39Z</time>
      </trkpt>
      <trkpt lat="47.16645" lon="6.4019">
        <ele>739.8</ele>
        <time>2014-05-04T09:22:43Z</time>
      </trkpt>
      <trkpt lat="47.16638" lon="6.40179">
        <ele>740.3</ele>
        <time>2014-05-04T09:22:47Z</time>
      </trkpt>
      <trkpt lat="47.16622" lon="6.40159">
        <ele>740.9</ele>
        <time>2014-05-04T09:22:53Z</time>
      </trkpt>
      <trkpt lat="47.16614" lon="6.40151">
        <ele>741.1</ele>
        <time>2014-05-04T09:22:56Z</time>
      </trkpt>
      <trkpt lat="47.16606" lon="6.40145">
        <ele>741.5</ele>
        <time>2014-05-04T09:22:59Z</time>
      </trkpt>
      <trkpt lat="47.16597" lon="6.40138">
        <ele>741.8</ele>
        <time>2014-05-04T09:23:02Z</time>
      </trkpt>
      <trkpt lat="47.16589" lon="6.40132">
        <ele>742.3</ele>
        <time>2014-05-04T09:23:05Z</time>
      </trkpt>
      <trkpt lat="47.16581" lon="6.40123">
        <ele>742.6</ele>
        <time>2014-05-04T09:23:09Z</time>
      </trkpt>
      <trkpt lat="47.16573" lon="6.40113">
        <ele>742.7</ele>
        <time>2014-05-04T09:23:13Z</time>
      </trkpt>
      <trkpt lat="47.16563" lon="6.40103">
        <ele>742.7</ele>
        <time>2014-05-04T09:23:16Z</time>
      </trkpt>
      <trkpt lat="47.16552" lon="6.40094">
        <ele>743</ele>
        <time>2014-05-04T09:23:19Z</time>
      </trkpt>
      <trkpt lat="47.16545" lon="6.40085">
        <ele>743.2</ele>
        <time>2014-05-04T09:23:22Z</time>
      </trkpt>
      <trkpt lat="47.16536" lon="6.40076">
        <ele>743.4</ele>
        <time>2014-05-04T09:23:26Z</time>
      </trkpt>
      <trkpt lat="47.16525" lon="6.40068">
        <ele>743.3</ele>
        <time>2014-05-04T09:23:30Z</time>
      </trkpt>
      <trkpt lat="47.16515" lon="6.40061">
        <ele>743.1</ele>
        <time>2014-05-04T09:23:33Z</time>
      </trkpt>
      <trkpt lat="47.16504" lon="6.40052">
        <ele>742.9</ele>
        <time>2014-05-04T09:23:36Z</time>
      </trkpt>
      <trkpt lat="47.16495" lon="6.40044">
        <ele>742.4</ele>
        <time>2014-05-04T09:23:39Z</time>
      </trkpt>
      <trkpt lat="47.16485" lon="6.40037">
        <ele>742.5</ele>
        <time>2014-05-04T09:23:42Z</time>
      </trkpt>
      <trkpt lat="47.16476" lon="6.40029">
        <ele>743</ele>
        <time>2014-05-04T09:23:45Z</time>
      </trkpt>
      <trkpt lat="47.16465" lon="6.40022">
        <ele>742.5</ele>
        <time>2014-05-04T09:23:48Z</time>
      </trkpt>
      <trkpt lat="47.16454" lon="6.40013">
        <ele>742.3</ele>
        <time>2014-05-04T09:23:52Z</time>
      </trkpt>
      <trkpt lat="47.16433" lon="6.4">
        <ele>742.1</ele>
        <time>2014-05-04T09:23:58Z</time>
      </trkpt>
      <trkpt lat="47.16424" lon="6.39994">
        <ele>742.2</ele>
        <time>2014-05-04T09:24:01Z</time>
      </trkpt>
      <trkpt lat="47.16418" lon="6.39984">
        <ele>742.3</ele>
        <time>2014-05-04T09:24:06Z</time>
      </trkpt>
      <trkpt lat="47.16413" lon="6.39971">
        <ele>743.5</ele>
        <time>2014-05-04T09:24:12Z</time>
      </trkpt>
      <trkpt lat="47.16406" lon="6.39961">
        <ele>745.1</ele>
        <time>2014-05-04T09:24:18Z</time>
      </trkpt>
      <trkpt lat="47.16393" lon="6.3995">
        <ele>745.9</ele>
        <time>2014-05-04T09:24:23Z</time>
      </trkpt>
      <trkpt lat="47.16381" lon="6.39943">
        <ele>746</ele>
        <time>2014-05-04T09:24:25Z</time>
      </trkpt>
      <trkpt lat="47.16369" lon="6.39937">
        <ele>746.2</ele>
        <time>2014-05-04T09:24:29Z</time>
      </trkpt>
      <trkpt lat="47.16366" lon="6.39923">
        <ele>746.2</ele>
        <time>2014-05-04T09:24:33Z</time>
      </trkpt>
      <trkpt lat="47.16362" lon="6.39911">
        <ele>745.9</ele>
        <time>2014-05-04T09:24:37Z</time>
      </trkpt>
      <trkpt lat="47.16353" lon="6.39903">
        <ele>746</ele>
        <time>2014-05-04T09:24:41Z</time>
      </trkpt>
      <trkpt lat="47.16345" lon="6.39896">
        <ele>746.3</ele>
        <time>2014-05-04T09:24:45Z</time>
      </trkpt>
      <trkpt lat="47.16336" lon="6.3989">
        <ele>747.1</ele>
        <time>2014-05-04T09:24:49Z</time>
      </trkpt>
      <trkpt lat="47.16333" lon="6.39875">
        <ele>749.9</ele>
        <time>2014-05-04T09:25:11Z</time>
      </trkpt>
      <trkpt lat="47.16314" lon="6.39865">
        <ele>750.4</ele>
        <time>2014-05-04T09:25:19Z</time>
      </trkpt>
      <trkpt lat="47.16304" lon="6.3986">
        <ele>750.3</ele>
        <time>2014-05-04T09:25:22Z</time>
      </trkpt>
      <trkpt lat="47.16291" lon="6.39858">
        <ele>750.2</ele>
        <time>2014-05-04T09:25:25Z</time>
      </trkpt>
      <trkpt lat="47.16279" lon="6.39856">
        <ele>750.3</ele>
        <time>2014-05-04T09:25:29Z</time>
      </trkpt>
      <trkpt lat="47.16269" lon="6.39856">
        <ele>750.8</ele>
        <time>2014-05-04T09:25:34Z</time>
      </trkpt>
      <trkpt lat="47.16259" lon="6.39858">
        <ele>751.3</ele>
        <time>2014-05-04T09:25:44Z</time>
      </trkpt>
      <trkpt lat="47.16249" lon="6.39859">
        <ele>752</ele>
        <time>2014-05-04T09:25:53Z</time>
      </trkpt>
      <trkpt lat="47.1624" lon="6.39854">
        <ele>751.3</ele>
        <time>2014-05-04T09:26:07Z</time>
      </trkpt>
      <trkpt lat="47.16231" lon="6.3985">
        <ele>751.2</ele>
        <time>2014-05-04T09:26:17Z</time>
      </trkpt>
      <trkpt lat="47.16213" lon="6.39841">
        <ele>751.8</ele>
        <time>2014-05-04T09:26:45Z</time>
      </trkpt>
      <trkpt lat="47.16204" lon="6.39838">
        <ele>752.3</ele>
        <time>2014-05-04T09:26:56Z</time>
      </trkpt>
      <trkpt lat="47.16196" lon="6.39832">
        <ele>751.8</ele>
        <time>2014-05-04T09:27:03Z</time>
      </trkpt>
      <trkpt lat="47.16185" lon="6.39829">
        <ele>752.5</ele>
        <time>2014-05-04T09:27:19Z</time>
      </trkpt>
      <trkpt lat="47.16168" lon="6.39822">
        <ele>753.6</ele>
        <time>2014-05-04T09:27:40Z</time>
      </trkpt>
      <trkpt lat="47.1616" lon="6.39812">
        <ele>753.3</ele>
        <time>2014-05-04T09:27:46Z</time>
      </trkpt>
      <trkpt lat="47.16148" lon="6.39804">
        <ele>752.6</ele>
        <time>2014-05-04T09:28:10Z</time>
      </trkpt>
      <trkpt lat="47.1614" lon="6.39797">
        <ele>752.3</ele>
        <time>2014-05-04T09:28:17Z</time>
      </trkpt>
      <trkpt lat="47.16133" lon="6.3979">
        <ele>752.3</ele>
        <time>2014-05-04T09:28:24Z</time>
      </trkpt>
      <trkpt lat="47.16115" lon="6.39778">
        <ele>751</ele>
        <time>2014-05-04T09:28:40Z</time>
      </trkpt>
      <trkpt lat="47.16107" lon="6.39774">
        <ele>751.1</ele>
        <time>2014-05-04T09:28:52Z</time>
      </trkpt>
      <trkpt lat="47.16099" lon="6.39764">
        <ele>750.6</ele>
        <time>2014-05-04T09:28:58Z</time>
      </trkpt>
      <trkpt lat="47.16093" lon="6.39753">
        <ele>750.3</ele>
        <time>2014-05-04T09:29:04Z</time>
      </trkpt>
      <trkpt lat="47.16086" lon="6.39743">
        <ele>749.4</ele>
        <time>2014-05-04T09:29:13Z</time>
      </trkpt>
      <trkpt lat="47.16083" lon="6.3973">
        <ele>747.8</ele>
        <time>2014-05-04T09:29:23Z</time>
      </trkpt>
      <trkpt lat="47.1608" lon="6.39712">
        <ele>744.2</ele>
        <time>2014-05-04T09:29:50Z</time>
      </trkpt>
      <trkpt lat="47.16064" lon="6.39694">
        <ele>746.3</ele>
        <time>2014-05-04T09:30:23Z</time>
      </trkpt>
      <trkpt lat="47.16055" lon="6.39687">
        <ele>746.8</ele>
        <time>2014-05-04T09:30:29Z</time>
      </trkpt>
      <trkpt lat="47.16046" lon="6.3968">
        <ele>747.2</ele>
        <time>2014-05-04T09:30:34Z</time>
      </trkpt>
      <trkpt lat="47.16037" lon="6.39673">
        <ele>747.8</ele>
        <time>2014-05-04T09:30:38Z</time>
      </trkpt>
      <trkpt lat="47.16029" lon="6.39663">
        <ele>748.3</ele>
        <time>2014-05-04T09:30:42Z</time>
      </trkpt>
      <trkpt lat="47.1602" lon="6.39653">
        <ele>748.6</ele>
        <time>2014-05-04T09:30:46Z</time>
      </trkpt>
      <trkpt lat="47.16009" lon="6.39645">
        <ele>748.9</ele>
        <time>2014-05-04T09:30:50Z</time>
      </trkpt>
      <trkpt lat="47.15999" lon="6.39637">
        <ele>749.1</ele>
        <time>2014-05-04T09:30:53Z</time>
      </trkpt>
      <trkpt lat="47.15987" lon="6.39615">
        <ele>750.5</ele>
        <time>2014-05-04T09:31:03Z</time>
      </trkpt>
      <trkpt lat="47.15978" lon="6.39605">
        <ele>751.1</ele>
        <time>2014-05-04T09:31:08Z</time>
      </trkpt>
      <trkpt lat="47.1597" lon="6.39593">
        <ele>752.1</ele>
        <time>2014-05-04T09:31:13Z</time>
      </trkpt>
      <trkpt lat="47.15963" lon="6.39586">
        <ele>752.6</ele>
        <time>2014-05-04T09:31:17Z</time>
      </trkpt>
      <trkpt lat="47.15956" lon="6.39576">
        <ele>753.3</ele>
        <time>2014-05-04T09:31:21Z</time>
      </trkpt>
      <trkpt lat="47.15947" lon="6.39567">
        <ele>753.9</ele>
        <time>2014-05-04T09:31:26Z</time>
      </trkpt>
      <trkpt lat="47.15939" lon="6.3956">
        <ele>754.9</ele>
        <time>2014-05-04T09:31:30Z</time>
      </trkpt>
      <trkpt lat="47.15931" lon="6.39553">
        <ele>756</ele>
        <time>2014-05-04T09:31:35Z</time>
      </trkpt>
      <trkpt lat="47.15924" lon="6.39543">
        <ele>757.1</ele>
        <time>2014-05-04T09:31:42Z</time>
      </trkpt>
      <trkpt lat="47.15917" lon="6.39533">
        <ele>758.5</ele>
        <time>2014-05-04T09:31:49Z</time>
      </trkpt>
      <trkpt lat="47.15909" lon="6.39525">
        <ele>758.9</ele>
        <time>2014-05-04T09:31:53Z</time>
      </trkpt>
      <trkpt lat="47.15901" lon="6.39518">
        <ele>760.1</ele>
        <time>2014-05-04T09:31:58Z</time>
      </trkpt>
      <trkpt lat="47.15883" lon="6.39506">
        <ele>761.5</ele>
        <time>2014-05-04T09:32:09Z</time>
      </trkpt>
      <trkpt lat="47.15875" lon="6.39501">
        <ele>762.8</ele>
        <time>2014-05-04T09:32:15Z</time>
      </trkpt>
      <trkpt lat="47.15865" lon="6.39497">
        <ele>763.6</ele>
        <time>2014-05-04T09:32:20Z</time>
      </trkpt>
      <trkpt lat="47.15857" lon="6.39489">
        <ele>764.1</ele>
        <time>2014-05-04T09:32:24Z</time>
      </trkpt>
      <trkpt lat="47.15847" lon="6.39484">
        <ele>764.6</ele>
        <time>2014-05-04T09:32:28Z</time>
      </trkpt>
      <trkpt lat="47.15837" lon="6.39479">
        <ele>765.2</ele>
        <time>2014-05-04T09:32:31Z</time>
      </trkpt>
      <trkpt lat="47.15828" lon="6.39474">
        <ele>766.1</ele>
        <time>2014-05-04T09:32:36Z</time>
      </trkpt>
      <trkpt lat="47.15819" lon="6.3947">
        <ele>767.1</ele>
        <time>2014-05-04T09:32:41Z</time>
      </trkpt>
      <trkpt lat="47.1581" lon="6.39466">
        <ele>768.3</ele>
        <time>2014-05-04T09:32:48Z</time>
      </trkpt>
      <trkpt lat="47.15801" lon="6.39463">
        <ele>769.2</ele>
        <time>2014-05-04T09:32:54Z</time>
      </trkpt>
      <trkpt lat="47.1579" lon="6.3946">
        <ele>770</ele>
        <time>2014-05-04T09:32:57Z</time>
      </trkpt>
      <trkpt lat="47.15779" lon="6.39456">
        <ele>770.4</ele>
        <time>2014-05-04T09:33:01Z</time>
      </trkpt>
      <trkpt lat="47.1576" lon="6.39444">
        <ele>770.9</ele>
        <time>2014-05-04T09:33:09Z</time>
      </trkpt>
      <trkpt lat="47.15749" lon="6.39439">
        <ele>771.4</ele>
        <time>2014-05-04T09:33:13Z</time>
      </trkpt>
      <trkpt lat="47.1574" lon="6.39435">
        <ele>771.5</ele>
        <time>2014-05-04T09:33:17Z</time>
      </trkpt>
      <trkpt lat="47.15732" lon="6.39425">
        <ele>771.7</ele>
        <time>2014-05-04T09:33:21Z</time>
      </trkpt>
      <trkpt lat="47.15724" lon="6.39417">
        <ele>772</ele>
        <time>2014-05-04T09:33:25Z</time>
      </trkpt>
      <trkpt lat="47.15714" lon="6.3941">
        <ele>772.2</ele>
        <time>2014-05-04T09:33:28Z</time>
      </trkpt>
      <trkpt lat="47.15706" lon="6.39401">
        <ele>772.5</ele>
        <time>2014-05-04T09:33:31Z</time>
      </trkpt>
      <trkpt lat="47.15698" lon="6.39393">
        <ele>773</ele>
        <time>2014-05-04T09:33:34Z</time>
      </trkpt>
      <trkpt lat="47.1569" lon="6.39386">
        <ele>773.3</ele>
        <time>2014-05-04T09:33:37Z</time>
      </trkpt>
      <trkpt lat="47.1568" lon="6.39379">
        <ele>773.4</ele>
        <time>2014-05-04T09:33:40Z</time>
      </trkpt>
      <trkpt lat="47.15672" lon="6.39373">
        <ele>773.5</ele>
        <time>2014-05-04T09:33:43Z</time>
      </trkpt>
      <trkpt lat="47.15663" lon="6.39368">
        <ele>773.5</ele>
        <time>2014-05-04T09:33:46Z</time>
      </trkpt>
      <trkpt lat="47.15653" lon="6.39361">
        <ele>773.7</ele>
        <time>2014-05-04T09:33:50Z</time>
      </trkpt>
      <trkpt lat="47.15648" lon="6.39349">
        <ele>772.2</ele>
        <time>2014-05-04T09:33:57Z</time>
      </trkpt>
      <trkpt lat="47.15651" lon="6.39334">
        <ele>769.6</ele>
        <time>2014-05-04T09:34:02Z</time>
      </trkpt>
      <trkpt lat="47.15657" lon="6.39321">
        <ele>767.9</ele>
        <time>2014-05-04T09:34:06Z</time>
      </trkpt>
      <trkpt lat="47.15668" lon="6.39294">
        <ele>764.6</ele>
        <time>2014-05-04T09:34:17Z</time>
      </trkpt>
      <trkpt lat="47.15675" lon="6.39282">
        <ele>763.8</ele>
        <time>2014-05-04T09:34:22Z</time>
      </trkpt>
      <trkpt lat="47.1568" lon="6.3927">
        <ele>762.1</ele>
        <time>2014-05-04T09:34:27Z</time>
      </trkpt>
      <trkpt lat="47.15685" lon="6.39254">
        <ele>760.8</ele>
        <time>2014-05-04T09:34:31Z</time>
      </trkpt>
      <trkpt lat="47.1569" lon="6.39241">
        <ele>759.4</ele>
        <time>2014-05-04T09:34:34Z</time>
      </trkpt>
      <trkpt lat="47.15697" lon="6.39227">
        <ele>758.1</ele>
        <time>2014-05-04T09:34:37Z</time>
      </trkpt>
      <trkpt lat="47.15704" lon="6.39214">
        <ele>755.9</ele>
        <time>2014-05-04T09:34:40Z</time>
      </trkpt>
      <trkpt lat="47.15709" lon="6.39202">
        <ele>754.2</ele>
        <time>2014-05-04T09:34:43Z</time>
      </trkpt>
      <trkpt lat="47.15714" lon="6.39191">
        <ele>752.7</ele>
        <time>2014-05-04T09:34:46Z</time>
      </trkpt>
      <trkpt lat="47.1572" lon="6.39177">
        <ele>750.9</ele>
        <time>2014-05-04T09:34:50Z</time>
      </trkpt>
      <trkpt lat="47.15724" lon="6.39164">
        <ele>749</ele>
        <time>2014-05-04T09:34:54Z</time>
      </trkpt>
      <trkpt lat="47.1573" lon="6.39151">
        <ele>747.8</ele>
        <time>2014-05-04T09:34:58Z</time>
      </trkpt>
      <trkpt lat="47.15736" lon="6.3914">
        <ele>746.5</ele>
        <time>2014-05-04T09:35:02Z</time>
      </trkpt>
      <trkpt lat="47.15728" lon="6.39131">
        <ele>745.7</ele>
        <time>2014-05-04T09:35:09Z</time>
      </trkpt>
      <trkpt lat="47.15719" lon="6.39104">
        <ele>745.2</ele>
        <time>2014-05-04T09:35:18Z</time>
      </trkpt>
      <trkpt lat="47.15712" lon="6.39092">
        <ele>744.7</ele>
        <time>2014-05-04T09:35:23Z</time>
      </trkpt>
      <trkpt lat="47.15704" lon="6.39083">
        <ele>745.7</ele>
        <time>2014-05-04T09:35:28Z</time>
      </trkpt>
      <trkpt lat="47.15696" lon="6.39074">
        <ele>744.6</ele>
        <time>2014-05-04T09:35:31Z</time>
      </trkpt>
      <trkpt lat="47.15688" lon="6.39068">
        <ele>744.1</ele>
        <time>2014-05-04T09:35:35Z</time>
      </trkpt>
      <trkpt lat="47.15679" lon="6.39058">
        <ele>743.4</ele>
        <time>2014-05-04T09:35:39Z</time>
      </trkpt>
      <trkpt lat="47.15671" lon="6.39046">
        <ele>743.2</ele>
        <time>2014-05-04T09:35:44Z</time>
      </trkpt>
      <trkpt lat="47.15663" lon="6.39037">
        <ele>743.1</ele>
        <time>2014-05-04T09:35:48Z</time>
      </trkpt>
      <trkpt lat="47.15655" lon="6.3903">
        <ele>743.3</ele>
        <time>2014-05-04T09:35:52Z</time>
      </trkpt>
      <trkpt lat="47.15647" lon="6.39021">
        <ele>743.1</ele>
        <time>2014-05-04T09:35:57Z</time>
      </trkpt>
      <trkpt lat="47.15639" lon="6.39012">
        <ele>743.4</ele>
        <time>2014-05-04T09:36:02Z</time>
      </trkpt>
      <trkpt lat="47.15631" lon="6.39003">
        <ele>743</ele>
        <time>2014-05-04T09:36:09Z</time>
      </trkpt>
      <trkpt lat="47.15623" lon="6.38994">
        <ele>742.3</ele>
        <time>2014-05-04T09:36:14Z</time>
      </trkpt>
      <trkpt lat="47.15606" lon="6.38981">
        <ele>742.4</ele>
        <time>2014-05-04T09:36:25Z</time>
      </trkpt>
      <trkpt lat="47.156" lon="6.38969">
        <ele>742.2</ele>
        <time>2014-05-04T09:36:30Z</time>
      </trkpt>
      <trkpt lat="47.15594" lon="6.38959">
        <ele>741.8</ele>
        <time>2014-05-04T09:36:33Z</time>
      </trkpt>
      <trkpt lat="47.15586" lon="6.3895">
        <ele>741.6</ele>
        <time>2014-05-04T09:36:36Z</time>
      </trkpt>
      <trkpt lat="47.15579" lon="6.38942">
        <ele>741.2</ele>
        <time>2014-05-04T09:36:39Z</time>
      </trkpt>
      <trkpt lat="47.15572" lon="6.38932">
        <ele>740.7</ele>
        <time>2014-05-04T09:36:42Z</time>
      </trkpt>
      <trkpt lat="47.15564" lon="6.38923">
        <ele>740.2</ele>
        <time>2014-05-04T09:36:46Z</time>
      </trkpt>
      <trkpt lat="47.15555" lon="6.38915">
        <ele>739.9</ele>
        <time>2014-05-04T09:36:50Z</time>
      </trkpt>
      <trkpt lat="47.15546" lon="6.38907">
        <ele>739.5</ele>
        <time>2014-05-04T09:36:54Z</time>
      </trkpt>
      <trkpt lat="47.15538" lon="6.38896">
        <ele>738.4</ele>
        <time>2014-05-04T09:36:59Z</time>
      </trkpt>
      <trkpt lat="47.15531" lon="6.38885">
        <ele>738.1</ele>
        <time>2014-05-04T09:37:04Z</time>
      </trkpt>
      <trkpt lat="47.15523" lon="6.38878">
        <ele>737.7</ele>
        <time>2014-05-04T09:37:09Z</time>
      </trkpt>
      <trkpt lat="47.15513" lon="6.3888">
        <ele>737.9</ele>
        <time>2014-05-04T09:37:19Z</time>
      </trkpt>
      <trkpt lat="47.15499" lon="6.38899">
        <ele>739.5</ele>
        <time>2014-05-04T09:37:39Z</time>
      </trkpt>
      <trkpt lat="47.15495" lon="6.38911">
        <ele>740.7</ele>
        <time>2014-05-04T09:37:50Z</time>
      </trkpt>
      <trkpt lat="47.15489" lon="6.38923">
        <ele>742.7</ele>
        <time>2014-05-04T09:37:59Z</time>
      </trkpt>
      <trkpt lat="47.15485" lon="6.38936">
        <ele>744.5</ele>
        <time>2014-05-04T09:38:09Z</time>
      </trkpt>
      <trkpt lat="47.1548" lon="6.38949">
        <ele>745.7</ele>
        <time>2014-05-04T09:38:17Z</time>
      </trkpt>
      <trkpt lat="47.15474" lon="6.38958">
        <ele>747.1</ele>
        <time>2014-05-04T09:38:28Z</time>
      </trkpt>
      <trkpt lat="47.15459" lon="6.38967">
        <ele>748.5</ele>
        <time>2014-05-04T09:39:06Z</time>
      </trkpt>
      <trkpt lat="47.15452" lon="6.38955">
        <ele>747.2</ele>
        <time>2014-05-04T09:39:12Z</time>
      </trkpt>
      <trkpt lat="47.15444" lon="6.38944">
        <ele>746.6</ele>
        <time>2014-05-04T09:39:18Z</time>
      </trkpt>
      <trkpt lat="47.15437" lon="6.38934">
        <ele>746.1</ele>
        <time>2014-05-04T09:39:22Z</time>
      </trkpt>
      <trkpt lat="47.15431" lon="6.38922">
        <ele>745.8</ele>
        <time>2014-05-04T09:39:26Z</time>
      </trkpt>
      <trkpt lat="47.15424" lon="6.38911">
        <ele>745.3</ele>
        <time>2014-05-04T09:39:29Z</time>
      </trkpt>
      <trkpt lat="47.15418" lon="6.389">
        <ele>744</ele>
        <time>2014-05-04T09:39:32Z</time>
      </trkpt>
      <trkpt lat="47.15402" lon="6.38878">
        <ele>744</ele>
        <time>2014-05-04T09:39:39Z</time>
      </trkpt>
      <trkpt lat="47.15394" lon="6.38864">
        <ele>743.3</ele>
        <time>2014-05-04T09:39:42Z</time>
      </trkpt>
      <trkpt lat="47.15388" lon="6.38851">
        <ele>742.6</ele>
        <time>2014-05-04T09:39:45Z</time>
      </trkpt>
      <trkpt lat="47.15381" lon="6.38841">
        <ele>741.8</ele>
        <time>2014-05-04T09:39:48Z</time>
      </trkpt>
      <trkpt lat="47.15376" lon="6.38831">
        <ele>741.5</ele>
        <time>2014-05-04T09:39:51Z</time>
      </trkpt>
      <trkpt lat="47.15369" lon="6.3882">
        <ele>740.2</ele>
        <time>2014-05-04T09:39:54Z</time>
      </trkpt>
      <trkpt lat="47.15363" lon="6.38809">
        <ele>740</ele>
        <time>2014-05-04T09:39:57Z</time>
      </trkpt>
      <trkpt lat="47.15355" lon="6.38796">
        <ele>738.6</ele>
        <time>2014-05-04T09:40:01Z</time>
      </trkpt>
      <trkpt lat="47.15346" lon="6.38785">
        <ele>738.3</ele>
        <time>2014-05-04T09:40:05Z</time>
      </trkpt>
      <trkpt lat="47.15339" lon="6.38773">
        <ele>738.3</ele>
        <time>2014-05-04T09:40:08Z</time>
      </trkpt>
      <trkpt lat="47.15333" lon="6.38764">
        <ele>738.1</ele>
        <time>2014-05-04T09:40:11Z</time>
      </trkpt>
      <trkpt lat="47.15325" lon="6.38751">
        <ele>737.8</ele>
        <time>2014-05-04T09:40:15Z</time>
      </trkpt>
      <trkpt lat="47.15319" lon="6.3874">
        <ele>736.8</ele>
        <time>2014-05-04T09:40:18Z</time>
      </trkpt>
      <trkpt lat="47.1531" lon="6.38731">
        <ele>736.2</ele>
        <time>2014-05-04T09:40:22Z</time>
      </trkpt>
      <trkpt lat="47.15302" lon="6.38723">
        <ele>736.6</ele>
        <time>2014-05-04T09:40:28Z</time>
      </trkpt>
      <trkpt lat="47.15295" lon="6.38715">
        <ele>736.9</ele>
        <time>2014-05-04T09:40:33Z</time>
      </trkpt>
      <trkpt lat="47.15293" lon="6.38701">
        <ele>732.1</ele>
        <time>2014-05-04T09:40:57Z</time>
      </trkpt>
      <trkpt lat="47.15302" lon="6.38693">
        <ele>730.1</ele>
        <time>2014-05-04T09:41:02Z</time>
      </trkpt>
      <trkpt lat="47.15311" lon="6.38684">
        <ele>728.5</ele>
        <time>2014-05-04T09:41:06Z</time>
      </trkpt>
      <trkpt lat="47.15318" lon="6.38672">
        <ele>726.9</ele>
        <time>2014-05-04T09:41:09Z</time>
      </trkpt>
      <trkpt lat="47.15323" lon="6.38661">
        <ele>725.8</ele>
        <time>2014-05-04T09:41:12Z</time>
      </trkpt>
      <trkpt lat="47.1533" lon="6.38652">
        <ele>725.1</ele>
        <time>2014-05-04T09:41:15Z</time>
      </trkpt>
      <trkpt lat="47.15338" lon="6.38643">
        <ele>723.8</ele>
        <time>2014-05-04T09:41:18Z</time>
      </trkpt>
      <trkpt lat="47.15346" lon="6.38635">
        <ele>722.4</ele>
        <time>2014-05-04T09:41:21Z</time>
      </trkpt>
      <trkpt lat="47.15354" lon="6.38624">
        <ele>721.2</ele>
        <time>2014-05-04T09:41:25Z</time>
      </trkpt>
      <trkpt lat="47.15359" lon="6.3861">
        <ele>720.4</ele>
        <time>2014-05-04T09:41:29Z</time>
      </trkpt>
      <trkpt lat="47.15364" lon="6.38595">
        <ele>719.5</ele>
        <time>2014-05-04T09:41:32Z</time>
      </trkpt>
      <trkpt lat="47.15365" lon="6.38576">
        <ele>718.6</ele>
        <time>2014-05-04T09:41:35Z</time>
      </trkpt>
      <trkpt lat="47.15361" lon="6.38547">
        <ele>717.4</ele>
        <time>2014-05-04T09:41:39Z</time>
      </trkpt>
      <trkpt lat="47.15363" lon="6.3853">
        <ele>716.9</ele>
        <time>2014-05-04T09:41:41Z</time>
      </trkpt>
      <trkpt lat="47.15358" lon="6.38517">
        <ele>716.4</ele>
        <time>2014-05-04T09:41:43Z</time>
      </trkpt>
      <trkpt lat="47.15351" lon="6.38506">
        <ele>716.1</ele>
        <time>2014-05-04T09:41:45Z</time>
      </trkpt>
      <trkpt lat="47.15344" lon="6.38494">
        <ele>715.9</ele>
        <time>2014-05-04T09:41:47Z</time>
      </trkpt>
      <trkpt lat="47.15336" lon="6.38482">
        <ele>715.5</ele>
        <time>2014-05-04T09:41:49Z</time>
      </trkpt>
      <trkpt lat="47.15328" lon="6.38469">
        <ele>715.1</ele>
        <time>2014-05-04T09:41:51Z</time>
      </trkpt>
      <trkpt lat="47.15319" lon="6.38457">
        <ele>714.9</ele>
        <time>2014-05-04T09:41:53Z</time>
      </trkpt>
      <trkpt lat="47.1531" lon="6.38445">
        <ele>715</ele>
        <time>2014-05-04T09:41:55Z</time>
      </trkpt>
      <trkpt lat="47.15301" lon="6.38433">
        <ele>714.7</ele>
        <time>2014-05-04T09:41:57Z</time>
      </trkpt>
      <trkpt lat="47.15293" lon="6.38421">
        <ele>714.4</ele>
        <time>2014-05-04T09:41:59Z</time>
      </trkpt>
      <trkpt lat="47.15285" lon="6.38411">
        <ele>714.2</ele>
        <time>2014-05-04T09:42:01Z</time>
      </trkpt>
      <trkpt lat="47.15278" lon="6.38402">
        <ele>714.3</ele>
        <time>2014-05-04T09:42:03Z</time>
      </trkpt>
      <trkpt lat="47.15269" lon="6.38389">
        <ele>714.7</ele>
        <time>2014-05-04T09:42:06Z</time>
      </trkpt>
      <trkpt lat="47.15263" lon="6.38373">
        <ele>714.2</ele>
        <time>2014-05-04T09:42:09Z</time>
      </trkpt>
      <trkpt lat="47.15264" lon="6.38359">
        <ele>713.9</ele>
        <time>2014-05-04T09:42:11Z</time>
      </trkpt>
      <trkpt lat="47.15269" lon="6.38342">
        <ele>712.5</ele>
        <time>2014-05-04T09:42:14Z</time>
      </trkpt>
      <trkpt lat="47.15277" lon="6.38334">
        <ele>710.8</ele>
        <time>2014-05-04T09:42:17Z</time>
      </trkpt>
      <trkpt lat="47.15286" lon="6.38324">
        <ele>708.6</ele>
        <time>2014-05-04T09:42:21Z</time>
      </trkpt>
      <trkpt lat="47.15297" lon="6.38324">
        <ele>707.5</ele>
        <time>2014-05-04T09:42:25Z</time>
      </trkpt>
      <trkpt lat="47.15305" lon="6.38332">
        <ele>707.4</ele>
        <time>2014-05-04T09:42:28Z</time>
      </trkpt>
      <trkpt lat="47.15315" lon="6.38342">
        <ele>707</ele>
        <time>2014-05-04T09:42:31Z</time>
      </trkpt>
      <trkpt lat="47.15325" lon="6.38352">
        <ele>707.3</ele>
        <time>2014-05-04T09:42:34Z</time>
      </trkpt>
      <trkpt lat="47.15336" lon="6.38361">
        <ele>707.7</ele>
        <time>2014-05-04T09:42:37Z</time>
      </trkpt>
      <trkpt lat="47.15359" lon="6.3838">
        <ele>708</ele>
        <time>2014-05-04T09:42:43Z</time>
      </trkpt>
      <trkpt lat="47.1537" lon="6.38388">
        <ele>708.4</ele>
        <time>2014-05-04T09:42:46Z</time>
      </trkpt>
      <trkpt lat="47.15381" lon="6.38396">
        <ele>709.1</ele>
        <time>2014-05-04T09:42:49Z</time>
      </trkpt>
      <trkpt lat="47.15392" lon="6.38404">
        <ele>708.9</ele>
        <time>2014-05-04T09:42:52Z</time>
      </trkpt>
      <trkpt lat="47.15403" lon="6.38412">
        <ele>708.2</ele>
        <time>2014-05-04T09:42:55Z</time>
      </trkpt>
      <trkpt lat="47.15412" lon="6.38418">
        <ele>707.3</ele>
        <time>2014-05-04T09:42:57Z</time>
      </trkpt>
      <trkpt lat="47.15421" lon="6.38424">
        <ele>706.7</ele>
        <time>2014-05-04T09:42:59Z</time>
      </trkpt>
      <trkpt lat="47.15431" lon="6.38429">
        <ele>706.1</ele>
        <time>2014-05-04T09:43:01Z</time>
      </trkpt>
      <trkpt lat="47.15442" lon="6.38434">
        <ele>706</ele>
        <time>2014-05-04T09:43:03Z</time>
      </trkpt>
      <trkpt lat="47.15453" lon="6.38437">
        <ele>705.6</ele>
        <time>2014-05-04T09:43:05Z</time>
      </trkpt>
      <trkpt lat="47.15466" lon="6.38439">
        <ele>705</ele>
        <time>2014-05-04T09:43:07Z</time>
      </trkpt>
      <trkpt lat="47.15478" lon="6.38442">
        <ele>704.2</ele>
        <time>2014-05-04T09:43:09Z</time>
      </trkpt>
      <trkpt lat="47.15492" lon="6.38444">
        <ele>703.4</ele>
        <time>2014-05-04T09:43:11Z</time>
      </trkpt>
      <trkpt lat="47.15505" lon="6.38446">
        <ele>702.8</ele>
        <time>2014-05-04T09:43:13Z</time>
      </trkpt>
      <trkpt lat="47.1552" lon="6.38448">
        <ele>702</ele>
        <time>2014-05-04T09:43:15Z</time>
      </trkpt>
      <trkpt lat="47.15535" lon="6.38451">
        <ele>701.2</ele>
        <time>2014-05-04T09:43:17Z</time>
      </trkpt>
      <trkpt lat="47.1555" lon="6.38454">
        <ele>700.6</ele>
        <time>2014-05-04T09:43:19Z</time>
      </trkpt>
      <trkpt lat="47.15564" lon="6.38456">
        <ele>699.6</ele>
        <time>2014-05-04T09:43:21Z</time>
      </trkpt>
      <trkpt lat="47.15577" lon="6.38459">
        <ele>699</ele>
        <time>2014-05-04T09:43:23Z</time>
      </trkpt>
      <trkpt lat="47.15593" lon="6.38464">
        <ele>698.6</ele>
        <time>2014-05-04T09:43:25Z</time>
      </trkpt>
      <trkpt lat="47.15607" lon="6.38469">
        <ele>697.9</ele>
        <time>2014-05-04T09:43:27Z</time>
      </trkpt>
      <trkpt lat="47.15623" lon="6.38471">
        <ele>697.3</ele>
        <time>2014-05-04T09:43:29Z</time>
      </trkpt>
      <trkpt lat="47.15637" lon="6.38475">
        <ele>696.8</ele>
        <time>2014-05-04T09:43:31Z</time>
      </trkpt>
      <trkpt lat="47.15651" lon="6.38479">
        <ele>696.4</ele>
        <time>2014-05-04T09:43:33Z</time>
      </trkpt>
      <trkpt lat="47.15665" lon="6.38482">
        <ele>696</ele>
        <time>2014-05-04T09:43:35Z</time>
      </trkpt>
      <trkpt lat="47.15677" lon="6.38484">
        <ele>695.5</ele>
        <time>2014-05-04T09:43:37Z</time>
      </trkpt>
      <trkpt lat="47.15687" lon="6.38487">
        <ele>695</ele>
        <time>2014-05-04T09:43:39Z</time>
      </trkpt>
      <trkpt lat="47.15707" lon="6.38498">
        <ele>693</ele>
        <time>2014-05-04T09:43:45Z</time>
      </trkpt>
      <trkpt lat="47.15718" lon="6.38494">
        <ele>692.1</ele>
        <time>2014-05-04T09:43:49Z</time>
      </trkpt>
      <trkpt lat="47.15721" lon="6.3848">
        <ele>691.3</ele>
        <time>2014-05-04T09:43:54Z</time>
      </trkpt>
      <trkpt lat="47.15718" lon="6.38465">
        <ele>690.7</ele>
        <time>2014-05-04T09:43:57Z</time>
      </trkpt>
      <trkpt lat="47.15717" lon="6.3845">
        <ele>690.3</ele>
        <time>2014-05-04T09:44:00Z</time>
      </trkpt>
      <trkpt lat="47.15713" lon="6.38434">
        <ele>689.7</ele>
        <time>2014-05-04T09:44:04Z</time>
      </trkpt>
      <trkpt lat="47.1571" lon="6.38421">
        <ele>689</ele>
        <time>2014-05-04T09:44:07Z</time>
      </trkpt>
      <trkpt lat="47.15704" lon="6.38408">
        <ele>688.4</ele>
        <time>2014-05-04T09:44:11Z</time>
      </trkpt>
      <trkpt lat="47.15698" lon="6.38395">
        <ele>688.3</ele>
        <time>2014-05-04T09:44:15Z</time>
      </trkpt>
      <trkpt lat="47.15692" lon="6.38382">
        <ele>687.8</ele>
        <time>2014-05-04T09:44:20Z</time>
      </trkpt>
      <trkpt lat="47.15687" lon="6.3837">
        <ele>687.8</ele>
        <time>2014-05-04T09:44:25Z</time>
      </trkpt>
      <trkpt lat="47.15681" lon="6.38357">
        <ele>687.3</ele>
        <time>2014-05-04T09:44:31Z</time>
      </trkpt>
      <trkpt lat="47.15675" lon="6.38347">
        <ele>687.2</ele>
        <time>2014-05-04T09:44:35Z</time>
      </trkpt>
      <trkpt lat="47.15669" lon="6.38332">
        <ele>687.1</ele>
        <time>2014-05-04T09:44:39Z</time>
      </trkpt>
      <trkpt lat="47.15663" lon="6.38319">
        <ele>686.5</ele>
        <time>2014-05-04T09:44:43Z</time>
      </trkpt>
      <trkpt lat="47.15649" lon="6.38296">
        <ele>686.6</ele>
        <time>2014-05-04T09:44:52Z</time>
      </trkpt>
      <trkpt lat="47.15641" lon="6.38284">
        <ele>686.4</ele>
        <time>2014-05-04T09:44:56Z</time>
      </trkpt>
      <trkpt lat="47.15633" lon="6.38275">
        <ele>686</ele>
        <time>2014-05-04T09:44:59Z</time>
      </trkpt>
      <trkpt lat="47.15624" lon="6.38264">
        <ele>685.8</ele>
        <time>2014-05-04T09:45:04Z</time>
      </trkpt>
      <trkpt lat="47.15617" lon="6.38255">
        <ele>685.7</ele>
        <time>2014-05-04T09:45:10Z</time>
      </trkpt>
      <trkpt lat="47.15611" lon="6.38246">
        <ele>685.6</ele>
        <time>2014-05-04T09:45:16Z</time>
      </trkpt>
      <trkpt lat="47.15604" lon="6.38235">
        <ele>686.1</ele>
        <time>2014-05-04T09:45:22Z</time>
      </trkpt>
      <trkpt lat="47.15597" lon="6.38224">
        <ele>687.1</ele>
        <time>2014-05-04T09:45:29Z</time>
      </trkpt>
      <trkpt lat="47.15591" lon="6.38213">
        <ele>687.2</ele>
        <time>2014-05-04T09:45:34Z</time>
      </trkpt>
      <trkpt lat="47.15586" lon="6.38201">
        <ele>687.2</ele>
        <time>2014-05-04T09:45:40Z</time>
      </trkpt>
      <trkpt lat="47.15579" lon="6.38191">
        <ele>688.3</ele>
        <time>2014-05-04T09:45:46Z</time>
      </trkpt>
      <trkpt lat="47.15566" lon="6.38171">
        <ele>689.2</ele>
        <time>2014-05-04T09:46:01Z</time>
      </trkpt>
      <trkpt lat="47.15556" lon="6.38169">
        <ele>688.8</ele>
        <time>2014-05-04T09:46:09Z</time>
      </trkpt>
      <trkpt lat="47.15549" lon="6.38159">
        <ele>689.1</ele>
        <time>2014-05-04T09:46:19Z</time>
      </trkpt>
      <trkpt lat="47.15546" lon="6.38147">
        <ele>689.8</ele>
        <time>2014-05-04T09:46:26Z</time>
      </trkpt>
      <trkpt lat="47.15538" lon="6.38138">
        <ele>690.3</ele>
        <time>2014-05-04T09:46:43Z</time>
      </trkpt>
      <trkpt lat="47.15528" lon="6.38132">
        <ele>689.4</ele>
        <time>2014-05-04T09:46:53Z</time>
      </trkpt>
      <trkpt lat="47.15518" lon="6.38107">
        <ele>689.4</ele>
        <time>2014-05-04T09:47:29Z</time>
      </trkpt>
      <trkpt lat="47.15513" lon="6.38095">
        <ele>689.1</ele>
        <time>2014-05-04T09:47:41Z</time>
      </trkpt>
      <trkpt lat="47.15507" lon="6.38084">
        <ele>688.9</ele>
        <time>2014-05-04T09:47:57Z</time>
      </trkpt>
      <trkpt lat="47.15493" lon="6.38066">
        <ele>688.7</ele>
        <time>2014-05-04T09:48:19Z</time>
      </trkpt>
      <trkpt lat="47.1549" lon="6.38051">
        <ele>688.3</ele>
        <time>2014-05-04T09:48:26Z</time>
      </trkpt>
      <trkpt lat="47.15484" lon="6.38037">
        <ele>687.8</ele>
        <time>2014-05-04T09:48:31Z</time>
      </trkpt>
      <trkpt lat="47.15477" lon="6.38023">
        <ele>687.9</ele>
        <time>2014-05-04T09:48:35Z</time>
      </trkpt>
      <trkpt lat="47.15471" lon="6.38011">
        <ele>687.9</ele>
        <time>2014-05-04T09:48:40Z</time>
      </trkpt>
      <trkpt lat="47.15471" lon="6.37998">
        <ele>687.7</ele>
        <time>2014-05-04T09:48:44Z</time>
      </trkpt>
      <trkpt lat="47.15474" lon="6.37985">
        <ele>687.5</ele>
        <time>2014-05-04T09:48:49Z</time>
      </trkpt>
      <trkpt lat="47.1547" lon="6.3797">
        <ele>687</ele>
        <time>2014-05-04T09:48:53Z</time>
      </trkpt>
      <trkpt lat="47.15465" lon="6.37956">
        <ele>687</ele>
        <time>2014-05-04T09:48:56Z</time>
      </trkpt>
      <trkpt lat="47.15458" lon="6.37941">
        <ele>687.3</ele>
        <time>2014-05-04T09:48:59Z</time>
      </trkpt>
      <trkpt lat="47.15445" lon="6.37911">
        <ele>686.5</ele>
        <time>2014-05-04T09:49:05Z</time>
      </trkpt>
      <trkpt lat="47.15437" lon="6.37896">
        <ele>685.6</ele>
        <time>2014-05-04T09:49:08Z</time>
      </trkpt>
      <trkpt lat="47.15429" lon="6.37881">
        <ele>685</ele>
        <time>2014-05-04T09:49:11Z</time>
      </trkpt>
      <trkpt lat="47.15422" lon="6.37869">
        <ele>684</ele>
        <time>2014-05-04T09:49:14Z</time>
      </trkpt>
      <trkpt lat="47.15415" lon="6.37857">
        <ele>682.9</ele>
        <time>2014-05-04T09:49:17Z</time>
      </trkpt>
      <trkpt lat="47.15409" lon="6.37846">
        <ele>682.1</ele>
        <time>2014-05-04T09:49:20Z</time>
      </trkpt>
      <trkpt lat="47.15402" lon="6.37831">
        <ele>680.3</ele>
        <time>2014-05-04T09:49:24Z</time>
      </trkpt>
      <trkpt lat="47.15396" lon="6.37818">
        <ele>679.1</ele>
        <time>2014-05-04T09:49:27Z</time>
      </trkpt>
      <trkpt lat="47.1539" lon="6.37807">
        <ele>678.1</ele>
        <time>2014-05-04T09:49:31Z</time>
      </trkpt>
      <trkpt lat="47.15383" lon="6.37795">
        <ele>677.3</ele>
        <time>2014-05-04T09:49:35Z</time>
      </trkpt>
      <trkpt lat="47.15377" lon="6.37784">
        <ele>676.5</ele>
        <time>2014-05-04T09:49:39Z</time>
      </trkpt>
      <trkpt lat="47.15373" lon="6.37771">
        <ele>675.3</ele>
        <time>2014-05-04T09:49:45Z</time>
      </trkpt>
      <trkpt lat="47.15371" lon="6.37758">
        <ele>674.6</ele>
        <time>2014-05-04T09:49:51Z</time>
      </trkpt>
      <trkpt lat="47.15369" lon="6.37744">
        <ele>674.4</ele>
        <time>2014-05-04T09:49:55Z</time>
      </trkpt>
      <trkpt lat="47.15367" lon="6.37731">
        <ele>673.6</ele>
        <time>2014-05-04T09:50:00Z</time>
      </trkpt>
      <trkpt lat="47.1537" lon="6.37701">
        <ele>671.7</ele>
        <time>2014-05-04T09:50:12Z</time>
      </trkpt>
      <trkpt lat="47.15375" lon="6.37688">
        <ele>671.6</ele>
        <time>2014-05-04T09:50:16Z</time>
      </trkpt>
      <trkpt lat="47.15381" lon="6.37676">
        <ele>670.3</ele>
        <time>2014-05-04T09:50:20Z</time>
      </trkpt>
      <trkpt lat="47.15387" lon="6.37664">
        <ele>669.1</ele>
        <time>2014-05-04T09:50:24Z</time>
      </trkpt>
      <trkpt lat="47.15392" lon="6.37652">
        <ele>668.8</ele>
        <time>2014-05-04T09:50:28Z</time>
      </trkpt>
      <trkpt lat="47.15399" lon="6.37645">
        <ele>668.5</ele>
        <time>2014-05-04T09:50:32Z</time>
      </trkpt>
      <trkpt lat="47.15406" lon="6.37635">
        <ele>668.1</ele>
        <time>2014-05-04T09:50:37Z</time>
      </trkpt>
      <trkpt lat="47.15413" lon="6.37624">
        <ele>667.5</ele>
        <time>2014-05-04T09:50:42Z</time>
      </trkpt>
      <trkpt lat="47.15419" lon="6.37614">
        <ele>667</ele>
        <time>2014-05-04T09:50:48Z</time>
      </trkpt>
      <trkpt lat="47.15427" lon="6.37607">
        <ele>666</ele>
        <time>2014-05-04T09:50:58Z</time>
      </trkpt>
      <trkpt lat="47.15436" lon="6.37595">
        <ele>664.4</ele>
        <time>2014-05-04T09:51:24Z</time>
      </trkpt>
      <trkpt lat="47.15452" lon="6.37575">
        <ele>663.3</ele>
        <time>2014-05-04T09:51:32Z</time>
      </trkpt>
      <trkpt lat="47.15463" lon="6.37567">
        <ele>663.1</ele>
        <time>2014-05-04T09:51:35Z</time>
      </trkpt>
      <trkpt lat="47.1547" lon="6.37558">
        <ele>662.9</ele>
        <time>2014-05-04T09:51:37Z</time>
      </trkpt>
      <trkpt lat="47.15476" lon="6.37546">
        <ele>662.1</ele>
        <time>2014-05-04T09:51:41Z</time>
      </trkpt>
      <trkpt lat="47.15485" lon="6.37537">
        <ele>661.2</ele>
        <time>2014-05-04T09:51:45Z</time>
      </trkpt>
      <trkpt lat="47.15493" lon="6.37526">
        <ele>660.5</ele>
        <time>2014-05-04T09:51:55Z</time>
      </trkpt>
      <trkpt lat="47.15504" lon="6.37524">
        <ele>660</ele>
        <time>2014-05-04T09:52:01Z</time>
      </trkpt>
      <trkpt lat="47.15515" lon="6.37516">
        <ele>659.2</ele>
        <time>2014-05-04T09:52:06Z</time>
      </trkpt>
      <trkpt lat="47.15524" lon="6.37508">
        <ele>659.1</ele>
        <time>2014-05-04T09:52:11Z</time>
      </trkpt>
      <trkpt lat="47.15532" lon="6.37503">
        <ele>657.3</ele>
        <time>2014-05-04T09:52:21Z</time>
      </trkpt>
      <trkpt lat="47.1554" lon="6.37495">
        <ele>657.4</ele>
        <time>2014-05-04T09:52:29Z</time>
      </trkpt>
      <trkpt lat="47.15556" lon="6.37473">
        <ele>656.6</ele>
        <time>2014-05-04T09:52:44Z</time>
      </trkpt>
      <trkpt lat="47.15564" lon="6.3746">
        <ele>656.5</ele>
        <time>2014-05-04T09:52:47Z</time>
      </trkpt>
      <trkpt lat="47.15573" lon="6.37449">
        <ele>655.6</ele>
        <time>2014-05-04T09:52:50Z</time>
      </trkpt>
      <trkpt lat="47.15583" lon="6.37439">
        <ele>655</ele>
        <time>2014-05-04T09:52:53Z</time>
      </trkpt>
      <trkpt lat="47.15591" lon="6.37428">
        <ele>655.2</ele>
        <time>2014-05-04T09:52:56Z</time>
      </trkpt>
      <trkpt lat="47.15597" lon="6.37416">
        <ele>654.8</ele>
        <time>2014-05-04T09:52:59Z</time>
      </trkpt>
      <trkpt lat="47.15608" lon="6.3741">
        <ele>654.5</ele>
        <time>2014-05-04T09:53:03Z</time>
      </trkpt>
      <trkpt lat="47.15619" lon="6.37412">
        <ele>654.5</ele>
        <time>2014-05-04T09:53:06Z</time>
      </trkpt>
      <trkpt lat="47.1563" lon="6.37415">
        <ele>654.6</ele>
        <time>2014-05-04T09:53:09Z</time>
      </trkpt>
      <trkpt lat="47.15641" lon="6.37418">
        <ele>654.6</ele>
        <time>2014-05-04T09:53:12Z</time>
      </trkpt>
      <trkpt lat="47.15651" lon="6.37421">
        <ele>654.5</ele>
        <time>2014-05-04T09:53:14Z</time>
      </trkpt>
      <trkpt lat="47.15664" lon="6.37424">
        <ele>654.6</ele>
        <time>2014-05-04T09:53:17Z</time>
      </trkpt>
      <trkpt lat="47.15674" lon="6.37424">
        <ele>654.5</ele>
        <time>2014-05-04T09:53:19Z</time>
      </trkpt>
      <trkpt lat="47.15684" lon="6.37425">
        <ele>654.2</ele>
        <time>2014-05-04T09:53:21Z</time>
      </trkpt>
      <trkpt lat="47.15694" lon="6.37427">
        <ele>654.2</ele>
        <time>2014-05-04T09:53:23Z</time>
      </trkpt>
      <trkpt lat="47.15704" lon="6.37428">
        <ele>654.2</ele>
        <time>2014-05-04T09:53:25Z</time>
      </trkpt>
      <trkpt lat="47.15713" lon="6.37428">
        <ele>653.8</ele>
        <time>2014-05-04T09:53:27Z</time>
      </trkpt>
      <trkpt lat="47.15723" lon="6.37428">
        <ele>653.6</ele>
        <time>2014-05-04T09:53:29Z</time>
      </trkpt>
      <trkpt lat="47.15734" lon="6.37428">
        <ele>653.4</ele>
        <time>2014-05-04T09:53:31Z</time>
      </trkpt>
      <trkpt lat="47.15754" lon="6.37429">
        <ele>653</ele>
        <time>2014-05-04T09:53:35Z</time>
      </trkpt>
      <trkpt lat="47.15765" lon="6.37427">
        <ele>653</ele>
        <time>2014-05-04T09:53:37Z</time>
      </trkpt>
      <trkpt lat="47.15777" lon="6.37425">
        <ele>652.8</ele>
        <time>2014-05-04T09:53:39Z</time>
      </trkpt>
      <trkpt lat="47.15788" lon="6.37423">
        <ele>652.7</ele>
        <time>2014-05-04T09:53:41Z</time>
      </trkpt>
      <trkpt lat="47.15799" lon="6.3742">
        <ele>652.5</ele>
        <time>2014-05-04T09:53:43Z</time>
      </trkpt>
      <trkpt lat="47.15815" lon="6.37418">
        <ele>652.3</ele>
        <time>2014-05-04T09:53:45Z</time>
      </trkpt>
      <trkpt lat="47.15827" lon="6.37416">
        <ele>651.9</ele>
        <time>2014-05-04T09:53:47Z</time>
      </trkpt>
      <trkpt lat="47.15836" lon="6.37412">
        <ele>651.4</ele>
        <time>2014-05-04T09:53:49Z</time>
      </trkpt>
      <trkpt lat="47.15847" lon="6.37408">
        <ele>650.9</ele>
        <time>2014-05-04T09:53:52Z</time>
      </trkpt>
      <trkpt lat="47.15859" lon="6.37408">
        <ele>650.5</ele>
        <time>2014-05-04T09:53:55Z</time>
      </trkpt>
      <trkpt lat="47.15871" lon="6.3741">
        <ele>650.4</ele>
        <time>2014-05-04T09:53:58Z</time>
      </trkpt>
      <trkpt lat="47.1588" lon="6.3741">
        <ele>650.2</ele>
        <time>2014-05-04T09:54:00Z</time>
      </trkpt>
      <trkpt lat="47.15889" lon="6.37405">
        <ele>650.3</ele>
        <time>2014-05-04T09:54:02Z</time>
      </trkpt>
      <trkpt lat="47.15902" lon="6.37401">
        <ele>650.9</ele>
        <time>2014-05-04T09:54:05Z</time>
      </trkpt>
      <trkpt lat="47.15911" lon="6.374">
        <ele>650.9</ele>
        <time>2014-05-04T09:54:07Z</time>
      </trkpt>
      <trkpt lat="47.1592" lon="6.37399">
        <ele>650.8</ele>
        <time>2014-05-04T09:54:09Z</time>
      </trkpt>
      <trkpt lat="47.15929" lon="6.37396">
        <ele>651</ele>
        <time>2014-05-04T09:54:11Z</time>
      </trkpt>
      <trkpt lat="47.15939" lon="6.37394">
        <ele>651.3</ele>
        <time>2014-05-04T09:54:13Z</time>
      </trkpt>
      <trkpt lat="47.1595" lon="6.37392">
        <ele>651.4</ele>
        <time>2014-05-04T09:54:15Z</time>
      </trkpt>
      <trkpt lat="47.1596" lon="6.3739">
        <ele>651.3</ele>
        <time>2014-05-04T09:54:17Z</time>
      </trkpt>
      <trkpt lat="47.15969" lon="6.3739">
        <ele>651.1</ele>
        <time>2014-05-04T09:54:19Z</time>
      </trkpt>
      <trkpt lat="47.15978" lon="6.3739">
        <ele>650.9</ele>
        <time>2014-05-04T09:54:21Z</time>
      </trkpt>
      <trkpt lat="47.15991" lon="6.3739">
        <ele>650.9</ele>
        <time>2014-05-04T09:54:24Z</time>
      </trkpt>
      <trkpt lat="47.16003" lon="6.37392">
        <ele>651.2</ele>
        <time>2014-05-04T09:54:27Z</time>
      </trkpt>
      <trkpt lat="47.16015" lon="6.37395">
        <ele>651.3</ele>
        <time>2014-05-04T09:54:30Z</time>
      </trkpt>
      <trkpt lat="47.16027" lon="6.37398">
        <ele>651.5</ele>
        <time>2014-05-04T09:54:33Z</time>
      </trkpt>
      <trkpt lat="47.1605" lon="6.37404">
        <ele>651.7</ele>
        <time>2014-05-04T09:54:39Z</time>
      </trkpt>
      <trkpt lat="47.16061" lon="6.37403">
        <ele>650.8</ele>
        <time>2014-05-04T09:54:43Z</time>
      </trkpt>
      <trkpt lat="47.16066" lon="6.37391">
        <ele>649.6</ele>
        <time>2014-05-04T09:54:48Z</time>
      </trkpt>
      <trkpt lat="47.1606" lon="6.37375">
        <ele>648.9</ele>
        <time>2014-05-04T09:54:52Z</time>
      </trkpt>
      <trkpt lat="47.1605" lon="6.37362">
        <ele>648.6</ele>
        <time>2014-05-04T09:54:55Z</time>
      </trkpt>
      <trkpt lat="47.16044" lon="6.37353">
        <ele>648.4</ele>
        <time>2014-05-04T09:54:57Z</time>
      </trkpt>
      <trkpt lat="47.16037" lon="6.37343">
        <ele>648.2</ele>
        <time>2014-05-04T09:54:59Z</time>
      </trkpt>
      <trkpt lat="47.16028" lon="6.37334">
        <ele>647.6</ele>
        <time>2014-05-04T09:55:01Z</time>
      </trkpt>
      <trkpt lat="47.16019" lon="6.37324">
        <ele>647.2</ele>
        <time>2014-05-04T09:55:03Z</time>
      </trkpt>
      <trkpt lat="47.1601" lon="6.37313">
        <ele>646.5</ele>
        <time>2014-05-04T09:55:05Z</time>
      </trkpt>
      <trkpt lat="47.16003" lon="6.37298">
        <ele>646.4</ele>
        <time>2014-05-04T09:55:07Z</time>
      </trkpt>
      <trkpt lat="47.15996" lon="6.37283">
        <ele>646</ele>
        <time>2014-05-04T09:55:09Z</time>
      </trkpt>
      <trkpt lat="47.1599" lon="6.37267">
        <ele>645.6</ele>
        <time>2014-05-04T09:55:11Z</time>
      </trkpt>
      <trkpt lat="47.15985" lon="6.3725">
        <ele>645.2</ele>
        <time>2014-05-04T09:55:13Z</time>
      </trkpt>
      <trkpt lat="47.15981" lon="6.37234">
        <ele>644.9</ele>
        <time>2014-05-04T09:55:15Z</time>
      </trkpt>
      <trkpt lat="47.15979" lon="6.37219">
        <ele>644.8</ele>
        <time>2014-05-04T09:55:17Z</time>
      </trkpt>
      <trkpt lat="47.15977" lon="6.37205">
        <ele>644.7</ele>
        <time>2014-05-04T09:55:19Z</time>
      </trkpt>
      <trkpt lat="47.15976" lon="6.37191">
        <ele>644.4</ele>
        <time>2014-05-04T09:55:22Z</time>
      </trkpt>
      <trkpt lat="47.15974" lon="6.37176">
        <ele>644.7</ele>
        <time>2014-05-04T09:55:26Z</time>
      </trkpt>
      <trkpt lat="47.15974" lon="6.37158">
        <ele>645.2</ele>
        <time>2014-05-04T09:55:30Z</time>
      </trkpt>
      <trkpt lat="47.15974" lon="6.37143">
        <ele>645.4</ele>
        <time>2014-05-04T09:55:33Z</time>
      </trkpt>
      <trkpt lat="47.15972" lon="6.37129">
        <ele>645.8</ele>
        <time>2014-05-04T09:55:36Z</time>
      </trkpt>
      <trkpt lat="47.15959" lon="6.37117">
        <ele>646.1</ele>
        <time>2014-05-04T09:55:46Z</time>
      </trkpt>
      <trkpt lat="47.15949" lon="6.37119">
        <ele>646.6</ele>
        <time>2014-05-04T09:55:54Z</time>
      </trkpt>
      <trkpt lat="47.15939" lon="6.3712">
        <ele>648.8</ele>
        <time>2014-05-04T09:56:09Z</time>
      </trkpt>
      <trkpt lat="47.15928" lon="6.37121">
        <ele>649.3</ele>
        <time>2014-05-04T09:56:15Z</time>
      </trkpt>
      <trkpt lat="47.15919" lon="6.37124">
        <ele>649.2</ele>
        <time>2014-05-04T09:56:19Z</time>
      </trkpt>
      <trkpt lat="47.15907" lon="6.37129">
        <ele>649.6</ele>
        <time>2014-05-04T09:56:22Z</time>
      </trkpt>
      <trkpt lat="47.15899" lon="6.37134">
        <ele>649.9</ele>
        <time>2014-05-04T09:56:26Z</time>
      </trkpt>
      <trkpt lat="47.15889" lon="6.37139">
        <ele>649.7</ele>
        <time>2014-05-04T09:56:32Z</time>
      </trkpt>
      <trkpt lat="47.15879" lon="6.37145">
        <ele>650</ele>
        <time>2014-05-04T09:56:39Z</time>
      </trkpt>
      <trkpt lat="47.15858" lon="6.3715">
        <ele>649.4</ele>
        <time>2014-05-04T09:56:48Z</time>
      </trkpt>
      <trkpt lat="47.15847" lon="6.37153">
        <ele>649.6</ele>
        <time>2014-05-04T09:56:53Z</time>
      </trkpt>
      <trkpt lat="47.15838" lon="6.37158">
        <ele>650</ele>
        <time>2014-05-04T09:56:59Z</time>
      </trkpt>
      <trkpt lat="47.15828" lon="6.3716">
        <ele>651.1</ele>
        <time>2014-05-04T09:57:04Z</time>
      </trkpt>
      <trkpt lat="47.15818" lon="6.37163">
        <ele>651.9</ele>
        <time>2014-05-04T09:57:09Z</time>
      </trkpt>
      <trkpt lat="47.15807" lon="6.37167">
        <ele>652.5</ele>
        <time>2014-05-04T09:57:14Z</time>
      </trkpt>
      <trkpt lat="47.15798" lon="6.37173">
        <ele>653.1</ele>
        <time>2014-05-04T09:57:17Z</time>
      </trkpt>
      <trkpt lat="47.1579" lon="6.3718">
        <ele>653.2</ele>
        <time>2014-05-04T09:57:20Z</time>
      </trkpt>
      <trkpt lat="47.15781" lon="6.37186">
        <ele>652.5</ele>
        <time>2014-05-04T09:57:22Z</time>
      </trkpt>
      <trkpt lat="47.15772" lon="6.37194">
        <ele>652.3</ele>
        <time>2014-05-04T09:57:24Z</time>
      </trkpt>
      <trkpt lat="47.15761" lon="6.37196">
        <ele>652.4</ele>
        <time>2014-05-04T09:57:26Z</time>
      </trkpt>
      <trkpt lat="47.1575" lon="6.37201">
        <ele>652.4</ele>
        <time>2014-05-04T09:57:29Z</time>
      </trkpt>
      <trkpt lat="47.15741" lon="6.37209">
        <ele>653.2</ele>
        <time>2014-05-04T09:57:33Z</time>
      </trkpt>
      <trkpt lat="47.15733" lon="6.37219">
        <ele>654</ele>
        <time>2014-05-04T09:57:38Z</time>
      </trkpt>
      <trkpt lat="47.15726" lon="6.37228">
        <ele>653.9</ele>
        <time>2014-05-04T09:57:42Z</time>
      </trkpt>
      <trkpt lat="47.15717" lon="6.37249">
        <ele>654.4</ele>
        <time>2014-05-04T09:57:54Z</time>
      </trkpt>
      <trkpt lat="47.15708" lon="6.37254">
        <ele>658</ele>
        <time>2014-05-04T09:58:28Z</time>
      </trkpt>
      <trkpt lat="47.15696" lon="6.37219">
        <ele>674</ele>
        <time>2014-05-04T10:00:32Z</time>
      </trkpt>
      <trkpt lat="47.15677" lon="6.37192">
        <ele>675.3</ele>
        <time>2014-05-04T10:00:41Z</time>
      </trkpt>
      <trkpt lat="47.15668" lon="6.37183">
        <ele>675.8</ele>
        <time>2014-05-04T10:00:45Z</time>
      </trkpt>
      <trkpt lat="47.15638" lon="6.37151">
        <ele>676</ele>
        <time>2014-05-04T10:00:55Z</time>
      </trkpt>
      <trkpt lat="47.15626" lon="6.37139">
        <ele>676.4</ele>
        <time>2014-05-04T10:01:00Z</time>
      </trkpt>
      <trkpt lat="47.1562" lon="6.37129">
        <ele>676.9</ele>
        <time>2014-05-04T10:01:05Z</time>
      </trkpt>
      <trkpt lat="47.15613" lon="6.37119">
        <ele>677.3</ele>
        <time>2014-05-04T10:01:11Z</time>
      </trkpt>
      <trkpt lat="47.15608" lon="6.37108">
        <ele>677.8</ele>
        <time>2014-05-04T10:01:18Z</time>
      </trkpt>
      <trkpt lat="47.15601" lon="6.37098">
        <ele>679</ele>
        <time>2014-05-04T10:01:56Z</time>
      </trkpt>
      <trkpt lat="47.15592" lon="6.37072">
        <ele>680.9</ele>
        <time>2014-05-04T10:02:15Z</time>
      </trkpt>
      <trkpt lat="47.15588" lon="6.37059">
        <ele>681.8</ele>
        <time>2014-05-04T10:02:25Z</time>
      </trkpt>
      <trkpt lat="47.15584" lon="6.37046">
        <ele>682.9</ele>
        <time>2014-05-04T10:02:34Z</time>
      </trkpt>
      <trkpt lat="47.15584" lon="6.37033">
        <ele>684.6</ele>
        <time>2014-05-04T10:02:43Z</time>
      </trkpt>
      <trkpt lat="47.1558" lon="6.37021">
        <ele>685.3</ele>
        <time>2014-05-04T10:02:56Z</time>
      </trkpt>
      <trkpt lat="47.15575" lon="6.37009">
        <ele>687</ele>
        <time>2014-05-04T10:03:07Z</time>
      </trkpt>
      <trkpt lat="47.15577" lon="6.36981">
        <ele>689.6</ele>
        <time>2014-05-04T10:03:29Z</time>
      </trkpt>
      <trkpt lat="47.15576" lon="6.36967">
        <ele>689.8</ele>
        <time>2014-05-04T10:03:35Z</time>
      </trkpt>
      <trkpt lat="47.15572" lon="6.36955">
        <ele>690.8</ele>
        <time>2014-05-04T10:03:43Z</time>
      </trkpt>
      <trkpt lat="47.15574" lon="6.36939">
        <ele>691.4</ele>
        <time>2014-05-04T10:03:47Z</time>
      </trkpt>
      <trkpt lat="47.15571" lon="6.36924">
        <ele>692.1</ele>
        <time>2014-05-04T10:03:51Z</time>
      </trkpt>
      <trkpt lat="47.15566" lon="6.36912">
        <ele>692.6</ele>
        <time>2014-05-04T10:03:57Z</time>
      </trkpt>
      <trkpt lat="47.15559" lon="6.36903">
        <ele>693.4</ele>
        <time>2014-05-04T10:04:04Z</time>
      </trkpt>
      <trkpt lat="47.15554" lon="6.3689">
        <ele>694.1</ele>
        <time>2014-05-04T10:04:11Z</time>
      </trkpt>
      <trkpt lat="47.15546" lon="6.36866">
        <ele>696.9</ele>
        <time>2014-05-04T10:04:31Z</time>
      </trkpt>
      <trkpt lat="47.15538" lon="6.36856">
        <ele>697.9</ele>
        <time>2014-05-04T10:04:41Z</time>
      </trkpt>
      <trkpt lat="47.15533" lon="6.36844">
        <ele>698.4</ele>
        <time>2014-05-04T10:04:50Z</time>
      </trkpt>
      <trkpt lat="47.1553" lon="6.36831">
        <ele>699.4</ele>
        <time>2014-05-04T10:04:59Z</time>
      </trkpt>
      <trkpt lat="47.15528" lon="6.36816">
        <ele>700.7</ele>
        <time>2014-05-04T10:05:08Z</time>
      </trkpt>
      <trkpt lat="47.15525" lon="6.36803">
        <ele>702.4</ele>
        <time>2014-05-04T10:05:22Z</time>
      </trkpt>
      <trkpt lat="47.15523" lon="6.36773">
        <ele>703.2</ele>
        <time>2014-05-04T10:05:36Z</time>
      </trkpt>
      <trkpt lat="47.1552" lon="6.36759">
        <ele>703.7</ele>
        <time>2014-05-04T10:05:44Z</time>
      </trkpt>
      <trkpt lat="47.15518" lon="6.36745">
        <ele>704</ele>
        <time>2014-05-04T10:05:50Z</time>
      </trkpt>
      <trkpt lat="47.15514" lon="6.36732">
        <ele>704.1</ele>
        <time>2014-05-04T10:05:55Z</time>
      </trkpt>
      <trkpt lat="47.15514" lon="6.36718">
        <ele>703.8</ele>
        <time>2014-05-04T10:06:00Z</time>
      </trkpt>
      <trkpt lat="47.15513" lon="6.36701">
        <ele>703.6</ele>
        <time>2014-05-04T10:06:05Z</time>
      </trkpt>
      <trkpt lat="47.15512" lon="6.36688">
        <ele>703.7</ele>
        <time>2014-05-04T10:06:09Z</time>
      </trkpt>
      <trkpt lat="47.15503" lon="6.36682">
        <ele>704.4</ele>
        <time>2014-05-04T10:06:15Z</time>
      </trkpt>
      <trkpt lat="47.15497" lon="6.3667">
        <ele>705.6</ele>
        <time>2014-05-04T10:06:28Z</time>
      </trkpt>
      <trkpt lat="47.15494" lon="6.36644">
        <ele>707.4</ele>
        <time>2014-05-04T10:06:53Z</time>
      </trkpt>
      <trkpt lat="47.1549" lon="6.36631">
        <ele>707.6</ele>
        <time>2014-05-04T10:07:23Z</time>
      </trkpt>
      <trkpt lat="47.15492" lon="6.36617">
        <ele>707.9</ele>
        <time>2014-05-04T10:07:33Z</time>
      </trkpt>
      <trkpt lat="47.15494" lon="6.36588">
        <ele>708.1</ele>
        <time>2014-05-04T10:07:45Z</time>
      </trkpt>
      <trkpt lat="47.15494" lon="6.36571">
        <ele>708</ele>
        <time>2014-05-04T10:07:50Z</time>
      </trkpt>
      <trkpt lat="47.15492" lon="6.36556">
        <ele>708</ele>
        <time>2014-05-04T10:07:54Z</time>
      </trkpt>
      <trkpt lat="47.15493" lon="6.36543">
        <ele>708.6</ele>
        <time>2014-05-04T10:07:57Z</time>
      </trkpt>
      <trkpt lat="47.15491" lon="6.3653">
        <ele>708.4</ele>
        <time>2014-05-04T10:08:01Z</time>
      </trkpt>
      <trkpt lat="47.15488" lon="6.36515">
        <ele>708.3</ele>
        <time>2014-05-04T10:08:05Z</time>
      </trkpt>
      <trkpt lat="47.15482" lon="6.365">
        <ele>708.5</ele>
        <time>2014-05-04T10:08:09Z</time>
      </trkpt>
      <trkpt lat="47.15476" lon="6.36488">
        <ele>708.2</ele>
        <time>2014-05-04T10:08:12Z</time>
      </trkpt>
      <trkpt lat="47.1547" lon="6.36476">
        <ele>708.1</ele>
        <time>2014-05-04T10:08:15Z</time>
      </trkpt>
      <trkpt lat="47.15462" lon="6.36466">
        <ele>707.8</ele>
        <time>2014-05-04T10:08:18Z</time>
      </trkpt>
      <trkpt lat="47.15453" lon="6.36454">
        <ele>707.7</ele>
        <time>2014-05-04T10:08:21Z</time>
      </trkpt>
      <trkpt lat="47.15445" lon="6.3644">
        <ele>707.3</ele>
        <time>2014-05-04T10:08:24Z</time>
      </trkpt>
      <trkpt lat="47.15438" lon="6.36428">
        <ele>706.2</ele>
        <time>2014-05-04T10:08:27Z</time>
      </trkpt>
      <trkpt lat="47.15429" lon="6.36416">
        <ele>706</ele>
        <time>2014-05-04T10:08:29Z</time>
      </trkpt>
      <trkpt lat="47.15423" lon="6.36402">
        <ele>705.8</ele>
        <time>2014-05-04T10:08:32Z</time>
      </trkpt>
      <trkpt lat="47.15416" lon="6.36386">
        <ele>704.9</ele>
        <time>2014-05-04T10:08:35Z</time>
      </trkpt>
      <trkpt lat="47.154" lon="6.36362">
        <ele>703.1</ele>
        <time>2014-05-04T10:08:42Z</time>
      </trkpt>
      <trkpt lat="47.15391" lon="6.36357">
        <ele>702.7</ele>
        <time>2014-05-04T10:08:46Z</time>
      </trkpt>
      <trkpt lat="47.1538" lon="6.36357">
        <ele>703.3</ele>
        <time>2014-05-04T10:08:51Z</time>
      </trkpt>
      <trkpt lat="47.15371" lon="6.36361">
        <ele>703.7</ele>
        <time>2014-05-04T10:08:55Z</time>
      </trkpt>
      <trkpt lat="47.15361" lon="6.36367">
        <ele>703.7</ele>
        <time>2014-05-04T10:08:59Z</time>
      </trkpt>
      <trkpt lat="47.15353" lon="6.36376">
        <ele>704</ele>
        <time>2014-05-04T10:09:04Z</time>
      </trkpt>
      <trkpt lat="47.15348" lon="6.36388">
        <ele>704.7</ele>
        <time>2014-05-04T10:09:12Z</time>
      </trkpt>
      <trkpt lat="47.15339" lon="6.36391">
        <ele>705.1</ele>
        <time>2014-05-04T10:09:27Z</time>
      </trkpt>
      <trkpt lat="47.15327" lon="6.36387">
        <ele>704.3</ele>
        <time>2014-05-04T10:09:31Z</time>
      </trkpt>
      <trkpt lat="47.15316" lon="6.36383">
        <ele>703.5</ele>
        <time>2014-05-04T10:09:34Z</time>
      </trkpt>
      <trkpt lat="47.15315" lon="6.36366">
        <ele>702.3</ele>
        <time>2014-05-04T10:09:39Z</time>
      </trkpt>
      <trkpt lat="47.153" lon="6.36346">
        <ele>701.6</ele>
        <time>2014-05-04T10:09:45Z</time>
      </trkpt>
      <trkpt lat="47.15292" lon="6.36335">
        <ele>702</ele>
        <time>2014-05-04T10:09:49Z</time>
      </trkpt>
      <trkpt lat="47.15286" lon="6.36321">
        <ele>702.8</ele>
        <time>2014-05-04T10:09:54Z</time>
      </trkpt>
      <trkpt lat="47.15281" lon="6.36307">
        <ele>702.8</ele>
        <time>2014-05-04T10:09:59Z</time>
      </trkpt>
      <trkpt lat="47.1528" lon="6.36293">
        <ele>702.9</ele>
        <time>2014-05-04T10:10:02Z</time>
      </trkpt>
      <trkpt lat="47.15281" lon="6.36274">
        <ele>702.6</ele>
        <time>2014-05-04T10:10:05Z</time>
      </trkpt>
      <trkpt lat="47.15281" lon="6.36257">
        <ele>701.9</ele>
        <time>2014-05-04T10:10:08Z</time>
      </trkpt>
      <trkpt lat="47.15282" lon="6.36242">
        <ele>702.9</ele>
        <time>2014-05-04T10:10:12Z</time>
      </trkpt>
      <trkpt lat="47.15281" lon="6.36225">
        <ele>703.3</ele>
        <time>2014-05-04T10:10:17Z</time>
      </trkpt>
      <trkpt lat="47.1528" lon="6.36211">
        <ele>703.8</ele>
        <time>2014-05-04T10:10:21Z</time>
      </trkpt>
      <trkpt lat="47.1528" lon="6.36193">
        <ele>704.4</ele>
        <time>2014-05-04T10:10:25Z</time>
      </trkpt>
      <trkpt lat="47.1528" lon="6.36178">
        <ele>705</ele>
        <time>2014-05-04T10:10:29Z</time>
      </trkpt>
      <trkpt lat="47.15277" lon="6.36162">
        <ele>705.4</ele>
        <time>2014-05-04T10:10:32Z</time>
      </trkpt>
      <trkpt lat="47.15273" lon="6.36148">
        <ele>705.3</ele>
        <time>2014-05-04T10:10:34Z</time>
      </trkpt>
      <trkpt lat="47.1527" lon="6.36134">
        <ele>705.4</ele>
        <time>2014-05-04T10:10:38Z</time>
      </trkpt>
      <trkpt lat="47.15267" lon="6.3612">
        <ele>705</ele>
        <time>2014-05-04T10:10:43Z</time>
      </trkpt>
      <trkpt lat="47.15256" lon="6.36096">
        <ele>705.1</ele>
        <time>2014-05-04T10:10:50Z</time>
      </trkpt>
      <trkpt lat="47.1525" lon="6.36085">
        <ele>704.6</ele>
        <time>2014-05-04T10:10:53Z</time>
      </trkpt>
      <trkpt lat="47.15245" lon="6.36074">
        <ele>704.7</ele>
        <time>2014-05-04T10:10:56Z</time>
      </trkpt>
      <trkpt lat="47.1524" lon="6.36061">
        <ele>704.7</ele>
        <time>2014-05-04T10:10:59Z</time>
      </trkpt>
      <trkpt lat="47.15235" lon="6.3605">
        <ele>704.4</ele>
        <time>2014-05-04T10:11:01Z</time>
      </trkpt>
      <trkpt lat="47.1523" lon="6.36034">
        <ele>704.1</ele>
        <time>2014-05-04T10:11:03Z</time>
      </trkpt>
      <trkpt lat="47.15222" lon="6.36022">
        <ele>704.1</ele>
        <time>2014-05-04T10:11:05Z</time>
      </trkpt>
      <trkpt lat="47.15216" lon="6.36011">
        <ele>703.9</ele>
        <time>2014-05-04T10:11:07Z</time>
      </trkpt>
      <trkpt lat="47.15211" lon="6.35998">
        <ele>703.5</ele>
        <time>2014-05-04T10:11:09Z</time>
      </trkpt>
      <trkpt lat="47.15206" lon="6.35987">
        <ele>703.1</ele>
        <time>2014-05-04T10:11:11Z</time>
      </trkpt>
      <trkpt lat="47.152" lon="6.35976">
        <ele>702.8</ele>
        <time>2014-05-04T10:11:13Z</time>
      </trkpt>
      <trkpt lat="47.15194" lon="6.35964">
        <ele>702.9</ele>
        <time>2014-05-04T10:11:15Z</time>
      </trkpt>
      <trkpt lat="47.15188" lon="6.35952">
        <ele>702.6</ele>
        <time>2014-05-04T10:11:17Z</time>
      </trkpt>
      <trkpt lat="47.15182" lon="6.3594">
        <ele>702.3</ele>
        <time>2014-05-04T10:11:19Z</time>
      </trkpt>
      <trkpt lat="47.15176" lon="6.35927">
        <ele>702.1</ele>
        <time>2014-05-04T10:11:21Z</time>
      </trkpt>
      <trkpt lat="47.1517" lon="6.35913">
        <ele>701.4</ele>
        <time>2014-05-04T10:11:23Z</time>
      </trkpt>
      <trkpt lat="47.15162" lon="6.359">
        <ele>701</ele>
        <time>2014-05-04T10:11:25Z</time>
      </trkpt>
      <trkpt lat="47.15154" lon="6.35887">
        <ele>700.5</ele>
        <time>2014-05-04T10:11:27Z</time>
      </trkpt>
      <trkpt lat="47.15146" lon="6.35875">
        <ele>700.5</ele>
        <time>2014-05-04T10:11:29Z</time>
      </trkpt>
      <trkpt lat="47.15139" lon="6.35864">
        <ele>700.3</ele>
        <time>2014-05-04T10:11:31Z</time>
      </trkpt>
      <trkpt lat="47.1513" lon="6.35856">
        <ele>700.4</ele>
        <time>2014-05-04T10:11:33Z</time>
      </trkpt>
      <trkpt lat="47.15121" lon="6.35848">
        <ele>700.6</ele>
        <time>2014-05-04T10:11:35Z</time>
      </trkpt>
      <trkpt lat="47.15112" lon="6.3584">
        <ele>700.4</ele>
        <time>2014-05-04T10:11:37Z</time>
      </trkpt>
      <trkpt lat="47.15104" lon="6.35832">
        <ele>700.2</ele>
        <time>2014-05-04T10:11:39Z</time>
      </trkpt>
      <trkpt lat="47.15095" lon="6.35824">
        <ele>700.1</ele>
        <time>2014-05-04T10:11:41Z</time>
      </trkpt>
      <trkpt lat="47.15086" lon="6.35815">
        <ele>700.2</ele>
        <time>2014-05-04T10:11:43Z</time>
      </trkpt>
      <trkpt lat="47.15077" lon="6.35806">
        <ele>700</ele>
        <time>2014-05-04T10:11:45Z</time>
      </trkpt>
      <trkpt lat="47.15059" lon="6.35785">
        <ele>699.4</ele>
        <time>2014-05-04T10:11:49Z</time>
      </trkpt>
      <trkpt lat="47.1505" lon="6.35775">
        <ele>699.1</ele>
        <time>2014-05-04T10:11:51Z</time>
      </trkpt>
      <trkpt lat="47.15041" lon="6.35764">
        <ele>699.1</ele>
        <time>2014-05-04T10:11:53Z</time>
      </trkpt>
      <trkpt lat="47.15032" lon="6.35753">
        <ele>699</ele>
        <time>2014-05-04T10:11:55Z</time>
      </trkpt>
      <trkpt lat="47.15025" lon="6.35742">
        <ele>698.7</ele>
        <time>2014-05-04T10:11:57Z</time>
      </trkpt>
      <trkpt lat="47.15017" lon="6.35732">
        <ele>698.7</ele>
        <time>2014-05-04T10:11:59Z</time>
      </trkpt>
      <trkpt lat="47.1501" lon="6.35721">
        <ele>698.8</ele>
        <time>2014-05-04T10:12:01Z</time>
      </trkpt>
      <trkpt lat="47.1501" lon="6.35702">
        <ele>698.4</ele>
        <time>2014-05-04T10:12:04Z</time>
      </trkpt>
      <trkpt lat="47.15018" lon="6.3569">
        <ele>698.3</ele>
        <time>2014-05-04T10:12:06Z</time>
      </trkpt>
      <trkpt lat="47.15026" lon="6.35678">
        <ele>697.8</ele>
        <time>2014-05-04T10:12:08Z</time>
      </trkpt>
      <trkpt lat="47.15035" lon="6.35663">
        <ele>697.6</ele>
        <time>2014-05-04T10:12:10Z</time>
      </trkpt>
      <trkpt lat="47.15044" lon="6.35648">
        <ele>697.1</ele>
        <time>2014-05-04T10:12:12Z</time>
      </trkpt>
      <trkpt lat="47.15054" lon="6.35633">
        <ele>696.5</ele>
        <time>2014-05-04T10:12:14Z</time>
      </trkpt>
      <trkpt lat="47.15065" lon="6.35617">
        <ele>695.9</ele>
        <time>2014-05-04T10:12:16Z</time>
      </trkpt>
      <trkpt lat="47.15075" lon="6.35601">
        <ele>695.3</ele>
        <time>2014-05-04T10:12:18Z</time>
      </trkpt>
      <trkpt lat="47.15085" lon="6.35586">
        <ele>695</ele>
        <time>2014-05-04T10:12:20Z</time>
      </trkpt>
      <trkpt lat="47.15094" lon="6.35569">
        <ele>694.4</ele>
        <time>2014-05-04T10:12:22Z</time>
      </trkpt>
      <trkpt lat="47.15102" lon="6.3555">
        <ele>693.9</ele>
        <time>2014-05-04T10:12:24Z</time>
      </trkpt>
      <trkpt lat="47.15111" lon="6.35529">
        <ele>693.5</ele>
        <time>2014-05-04T10:12:26Z</time>
      </trkpt>
      <trkpt lat="47.1512" lon="6.35508">
        <ele>693.5</ele>
        <time>2014-05-04T10:12:28Z</time>
      </trkpt>
      <trkpt lat="47.15128" lon="6.35487">
        <ele>693.4</ele>
        <time>2014-05-04T10:12:30Z</time>
      </trkpt>
      <trkpt lat="47.15132" lon="6.35466">
        <ele>692.6</ele>
        <time>2014-05-04T10:12:32Z</time>
      </trkpt>
      <trkpt lat="47.15134" lon="6.35446">
        <ele>692.4</ele>
        <time>2014-05-04T10:12:34Z</time>
      </trkpt>
      <trkpt lat="47.15133" lon="6.35425">
        <ele>692.2</ele>
        <time>2014-05-04T10:12:36Z</time>
      </trkpt>
      <trkpt lat="47.15133" lon="6.35403">
        <ele>691.8</ele>
        <time>2014-05-04T10:12:38Z</time>
      </trkpt>
      <trkpt lat="47.15135" lon="6.35382">
        <ele>691.5</ele>
        <time>2014-05-04T10:12:40Z</time>
      </trkpt>
      <trkpt lat="47.1514" lon="6.35365">
        <ele>691.3</ele>
        <time>2014-05-04T10:12:42Z</time>
      </trkpt>
      <trkpt lat="47.15148" lon="6.35351">
        <ele>691.3</ele>
        <time>2014-05-04T10:12:44Z</time>
      </trkpt>
      <trkpt lat="47.15152" lon="6.35339">
        <ele>691.4</ele>
        <time>2014-05-04T10:12:46Z</time>
      </trkpt>
      <trkpt lat="47.15148" lon="6.35305">
        <ele>691.9</ele>
        <time>2014-05-04T10:12:52Z</time>
      </trkpt>
      <trkpt lat="47.15145" lon="6.3529">
        <ele>692.3</ele>
        <time>2014-05-04T10:12:55Z</time>
      </trkpt>
      <trkpt lat="47.15142" lon="6.35273">
        <ele>692.4</ele>
        <time>2014-05-04T10:12:58Z</time>
      </trkpt>
      <trkpt lat="47.15139" lon="6.35254">
        <ele>692.8</ele>
        <time>2014-05-04T10:13:01Z</time>
      </trkpt>
      <trkpt lat="47.15137" lon="6.35236">
        <ele>693.2</ele>
        <time>2014-05-04T10:13:04Z</time>
      </trkpt>
      <trkpt lat="47.15139" lon="6.35218">
        <ele>693.4</ele>
        <time>2014-05-04T10:13:07Z</time>
      </trkpt>
      <trkpt lat="47.15146" lon="6.35209">
        <ele>694.1</ele>
        <time>2014-05-04T10:13:10Z</time>
      </trkpt>
      <trkpt lat="47.15158" lon="6.35211">
        <ele>693.6</ele>
        <time>2014-05-04T10:13:14Z</time>
      </trkpt>
      <trkpt lat="47.15169" lon="6.35214">
        <ele>693</ele>
        <time>2014-05-04T10:13:17Z</time>
      </trkpt>
      <trkpt lat="47.15182" lon="6.35218">
        <ele>692.6</ele>
        <time>2014-05-04T10:13:20Z</time>
      </trkpt>
      <trkpt lat="47.15193" lon="6.3522">
        <ele>691.7</ele>
        <time>2014-05-04T10:13:23Z</time>
      </trkpt>
      <trkpt lat="47.15203" lon="6.3522">
        <ele>691.5</ele>
        <time>2014-05-04T10:13:26Z</time>
      </trkpt>
      <trkpt lat="47.1521" lon="6.35229">
        <ele>690.6</ele>
        <time>2014-05-04T10:13:30Z</time>
      </trkpt>
      <trkpt lat="47.15202" lon="6.35237">
        <ele>691.3</ele>
        <time>2014-05-04T10:13:36Z</time>
      </trkpt>
      <trkpt lat="47.15193" lon="6.35247">
        <ele>691.7</ele>
        <time>2014-05-04T10:13:42Z</time>
      </trkpt>
      <trkpt lat="47.15183" lon="6.35251">
        <ele>691.7</ele>
        <time>2014-05-04T10:13:46Z</time>
      </trkpt>
      <trkpt lat="47.15174" lon="6.35254">
        <ele>691.7</ele>
        <time>2014-05-04T10:13:51Z</time>
      </trkpt>
      <trkpt lat="47.15159" lon="6.35276">
        <ele>696.7</ele>
        <time>2014-05-04T10:17:33Z</time>
      </trkpt>
      <trkpt lat="47.15177" lon="6.35285">
        <ele>696.7</ele>
        <time>2014-05-04T10:17:49Z</time>
      </trkpt>
      <trkpt lat="47.15187" lon="6.35284">
        <ele>696.9</ele>
        <time>2014-05-04T10:17:56Z</time>
      </trkpt>
      <trkpt lat="47.15195" lon="6.3528">
        <ele>696.2</ele>
        <time>2014-05-04T10:18:03Z</time>
      </trkpt>
      <trkpt lat="47.15204" lon="6.3527">
        <ele>696.1</ele>
        <time>2014-05-04T10:18:14Z</time>
      </trkpt>
      <trkpt lat="47.15213" lon="6.35267">
        <ele>695.2</ele>
        <time>2014-05-04T10:18:20Z</time>
      </trkpt>
      <trkpt lat="47.15222" lon="6.35267">
        <ele>695.6</ele>
        <time>2014-05-04T10:18:28Z</time>
      </trkpt>
      <trkpt lat="47.15232" lon="6.35266">
        <ele>695.1</ele>
        <time>2014-05-04T10:18:36Z</time>
      </trkpt>
    </trkseg>
  </trk>
</gpx>